<gpx xmlns="http://www.topografix.com/GPX/1/1" xmlns:xsi="http://www.w3.org/2001/XMLSchema-instance" version="1.1" xsi:schemaLocation="http://www.topografix.com/GPX/1/1 http://www.topografix.com/GPX/1/1/gpx.xsd" creator="MotionXGPSFull 24.1 Build 5049R64">
<trk>
<name>Marno's Run 2-1-16</name>
<desc>2 Jan 2016  2:46 pm</desc>
<trkseg>
<trkpt lat="-27.3567813" lon="152.9565324">
<ele>46.131</ele>
<time>2016-01-02T04:46:09.846Z</time>
</trkpt>
<trkpt lat="-27.3562764" lon="152.9568762">
<ele>46.098</ele>
<time>2016-01-02T04:46:29.822Z</time>
</trkpt>
<trkpt lat="-27.3560670" lon="152.9570047">
<ele>42.952</ele>
<time>2016-01-02T04:46:37.892Z</time>
</trkpt>
<trkpt lat="-27.3559160" lon="152.9571318">
<ele>34.779</ele>
<time>2016-01-02T04:46:44.272Z</time>
</trkpt>
<trkpt lat="-27.3552598" lon="152.9573181">
<ele>22.478</ele>
<time>2016-01-02T04:47:07.178Z</time>
</trkpt>
<trkpt lat="-27.3551153" lon="152.9573303">
<ele>21.865</ele>
<time>2016-01-02T04:47:12.083Z</time>
</trkpt>
<trkpt lat="-27.3549657" lon="152.9572697">
<ele>22.361</ele>
<time>2016-01-02T04:47:17.462Z</time>
</trkpt>
<trkpt lat="-27.3548972" lon="152.9570104">
<ele>22.535</ele>
<time>2016-01-02T04:47:25.596Z</time>
</trkpt>
<trkpt lat="-27.3548777" lon="152.9565595">
<ele>21.700</ele>
<time>2016-01-02T04:47:39.164Z</time>
</trkpt>
<trkpt lat="-27.3548549" lon="152.9562164">
<ele>19.979</ele>
<time>2016-01-02T04:47:49.506Z</time>
</trkpt>
<trkpt lat="-27.3548539" lon="152.9559662">
<ele>18.431</ele>
<time>2016-01-02T04:47:57.029Z</time>
</trkpt>
<trkpt lat="-27.3548121" lon="152.9557566">
<ele>17.908</ele>
<time>2016-01-02T04:48:03.485Z</time>
</trkpt>
<trkpt lat="-27.3547123" lon="152.9554352">
<ele>18.460</ele>
<time>2016-01-02T04:48:13.720Z</time>
</trkpt>
<trkpt lat="-27.3545932" lon="152.9551914">
<ele>19.727</ele>
<time>2016-01-02T04:48:22.086Z</time>
</trkpt>
<trkpt lat="-27.3544691" lon="152.9550066">
<ele>21.138</ele>
<time>2016-01-02T04:48:29.049Z</time>
</trkpt>
<trkpt lat="-27.3543169" lon="152.9548357">
<ele>22.547</ele>
<time>2016-01-02T04:48:36.323Z</time>
</trkpt>
<trkpt lat="-27.3540199" lon="152.9545770">
<ele>24.125</ele>
<time>2016-01-02T04:48:49.033Z</time>
</trkpt>
<trkpt lat="-27.3537959" lon="152.9544327">
<ele>25.567</ele>
<time>2016-01-02T04:48:57.770Z</time>
</trkpt>
<trkpt lat="-27.3535601" lon="152.9543306">
<ele>26.381</ele>
<time>2016-01-02T04:49:06.317Z</time>
</trkpt>
<trkpt lat="-27.3531907" lon="152.9542500">
<ele>26.438</ele>
<time>2016-01-02T04:49:19.052Z</time>
</trkpt>
<trkpt lat="-27.3529202" lon="152.9542274">
<ele>25.926</ele>
<time>2016-01-02T04:49:28.232Z</time>
</trkpt>
<trkpt lat="-27.3526686" lon="152.9543031">
<ele>25.132</ele>
<time>2016-01-02T04:49:37.045Z</time>
</trkpt>
<trkpt lat="-27.3524618" lon="152.9543746">
<ele>24.253</ele>
<time>2016-01-02T04:49:44.367Z</time>
</trkpt>
<trkpt lat="-27.3522454" lon="152.9544542">
<ele>23.531</ele>
<time>2016-01-02T04:49:52.075Z</time>
</trkpt>
<trkpt lat="-27.3518586" lon="152.9546010">
<ele>23.317</ele>
<time>2016-01-02T04:50:05.890Z</time>
</trkpt>
<trkpt lat="-27.3514683" lon="152.9547564">
<ele>23.850</ele>
<time>2016-01-02T04:50:19.902Z</time>
</trkpt>
<trkpt lat="-27.3510814" lon="152.9549109">
<ele>25.129</ele>
<time>2016-01-02T04:50:29.841Z</time>
</trkpt>
<trkpt lat="-27.3506963" lon="152.9550647">
<ele>26.723</ele>
<time>2016-01-02T04:50:36.621Z</time>
</trkpt>
<trkpt lat="-27.3502813" lon="152.9552305">
<ele>27.806</ele>
<time>2016-01-02T04:50:46.694Z</time>
</trkpt>
<trkpt lat="-27.3499456" lon="152.9553646">
<ele>27.170</ele>
<time>2016-01-02T04:50:52.880Z</time>
</trkpt>
<trkpt lat="-27.3494540" lon="152.9555615">
<ele>24.342</ele>
<time>2016-01-02T04:51:01.233Z</time>
</trkpt>
<trkpt lat="-27.3491836" lon="152.9556777">
<ele>20.544</ele>
<time>2016-01-02T04:51:05.367Z</time>
</trkpt>
<trkpt lat="-27.3488247" lon="152.9559979">
<ele>17.590</ele>
<time>2016-01-02T04:51:11.249Z</time>
</trkpt>
<trkpt lat="-27.3485901" lon="152.9562565">
<ele>16.977</ele>
<time>2016-01-02T04:51:15.612Z</time>
</trkpt>
<trkpt lat="-27.3483576" lon="152.9565081">
<ele>19.031</ele>
<time>2016-01-02T04:51:20.427Z</time>
</trkpt>
<trkpt lat="-27.3480640" lon="152.9568485">
<ele>21.912</ele>
<time>2016-01-02T04:51:26.350Z</time>
</trkpt>
<trkpt lat="-27.3479152" lon="152.9571167">
<ele>23.692</ele>
<time>2016-01-02T04:51:29.774Z</time>
</trkpt>
<trkpt lat="-27.3477721" lon="152.9575608">
<ele>24.136</ele>
<time>2016-01-02T04:51:34.721Z</time>
</trkpt>
<trkpt lat="-27.3477333" lon="152.9578702">
<ele>23.532</ele>
<time>2016-01-02T04:51:38.010Z</time>
</trkpt>
<trkpt lat="-27.3477621" lon="152.9583407">
<ele>21.859</ele>
<time>2016-01-02T04:51:42.787Z</time>
</trkpt>
<trkpt lat="-27.3478064" lon="152.9586545">
<ele>19.092</ele>
<time>2016-01-02T04:51:45.971Z</time>
</trkpt>
<trkpt lat="-27.3478414" lon="152.9589029">
<ele>15.917</ele>
<time>2016-01-02T04:51:48.463Z</time>
</trkpt>
<trkpt lat="-27.3478971" lon="152.9593143">
<ele>13.195</ele>
<time>2016-01-02T04:51:52.390Z</time>
</trkpt>
<trkpt lat="-27.3479490" lon="152.9596305">
<ele>11.095</ele>
<time>2016-01-02T04:51:55.474Z</time>
</trkpt>
<trkpt lat="-27.3480250" lon="152.9600922">
<ele>9.547</ele>
<time>2016-01-02T04:52:00.173Z</time>
</trkpt>
<trkpt lat="-27.3480150" lon="152.9606186">
<ele>8.699</ele>
<time>2016-01-02T04:52:05.548Z</time>
</trkpt>
<trkpt lat="-27.3478661" lon="152.9611011">
<ele>9.107</ele>
<time>2016-01-02T04:52:10.717Z</time>
</trkpt>
<trkpt lat="-27.3477077" lon="152.9613843">
<ele>11.096</ele>
<time>2016-01-02T04:52:14.045Z</time>
</trkpt>
<trkpt lat="-27.3474791" lon="152.9616219">
<ele>13.744</ele>
<time>2016-01-02T04:52:17.611Z</time>
</trkpt>
<trkpt lat="-27.3471441" lon="152.9619866">
<ele>15.746</ele>
<time>2016-01-02T04:52:22.872Z</time>
</trkpt>
<trkpt lat="-27.3468195" lon="152.9623070">
<ele>16.803</ele>
<time>2016-01-02T04:52:27.613Z</time>
</trkpt>
<trkpt lat="-27.3465970" lon="152.9625194">
<ele>17.620</ele>
<time>2016-01-02T04:52:30.792Z</time>
</trkpt>
<trkpt lat="-27.3462853" lon="152.9628136">
<ele>18.820</ele>
<time>2016-01-02T04:52:35.315Z</time>
</trkpt>
<trkpt lat="-27.3460762" lon="152.9629677">
<ele>20.005</ele>
<time>2016-01-02T04:52:38.266Z</time>
</trkpt>
<trkpt lat="-27.3459165" lon="152.9630889">
<ele>20.445</ele>
<time>2016-01-02T04:52:40.874Z</time>
</trkpt>
<trkpt lat="-27.3457217" lon="152.9630847">
<ele>19.535</ele>
<time>2016-01-02T04:52:44.486Z</time>
</trkpt>
<trkpt lat="-27.3456331" lon="152.9630559">
<ele>17.092</ele>
<time>2016-01-02T04:52:48.000Z</time>
</trkpt>
<trkpt lat="-27.3456331" lon="152.9630559">
<ele>14.221</ele>
<time>2016-01-02T04:52:51.000Z</time>
</trkpt>
<trkpt lat="-27.3456331" lon="152.9630559">
<ele>12.639</ele>
<time>2016-01-02T04:52:59.678Z</time>
</trkpt>
<trkpt lat="-27.3454859" lon="152.9629526">
<ele>13.154</ele>
<time>2016-01-02T04:53:05.112Z</time>
</trkpt>
<trkpt lat="-27.3451662" lon="152.9625797">
<ele>15.116</ele>
<time>2016-01-02T04:53:09.573Z</time>
</trkpt>
<trkpt lat="-27.3449525" lon="152.9623217">
<ele>17.186</ele>
<time>2016-01-02T04:53:11.946Z</time>
</trkpt>
<trkpt lat="-27.3445335" lon="152.9619398">
<ele>18.523</ele>
<time>2016-01-02T04:53:15.509Z</time>
</trkpt>
<trkpt lat="-27.3442233" lon="152.9617234">
<ele>18.963</ele>
<time>2016-01-02T04:53:17.645Z</time>
</trkpt>
<trkpt lat="-27.3437190" lon="152.9614640">
<ele>18.719</ele>
<time>2016-01-02T04:53:20.455Z</time>
</trkpt>
<trkpt lat="-27.3433262" lon="152.9613385">
<ele>18.207</ele>
<time>2016-01-02T04:53:22.415Z</time>
</trkpt>
<trkpt lat="-27.3429381" lon="152.9612635">
<ele>17.650</ele>
<time>2016-01-02T04:53:24.309Z</time>
</trkpt>
<trkpt lat="-27.3425479" lon="152.9612165">
<ele>17.106</ele>
<time>2016-01-02T04:53:26.285Z</time>
</trkpt>
<trkpt lat="-27.3422183" lon="152.9611434">
<ele>16.466</ele>
<time>2016-01-02T04:53:28.027Z</time>
</trkpt>
<trkpt lat="-27.3418860" lon="152.9611061">
<ele>15.662</ele>
<time>2016-01-02T04:53:29.862Z</time>
</trkpt>
<trkpt lat="-27.3413555" lon="152.9610105">
<ele>15.035</ele>
<time>2016-01-02T04:53:32.872Z</time>
</trkpt>
<trkpt lat="-27.3408754" lon="152.9609699">
<ele>15.048</ele>
<time>2016-01-02T04:53:35.662Z</time>
</trkpt>
<trkpt lat="-27.3403895" lon="152.9609335">
<ele>15.902</ele>
<time>2016-01-02T04:53:38.666Z</time>
</trkpt>
<trkpt lat="-27.3399241" lon="152.9609292">
<ele>17.496</ele>
<time>2016-01-02T04:53:41.665Z</time>
</trkpt>
<trkpt lat="-27.3396045" lon="152.9608242">
<ele>19.818</ele>
<time>2016-01-02T04:53:43.746Z</time>
</trkpt>
<trkpt lat="-27.3391707" lon="152.9606602">
<ele>22.908</ele>
<time>2016-01-02T04:53:46.353Z</time>
</trkpt>
<trkpt lat="-27.3385224" lon="152.9605700">
<ele>26.176</ele>
<time>2016-01-02T04:53:49.896Z</time>
</trkpt>
<trkpt lat="-27.3379713" lon="152.9605739">
<ele>28.909</ele>
<time>2016-01-02T04:53:52.825Z</time>
</trkpt>
<trkpt lat="-27.3374100" lon="152.9606483">
<ele>31.063</ele>
<time>2016-01-02T04:53:55.849Z</time>
</trkpt>
<trkpt lat="-27.3370707" lon="152.9607086">
<ele>32.638</ele>
<time>2016-01-02T04:53:57.716Z</time>
</trkpt>
<trkpt lat="-27.3365395" lon="152.9607427">
<ele>33.112</ele>
<time>2016-01-02T04:54:00.582Z</time>
</trkpt>
<trkpt lat="-27.3359746" lon="152.9608883">
<ele>32.226</ele>
<time>2016-01-02T04:54:03.577Z</time>
</trkpt>
<trkpt lat="-27.3353885" lon="152.9610244">
<ele>30.779</ele>
<time>2016-01-02T04:54:06.595Z</time>
</trkpt>
<trkpt lat="-27.3350105" lon="152.9610795">
<ele>30.422</ele>
<time>2016-01-02T04:54:08.537Z</time>
</trkpt>
<trkpt lat="-27.3344894" lon="152.9611502">
<ele>31.763</ele>
<time>2016-01-02T04:54:11.223Z</time>
</trkpt>
<trkpt lat="-27.3340890" lon="152.9612134">
<ele>33.488</ele>
<time>2016-01-02T04:54:13.281Z</time>
</trkpt>
<trkpt lat="-27.3335005" lon="152.9612849">
<ele>33.961</ele>
<time>2016-01-02T04:54:16.265Z</time>
</trkpt>
<trkpt lat="-27.3329092" lon="152.9613317">
<ele>32.845</ele>
<time>2016-01-02T04:54:19.140Z</time>
</trkpt>
<trkpt lat="-27.3324825" lon="152.9614125">
<ele>30.319</ele>
<time>2016-01-02T04:54:21.108Z</time>
</trkpt>
<trkpt lat="-27.3318199" lon="152.9614602">
<ele>26.725</ele>
<time>2016-01-02T04:54:24.089Z</time>
</trkpt>
<trkpt lat="-27.3314219" lon="152.9615226">
<ele>23.125</ele>
<time>2016-01-02T04:54:25.932Z</time>
</trkpt>
<trkpt lat="-27.3306213" lon="152.9616775">
<ele>20.374</ele>
<time>2016-01-02T04:54:29.696Z</time>
</trkpt>
<trkpt lat="-27.3300508" lon="152.9617881">
<ele>21.573</ele>
<time>2016-01-02T04:54:32.561Z</time>
</trkpt>
<trkpt lat="-27.3293740" lon="152.9619053">
<ele>23.439</ele>
<time>2016-01-02T04:54:36.126Z</time>
</trkpt>
<trkpt lat="-27.3290285" lon="152.9619683">
<ele>24.778</ele>
<time>2016-01-02T04:54:38.149Z</time>
</trkpt>
<trkpt lat="-27.3286703" lon="152.9620522">
<ele>25.066</ele>
<time>2016-01-02T04:54:40.240Z</time>
</trkpt>
<trkpt lat="-27.3281459" lon="152.9621676">
<ele>24.499</ele>
<time>2016-01-02T04:54:43.242Z</time>
</trkpt>
<trkpt lat="-27.3276368" lon="152.9622706">
<ele>23.686</ele>
<time>2016-01-02T04:54:46.171Z</time>
</trkpt>
<trkpt lat="-27.3272401" lon="152.9623630">
<ele>23.147</ele>
<time>2016-01-02T04:54:48.548Z</time>
</trkpt>
<trkpt lat="-27.3267902" lon="152.9624568">
<ele>23.372</ele>
<time>2016-01-02T04:54:51.337Z</time>
</trkpt>
<trkpt lat="-27.3259626" lon="152.9626086">
<ele>26.420</ele>
<time>2016-01-02T04:54:56.807Z</time>
</trkpt>
<trkpt lat="-27.3253700" lon="152.9628701">
<ele>29.805</ele>
<time>2016-01-02T04:55:00.945Z</time>
</trkpt>
<trkpt lat="-27.3251178" lon="152.9630157">
<ele>33.872</ele>
<time>2016-01-02T04:55:02.815Z</time>
</trkpt>
<trkpt lat="-27.3247814" lon="152.9631878">
<ele>36.777</ele>
<time>2016-01-02T04:55:05.468Z</time>
</trkpt>
<trkpt lat="-27.3244938" lon="152.9632742">
<ele>37.411</ele>
<time>2016-01-02T04:55:07.830Z</time>
</trkpt>
<trkpt lat="-27.3241715" lon="152.9634027">
<ele>35.985</ele>
<time>2016-01-02T04:55:10.373Z</time>
</trkpt>
<trkpt lat="-27.3241715" lon="152.9634027">
<ele>35.985</ele>
<time>2016-01-02T04:55:10.373Z</time>
</trkpt>
<trkpt lat="-27.3221729" lon="152.9635070">
<ele>22.053</ele>
<time>2016-01-02T04:55:22.753Z</time>
</trkpt>
<trkpt lat="-27.3218266" lon="152.9635080">
<ele>22.043</ele>
<time>2016-01-02T04:55:24.713Z</time>
</trkpt>
<trkpt lat="-27.3214771" lon="152.9635317">
<ele>21.702</ele>
<time>2016-01-02T04:55:26.682Z</time>
</trkpt>
<trkpt lat="-27.3209535" lon="152.9635505">
<ele>20.676</ele>
<time>2016-01-02T04:55:29.633Z</time>
</trkpt>
<trkpt lat="-27.3206117" lon="152.9635573">
<ele>19.341</ele>
<time>2016-01-02T04:55:31.595Z</time>
</trkpt>
<trkpt lat="-27.3201115" lon="152.9635859">
<ele>18.347</ele>
<time>2016-01-02T04:55:34.517Z</time>
</trkpt>
<trkpt lat="-27.3196127" lon="152.9635947">
<ele>17.851</ele>
<time>2016-01-02T04:55:37.531Z</time>
</trkpt>
<trkpt lat="-27.3191592" lon="152.9636107">
<ele>18.396</ele>
<time>2016-01-02T04:55:40.377Z</time>
</trkpt>
<trkpt lat="-27.3188597" lon="152.9636651">
<ele>20.243</ele>
<time>2016-01-02T04:55:42.308Z</time>
</trkpt>
<trkpt lat="-27.3185386" lon="152.9636746">
<ele>22.712</ele>
<time>2016-01-02T04:55:44.363Z</time>
</trkpt>
<trkpt lat="-27.3180730" lon="152.9636478">
<ele>25.115</ele>
<time>2016-01-02T04:55:47.372Z</time>
</trkpt>
<trkpt lat="-27.3177716" lon="152.9636582">
<ele>27.319</ele>
<time>2016-01-02T04:55:49.323Z</time>
</trkpt>
<trkpt lat="-27.3173007" lon="152.9636745">
<ele>29.288</ele>
<time>2016-01-02T04:55:52.377Z</time>
</trkpt>
<trkpt lat="-27.3168566" lon="152.9636638">
<ele>31.339</ele>
<time>2016-01-02T04:55:55.323Z</time>
</trkpt>
<trkpt lat="-27.3165708" lon="152.9636449">
<ele>33.618</ele>
<time>2016-01-02T04:55:57.310Z</time>
</trkpt>
<trkpt lat="-27.3162960" lon="152.9636412">
<ele>35.610</ele>
<time>2016-01-02T04:55:59.263Z</time>
</trkpt>
<trkpt lat="-27.3158975" lon="152.9635977">
<ele>36.198</ele>
<time>2016-01-02T04:56:02.184Z</time>
</trkpt>
<trkpt lat="-27.3156665" lon="152.9635723">
<ele>34.873</ele>
<time>2016-01-02T04:56:04.061Z</time>
</trkpt>
<trkpt lat="-27.3153852" lon="152.9635202">
<ele>32.253</ele>
<time>2016-01-02T04:56:06.701Z</time>
</trkpt>
<trkpt lat="-27.3151933" lon="152.9634957">
<ele>29.521</ele>
<time>2016-01-02T04:56:09.000Z</time>
</trkpt>
<trkpt lat="-27.3151933" lon="152.9634957">
<ele>27.594</ele>
<time>2016-01-02T04:56:14.000Z</time>
</trkpt>
<trkpt lat="-27.3151933" lon="152.9634957">
<ele>26.842</ele>
<time>2016-01-02T04:57:04.004Z</time>
</trkpt>
<trkpt lat="-27.3149063" lon="152.9634460">
<ele>26.946</ele>
<time>2016-01-02T04:57:10.617Z</time>
</trkpt>
<trkpt lat="-27.3147108" lon="152.9634071">
<ele>27.135</ele>
<time>2016-01-02T04:57:12.296Z</time>
</trkpt>
<trkpt lat="-27.3142674" lon="152.9632423">
<ele>26.933</ele>
<time>2016-01-02T04:57:15.580Z</time>
</trkpt>
<trkpt lat="-27.3139174" lon="152.9631698">
<ele>26.898</ele>
<time>2016-01-02T04:57:17.777Z</time>
</trkpt>
<trkpt lat="-27.3134296" lon="152.9631015">
<ele>27.660</ele>
<time>2016-01-02T04:57:20.698Z</time>
</trkpt>
<trkpt lat="-27.3129500" lon="152.9630602">
<ele>28.763</ele>
<time>2016-01-02T04:57:23.470Z</time>
</trkpt>
<trkpt lat="-27.3126283" lon="152.9630260">
<ele>29.390</ele>
<time>2016-01-02T04:57:25.337Z</time>
</trkpt>
<trkpt lat="-27.3123019" lon="152.9630010">
<ele>29.155</ele>
<time>2016-01-02T04:57:27.288Z</time>
</trkpt>
<trkpt lat="-27.3118367" lon="152.9630090">
<ele>28.274</ele>
<time>2016-01-02T04:57:30.173Z</time>
</trkpt>
<trkpt lat="-27.3114355" lon="152.9629767">
<ele>27.974</ele>
<time>2016-01-02T04:57:32.885Z</time>
</trkpt>
<trkpt lat="-27.3108855" lon="152.9630921">
<ele>30.502</ele>
<time>2016-01-02T04:57:37.090Z</time>
</trkpt>
<trkpt lat="-27.3104313" lon="152.9631564">
<ele>31.580</ele>
<time>2016-01-02T04:57:40.638Z</time>
</trkpt>
<trkpt lat="-27.3101621" lon="152.9632158">
<ele>32.326</ele>
<time>2016-01-02T04:57:42.668Z</time>
</trkpt>
<trkpt lat="-27.3099321" lon="152.9632572">
<ele>33.022</ele>
<time>2016-01-02T04:57:44.614Z</time>
</trkpt>
<trkpt lat="-27.3096215" lon="152.9633156">
<ele>33.258</ele>
<time>2016-01-02T04:57:47.747Z</time>
</trkpt>
<trkpt lat="-27.3095002" lon="152.9633379">
<ele>32.439</ele>
<time>2016-01-02T04:57:50.017Z</time>
</trkpt>
<trkpt lat="-27.3094026" lon="152.9633557">
<ele>30.844</ele>
<time>2016-01-02T04:57:52.000Z</time>
</trkpt>
<trkpt lat="-27.3094026" lon="152.9633557">
<ele>29.293</ele>
<time>2016-01-02T04:57:55.000Z</time>
</trkpt>
<trkpt lat="-27.3094026" lon="152.9633557">
<ele>28.499</ele>
<time>2016-01-02T04:58:00.781Z</time>
</trkpt>
<trkpt lat="-27.3092579" lon="152.9633856">
<ele>28.561</ele>
<time>2016-01-02T04:58:06.450Z</time>
</trkpt>
<trkpt lat="-27.3092026" lon="152.9635243">
<ele>28.774</ele>
<time>2016-01-02T04:58:08.281Z</time>
</trkpt>
<trkpt lat="-27.3092836" lon="152.9639951">
<ele>28.589</ele>
<time>2016-01-02T04:58:12.462Z</time>
</trkpt>
<trkpt lat="-27.3093651" lon="152.9644711">
<ele>28.809</ele>
<time>2016-01-02T04:58:15.834Z</time>
</trkpt>
<trkpt lat="-27.3094208" lon="152.9649853">
<ele>30.416</ele>
<time>2016-01-02T04:58:19.014Z</time>
</trkpt>
<trkpt lat="-27.3094719" lon="152.9653445">
<ele>32.682</ele>
<time>2016-01-02T04:58:21.066Z</time>
</trkpt>
<trkpt lat="-27.3094821" lon="152.9658632">
<ele>34.048</ele>
<time>2016-01-02T04:58:24.005Z</time>
</trkpt>
<trkpt lat="-27.3093914" lon="152.9662784">
<ele>34.038</ele>
<time>2016-01-02T04:58:26.512Z</time>
</trkpt>
<trkpt lat="-27.3092676" lon="152.9668294">
<ele>33.261</ele>
<time>2016-01-02T04:58:29.741Z</time>
</trkpt>
<trkpt lat="-27.3091878" lon="152.9671939">
<ele>32.376</ele>
<time>2016-01-02T04:58:31.803Z</time>
</trkpt>
<trkpt lat="-27.3090745" lon="152.9677112">
<ele>31.536</ele>
<time>2016-01-02T04:58:34.675Z</time>
</trkpt>
<trkpt lat="-27.3089965" lon="152.9680588">
<ele>30.224</ele>
<time>2016-01-02T04:58:36.569Z</time>
</trkpt>
<trkpt lat="-27.3088791" lon="152.9686199">
<ele>27.798</ele>
<time>2016-01-02T04:58:39.628Z</time>
</trkpt>
<trkpt lat="-27.3088404" lon="152.9687905">
<ele>24.353</ele>
<time>2016-01-02T04:58:40.590Z</time>
</trkpt>
<trkpt lat="-27.3086872" lon="152.9694541">
<ele>20.864</ele>
<time>2016-01-02T04:58:44.445Z</time>
</trkpt>
<trkpt lat="-27.3085884" lon="152.9698865">
<ele>18.069</ele>
<time>2016-01-02T04:58:47.058Z</time>
</trkpt>
<trkpt lat="-27.3085325" lon="152.9701357">
<ele>15.774</ele>
<time>2016-01-02T04:58:48.602Z</time>
</trkpt>
<trkpt lat="-27.3084678" lon="152.9704239">
<ele>13.813</ele>
<time>2016-01-02T04:58:50.426Z</time>
</trkpt>
<trkpt lat="-27.3083957" lon="152.9707451">
<ele>12.734</ele>
<time>2016-01-02T04:58:52.522Z</time>
</trkpt>
<trkpt lat="-27.3082834" lon="152.9712109">
<ele>12.646</ele>
<time>2016-01-02T04:58:55.626Z</time>
</trkpt>
<trkpt lat="-27.3081400" lon="152.9716539">
<ele>12.703</ele>
<time>2016-01-02T04:58:58.618Z</time>
</trkpt>
<trkpt lat="-27.3080230" lon="152.9719923">
<ele>12.264</ele>
<time>2016-01-02T04:59:00.795Z</time>
</trkpt>
<trkpt lat="-27.3078981" lon="152.9723334">
<ele>11.546</ele>
<time>2016-01-02T04:59:02.980Z</time>
</trkpt>
<trkpt lat="-27.3077902" lon="152.9726010">
<ele>10.900</ele>
<time>2016-01-02T04:59:04.804Z</time>
</trkpt>
<trkpt lat="-27.3077063" lon="152.9729040">
<ele>10.393</ele>
<time>2016-01-02T04:59:06.836Z</time>
</trkpt>
<trkpt lat="-27.3076157" lon="152.9733396">
<ele>10.036</ele>
<time>2016-01-02T04:59:09.670Z</time>
</trkpt>
<trkpt lat="-27.3075253" lon="152.9739088">
<ele>9.838</ele>
<time>2016-01-02T04:59:13.158Z</time>
</trkpt>
<trkpt lat="-27.3073657" lon="152.9743963">
<ele>9.778</ele>
<time>2016-01-02T04:59:16.071Z</time>
</trkpt>
<trkpt lat="-27.3072799" lon="152.9747789">
<ele>9.556</ele>
<time>2016-01-02T04:59:18.113Z</time>
</trkpt>
<trkpt lat="-27.3072087" lon="152.9751355">
<ele>8.993</ele>
<time>2016-01-02T04:59:20.006Z</time>
</trkpt>
<trkpt lat="-27.3070199" lon="152.9756830">
<ele>8.417</ele>
<time>2016-01-02T04:59:23.171Z</time>
</trkpt>
<trkpt lat="-27.3069701" lon="152.9761488">
<ele>8.107</ele>
<time>2016-01-02T04:59:25.847Z</time>
</trkpt>
<trkpt lat="-27.3068981" lon="152.9764661">
<ele>7.997</ele>
<time>2016-01-02T04:59:27.806Z</time>
</trkpt>
<trkpt lat="-27.3067898" lon="152.9769444">
<ele>7.915</ele>
<time>2016-01-02T04:59:30.819Z</time>
</trkpt>
<trkpt lat="-27.3067038" lon="152.9774073">
<ele>7.764</ele>
<time>2016-01-02T04:59:33.808Z</time>
</trkpt>
<trkpt lat="-27.3066749" lon="152.9777183">
<ele>7.789</ele>
<time>2016-01-02T04:59:35.988Z</time>
</trkpt>
<trkpt lat="-27.3066849" lon="152.9781391">
<ele>8.188</ele>
<time>2016-01-02T04:59:39.850Z</time>
</trkpt>
<trkpt lat="-27.3066766" lon="152.9783034">
<ele>8.197</ele>
<time>2016-01-02T04:59:42.549Z</time>
</trkpt>
<trkpt lat="-27.3066240" lon="152.9783890">
<ele>6.567</ele>
<time>2016-01-02T04:59:44.256Z</time>
</trkpt>
<trkpt lat="-27.3064687" lon="152.9784555">
<ele>3.389</ele>
<time>2016-01-02T04:59:47.545Z</time>
</trkpt>
<trkpt lat="-27.3062557" lon="152.9783475">
<ele>0.326</ele>
<time>2016-01-02T04:59:50.409Z</time>
</trkpt>
<trkpt lat="-27.3058830" lon="152.9782272">
<ele>0.000</ele>
<time>2016-01-02T04:59:53.619Z</time>
</trkpt>
<trkpt lat="-27.3055769" lon="152.9781428">
<ele>0.000</ele>
<time>2016-01-02T04:59:55.705Z</time>
</trkpt>
<trkpt lat="-27.3052549" lon="152.9780678">
<ele>2.347</ele>
<time>2016-01-02T04:59:57.758Z</time>
</trkpt>
<trkpt lat="-27.3048423" lon="152.9778862">
<ele>5.312</ele>
<time>2016-01-02T05:00:00.570Z</time>
</trkpt>
<trkpt lat="-27.3040680" lon="152.9777902">
<ele>8.895</ele>
<time>2016-01-02T05:00:05.715Z</time>
</trkpt>
<trkpt lat="-27.3035942" lon="152.9779868">
<ele>9.477</ele>
<time>2016-01-02T05:00:09.143Z</time>
</trkpt>
<trkpt lat="-27.3033330" lon="152.9780528">
<ele>10.580</ele>
<time>2016-01-02T05:00:11.073Z</time>
</trkpt>
<trkpt lat="-27.3031302" lon="152.9781064">
<ele>12.620</ele>
<time>2016-01-02T05:00:12.874Z</time>
</trkpt>
<trkpt lat="-27.3029332" lon="152.9781710">
<ele>14.930</ele>
<time>2016-01-02T05:00:15.000Z</time>
</trkpt>
<trkpt lat="-27.3029332" lon="152.9781710">
<ele>16.263</ele>
<time>2016-01-02T05:00:20.000Z</time>
</trkpt>
<trkpt lat="-27.3029332" lon="152.9781710">
<ele>16.163</ele>
<time>2016-01-02T05:00:40.337Z</time>
</trkpt>
<trkpt lat="-27.3026858" lon="152.9783040">
<ele>15.499</ele>
<time>2016-01-02T05:00:50.854Z</time>
</trkpt>
<trkpt lat="-27.3027475" lon="152.9785265">
<ele>15.238</ele>
<time>2016-01-02T05:00:53.323Z</time>
</trkpt>
<trkpt lat="-27.3028605" lon="152.9789151">
<ele>15.566</ele>
<time>2016-01-02T05:00:56.374Z</time>
</trkpt>
<trkpt lat="-27.3029499" lon="152.9792550">
<ele>16.746</ele>
<time>2016-01-02T05:00:58.622Z</time>
</trkpt>
<trkpt lat="-27.3030919" lon="152.9797607">
<ele>18.800</ele>
<time>2016-01-02T05:01:01.827Z</time>
</trkpt>
<trkpt lat="-27.3032421" lon="152.9802691">
<ele>20.678</ele>
<time>2016-01-02T05:01:04.985Z</time>
</trkpt>
<trkpt lat="-27.3033023" lon="152.9806042">
<ele>21.506</ele>
<time>2016-01-02T05:01:07.017Z</time>
</trkpt>
<trkpt lat="-27.3032931" lon="152.9810357">
<ele>21.593</ele>
<time>2016-01-02T05:01:09.482Z</time>
</trkpt>
<trkpt lat="-27.3032050" lon="152.9814720">
<ele>21.405</ele>
<time>2016-01-02T05:01:11.956Z</time>
</trkpt>
<trkpt lat="-27.3030917" lon="152.9819740">
<ele>20.814</ele>
<time>2016-01-02T05:01:14.848Z</time>
</trkpt>
<trkpt lat="-27.3030080" lon="152.9823228">
<ele>19.472</ele>
<time>2016-01-02T05:01:16.896Z</time>
</trkpt>
<trkpt lat="-27.3028910" lon="152.9828348">
<ele>17.516</ele>
<time>2016-01-02T05:01:19.869Z</time>
</trkpt>
<trkpt lat="-27.3027985" lon="152.9831831">
<ele>15.052</ele>
<time>2016-01-02T05:01:21.898Z</time>
</trkpt>
<trkpt lat="-27.3026844" lon="152.9836768">
<ele>12.407</ele>
<time>2016-01-02T05:01:24.730Z</time>
</trkpt>
<trkpt lat="-27.3025993" lon="152.9840428">
<ele>10.573</ele>
<time>2016-01-02T05:01:26.833Z</time>
</trkpt>
<trkpt lat="-27.3024562" lon="152.9845523">
<ele>9.944</ele>
<time>2016-01-02T05:01:29.896Z</time>
</trkpt>
<trkpt lat="-27.3023977" lon="152.9848896">
<ele>9.538</ele>
<time>2016-01-02T05:01:31.916Z</time>
</trkpt>
<trkpt lat="-27.3022709" lon="152.9853864">
<ele>8.570</ele>
<time>2016-01-02T05:01:35.003Z</time>
</trkpt>
<trkpt lat="-27.3021858" lon="152.9856948">
<ele>7.291</ele>
<time>2016-01-02T05:01:36.936Z</time>
</trkpt>
<trkpt lat="-27.3020806" lon="152.9861747">
<ele>6.031</ele>
<time>2016-01-02T05:01:40.072Z</time>
</trkpt>
<trkpt lat="-27.3019717" lon="152.9866086">
<ele>4.889</ele>
<time>2016-01-02T05:01:43.348Z</time>
</trkpt>
<trkpt lat="-27.3019421" lon="152.9867435">
<ele>4.218</ele>
<time>2016-01-02T05:01:44.384Z</time>
</trkpt>
<trkpt lat="-27.3018503" lon="152.9872496">
<ele>4.081</ele>
<time>2016-01-02T05:01:48.094Z</time>
</trkpt>
<trkpt lat="-27.3018047" lon="152.9874491">
<ele>3.645</ele>
<time>2016-01-02T05:01:49.528Z</time>
</trkpt>
<trkpt lat="-27.3016805" lon="152.9878973">
<ele>2.170</ele>
<time>2016-01-02T05:01:53.519Z</time>
</trkpt>
<trkpt lat="-27.3013193" lon="152.9882474">
<ele>0.000</ele>
<time>2016-01-02T05:01:58.226Z</time>
</trkpt>
<trkpt lat="-27.3009366" lon="152.9880986">
<ele>0.000</ele>
<time>2016-01-02T05:02:02.021Z</time>
</trkpt>
<trkpt lat="-27.3006463" lon="152.9880062">
<ele>0.000</ele>
<time>2016-01-02T05:02:04.130Z</time>
</trkpt>
<trkpt lat="-27.3001716" lon="152.9878649">
<ele>0.000</ele>
<time>2016-01-02T05:02:07.309Z</time>
</trkpt>
<trkpt lat="-27.2998750" lon="152.9877790">
<ele>0.000</ele>
<time>2016-01-02T05:02:09.270Z</time>
</trkpt>
<trkpt lat="-27.2994441" lon="152.9876221">
<ele>0.000</ele>
<time>2016-01-02T05:02:12.200Z</time>
</trkpt>
<trkpt lat="-27.2992016" lon="152.9875020">
<ele>0.000</ele>
<time>2016-01-02T05:02:13.918Z</time>
</trkpt>
<trkpt lat="-27.2986887" lon="152.9874256">
<ele>0.670</ele>
<time>2016-01-02T05:02:17.253Z</time>
</trkpt>
<trkpt lat="-27.2979147" lon="152.9872032">
<ele>2.513</ele>
<time>2016-01-02T05:02:22.361Z</time>
</trkpt>
<trkpt lat="-27.2976135" lon="152.9870439">
<ele>2.936</ele>
<time>2016-01-02T05:02:24.473Z</time>
</trkpt>
<trkpt lat="-27.2973241" lon="152.9869040">
<ele>2.495</ele>
<time>2016-01-02T05:02:26.486Z</time>
</trkpt>
<trkpt lat="-27.2970370" lon="152.9867491">
<ele>1.715</ele>
<time>2016-01-02T05:02:28.534Z</time>
</trkpt>
<trkpt lat="-27.2966256" lon="152.9865217">
<ele>0.671</ele>
<time>2016-01-02T05:02:31.500Z</time>
</trkpt>
<trkpt lat="-27.2963604" lon="152.9863656">
<ele>0.000</ele>
<time>2016-01-02T05:02:33.464Z</time>
</trkpt>
<trkpt lat="-27.2959660" lon="152.9861330">
<ele>0.000</ele>
<time>2016-01-02T05:02:36.395Z</time>
</trkpt>
<trkpt lat="-27.2956960" lon="152.9859866">
<ele>0.000</ele>
<time>2016-01-02T05:02:38.356Z</time>
</trkpt>
<trkpt lat="-27.2954167" lon="152.9858571">
<ele>0.000</ele>
<time>2016-01-02T05:02:40.358Z</time>
</trkpt>
<trkpt lat="-27.2950047" lon="152.9856842">
<ele>0.000</ele>
<time>2016-01-02T05:02:43.327Z</time>
</trkpt>
<trkpt lat="-27.2947318" lon="152.9856022">
<ele>0.000</ele>
<time>2016-01-02T05:02:45.275Z</time>
</trkpt>
<trkpt lat="-27.2944531" lon="152.9855459">
<ele>0.000</ele>
<time>2016-01-02T05:02:47.258Z</time>
</trkpt>
<trkpt lat="-27.2942231" lon="152.9854655">
<ele>0.000</ele>
<time>2016-01-02T05:02:48.975Z</time>
</trkpt>
<trkpt lat="-27.2939149" lon="152.9854848">
<ele>0.000</ele>
<time>2016-01-02T05:02:51.179Z</time>
</trkpt>
<trkpt lat="-27.2934689" lon="152.9854503">
<ele>0.000</ele>
<time>2016-01-02T05:02:54.330Z</time>
</trkpt>
<trkpt lat="-27.2932021" lon="152.9854294">
<ele>0.000</ele>
<time>2016-01-02T05:02:56.321Z</time>
</trkpt>
<trkpt lat="-27.2928511" lon="152.9854259">
<ele>0.000</ele>
<time>2016-01-02T05:02:59.065Z</time>
</trkpt>
<trkpt lat="-27.2926087" lon="152.9854185">
<ele>0.000</ele>
<time>2016-01-02T05:03:01.002Z</time>
</trkpt>
<trkpt lat="-27.2922217" lon="152.9854053">
<ele>0.000</ele>
<time>2016-01-02T05:03:04.104Z</time>
</trkpt>
<trkpt lat="-27.2919917" lon="152.9853882">
<ele>0.000</ele>
<time>2016-01-02T05:03:06.285Z</time>
</trkpt>
<trkpt lat="-27.2917485" lon="152.9853519">
<ele>0.000</ele>
<time>2016-01-02T05:03:09.144Z</time>
</trkpt>
<trkpt lat="-27.2916155" lon="152.9853353">
<ele>0.000</ele>
<time>2016-01-02T05:03:10.910Z</time>
</trkpt>
<trkpt lat="-27.2913635" lon="152.9852740">
<ele>0.000</ele>
<time>2016-01-02T05:03:13.964Z</time>
</trkpt>
<trkpt lat="-27.2910593" lon="152.9852145">
<ele>0.000</ele>
<time>2016-01-02T05:03:17.038Z</time>
</trkpt>
<trkpt lat="-27.2908539" lon="152.9851373">
<ele>0.000</ele>
<time>2016-01-02T05:03:18.939Z</time>
</trkpt>
<trkpt lat="-27.2904732" lon="152.9850391">
<ele>0.000</ele>
<time>2016-01-02T05:03:22.098Z</time>
</trkpt>
<trkpt lat="-27.2900984" lon="152.9849319">
<ele>0.000</ele>
<time>2016-01-02T05:03:25.078Z</time>
</trkpt>
<trkpt lat="-27.2897392" lon="152.9848424">
<ele>0.000</ele>
<time>2016-01-02T05:03:27.947Z</time>
</trkpt>
<trkpt lat="-27.2894862" lon="152.9847663">
<ele>0.000</ele>
<time>2016-01-02T05:03:29.997Z</time>
</trkpt>
<trkpt lat="-27.2892598" lon="152.9847065">
<ele>0.000</ele>
<time>2016-01-02T05:03:31.821Z</time>
</trkpt>
<trkpt lat="-27.2890147" lon="152.9846370">
<ele>0.000</ele>
<time>2016-01-02T05:03:33.760Z</time>
</trkpt>
<trkpt lat="-27.2887449" lon="152.9845575">
<ele>0.000</ele>
<time>2016-01-02T05:03:35.759Z</time>
</trkpt>
<trkpt lat="-27.2883090" lon="152.9844461">
<ele>0.000</ele>
<time>2016-01-02T05:03:38.764Z</time>
</trkpt>
<trkpt lat="-27.2879972" lon="152.9843538">
<ele>0.000</ele>
<time>2016-01-02T05:03:40.813Z</time>
</trkpt>
<trkpt lat="-27.2876744" lon="152.9842566">
<ele>0.074</ele>
<time>2016-01-02T05:03:42.948Z</time>
</trkpt>
<trkpt lat="-27.2872648" lon="152.9841603">
<ele>2.167</ele>
<time>2016-01-02T05:03:45.814Z</time>
</trkpt>
<trkpt lat="-27.2870449" lon="152.9840974">
<ele>3.566</ele>
<time>2016-01-02T05:03:47.609Z</time>
</trkpt>
<trkpt lat="-27.2869310" lon="152.9840689">
<ele>3.579</ele>
<time>2016-01-02T05:03:48.617Z</time>
</trkpt>
<trkpt lat="-27.2866284" lon="152.9839672">
<ele>2.812</ele>
<time>2016-01-02T05:03:52.000Z</time>
</trkpt>
<trkpt lat="-27.2866284" lon="152.9839672">
<ele>2.124</ele>
<time>2016-01-02T05:03:57.000Z</time>
</trkpt>
<trkpt lat="-27.2866284" lon="152.9839672">
<ele>1.852</ele>
<time>2016-01-02T05:04:13.060Z</time>
</trkpt>
<trkpt lat="-27.2863878" lon="152.9839360">
<ele>1.892</ele>
<time>2016-01-02T05:04:18.453Z</time>
</trkpt>
<trkpt lat="-27.2862033" lon="152.9838924">
<ele>1.979</ele>
<time>2016-01-02T05:04:20.445Z</time>
</trkpt>
<trkpt lat="-27.2858934" lon="152.9838104">
<ele>1.947</ele>
<time>2016-01-02T05:04:23.426Z</time>
</trkpt>
<trkpt lat="-27.2856740" lon="152.9837546">
<ele>1.984</ele>
<time>2016-01-02T05:04:25.298Z</time>
</trkpt>
<trkpt lat="-27.2854249" lon="152.9836902">
<ele>2.271</ele>
<time>2016-01-02T05:04:27.309Z</time>
</trkpt>
<trkpt lat="-27.2850665" lon="152.9835902">
<ele>2.511</ele>
<time>2016-01-02T05:04:30.112Z</time>
</trkpt>
<trkpt lat="-27.2847059" lon="152.9834733">
<ele>2.266</ele>
<time>2016-01-02T05:04:32.870Z</time>
</trkpt>
<trkpt lat="-27.2843273" lon="152.9833564">
<ele>1.611</ele>
<time>2016-01-02T05:04:35.744Z</time>
</trkpt>
<trkpt lat="-27.2839538" lon="152.9832543">
<ele>1.097</ele>
<time>2016-01-02T05:04:38.657Z</time>
</trkpt>
<trkpt lat="-27.2837354" lon="152.9831876">
<ele>1.036</ele>
<time>2016-01-02T05:04:40.613Z</time>
</trkpt>
<trkpt lat="-27.2835137" lon="152.9831278">
<ele>1.220</ele>
<time>2016-01-02T05:04:43.000Z</time>
</trkpt>
<trkpt lat="-27.2835137" lon="152.9831278">
<ele>1.352</ele>
<time>2016-01-02T05:04:49.000Z</time>
</trkpt>
<trkpt lat="-27.2835137" lon="152.9831278">
<ele>1.347</ele>
<time>2016-01-02T05:04:54.148Z</time>
</trkpt>
<trkpt lat="-27.2833506" lon="152.9831531">
<ele>1.277</ele>
<time>2016-01-02T05:05:08.104Z</time>
</trkpt>
<trkpt lat="-27.2832557" lon="152.9831179">
<ele>0.719</ele>
<time>2016-01-02T05:05:14.000Z</time>
</trkpt>
<trkpt lat="-27.2832557" lon="152.9831179">
<ele>0.000</ele>
<time>2016-01-02T05:05:20.000Z</time>
</trkpt>
<trkpt lat="-27.2832557" lon="152.9831179">
<ele>0.000</ele>
<time>2016-01-02T05:05:29.240Z</time>
</trkpt>
<trkpt lat="-27.2831751" lon="152.9830519">
<ele>0.000</ele>
<time>2016-01-02T05:05:32.618Z</time>
</trkpt>
<trkpt lat="-27.2829663" lon="152.9829834">
<ele>0.190</ele>
<time>2016-01-02T05:05:35.158Z</time>
</trkpt>
<trkpt lat="-27.2825783" lon="152.9828660">
<ele>2.767</ele>
<time>2016-01-02T05:05:38.376Z</time>
</trkpt>
<trkpt lat="-27.2820655" lon="152.9827109">
<ele>6.753</ele>
<time>2016-01-02T05:05:41.929Z</time>
</trkpt>
<trkpt lat="-27.2817841" lon="152.9826289">
<ele>11.137</ele>
<time>2016-01-02T05:05:43.870Z</time>
</trkpt>
<trkpt lat="-27.2815038" lon="152.9825479">
<ele>13.623</ele>
<time>2016-01-02T05:05:46.526Z</time>
</trkpt>
<trkpt lat="-27.2813664" lon="152.9824997">
<ele>12.891</ele>
<time>2016-01-02T05:05:48.079Z</time>
</trkpt>
<trkpt lat="-27.2811308" lon="152.9824391">
<ele>10.036</ele>
<time>2016-01-02T05:05:50.711Z</time>
</trkpt>
<trkpt lat="-27.2809907" lon="152.9823928">
<ele>7.103</ele>
<time>2016-01-02T05:05:52.597Z</time>
</trkpt>
<trkpt lat="-27.2808791" lon="152.9823638">
<ele>5.119</ele>
<time>2016-01-02T05:05:54.639Z</time>
</trkpt>
<trkpt lat="-27.2808561" lon="152.9822300">
<ele>3.996</ele>
<time>2016-01-02T05:05:56.992Z</time>
</trkpt>
<trkpt lat="-27.2809825" lon="152.9821762">
<ele>3.271</ele>
<time>2016-01-02T05:06:00.000Z</time>
</trkpt>
<trkpt lat="-27.2809825" lon="152.9821762">
<ele>2.607</ele>
<time>2016-01-02T05:06:05.999Z</time>
</trkpt>
<trkpt lat="-27.2809825" lon="152.9821762">
<ele>2.184</ele>
<time>2016-01-02T05:07:27.338Z</time>
</trkpt>
<trkpt lat="-27.2811747" lon="152.9822445">
<ele>2.206</ele>
<time>2016-01-02T05:07:39.295Z</time>
</trkpt>
<trkpt lat="-27.2810972" lon="152.9823207">
<ele>2.199</ele>
<time>2016-01-02T05:07:43.274Z</time>
</trkpt>
<trkpt lat="-27.2810124" lon="152.9822772">
<ele>1.758</ele>
<time>2016-01-02T05:07:46.010Z</time>
</trkpt>
<trkpt lat="-27.2809023" lon="152.9822540">
<ele>1.178</ele>
<time>2016-01-02T05:07:48.779Z</time>
</trkpt>
<trkpt lat="-27.2808060" lon="152.9823317">
<ele>0.777</ele>
<time>2016-01-02T05:07:51.324Z</time>
</trkpt>
<trkpt lat="-27.2806622" lon="152.9823623">
<ele>0.497</ele>
<time>2016-01-02T05:07:53.396Z</time>
</trkpt>
<trkpt lat="-27.2803363" lon="152.9822720">
<ele>0.348</ele>
<time>2016-01-02T05:07:56.743Z</time>
</trkpt>
<trkpt lat="-27.2800876" lon="152.9821958">
<ele>0.776</ele>
<time>2016-01-02T05:07:58.724Z</time>
</trkpt>
<trkpt lat="-27.2797318" lon="152.9820517">
<ele>2.040</ele>
<time>2016-01-02T05:08:01.504Z</time>
</trkpt>
<trkpt lat="-27.2792527" lon="152.9819359">
<ele>3.478</ele>
<time>2016-01-02T05:08:04.958Z</time>
</trkpt>
<trkpt lat="-27.2788234" lon="152.9818094">
<ele>4.167</ele>
<time>2016-01-02T05:08:08.023Z</time>
</trkpt>
<trkpt lat="-27.2785346" lon="152.9817144">
<ele>3.894</ele>
<time>2016-01-02T05:08:10.447Z</time>
</trkpt>
<trkpt lat="-27.2783484" lon="152.9816772">
<ele>3.111</ele>
<time>2016-01-02T05:08:12.540Z</time>
</trkpt>
<trkpt lat="-27.2780857" lon="152.9816230">
<ele>2.220</ele>
<time>2016-01-02T05:08:17.604Z</time>
</trkpt>
<trkpt lat="-27.2780902" lon="152.9817334">
<ele>0.917</ele>
<time>2016-01-02T05:08:18.920Z</time>
</trkpt>
<trkpt lat="-27.2784154" lon="152.9818105">
<ele>0.000</ele>
<time>2016-01-02T05:08:21.802Z</time>
</trkpt>
<trkpt lat="-27.2787138" lon="152.9818777">
<ele>0.000</ele>
<time>2016-01-02T05:08:23.590Z</time>
</trkpt>
<trkpt lat="-27.2793123" lon="152.9820332">
<ele>0.000</ele>
<time>2016-01-02T05:08:26.928Z</time>
</trkpt>
<trkpt lat="-27.2798863" lon="152.9821527">
<ele>1.370</ele>
<time>2016-01-02T05:08:29.920Z</time>
</trkpt>
<trkpt lat="-27.2802637" lon="152.9822564">
<ele>4.134</ele>
<time>2016-01-02T05:08:31.922Z</time>
</trkpt>
<trkpt lat="-27.2807665" lon="152.9823979">
<ele>6.072</ele>
<time>2016-01-02T05:08:35.901Z</time>
</trkpt>
<trkpt lat="-27.2807665" lon="152.9823979">
<ele>6.072</ele>
<time>2016-01-02T05:08:35.901Z</time>
</trkpt>
<trkpt lat="-27.2816064" lon="152.9827466">
<ele>0.918</ele>
<time>2016-01-02T05:08:45.327Z</time>
</trkpt>
<trkpt lat="-27.2817111" lon="152.9827895">
<ele>0.918</ele>
<time>2016-01-02T05:08:50.000Z</time>
</trkpt>
<trkpt lat="-27.2817111" lon="152.9827895">
<ele>0.918</ele>
<time>2016-01-02T05:08:59.000Z</time>
</trkpt>
<trkpt lat="-27.2817111" lon="152.9827895">
<ele>0.917</ele>
<time>2016-01-02T05:14:55.330Z</time>
</trkpt>
<trkpt lat="-27.2816399" lon="152.9830739">
<ele>0.917</ele>
<time>2016-01-02T05:15:16.694Z</time>
</trkpt>
<trkpt lat="-27.2817157" lon="152.9830012">
<ele>0.961</ele>
<time>2016-01-02T05:15:21.788Z</time>
</trkpt>
<trkpt lat="-27.2817355" lon="152.9828966">
<ele>1.079</ele>
<time>2016-01-02T05:15:27.000Z</time>
</trkpt>
<trkpt lat="-27.2817355" lon="152.9828966">
<ele>1.203</ele>
<time>2016-01-02T05:15:32.000Z</time>
</trkpt>
<trkpt lat="-27.2817355" lon="152.9828966">
<ele>1.258</ele>
<time>2016-01-02T05:15:36.439Z</time>
</trkpt>
<trkpt lat="-27.2818392" lon="152.9827851">
<ele>1.251</ele>
<time>2016-01-02T05:15:41.013Z</time>
</trkpt>
<trkpt lat="-27.2821063" lon="152.9828159">
<ele>1.402</ele>
<time>2016-01-02T05:15:44.309Z</time>
</trkpt>
<trkpt lat="-27.2823238" lon="152.9828892">
<ele>2.149</ele>
<time>2016-01-02T05:15:46.440Z</time>
</trkpt>
<trkpt lat="-27.2828429" lon="152.9830934">
<ele>3.400</ele>
<time>2016-01-02T05:15:53.802Z</time>
</trkpt>
<trkpt lat="-27.2829279" lon="152.9830578">
<ele>4.314</ele>
<time>2016-01-02T05:15:55.189Z</time>
</trkpt>
<trkpt lat="-27.2830706" lon="152.9830173">
<ele>4.221</ele>
<time>2016-01-02T05:15:57.437Z</time>
</trkpt>
<trkpt lat="-27.2832142" lon="152.9831228">
<ele>3.376</ele>
<time>2016-01-02T05:16:00.056Z</time>
</trkpt>
<trkpt lat="-27.2831424" lon="152.9828111">
<ele>2.564</ele>
<time>2016-01-02T05:16:04.429Z</time>
</trkpt>
<trkpt lat="-27.2831182" lon="152.9825147">
<ele>2.239</ele>
<time>2016-01-02T05:16:11.634Z</time>
</trkpt>
<trkpt lat="-27.2830959" lon="152.9823214">
<ele>2.444</ele>
<time>2016-01-02T05:16:15.764Z</time>
</trkpt>
<trkpt lat="-27.2830711" lon="152.9821642">
<ele>3.019</ele>
<time>2016-01-02T05:16:18.018Z</time>
</trkpt>
<trkpt lat="-27.2830331" lon="152.9819376">
<ele>3.538</ele>
<time>2016-01-02T05:16:20.600Z</time>
</trkpt>
<trkpt lat="-27.2830208" lon="152.9817899">
<ele>3.725</ele>
<time>2016-01-02T05:16:22.058Z</time>
</trkpt>
<trkpt lat="-27.2829991" lon="152.9815865">
<ele>3.766</ele>
<time>2016-01-02T05:16:24.234Z</time>
</trkpt>
<trkpt lat="-27.2829622" lon="152.9813354">
<ele>4.066</ele>
<time>2016-01-02T05:16:27.201Z</time>
</trkpt>
<trkpt lat="-27.2829102" lon="152.9810080">
<ele>4.839</ele>
<time>2016-01-02T05:16:31.210Z</time>
</trkpt>
<trkpt lat="-27.2828720" lon="152.9807883">
<ele>5.814</ele>
<time>2016-01-02T05:16:33.632Z</time>
</trkpt>
<trkpt lat="-27.2828493" lon="152.9806506">
<ele>6.601</ele>
<time>2016-01-02T05:16:34.948Z</time>
</trkpt>
<trkpt lat="-27.2828067" lon="152.9802330">
<ele>7.130</ele>
<time>2016-01-02T05:16:38.640Z</time>
</trkpt>
<trkpt lat="-27.2827729" lon="152.9800393">
<ele>7.706</ele>
<time>2016-01-02T05:16:40.311Z</time>
</trkpt>
<trkpt lat="-27.2827178" lon="152.9795721">
<ele>8.501</ele>
<time>2016-01-02T05:16:44.346Z</time>
</trkpt>
<trkpt lat="-27.2826684" lon="152.9792653">
<ele>9.284</ele>
<time>2016-01-02T05:16:47.019Z</time>
</trkpt>
<trkpt lat="-27.2826141" lon="152.9789592">
<ele>9.732</ele>
<time>2016-01-02T05:16:49.500Z</time>
</trkpt>
<trkpt lat="-27.2825819" lon="152.9786958">
<ele>9.879</ele>
<time>2016-01-02T05:16:51.324Z</time>
</trkpt>
<trkpt lat="-27.2825213" lon="152.9783130">
<ele>9.952</ele>
<time>2016-01-02T05:16:53.797Z</time>
</trkpt>
<trkpt lat="-27.2824966" lon="152.9780918">
<ele>10.064</ele>
<time>2016-01-02T05:16:55.230Z</time>
</trkpt>
<trkpt lat="-27.2824518" lon="152.9777659">
<ele>10.248</ele>
<time>2016-01-02T05:16:57.436Z</time>
</trkpt>
<trkpt lat="-27.2824191" lon="152.9775504">
<ele>10.562</ele>
<time>2016-01-02T05:16:58.975Z</time>
</trkpt>
<trkpt lat="-27.2823840" lon="152.9772842">
<ele>10.893</ele>
<time>2016-01-02T05:17:01.020Z</time>
</trkpt>
<trkpt lat="-27.2823547" lon="152.9771579">
<ele>11.420</ele>
<time>2016-01-02T05:17:02.073Z</time>
</trkpt>
<trkpt lat="-27.2822120" lon="152.9767714">
<ele>12.317</ele>
<time>2016-01-02T05:17:05.883Z</time>
</trkpt>
<trkpt lat="-27.2821878" lon="152.9766215">
<ele>13.167</ele>
<time>2016-01-02T05:17:07.370Z</time>
</trkpt>
<trkpt lat="-27.2820910" lon="152.9765862">
<ele>13.565</ele>
<time>2016-01-02T05:17:08.491Z</time>
</trkpt>
<trkpt lat="-27.2818417" lon="152.9766321">
<ele>13.726</ele>
<time>2016-01-02T05:17:11.134Z</time>
</trkpt>
<trkpt lat="-27.2816295" lon="152.9766712">
<ele>14.320</ele>
<time>2016-01-02T05:17:13.393Z</time>
</trkpt>
<trkpt lat="-27.2813329" lon="152.9767258">
<ele>15.797</ele>
<time>2016-01-02T05:17:17.082Z</time>
</trkpt>
<trkpt lat="-27.2811472" lon="152.9767599">
<ele>17.598</ele>
<time>2016-01-02T05:17:19.942Z</time>
</trkpt>
<trkpt lat="-27.2807464" lon="152.9768339">
<ele>18.834</ele>
<time>2016-01-02T05:17:24.846Z</time>
</trkpt>
<trkpt lat="-27.2803864" lon="152.9769014">
<ele>19.342</ele>
<time>2016-01-02T05:17:28.641Z</time>
</trkpt>
<trkpt lat="-27.2800904" lon="152.9769568">
<ele>19.456</ele>
<time>2016-01-02T05:17:31.707Z</time>
</trkpt>
<trkpt lat="-27.2797653" lon="152.9770228">
<ele>19.472</ele>
<time>2016-01-02T05:17:34.580Z</time>
</trkpt>
<trkpt lat="-27.2795501" lon="152.9770660">
<ele>19.512</ele>
<time>2016-01-02T05:17:36.458Z</time>
</trkpt>
<trkpt lat="-27.2791976" lon="152.9771331">
<ele>19.561</ele>
<time>2016-01-02T05:17:39.543Z</time>
</trkpt>
<trkpt lat="-27.2789714" lon="152.9771761">
<ele>19.085</ele>
<time>2016-01-02T05:17:41.505Z</time>
</trkpt>
<trkpt lat="-27.2787966" lon="152.9772094">
<ele>17.641</ele>
<time>2016-01-02T05:17:42.969Z</time>
</trkpt>
<trkpt lat="-27.2785997" lon="152.9772468">
<ele>15.506</ele>
<time>2016-01-02T05:17:44.603Z</time>
</trkpt>
<trkpt lat="-27.2784975" lon="152.9772662">
<ele>12.871</ele>
<time>2016-01-02T05:17:45.451Z</time>
</trkpt>
<trkpt lat="-27.2784476" lon="152.9773740">
<ele>10.001</ele>
<time>2016-01-02T05:17:46.332Z</time>
</trkpt>
<trkpt lat="-27.2784986" lon="152.9777162">
<ele>7.875</ele>
<time>2016-01-02T05:17:48.908Z</time>
</trkpt>
<trkpt lat="-27.2785491" lon="152.9780579">
<ele>7.394</ele>
<time>2016-01-02T05:17:52.314Z</time>
</trkpt>
<trkpt lat="-27.2785654" lon="152.9781814">
<ele>8.387</ele>
<time>2016-01-02T05:17:54.332Z</time>
</trkpt>
<trkpt lat="-27.2783856" lon="152.9783142">
<ele>9.292</ele>
<time>2016-01-02T05:17:59.398Z</time>
</trkpt>
<trkpt lat="-27.2780959" lon="152.9783683">
<ele>8.979</ele>
<time>2016-01-02T05:18:03.209Z</time>
</trkpt>
<trkpt lat="-27.2777107" lon="152.9784388">
<ele>8.112</ele>
<time>2016-01-02T05:18:08.360Z</time>
</trkpt>
<trkpt lat="-27.2773381" lon="152.9785031">
<ele>7.567</ele>
<time>2016-01-02T05:18:12.582Z</time>
</trkpt>
<trkpt lat="-27.2771041" lon="152.9785434">
<ele>7.256</ele>
<time>2016-01-02T05:18:14.493Z</time>
</trkpt>
<trkpt lat="-27.2767842" lon="152.9785939">
<ele>6.879</ele>
<time>2016-01-02T05:18:16.992Z</time>
</trkpt>
<trkpt lat="-27.2764953" lon="152.9786080">
<ele>6.514</ele>
<time>2016-01-02T05:18:19.261Z</time>
</trkpt>
<trkpt lat="-27.2761850" lon="152.9786480">
<ele>6.237</ele>
<time>2016-01-02T05:18:21.902Z</time>
</trkpt>
<trkpt lat="-27.2760714" lon="152.9788890">
<ele>5.739</ele>
<time>2016-01-02T05:18:24.148Z</time>
</trkpt>
<trkpt lat="-27.2760274" lon="152.9790633">
<ele>4.568</ele>
<time>2016-01-02T05:18:25.749Z</time>
</trkpt>
<trkpt lat="-27.2759730" lon="152.9792330">
<ele>2.636</ele>
<time>2016-01-02T05:18:27.535Z</time>
</trkpt>
<trkpt lat="-27.2759309" lon="152.9793353">
<ele>0.247</ele>
<time>2016-01-02T05:18:28.674Z</time>
</trkpt>
<trkpt lat="-27.2758730" lon="152.9794324">
<ele>0.000</ele>
<time>2016-01-02T05:18:29.909Z</time>
</trkpt>
<trkpt lat="-27.2758208" lon="152.9795258">
<ele>0.000</ele>
<time>2016-01-02T05:18:31.092Z</time>
</trkpt>
<trkpt lat="-27.2757601" lon="152.9794376">
<ele>0.000</ele>
<time>2016-01-02T05:18:32.268Z</time>
</trkpt>
<trkpt lat="-27.2753657" lon="152.9791409">
<ele>0.000</ele>
<time>2016-01-02T05:18:37.493Z</time>
</trkpt>
<trkpt lat="-27.2754127" lon="152.9792758">
<ele>0.000</ele>
<time>2016-01-02T05:18:39.427Z</time>
</trkpt>
<trkpt lat="-27.2754875" lon="152.9793697">
<ele>0.000</ele>
<time>2016-01-02T05:18:41.429Z</time>
</trkpt>
<trkpt lat="-27.2755645" lon="152.9794875">
<ele>0.000</ele>
<time>2016-01-02T05:18:44.456Z</time>
</trkpt>
<trkpt lat="-27.2759762" lon="152.9801164">
<ele>0.000</ele>
<time>2016-01-02T05:19:01.466Z</time>
</trkpt>
<trkpt lat="-27.2759503" lon="152.9792691">
<ele>0.000</ele>
<time>2016-01-02T05:19:17.002Z</time>
</trkpt>
<trkpt lat="-27.2760286" lon="152.9790591">
<ele>0.000</ele>
<time>2016-01-02T05:19:19.132Z</time>
</trkpt>
<trkpt lat="-27.2761066" lon="152.9787537">
<ele>0.000</ele>
<time>2016-01-02T05:19:22.091Z</time>
</trkpt>
<trkpt lat="-27.2762749" lon="152.9786179">
<ele>0.000</ele>
<time>2016-01-02T05:19:24.474Z</time>
</trkpt>
<trkpt lat="-27.2764532" lon="152.9786091">
<ele>0.000</ele>
<time>2016-01-02T05:19:26.723Z</time>
</trkpt>
<trkpt lat="-27.2766945" lon="152.9786016">
<ele>0.748</ele>
<time>2016-01-02T05:19:29.723Z</time>
</trkpt>
<trkpt lat="-27.2768710" lon="152.9785813">
<ele>2.864</ele>
<time>2016-01-02T05:19:31.710Z</time>
</trkpt>
<trkpt lat="-27.2771815" lon="152.9785301">
<ele>4.009</ele>
<time>2016-01-02T05:19:34.875Z</time>
</trkpt>
<trkpt lat="-27.2774758" lon="152.9784793">
<ele>4.571</ele>
<time>2016-01-02T05:19:37.915Z</time>
</trkpt>
<trkpt lat="-27.2777517" lon="152.9784318">
<ele>5.011</ele>
<time>2016-01-02T05:19:40.992Z</time>
</trkpt>
<trkpt lat="-27.2781409" lon="152.9783599">
<ele>5.390</ele>
<time>2016-01-02T05:19:45.225Z</time>
</trkpt>
<trkpt lat="-27.2783346" lon="152.9783237">
<ele>5.595</ele>
<time>2016-01-02T05:19:48.160Z</time>
</trkpt>
<trkpt lat="-27.2784664" lon="152.9782991">
<ele>5.664</ele>
<time>2016-01-02T05:19:50.472Z</time>
</trkpt>
<trkpt lat="-27.2786198" lon="152.9785222">
<ele>5.707</ele>
<time>2016-01-02T05:19:53.318Z</time>
</trkpt>
<trkpt lat="-27.2786603" lon="152.9787811">
<ele>6.132</ele>
<time>2016-01-02T05:19:55.307Z</time>
</trkpt>
<trkpt lat="-27.2787021" lon="152.9790482">
<ele>7.315</ele>
<time>2016-01-02T05:19:57.282Z</time>
</trkpt>
<trkpt lat="-27.2787409" lon="152.9792959">
<ele>8.831</ele>
<time>2016-01-02T05:19:59.084Z</time>
</trkpt>
<trkpt lat="-27.2787812" lon="152.9795533">
<ele>9.625</ele>
<time>2016-01-02T05:20:00.980Z</time>
</trkpt>
<trkpt lat="-27.2788752" lon="152.9798789">
<ele>8.942</ele>
<time>2016-01-02T05:20:03.605Z</time>
</trkpt>
<trkpt lat="-27.2790673" lon="152.9799850">
<ele>6.990</ele>
<time>2016-01-02T05:20:05.504Z</time>
</trkpt>
<trkpt lat="-27.2793023" lon="152.9800531">
<ele>4.888</ele>
<time>2016-01-02T05:20:07.574Z</time>
</trkpt>
<trkpt lat="-27.2796498" lon="152.9801534">
<ele>3.818</ele>
<time>2016-01-02T05:20:10.551Z</time>
</trkpt>
<trkpt lat="-27.2798568" lon="152.9802132">
<ele>3.966</ele>
<time>2016-01-02T05:20:12.482Z</time>
</trkpt>
<trkpt lat="-27.2800651" lon="152.9802734">
<ele>4.639</ele>
<time>2016-01-02T05:20:14.535Z</time>
</trkpt>
<trkpt lat="-27.2804237" lon="152.9803733">
<ele>5.208</ele>
<time>2016-01-02T05:20:17.903Z</time>
</trkpt>
<trkpt lat="-27.2806520" lon="152.9804357">
<ele>5.455</ele>
<time>2016-01-02T05:20:19.821Z</time>
</trkpt>
<trkpt lat="-27.2809001" lon="152.9805045">
<ele>5.387</ele>
<time>2016-01-02T05:20:21.828Z</time>
</trkpt>
<trkpt lat="-27.2812685" lon="152.9806103">
<ele>4.942</ele>
<time>2016-01-02T05:20:24.866Z</time>
</trkpt>
<trkpt lat="-27.2814841" lon="152.9806722">
<ele>4.144</ele>
<time>2016-01-02T05:20:26.798Z</time>
</trkpt>
<trkpt lat="-27.2817724" lon="152.9807490">
<ele>3.595</ele>
<time>2016-01-02T05:20:29.613Z</time>
</trkpt>
<trkpt lat="-27.2820484" lon="152.9807767">
<ele>3.858</ele>
<time>2016-01-02T05:20:32.496Z</time>
</trkpt>
<trkpt lat="-27.2822333" lon="152.9807456">
<ele>4.615</ele>
<time>2016-01-02T05:20:34.540Z</time>
</trkpt>
<trkpt lat="-27.2824580" lon="152.9807071">
<ele>5.066</ele>
<time>2016-01-02T05:20:37.379Z</time>
</trkpt>
<trkpt lat="-27.2825626" lon="152.9806892">
<ele>4.746</ele>
<time>2016-01-02T05:20:38.997Z</time>
</trkpt>
<trkpt lat="-27.2825626" lon="152.9806892">
<ele>3.955</ele>
<time>2016-01-02T05:20:45.997Z</time>
</trkpt>
<trkpt lat="-27.2825626" lon="152.9806892">
<ele>3.420</ele>
<time>2016-01-02T05:21:23.136Z</time>
</trkpt>
<trkpt lat="-27.2827749" lon="152.9807739">
<ele>3.552</ele>
<time>2016-01-02T05:21:32.076Z</time>
</trkpt>
<trkpt lat="-27.2828103" lon="152.9809446">
<ele>4.247</ele>
<time>2016-01-02T05:21:33.954Z</time>
</trkpt>
<trkpt lat="-27.2828348" lon="152.9811538">
<ele>5.177</ele>
<time>2016-01-02T05:21:35.825Z</time>
</trkpt>
<trkpt lat="-27.2828644" lon="152.9813855">
<ele>6.161</ele>
<time>2016-01-02T05:21:37.752Z</time>
</trkpt>
<trkpt lat="-27.2829085" lon="152.9817487">
<ele>7.114</ele>
<time>2016-01-02T05:21:40.719Z</time>
</trkpt>
<trkpt lat="-27.2829631" lon="152.9821258">
<ele>7.776</ele>
<time>2016-01-02T05:21:43.780Z</time>
</trkpt>
<trkpt lat="-27.2830060" lon="152.9823789">
<ele>7.848</ele>
<time>2016-01-02T05:21:45.876Z</time>
</trkpt>
<trkpt lat="-27.2830415" lon="152.9826108">
<ele>7.452</ele>
<time>2016-01-02T05:21:48.222Z</time>
</trkpt>
<trkpt lat="-27.2830183" lon="152.9828593">
<ele>6.703</ele>
<time>2016-01-02T05:21:50.924Z</time>
</trkpt>
<trkpt lat="-27.2827673" lon="152.9828904">
<ele>5.408</ele>
<time>2016-01-02T05:21:53.354Z</time>
</trkpt>
<trkpt lat="-27.2823533" lon="152.9827776">
<ele>3.850</ele>
<time>2016-01-02T05:21:56.341Z</time>
</trkpt>
<trkpt lat="-27.2820074" lon="152.9826939">
<ele>3.656</ele>
<time>2016-01-02T05:21:58.408Z</time>
</trkpt>
<trkpt lat="-27.2815428" lon="152.9825842">
<ele>5.609</ele>
<time>2016-01-02T05:22:01.275Z</time>
</trkpt>
<trkpt lat="-27.2811401" lon="152.9824538">
<ele>8.257</ele>
<time>2016-01-02T05:22:04.107Z</time>
</trkpt>
<trkpt lat="-27.2807736" lon="152.9823411">
<ele>10.064</ele>
<time>2016-01-02T05:22:06.944Z</time>
</trkpt>
<trkpt lat="-27.2805346" lon="152.9822689">
<ele>10.630</ele>
<time>2016-01-02T05:22:08.828Z</time>
</trkpt>
<trkpt lat="-27.2801361" lon="152.9821690">
<ele>9.769</ele>
<time>2016-01-02T05:22:11.747Z</time>
</trkpt>
<trkpt lat="-27.2797037" lon="152.9820296">
<ele>7.796</ele>
<time>2016-01-02T05:22:14.830Z</time>
</trkpt>
<trkpt lat="-27.2793288" lon="152.9819149">
<ele>5.575</ele>
<time>2016-01-02T05:22:17.527Z</time>
</trkpt>
<trkpt lat="-27.2790978" lon="152.9818632">
<ele>3.970</ele>
<time>2016-01-02T05:22:19.164Z</time>
</trkpt>
<trkpt lat="-27.2783980" lon="152.9816566">
<ele>3.426</ele>
<time>2016-01-02T05:22:24.054Z</time>
</trkpt>
<trkpt lat="-27.2775807" lon="152.9813774">
<ele>3.633</ele>
<time>2016-01-02T05:22:29.300Z</time>
</trkpt>
<trkpt lat="-27.2770108" lon="152.9812093">
<ele>3.563</ele>
<time>2016-01-02T05:22:32.311Z</time>
</trkpt>
<trkpt lat="-27.2763895" lon="152.9811750">
<ele>3.581</ele>
<time>2016-01-02T05:22:35.282Z</time>
</trkpt>
<trkpt lat="-27.2759677" lon="152.9812112">
<ele>4.113</ele>
<time>2016-01-02T05:22:37.284Z</time>
</trkpt>
<trkpt lat="-27.2753875" lon="152.9812939">
<ele>4.977</ele>
<time>2016-01-02T05:22:40.183Z</time>
</trkpt>
<trkpt lat="-27.2747026" lon="152.9814267">
<ele>6.051</ele>
<time>2016-01-02T05:22:43.713Z</time>
</trkpt>
<trkpt lat="-27.2742152" lon="152.9815009">
<ele>5.661</ele>
<time>2016-01-02T05:22:46.384Z</time>
</trkpt>
<trkpt lat="-27.2734250" lon="152.9815090">
<ele>4.986</ele>
<time>2016-01-02T05:22:50.913Z</time>
</trkpt>
<trkpt lat="-27.2731284" lon="152.9814511">
<ele>4.408</ele>
<time>2016-01-02T05:22:52.819Z</time>
</trkpt>
<trkpt lat="-27.2728128" lon="152.9813526">
<ele>3.953</ele>
<time>2016-01-02T05:22:54.891Z</time>
</trkpt>
<trkpt lat="-27.2723748" lon="152.9811196">
<ele>3.457</ele>
<time>2016-01-02T05:22:57.959Z</time>
</trkpt>
<trkpt lat="-27.2721380" lon="152.9809263">
<ele>2.832</ele>
<time>2016-01-02T05:22:59.879Z</time>
</trkpt>
<trkpt lat="-27.2718958" lon="152.9806828">
<ele>2.286</ele>
<time>2016-01-02T05:23:02.006Z</time>
</trkpt>
<trkpt lat="-27.2716095" lon="152.9802749">
<ele>2.345</ele>
<time>2016-01-02T05:23:04.992Z</time>
</trkpt>
<trkpt lat="-27.2714433" lon="152.9800006">
<ele>3.353</ele>
<time>2016-01-02T05:23:06.968Z</time>
</trkpt>
<trkpt lat="-27.2712120" lon="152.9796181">
<ele>4.963</ele>
<time>2016-01-02T05:23:09.858Z</time>
</trkpt>
<trkpt lat="-27.2710615" lon="152.9793636">
<ele>6.336</ele>
<time>2016-01-02T05:23:11.854Z</time>
</trkpt>
<trkpt lat="-27.2709186" lon="152.9791194">
<ele>6.853</ele>
<time>2016-01-02T05:23:13.773Z</time>
</trkpt>
<trkpt lat="-27.2707016" lon="152.9787429">
<ele>6.356</ele>
<time>2016-01-02T05:23:16.722Z</time>
</trkpt>
<trkpt lat="-27.2705511" lon="152.9784959">
<ele>5.030</ele>
<time>2016-01-02T05:23:18.709Z</time>
</trkpt>
<trkpt lat="-27.2702849" lon="152.9782205">
<ele>3.196</ele>
<time>2016-01-02T05:23:21.736Z</time>
</trkpt>
<trkpt lat="-27.2701545" lon="152.9781057">
<ele>1.403</ele>
<time>2016-01-02T05:23:23.333Z</time>
</trkpt>
<trkpt lat="-27.2699897" lon="152.9778415">
<ele>0.261</ele>
<time>2016-01-02T05:23:26.181Z</time>
</trkpt>
<trkpt lat="-27.2698069" lon="152.9775006">
<ele>0.000</ele>
<time>2016-01-02T05:23:29.384Z</time>
</trkpt>
<trkpt lat="-27.2696451" lon="152.9772218">
<ele>0.414</ele>
<time>2016-01-02T05:23:31.965Z</time>
</trkpt>
<trkpt lat="-27.2694404" lon="152.9768269">
<ele>1.404</ele>
<time>2016-01-02T05:23:35.259Z</time>
</trkpt>
<trkpt lat="-27.2694404" lon="152.9768269">
<ele>1.404</ele>
<time>2016-01-02T05:23:35.259Z</time>
</trkpt>
<trkpt lat="-27.2684749" lon="152.9747499">
<ele>14.723</ele>
<time>2016-01-02T05:23:49.899Z</time>
</trkpt>
<trkpt lat="-27.2684560" lon="152.9741911">
<ele>14.716</ele>
<time>2016-01-02T05:23:53.162Z</time>
</trkpt>
<trkpt lat="-27.2685146" lon="152.9738565">
<ele>15.476</ele>
<time>2016-01-02T05:23:55.162Z</time>
</trkpt>
<trkpt lat="-27.2685861" lon="152.9735263">
<ele>17.684</ele>
<time>2016-01-02T05:23:57.206Z</time>
</trkpt>
<trkpt lat="-27.2686981" lon="152.9730379">
<ele>20.431</ele>
<time>2016-01-02T05:24:00.348Z</time>
</trkpt>
<trkpt lat="-27.2686994" lon="152.9727409">
<ele>22.532</ele>
<time>2016-01-02T05:24:02.292Z</time>
</trkpt>
<trkpt lat="-27.2685979" lon="152.9723209">
<ele>23.979</ele>
<time>2016-01-02T05:24:05.049Z</time>
</trkpt>
<trkpt lat="-27.2683762" lon="152.9718119">
<ele>25.322</ele>
<time>2016-01-02T05:24:08.380Z</time>
</trkpt>
<trkpt lat="-27.2682175" lon="152.9714895">
<ele>27.159</ele>
<time>2016-01-02T05:24:10.475Z</time>
</trkpt>
<trkpt lat="-27.2679921" lon="152.9710825">
<ele>29.374</ele>
<time>2016-01-02T05:24:13.213Z</time>
</trkpt>
<trkpt lat="-27.2678335" lon="152.9708030">
<ele>31.116</ele>
<time>2016-01-02T05:24:15.079Z</time>
</trkpt>
<trkpt lat="-27.2675897" lon="152.9703543">
<ele>31.823</ele>
<time>2016-01-02T05:24:18.011Z</time>
</trkpt>
<trkpt lat="-27.2673362" lon="152.9698776">
<ele>31.309</ele>
<time>2016-01-02T05:24:21.201Z</time>
</trkpt>
<trkpt lat="-27.2670558" lon="152.9694104">
<ele>29.903</ele>
<time>2016-01-02T05:24:24.538Z</time>
</trkpt>
<trkpt lat="-27.2668319" lon="152.9689771">
<ele>28.734</ele>
<time>2016-01-02T05:24:27.474Z</time>
</trkpt>
<trkpt lat="-27.2666769" lon="152.9686734">
<ele>28.880</ele>
<time>2016-01-02T05:24:29.562Z</time>
</trkpt>
<trkpt lat="-27.2665412" lon="152.9684005">
<ele>30.362</ele>
<time>2016-01-02T05:24:31.434Z</time>
</trkpt>
<trkpt lat="-27.2663106" lon="152.9679750">
<ele>32.206</ele>
<time>2016-01-02T05:24:34.367Z</time>
</trkpt>
<trkpt lat="-27.2660603" lon="152.9675808">
<ele>33.172</ele>
<time>2016-01-02T05:24:37.229Z</time>
</trkpt>
<trkpt lat="-27.2657876" lon="152.9672076">
<ele>32.584</ele>
<time>2016-01-02T05:24:40.235Z</time>
</trkpt>
<trkpt lat="-27.2655971" lon="152.9669917">
<ele>30.932</ele>
<time>2016-01-02T05:24:42.344Z</time>
</trkpt>
<trkpt lat="-27.2653543" lon="152.9666895">
<ele>29.470</ele>
<time>2016-01-02T05:24:45.380Z</time>
</trkpt>
<trkpt lat="-27.2651337" lon="152.9664071">
<ele>28.747</ele>
<time>2016-01-02T05:24:48.402Z</time>
</trkpt>
<trkpt lat="-27.2650383" lon="152.9660913">
<ele>28.026</ele>
<time>2016-01-02T05:24:51.198Z</time>
</trkpt>
<trkpt lat="-27.2649968" lon="152.9658783">
<ele>26.600</ele>
<time>2016-01-02T05:24:52.942Z</time>
</trkpt>
<trkpt lat="-27.2647269" lon="152.9656450">
<ele>24.901</ele>
<time>2016-01-02T05:24:55.797Z</time>
</trkpt>
<trkpt lat="-27.2644607" lon="152.9653717">
<ele>23.799</ele>
<time>2016-01-02T05:24:58.524Z</time>
</trkpt>
<trkpt lat="-27.2643327" lon="152.9650235">
<ele>23.657</ele>
<time>2016-01-02T05:25:00.829Z</time>
</trkpt>
<trkpt lat="-27.2641736" lon="152.9645744">
<ele>24.304</ele>
<time>2016-01-02T05:25:03.772Z</time>
</trkpt>
<trkpt lat="-27.2640679" lon="152.9642812">
<ele>25.136</ele>
<time>2016-01-02T05:25:05.787Z</time>
</trkpt>
<trkpt lat="-27.2639747" lon="152.9639921">
<ele>25.460</ele>
<time>2016-01-02T05:25:07.815Z</time>
</trkpt>
<trkpt lat="-27.2638348" lon="152.9635758">
<ele>21.065</ele>
<time>2016-01-02T05:25:10.620Z</time>
</trkpt>
<trkpt lat="-27.2636777" lon="152.9631036">
<ele>9.114</ele>
<time>2016-01-02T05:25:13.502Z</time>
</trkpt>
<trkpt lat="-27.2635392" lon="152.9625523">
<ele>0.000</ele>
<time>2016-01-02T05:25:16.540Z</time>
</trkpt>
<trkpt lat="-27.2634792" lon="152.9621828">
<ele>0.000</ele>
<time>2016-01-02T05:25:18.476Z</time>
</trkpt>
<trkpt lat="-27.2633462" lon="152.9618796">
<ele>0.000</ele>
<time>2016-01-02T05:25:20.186Z</time>
</trkpt>
<trkpt lat="-27.2632924" lon="152.9612606">
<ele>0.000</ele>
<time>2016-01-02T05:25:23.273Z</time>
</trkpt>
<trkpt lat="-27.2632546" lon="152.9608358">
<ele>0.000</ele>
<time>2016-01-02T05:25:25.371Z</time>
</trkpt>
<trkpt lat="-27.2632464" lon="152.9602299">
<ele>13.357</ele>
<time>2016-01-02T05:25:28.417Z</time>
</trkpt>
<trkpt lat="-27.2632144" lon="152.9596673">
<ele>18.729</ele>
<time>2016-01-02T05:25:31.376Z</time>
</trkpt>
<trkpt lat="-27.2631945" lon="152.9593142">
<ele>17.098</ele>
<time>2016-01-02T05:25:33.351Z</time>
</trkpt>
<trkpt lat="-27.2631648" lon="152.9590106">
<ele>13.459</ele>
<time>2016-01-02T05:25:35.199Z</time>
</trkpt>
<trkpt lat="-27.2630740" lon="152.9585919">
<ele>11.402</ele>
<time>2016-01-02T05:25:38.092Z</time>
</trkpt>
<trkpt lat="-27.2629634" lon="152.9582814">
<ele>11.367</ele>
<time>2016-01-02T05:25:40.880Z</time>
</trkpt>
<trkpt lat="-27.2628837" lon="152.9581030">
<ele>12.311</ele>
<time>2016-01-02T05:25:43.000Z</time>
</trkpt>
<trkpt lat="-27.2628837" lon="152.9581030">
<ele>13.027</ele>
<time>2016-01-02T05:25:51.000Z</time>
</trkpt>
<trkpt lat="-27.2628837" lon="152.9581030">
<ele>13.001</ele>
<time>2016-01-02T05:26:21.276Z</time>
</trkpt>
<trkpt lat="-27.2627130" lon="152.9578696">
<ele>12.618</ele>
<time>2016-01-02T05:26:32.361Z</time>
</trkpt>
<trkpt lat="-27.2625378" lon="152.9576688">
<ele>11.009</ele>
<time>2016-01-02T05:26:35.197Z</time>
</trkpt>
<trkpt lat="-27.2622853" lon="152.9574129">
<ele>7.419</ele>
<time>2016-01-02T05:26:38.154Z</time>
</trkpt>
<trkpt lat="-27.2621063" lon="152.9572397">
<ele>3.735</ele>
<time>2016-01-02T05:26:39.922Z</time>
</trkpt>
<trkpt lat="-27.2618901" lon="152.9570316">
<ele>1.840</ele>
<time>2016-01-02T05:26:41.941Z</time>
</trkpt>
<trkpt lat="-27.2616571" lon="152.9568131">
<ele>1.399</ele>
<time>2016-01-02T05:26:44.052Z</time>
</trkpt>
<trkpt lat="-27.2613095" lon="152.9564670">
<ele>1.733</ele>
<time>2016-01-02T05:26:47.271Z</time>
</trkpt>
<trkpt lat="-27.2610233" lon="152.9561555">
<ele>2.380</ele>
<time>2016-01-02T05:26:49.976Z</time>
</trkpt>
<trkpt lat="-27.2608317" lon="152.9558989">
<ele>3.439</ele>
<time>2016-01-02T05:26:51.931Z</time>
</trkpt>
<trkpt lat="-27.2605734" lon="152.9554645">
<ele>5.221</ele>
<time>2016-01-02T05:26:54.981Z</time>
</trkpt>
<trkpt lat="-27.2603277" lon="152.9550018">
<ele>7.595</ele>
<time>2016-01-02T05:26:58.145Z</time>
</trkpt>
<trkpt lat="-27.2601672" lon="152.9546988">
<ele>9.904</ele>
<time>2016-01-02T05:27:00.167Z</time>
</trkpt>
<trkpt lat="-27.2600039" lon="152.9543887">
<ele>11.468</ele>
<time>2016-01-02T05:27:02.168Z</time>
</trkpt>
<trkpt lat="-27.2598334" lon="152.9540683">
<ele>12.124</ele>
<time>2016-01-02T05:27:04.262Z</time>
</trkpt>
<trkpt lat="-27.2595999" lon="152.9536629">
<ele>12.303</ele>
<time>2016-01-02T05:27:07.042Z</time>
</trkpt>
<trkpt lat="-27.2593716" lon="152.9532384">
<ele>12.127</ele>
<time>2016-01-02T05:27:09.922Z</time>
</trkpt>
<trkpt lat="-27.2592119" lon="152.9529477">
<ele>11.590</ele>
<time>2016-01-02T05:27:11.877Z</time>
</trkpt>
<trkpt lat="-27.2589722" lon="152.9525385">
<ele>11.293</ele>
<time>2016-01-02T05:27:14.745Z</time>
</trkpt>
<trkpt lat="-27.2587433" lon="152.9520864">
<ele>12.094</ele>
<time>2016-01-02T05:27:17.843Z</time>
</trkpt>
<trkpt lat="-27.2585772" lon="152.9517838">
<ele>13.835</ele>
<time>2016-01-02T05:27:19.876Z</time>
</trkpt>
<trkpt lat="-27.2584179" lon="152.9515067">
<ele>15.426</ele>
<time>2016-01-02T05:27:21.690Z</time>
</trkpt>
<trkpt lat="-27.2582369" lon="152.9512214">
<ele>16.296</ele>
<time>2016-01-02T05:27:23.522Z</time>
</trkpt>
<trkpt lat="-27.2578948" lon="152.9507591">
<ele>16.779</ele>
<time>2016-01-02T05:27:26.634Z</time>
</trkpt>
<trkpt lat="-27.2575676" lon="152.9503412">
<ele>17.220</ele>
<time>2016-01-02T05:27:29.506Z</time>
</trkpt>
<trkpt lat="-27.2572255" lon="152.9500577">
<ele>17.860</ele>
<time>2016-01-02T05:27:31.812Z</time>
</trkpt>
<trkpt lat="-27.2567022" lon="152.9497576">
<ele>19.156</ele>
<time>2016-01-02T05:27:34.931Z</time>
</trkpt>
<trkpt lat="-27.2564139" lon="152.9495830">
<ele>21.118</ele>
<time>2016-01-02T05:27:36.865Z</time>
</trkpt>
<trkpt lat="-27.2560162" lon="152.9492850">
<ele>23.497</ele>
<time>2016-01-02T05:27:39.829Z</time>
</trkpt>
<trkpt lat="-27.2557887" lon="152.9490295">
<ele>26.286</ele>
<time>2016-01-02T05:27:41.836Z</time>
</trkpt>
<trkpt lat="-27.2554997" lon="152.9485876">
<ele>29.224</ele>
<time>2016-01-02T05:27:44.839Z</time>
</trkpt>
<trkpt lat="-27.2553400" lon="152.9482629">
<ele>31.561</ele>
<time>2016-01-02T05:27:46.816Z</time>
</trkpt>
<trkpt lat="-27.2552736" lon="152.9478740">
<ele>32.638</ele>
<time>2016-01-02T05:27:48.885Z</time>
</trkpt>
<trkpt lat="-27.2552274" lon="152.9472819">
<ele>32.462</ele>
<time>2016-01-02T05:27:51.959Z</time>
</trkpt>
<trkpt lat="-27.2552278" lon="152.9468954">
<ele>31.665</ele>
<time>2016-01-02T05:27:53.885Z</time>
</trkpt>
<trkpt lat="-27.2552182" lon="152.9462789">
<ele>30.635</ele>
<time>2016-01-02T05:27:56.936Z</time>
</trkpt>
<trkpt lat="-27.2552158" lon="152.9458809">
<ele>29.503</ele>
<time>2016-01-02T05:27:58.924Z</time>
</trkpt>
<trkpt lat="-27.2552109" lon="152.9454707">
<ele>28.459</ele>
<time>2016-01-02T05:28:01.043Z</time>
</trkpt>
<trkpt lat="-27.2551922" lon="152.9449328">
<ele>27.786</ele>
<time>2016-01-02T05:28:03.924Z</time>
</trkpt>
<trkpt lat="-27.2551684" lon="152.9445792">
<ele>28.030</ele>
<time>2016-01-02T05:28:05.958Z</time>
</trkpt>
<trkpt lat="-27.2551327" lon="152.9442851">
<ele>29.584</ele>
<time>2016-01-02T05:28:07.736Z</time>
</trkpt>
<trkpt lat="-27.2550533" lon="152.9438083">
<ele>32.166</ele>
<time>2016-01-02T05:28:10.698Z</time>
</trkpt>
<trkpt lat="-27.2549823" lon="152.9435112">
<ele>34.880</ele>
<time>2016-01-02T05:28:12.641Z</time>
</trkpt>
<trkpt lat="-27.2549144" lon="152.9432148">
<ele>37.051</ele>
<time>2016-01-02T05:28:14.567Z</time>
</trkpt>
<trkpt lat="-27.2548128" lon="152.9427359">
<ele>38.724</ele>
<time>2016-01-02T05:28:17.541Z</time>
</trkpt>
<trkpt lat="-27.2547287" lon="152.9423663">
<ele>40.443</ele>
<time>2016-01-02T05:28:19.656Z</time>
</trkpt>
<trkpt lat="-27.2546335" lon="152.9420233">
<ele>42.620</ele>
<time>2016-01-02T05:28:21.595Z</time>
</trkpt>
<trkpt lat="-27.2544689" lon="152.9414587">
<ele>45.209</ele>
<time>2016-01-02T05:28:24.670Z</time>
</trkpt>
<trkpt lat="-27.2543440" lon="152.9410858">
<ele>47.780</ele>
<time>2016-01-02T05:28:26.672Z</time>
</trkpt>
<trkpt lat="-27.2542060" lon="152.9406877">
<ele>49.763</ele>
<time>2016-01-02T05:28:28.829Z</time>
</trkpt>
<trkpt lat="-27.2540611" lon="152.9403330">
<ele>50.689</ele>
<time>2016-01-02T05:28:30.791Z</time>
</trkpt>
<trkpt lat="-27.2538764" lon="152.9399738">
<ele>50.634</ele>
<time>2016-01-02T05:28:32.847Z</time>
</trkpt>
<trkpt lat="-27.2536871" lon="152.9396342">
<ele>49.966</ele>
<time>2016-01-02T05:28:34.854Z</time>
</trkpt>
<trkpt lat="-27.2533974" lon="152.9391139">
<ele>48.708</ele>
<time>2016-01-02T05:28:37.972Z</time>
</trkpt>
<trkpt lat="-27.2532006" lon="152.9388121">
<ele>47.017</ele>
<time>2016-01-02T05:28:39.870Z</time>
</trkpt>
<trkpt lat="-27.2528600" lon="152.9383236">
<ele>45.542</ele>
<time>2016-01-02T05:28:42.995Z</time>
</trkpt>
<trkpt lat="-27.2526058" lon="152.9380296">
<ele>44.651</ele>
<time>2016-01-02T05:28:45.041Z</time>
</trkpt>
<trkpt lat="-27.2522056" lon="152.9375580">
<ele>44.022</ele>
<time>2016-01-02T05:28:48.294Z</time>
</trkpt>
<trkpt lat="-27.2519750" lon="152.9372668">
<ele>43.581</ele>
<time>2016-01-02T05:28:50.308Z</time>
</trkpt>
<trkpt lat="-27.2517740" lon="152.9369665">
<ele>43.502</ele>
<time>2016-01-02T05:28:52.298Z</time>
</trkpt>
<trkpt lat="-27.2514943" lon="152.9365112">
<ele>43.593</ele>
<time>2016-01-02T05:28:55.252Z</time>
</trkpt>
<trkpt lat="-27.2513547" lon="152.9361994">
<ele>43.566</ele>
<time>2016-01-02T05:28:57.164Z</time>
</trkpt>
<trkpt lat="-27.2511421" lon="152.9357518">
<ele>43.467</ele>
<time>2016-01-02T05:29:00.037Z</time>
</trkpt>
<trkpt lat="-27.2510270" lon="152.9354588">
<ele>43.413</ele>
<time>2016-01-02T05:29:01.870Z</time>
</trkpt>
<trkpt lat="-27.2508547" lon="152.9351485">
<ele>43.670</ele>
<time>2016-01-02T05:29:03.839Z</time>
</trkpt>
<trkpt lat="-27.2505413" lon="152.9346757">
<ele>44.282</ele>
<time>2016-01-02T05:29:06.855Z</time>
</trkpt>
<trkpt lat="-27.2501629" lon="152.9341827">
<ele>45.279</ele>
<time>2016-01-02T05:29:10.028Z</time>
</trkpt>
<trkpt lat="-27.2499015" lon="152.9338984">
<ele>47.352</ele>
<time>2016-01-02T05:29:12.013Z</time>
</trkpt>
<trkpt lat="-27.2496224" lon="152.9336167">
<ele>50.546</ele>
<time>2016-01-02T05:29:14.060Z</time>
</trkpt>
<trkpt lat="-27.2490611" lon="152.9330983">
<ele>53.588</ele>
<time>2016-01-02T05:29:18.014Z</time>
</trkpt>
<trkpt lat="-27.2487778" lon="152.9328247">
<ele>55.531</ele>
<time>2016-01-02T05:29:20.072Z</time>
</trkpt>
<trkpt lat="-27.2483778" lon="152.9324394">
<ele>56.270</ele>
<time>2016-01-02T05:29:23.054Z</time>
</trkpt>
<trkpt lat="-27.2480633" lon="152.9319783">
<ele>56.119</ele>
<time>2016-01-02T05:29:26.090Z</time>
</trkpt>
<trkpt lat="-27.2479194" lon="152.9316469">
<ele>55.714</ele>
<time>2016-01-02T05:29:28.066Z</time>
</trkpt>
<trkpt lat="-27.2478494" lon="152.9312902">
<ele>55.151</ele>
<time>2016-01-02T05:29:30.003Z</time>
</trkpt>
<trkpt lat="-27.2478782" lon="152.9307352">
<ele>54.286</ele>
<time>2016-01-02T05:29:32.910Z</time>
</trkpt>
<trkpt lat="-27.2480461" lon="152.9301734">
<ele>54.274</ele>
<time>2016-01-02T05:29:35.891Z</time>
</trkpt>
<trkpt lat="-27.2482888" lon="152.9295970">
<ele>56.327</ele>
<time>2016-01-02T05:29:38.957Z</time>
</trkpt>
<trkpt lat="-27.2485557" lon="152.9290601">
<ele>59.657</ele>
<time>2016-01-02T05:29:41.850Z</time>
</trkpt>
<trkpt lat="-27.2486988" lon="152.9284762">
<ele>62.825</ele>
<time>2016-01-02T05:29:44.686Z</time>
</trkpt>
<trkpt lat="-27.2487478" lon="152.9280567">
<ele>65.174</ele>
<time>2016-01-02T05:29:46.694Z</time>
</trkpt>
<trkpt lat="-27.2487508" lon="152.9274231">
<ele>66.433</ele>
<time>2016-01-02T05:29:49.686Z</time>
</trkpt>
<trkpt lat="-27.2485728" lon="152.9267560">
<ele>67.051</ele>
<time>2016-01-02T05:29:52.906Z</time>
</trkpt>
<trkpt lat="-27.2483486" lon="152.9261867">
<ele>68.151</ele>
<time>2016-01-02T05:29:55.746Z</time>
</trkpt>
<trkpt lat="-27.2481692" lon="152.9257871">
<ele>70.625</ele>
<time>2016-01-02T05:29:57.795Z</time>
</trkpt>
<trkpt lat="-27.2479068" lon="152.9251835">
<ele>74.748</ele>
<time>2016-01-02T05:30:00.954Z</time>
</trkpt>
<trkpt lat="-27.2476656" lon="152.9247162">
<ele>79.855</ele>
<time>2016-01-02T05:30:03.632Z</time>
</trkpt>
<trkpt lat="-27.2474078" lon="152.9242233">
<ele>84.240</ele>
<time>2016-01-02T05:30:06.519Z</time>
</trkpt>
<trkpt lat="-27.2471859" lon="152.9238404">
<ele>87.082</ele>
<time>2016-01-02T05:30:08.724Z</time>
</trkpt>
<trkpt lat="-27.2469639" lon="152.9234898">
<ele>89.354</ele>
<time>2016-01-02T05:30:10.740Z</time>
</trkpt>
<trkpt lat="-27.2467290" lon="152.9231359">
<ele>91.832</ele>
<time>2016-01-02T05:30:12.786Z</time>
</trkpt>
<trkpt lat="-27.2463599" lon="152.9226496">
<ele>94.352</ele>
<time>2016-01-02T05:30:15.700Z</time>
</trkpt>
<trkpt lat="-27.2460986" lon="152.9223027">
<ele>96.981</ele>
<time>2016-01-02T05:30:17.730Z</time>
</trkpt>
<trkpt lat="-27.2456674" lon="152.9218051">
<ele>99.641</ele>
<time>2016-01-02T05:30:20.841Z</time>
</trkpt>
<trkpt lat="-27.2453771" lon="152.9215062">
<ele>101.711</ele>
<time>2016-01-02T05:30:22.751Z</time>
</trkpt>
<trkpt lat="-27.2450543" lon="152.9212105">
<ele>102.931</ele>
<time>2016-01-02T05:30:24.576Z</time>
</trkpt>
<trkpt lat="-27.2444674" lon="152.9207231">
<ele>104.220</ele>
<time>2016-01-02T05:30:27.595Z</time>
</trkpt>
<trkpt lat="-27.2440653" lon="152.9204226">
<ele>106.708</ele>
<time>2016-01-02T05:30:29.541Z</time>
</trkpt>
<trkpt lat="-27.2434351" lon="152.9200163">
<ele>109.870</ele>
<time>2016-01-02T05:30:32.506Z</time>
</trkpt>
<trkpt lat="-27.2427965" lon="152.9196686">
<ele>111.604</ele>
<time>2016-01-02T05:30:35.392Z</time>
</trkpt>
<trkpt lat="-27.2423406" lon="152.9194444">
<ele>110.433</ele>
<time>2016-01-02T05:30:37.347Z</time>
</trkpt>
<trkpt lat="-27.2416173" lon="152.9191162">
<ele>107.069</ele>
<time>2016-01-02T05:30:40.392Z</time>
</trkpt>
<trkpt lat="-27.2409341" lon="152.9188101">
<ele>102.622</ele>
<time>2016-01-02T05:30:43.311Z</time>
</trkpt>
<trkpt lat="-27.2402562" lon="152.9185113">
<ele>96.772</ele>
<time>2016-01-02T05:30:46.270Z</time>
</trkpt>
<trkpt lat="-27.2398049" lon="152.9183080">
<ele>89.516</ele>
<time>2016-01-02T05:30:48.247Z</time>
</trkpt>
<trkpt lat="-27.2391142" lon="152.9179717">
<ele>82.467</ele>
<time>2016-01-02T05:30:51.229Z</time>
</trkpt>
<trkpt lat="-27.2386711" lon="152.9177034">
<ele>77.383</ele>
<time>2016-01-02T05:30:53.158Z</time>
</trkpt>
<trkpt lat="-27.2379914" lon="152.9172668">
<ele>74.125</ele>
<time>2016-01-02T05:30:56.120Z</time>
</trkpt>
<trkpt lat="-27.2375623" lon="152.9169406">
<ele>71.372</ele>
<time>2016-01-02T05:30:58.100Z</time>
</trkpt>
<trkpt lat="-27.2371631" lon="152.9166049">
<ele>68.630</ele>
<time>2016-01-02T05:31:00.069Z</time>
</trkpt>
<trkpt lat="-27.2366358" lon="152.9160568">
<ele>65.557</ele>
<time>2016-01-02T05:31:02.976Z</time>
</trkpt>
<trkpt lat="-27.2362966" lon="152.9156436">
<ele>62.063</ele>
<time>2016-01-02T05:31:05.012Z</time>
</trkpt>
<trkpt lat="-27.2359426" lon="152.9152301">
<ele>59.362</ele>
<time>2016-01-02T05:31:07.062Z</time>
</trkpt>
<trkpt lat="-27.2354580" lon="152.9146097">
<ele>58.062</ele>
<time>2016-01-02T05:31:10.006Z</time>
</trkpt>
<trkpt lat="-27.2351572" lon="152.9141818">
<ele>57.728</ele>
<time>2016-01-02T05:31:11.986Z</time>
</trkpt>
<trkpt lat="-27.2348884" lon="152.9137381">
<ele>57.865</ele>
<time>2016-01-02T05:31:13.977Z</time>
</trkpt>
<trkpt lat="-27.2345266" lon="152.9130706">
<ele>58.118</ele>
<time>2016-01-02T05:31:16.911Z</time>
</trkpt>
<trkpt lat="-27.2342842" lon="152.9126343">
<ele>58.687</ele>
<time>2016-01-02T05:31:18.870Z</time>
</trkpt>
<trkpt lat="-27.2339275" lon="152.9120436">
<ele>59.872</ele>
<time>2016-01-02T05:31:21.623Z</time>
</trkpt>
<trkpt lat="-27.2335566" lon="152.9113937">
<ele>61.609</ele>
<time>2016-01-02T05:31:24.602Z</time>
</trkpt>
<trkpt lat="-27.2333079" lon="152.9109658">
<ele>63.715</ele>
<time>2016-01-02T05:31:26.541Z</time>
</trkpt>
<trkpt lat="-27.2330192" lon="152.9105294">
<ele>65.767</ele>
<time>2016-01-02T05:31:28.570Z</time>
</trkpt>
<trkpt lat="-27.2327260" lon="152.9101194">
<ele>67.252</ele>
<time>2016-01-02T05:31:30.513Z</time>
</trkpt>
<trkpt lat="-27.2322287" lon="152.9095139">
<ele>67.990</ele>
<time>2016-01-02T05:31:33.527Z</time>
</trkpt>
<trkpt lat="-27.2318672" lon="152.9091209">
<ele>68.226</ele>
<time>2016-01-02T05:31:35.556Z</time>
</trkpt>
<trkpt lat="-27.2314965" lon="152.9087559">
<ele>68.408</ele>
<time>2016-01-02T05:31:37.528Z</time>
</trkpt>
<trkpt lat="-27.2311445" lon="152.9084431">
<ele>68.852</ele>
<time>2016-01-02T05:31:39.349Z</time>
</trkpt>
<trkpt lat="-27.2305848" lon="152.9079343">
<ele>69.580</ele>
<time>2016-01-02T05:31:42.331Z</time>
</trkpt>
<trkpt lat="-27.2302098" lon="152.9076110">
<ele>70.230</ele>
<time>2016-01-02T05:31:44.270Z</time>
</trkpt>
<trkpt lat="-27.2296197" lon="152.9071227">
<ele>70.579</ele>
<time>2016-01-02T05:31:47.252Z</time>
</trkpt>
<trkpt lat="-27.2292522" lon="152.9067986">
<ele>71.052</ele>
<time>2016-01-02T05:31:49.176Z</time>
</trkpt>
<trkpt lat="-27.2287262" lon="152.9062420">
<ele>71.875</ele>
<time>2016-01-02T05:31:52.208Z</time>
</trkpt>
<trkpt lat="-27.2283840" lon="152.9058730">
<ele>72.414</ele>
<time>2016-01-02T05:31:54.239Z</time>
</trkpt>
<trkpt lat="-27.2277238" lon="152.9050840">
<ele>72.184</ele>
<time>2016-01-02T05:31:58.309Z</time>
</trkpt>
<trkpt lat="-27.2274087" lon="152.9046511">
<ele>71.727</ele>
<time>2016-01-02T05:32:00.339Z</time>
</trkpt>
<trkpt lat="-27.2269686" lon="152.9039816">
<ele>71.604</ele>
<time>2016-01-02T05:32:03.328Z</time>
</trkpt>
<trkpt lat="-27.2265414" lon="152.9033176">
<ele>71.424</ele>
<time>2016-01-02T05:32:06.301Z</time>
</trkpt>
<trkpt lat="-27.2262616" lon="152.9029087">
<ele>70.764</ele>
<time>2016-01-02T05:32:08.211Z</time>
</trkpt>
<trkpt lat="-27.2259762" lon="152.9024778">
<ele>69.998</ele>
<time>2016-01-02T05:32:10.217Z</time>
</trkpt>
<trkpt lat="-27.2255584" lon="152.9018771">
<ele>69.227</ele>
<time>2016-01-02T05:32:13.080Z</time>
</trkpt>
<trkpt lat="-27.2250941" lon="152.9013214">
<ele>67.500</ele>
<time>2016-01-02T05:32:15.985Z</time>
</trkpt>
<trkpt lat="-27.2245634" lon="152.9007761">
<ele>63.765</ele>
<time>2016-01-02T05:32:19.059Z</time>
</trkpt>
<trkpt lat="-27.2242035" lon="152.9004252">
<ele>57.887</ele>
<time>2016-01-02T05:32:21.077Z</time>
</trkpt>
<trkpt lat="-27.2236606" lon="152.8999188">
<ele>51.328</ele>
<time>2016-01-02T05:32:24.106Z</time>
</trkpt>
<trkpt lat="-27.2233262" lon="152.8995948">
<ele>46.388</ele>
<time>2016-01-02T05:32:26.061Z</time>
</trkpt>
<trkpt lat="-27.2227869" lon="152.8991021">
<ele>43.917</ele>
<time>2016-01-02T05:32:29.118Z</time>
</trkpt>
<trkpt lat="-27.2224261" lon="152.8987630">
<ele>43.047</ele>
<time>2016-01-02T05:32:31.109Z</time>
</trkpt>
<trkpt lat="-27.2218157" lon="152.8981574">
<ele>43.328</ele>
<time>2016-01-02T05:32:34.354Z</time>
</trkpt>
<trkpt lat="-27.2212676" lon="152.8975067">
<ele>45.508</ele>
<time>2016-01-02T05:32:37.428Z</time>
</trkpt>
<trkpt lat="-27.2209438" lon="152.8971059">
<ele>49.857</ele>
<time>2016-01-02T05:32:39.322Z</time>
</trkpt>
<trkpt lat="-27.2206263" lon="152.8966892">
<ele>54.806</ele>
<time>2016-01-02T05:32:41.282Z</time>
</trkpt>
<trkpt lat="-27.2201658" lon="152.8960649">
<ele>58.368</ele>
<time>2016-01-02T05:32:44.219Z</time>
</trkpt>
<trkpt lat="-27.2198774" lon="152.8956303">
<ele>60.564</ele>
<time>2016-01-02T05:32:46.187Z</time>
</trkpt>
<trkpt lat="-27.2194656" lon="152.8949576">
<ele>62.842</ele>
<time>2016-01-02T05:32:49.142Z</time>
</trkpt>
<trkpt lat="-27.2192152" lon="152.8945280">
<ele>65.924</ele>
<time>2016-01-02T05:32:51.012Z</time>
</trkpt>
<trkpt lat="-27.2188566" lon="152.8938527">
<ele>69.622</ele>
<time>2016-01-02T05:32:53.892Z</time>
</trkpt>
<trkpt lat="-27.2185249" lon="152.8931730">
<ele>73.116</ele>
<time>2016-01-02T05:32:56.711Z</time>
</trkpt>
<trkpt lat="-27.2183111" lon="152.8926702">
<ele>75.154</ele>
<time>2016-01-02T05:32:58.715Z</time>
</trkpt>
<trkpt lat="-27.2181195" lon="152.8921798">
<ele>75.439</ele>
<time>2016-01-02T05:33:00.642Z</time>
</trkpt>
<trkpt lat="-27.2178529" lon="152.8914474">
<ele>74.414</ele>
<time>2016-01-02T05:33:03.514Z</time>
</trkpt>
<trkpt lat="-27.2175724" lon="152.8906713">
<ele>72.229</ele>
<time>2016-01-02T05:33:06.497Z</time>
</trkpt>
<trkpt lat="-27.2173929" lon="152.8901404">
<ele>69.053</ele>
<time>2016-01-02T05:33:08.473Z</time>
</trkpt>
<trkpt lat="-27.2171090" lon="152.8893514">
<ele>65.289</ele>
<time>2016-01-02T05:33:11.433Z</time>
</trkpt>
<trkpt lat="-27.2169364" lon="152.8888447">
<ele>61.083</ele>
<time>2016-01-02T05:33:13.342Z</time>
</trkpt>
<trkpt lat="-27.2166550" lon="152.8880759">
<ele>57.080</ele>
<time>2016-01-02T05:33:16.280Z</time>
</trkpt>
<trkpt lat="-27.2164739" lon="152.8875277">
<ele>54.743</ele>
<time>2016-01-02T05:33:18.325Z</time>
</trkpt>
<trkpt lat="-27.2162411" lon="152.8867363">
<ele>54.919</ele>
<time>2016-01-02T05:33:21.246Z</time>
</trkpt>
<trkpt lat="-27.2160647" lon="152.8862486">
<ele>56.941</ele>
<time>2016-01-02T05:33:23.128Z</time>
</trkpt>
<trkpt lat="-27.2157978" lon="152.8855112">
<ele>59.403</ele>
<time>2016-01-02T05:33:26.053Z</time>
</trkpt>
<trkpt lat="-27.2155343" lon="152.8847844">
<ele>61.041</ele>
<time>2016-01-02T05:33:28.985Z</time>
</trkpt>
<trkpt lat="-27.2152585" lon="152.8840277">
<ele>61.544</ele>
<time>2016-01-02T05:33:32.032Z</time>
</trkpt>
<trkpt lat="-27.2150763" lon="152.8835099">
<ele>61.382</ele>
<time>2016-01-02T05:33:34.076Z</time>
</trkpt>
<trkpt lat="-27.2148010" lon="152.8827700">
<ele>61.078</ele>
<time>2016-01-02T05:33:36.994Z</time>
</trkpt>
<trkpt lat="-27.2146350" lon="152.8822801">
<ele>60.741</ele>
<time>2016-01-02T05:33:38.919Z</time>
</trkpt>
<trkpt lat="-27.2143621" lon="152.8815978">
<ele>59.742</ele>
<time>2016-01-02T05:33:41.735Z</time>
</trkpt>
<trkpt lat="-27.2141342" lon="152.8811324">
<ele>57.358</ele>
<time>2016-01-02T05:33:43.756Z</time>
</trkpt>
<trkpt lat="-27.2138734" lon="152.8806765">
<ele>54.122</ele>
<time>2016-01-02T05:33:45.805Z</time>
</trkpt>
<trkpt lat="-27.2134086" lon="152.8800611">
<ele>51.270</ele>
<time>2016-01-02T05:33:48.798Z</time>
</trkpt>
<trkpt lat="-27.2130794" lon="152.8797034">
<ele>48.884</ele>
<time>2016-01-02T05:33:50.698Z</time>
</trkpt>
<trkpt lat="-27.2125241" lon="152.8792371">
<ele>46.300</ele>
<time>2016-01-02T05:33:53.586Z</time>
</trkpt>
<trkpt lat="-27.2119333" lon="152.8788006">
<ele>43.822</ele>
<time>2016-01-02T05:33:56.544Z</time>
</trkpt>
<trkpt lat="-27.2115639" lon="152.8785295">
<ele>42.378</ele>
<time>2016-01-02T05:33:58.406Z</time>
</trkpt>
<trkpt lat="-27.2111955" lon="152.8782436">
<ele>42.373</ele>
<time>2016-01-02T05:34:00.343Z</time>
</trkpt>
<trkpt lat="-27.2106212" lon="152.8778130">
<ele>43.395</ele>
<time>2016-01-02T05:34:03.383Z</time>
</trkpt>
<trkpt lat="-27.2100408" lon="152.8773990">
<ele>45.243</ele>
<time>2016-01-02T05:34:06.366Z</time>
</trkpt>
<trkpt lat="-27.2094609" lon="152.8769641">
<ele>48.013</ele>
<time>2016-01-02T05:34:09.355Z</time>
</trkpt>
<trkpt lat="-27.2090655" lon="152.8766608">
<ele>50.959</ele>
<time>2016-01-02T05:34:11.399Z</time>
</trkpt>
<trkpt lat="-27.2084966" lon="152.8761509">
<ele>52.891</ele>
<time>2016-01-02T05:34:14.462Z</time>
</trkpt>
<trkpt lat="-27.2080060" lon="152.8755537">
<ele>53.672</ele>
<time>2016-01-02T05:34:17.482Z</time>
</trkpt>
<trkpt lat="-27.2077149" lon="152.8751252">
<ele>53.879</ele>
<time>2016-01-02T05:34:19.488Z</time>
</trkpt>
<trkpt lat="-27.2073691" lon="152.8744620">
<ele>53.969</ele>
<time>2016-01-02T05:34:22.370Z</time>
</trkpt>
<trkpt lat="-27.2070746" lon="152.8737241">
<ele>54.463</ele>
<time>2016-01-02T05:34:25.407Z</time>
</trkpt>
<trkpt lat="-27.2068698" lon="152.8729372">
<ele>56.569</ele>
<time>2016-01-02T05:34:28.454Z</time>
</trkpt>
<trkpt lat="-27.2067467" lon="152.8721771">
<ele>60.356</ele>
<time>2016-01-02T05:34:31.323Z</time>
</trkpt>
<trkpt lat="-27.2067229" lon="152.8717495">
<ele>64.482</ele>
<time>2016-01-02T05:34:32.927Z</time>
</trkpt>
<trkpt lat="-27.2067374" lon="152.8712648">
<ele>68.063</ele>
<time>2016-01-02T05:34:34.814Z</time>
</trkpt>
<trkpt lat="-27.2067615" lon="152.8707480">
<ele>70.768</ele>
<time>2016-01-02T05:34:36.881Z</time>
</trkpt>
<trkpt lat="-27.2069120" lon="152.8699941">
<ele>72.584</ele>
<time>2016-01-02T05:34:39.920Z</time>
</trkpt>
<trkpt lat="-27.2071309" lon="152.8692368">
<ele>73.903</ele>
<time>2016-01-02T05:34:42.975Z</time>
</trkpt>
<trkpt lat="-27.2072971" lon="152.8686776">
<ele>74.321</ele>
<time>2016-01-02T05:34:45.197Z</time>
</trkpt>
<trkpt lat="-27.2074902" lon="152.8679115">
<ele>73.401</ele>
<time>2016-01-02T05:34:48.160Z</time>
</trkpt>
<trkpt lat="-27.2076711" lon="152.8671487">
<ele>71.093</ele>
<time>2016-01-02T05:34:51.092Z</time>
</trkpt>
<trkpt lat="-27.2078223" lon="152.8663232">
<ele>67.626</ele>
<time>2016-01-02T05:34:54.182Z</time>
</trkpt>
<trkpt lat="-27.2078885" lon="152.8658044">
<ele>63.667</ele>
<time>2016-01-02T05:34:56.073Z</time>
</trkpt>
<trkpt lat="-27.2078901" lon="152.8652380">
<ele>60.232</ele>
<time>2016-01-02T05:34:58.097Z</time>
</trkpt>
<trkpt lat="-27.2079176" lon="152.8644523">
<ele>57.670</ele>
<time>2016-01-02T05:35:00.943Z</time>
</trkpt>
<trkpt lat="-27.2079182" lon="152.8639194">
<ele>55.591</ele>
<time>2016-01-02T05:35:02.886Z</time>
</trkpt>
<trkpt lat="-27.2079270" lon="152.8630824">
<ele>53.425</ele>
<time>2016-01-02T05:35:05.964Z</time>
</trkpt>
<trkpt lat="-27.2079044" lon="152.8622514">
<ele>51.064</ele>
<time>2016-01-02T05:35:08.961Z</time>
</trkpt>
<trkpt lat="-27.2078205" lon="152.8617370">
<ele>48.977</ele>
<time>2016-01-02T05:35:10.811Z</time>
</trkpt>
<trkpt lat="-27.2075976" lon="152.8609388">
<ele>47.407</ele>
<time>2016-01-02T05:35:13.780Z</time>
</trkpt>
<trkpt lat="-27.2073855" lon="152.8604352">
<ele>45.760</ele>
<time>2016-01-02T05:35:15.767Z</time>
</trkpt>
<trkpt lat="-27.2071402" lon="152.8599576">
<ele>44.026</ele>
<time>2016-01-02T05:35:17.732Z</time>
</trkpt>
<trkpt lat="-27.2066556" lon="152.8593339">
<ele>42.925</ele>
<time>2016-01-02T05:35:20.698Z</time>
</trkpt>
<trkpt lat="-27.2062976" lon="152.8589739">
<ele>43.068</ele>
<time>2016-01-02T05:35:22.637Z</time>
</trkpt>
<trkpt lat="-27.2057535" lon="152.8585043">
<ele>44.620</ele>
<time>2016-01-02T05:35:25.428Z</time>
</trkpt>
<trkpt lat="-27.2053744" lon="152.8581923">
<ele>47.493</ele>
<time>2016-01-02T05:35:27.375Z</time>
</trkpt>
<trkpt lat="-27.2048098" lon="152.8577401">
<ele>51.074</ele>
<time>2016-01-02T05:35:30.305Z</time>
</trkpt>
<trkpt lat="-27.2042369" lon="152.8572773">
<ele>54.318</ele>
<time>2016-01-02T05:35:33.333Z</time>
</trkpt>
<trkpt lat="-27.2038673" lon="152.8569555">
<ele>56.670</ele>
<time>2016-01-02T05:35:35.333Z</time>
</trkpt>
<trkpt lat="-27.2035265" lon="152.8565883">
<ele>58.189</ele>
<time>2016-01-02T05:35:37.350Z</time>
</trkpt>
<trkpt lat="-27.2030689" lon="152.8560065">
<ele>58.906</ele>
<time>2016-01-02T05:35:40.308Z</time>
</trkpt>
<trkpt lat="-27.2028019" lon="152.8556016">
<ele>59.166</ele>
<time>2016-01-02T05:35:42.240Z</time>
</trkpt>
<trkpt lat="-27.2026250" lon="152.8552086">
<ele>59.740</ele>
<time>2016-01-02T05:35:43.937Z</time>
</trkpt>
<trkpt lat="-27.2023472" lon="152.8544665">
<ele>61.085</ele>
<time>2016-01-02T05:35:47.039Z</time>
</trkpt>
<trkpt lat="-27.2022067" lon="152.8539549">
<ele>63.117</ele>
<time>2016-01-02T05:35:49.045Z</time>
</trkpt>
<trkpt lat="-27.2020937" lon="152.8531561">
<ele>65.611</ele>
<time>2016-01-02T05:35:52.074Z</time>
</trkpt>
<trkpt lat="-27.2020509" lon="152.8526106">
<ele>68.236</ele>
<time>2016-01-02T05:35:54.142Z</time>
</trkpt>
<trkpt lat="-27.2020192" lon="152.8517841">
<ele>71.027</ele>
<time>2016-01-02T05:35:57.245Z</time>
</trkpt>
<trkpt lat="-27.2020260" lon="152.8510213">
<ele>74.320</ele>
<time>2016-01-02T05:36:00.084Z</time>
</trkpt>
<trkpt lat="-27.2020416" lon="152.8502255">
<ele>77.932</ele>
<time>2016-01-02T05:36:03.101Z</time>
</trkpt>
<trkpt lat="-27.2020043" lon="152.8497015">
<ele>81.602</ele>
<time>2016-01-02T05:36:05.116Z</time>
</trkpt>
<trkpt lat="-27.2018969" lon="152.8488903">
<ele>85.106</ele>
<time>2016-01-02T05:36:08.246Z</time>
</trkpt>
<trkpt lat="-27.2018039" lon="152.8483115">
<ele>88.226</ele>
<time>2016-01-02T05:36:10.485Z</time>
</trkpt>
<trkpt lat="-27.2015951" lon="152.8475812">
<ele>90.738</ele>
<time>2016-01-02T05:36:13.386Z</time>
</trkpt>
<trkpt lat="-27.2014261" lon="152.8470806">
<ele>92.194</ele>
<time>2016-01-02T05:36:15.392Z</time>
</trkpt>
<trkpt lat="-27.2011054" lon="152.8463251">
<ele>92.571</ele>
<time>2016-01-02T05:36:18.493Z</time>
</trkpt>
<trkpt lat="-27.2007238" lon="152.8456282">
<ele>92.082</ele>
<time>2016-01-02T05:36:21.432Z</time>
</trkpt>
<trkpt lat="-27.2004479" lon="152.8451762">
<ele>90.360</ele>
<time>2016-01-02T05:36:23.369Z</time>
</trkpt>
<trkpt lat="-27.1999735" lon="152.8445232">
<ele>87.275</ele>
<time>2016-01-02T05:36:26.352Z</time>
</trkpt>
<trkpt lat="-27.1994418" lon="152.8439079">
<ele>83.200</ele>
<time>2016-01-02T05:36:29.393Z</time>
</trkpt>
<trkpt lat="-27.1990482" lon="152.8435175">
<ele>79.068</ele>
<time>2016-01-02T05:36:31.469Z</time>
</trkpt>
<trkpt lat="-27.1984751" lon="152.8429932">
<ele>75.673</ele>
<time>2016-01-02T05:36:34.342Z</time>
</trkpt>
<trkpt lat="-27.1981215" lon="152.8426828">
<ele>72.884</ele>
<time>2016-01-02T05:36:36.103Z</time>
</trkpt>
<trkpt lat="-27.1978103" lon="152.8424215">
<ele>70.445</ele>
<time>2016-01-02T05:36:37.671Z</time>
</trkpt>
<trkpt lat="-27.1973570" lon="152.8420089">
<ele>68.350</ele>
<time>2016-01-02T05:36:40.233Z</time>
</trkpt>
<trkpt lat="-27.1970766" lon="152.8417453">
<ele>66.012</ele>
<time>2016-01-02T05:36:41.933Z</time>
</trkpt>
<trkpt lat="-27.1967836" lon="152.8414789">
<ele>63.276</ele>
<time>2016-01-02T05:36:43.813Z</time>
</trkpt>
<trkpt lat="-27.1963549" lon="152.8411027">
<ele>60.944</ele>
<time>2016-01-02T05:36:46.630Z</time>
</trkpt>
<trkpt lat="-27.1959569" lon="152.8407538">
<ele>59.322</ele>
<time>2016-01-02T05:36:49.320Z</time>
</trkpt>
<trkpt lat="-27.1956107" lon="152.8404647">
<ele>57.670</ele>
<time>2016-01-02T05:36:51.693Z</time>
</trkpt>
<trkpt lat="-27.1953015" lon="152.8401828">
<ele>55.497</ele>
<time>2016-01-02T05:36:53.993Z</time>
</trkpt>
<trkpt lat="-27.1950947" lon="152.8399560">
<ele>53.313</ele>
<time>2016-01-02T05:36:55.833Z</time>
</trkpt>
<trkpt lat="-27.1947678" lon="152.8395592">
<ele>51.931</ele>
<time>2016-01-02T05:36:59.106Z</time>
</trkpt>
<trkpt lat="-27.1944652" lon="152.8390566">
<ele>51.988</ele>
<time>2016-01-02T05:37:02.881Z</time>
</trkpt>
<trkpt lat="-27.1942952" lon="152.8386647">
<ele>53.387</ele>
<time>2016-01-02T05:37:05.383Z</time>
</trkpt>
<trkpt lat="-27.1940896" lon="152.8380660">
<ele>55.054</ele>
<time>2016-01-02T05:37:08.678Z</time>
</trkpt>
<trkpt lat="-27.1939860" lon="152.8376461">
<ele>56.679</ele>
<time>2016-01-02T05:37:10.745Z</time>
</trkpt>
<trkpt lat="-27.1939012" lon="152.8370524">
<ele>58.682</ele>
<time>2016-01-02T05:37:13.525Z</time>
</trkpt>
<trkpt lat="-27.1938590" lon="152.8366698">
<ele>60.216</ele>
<time>2016-01-02T05:37:15.298Z</time>
</trkpt>
<trkpt lat="-27.1938232" lon="152.8362979">
<ele>60.366</ele>
<time>2016-01-02T05:37:17.083Z</time>
</trkpt>
<trkpt lat="-27.1937847" lon="152.8358739">
<ele>59.694</ele>
<time>2016-01-02T05:37:19.197Z</time>
</trkpt>
<trkpt lat="-27.1937662" lon="152.8354432">
<ele>59.341</ele>
<time>2016-01-02T05:37:21.411Z</time>
</trkpt>
<trkpt lat="-27.1937271" lon="152.8350131">
<ele>60.034</ele>
<time>2016-01-02T05:37:23.559Z</time>
</trkpt>
<trkpt lat="-27.1936658" lon="152.8344400">
<ele>61.426</ele>
<time>2016-01-02T05:37:26.305Z</time>
</trkpt>
<trkpt lat="-27.1936209" lon="152.8340866">
<ele>62.587</ele>
<time>2016-01-02T05:37:27.984Z</time>
</trkpt>
<trkpt lat="-27.1935834" lon="152.8335919">
<ele>62.980</ele>
<time>2016-01-02T05:37:30.417Z</time>
</trkpt>
<trkpt lat="-27.1935297" lon="152.8330665">
<ele>62.554</ele>
<time>2016-01-02T05:37:33.193Z</time>
</trkpt>
<trkpt lat="-27.1934916" lon="152.8325721">
<ele>61.599</ele>
<time>2016-01-02T05:37:35.981Z</time>
</trkpt>
<trkpt lat="-27.1934976" lon="152.8322331">
<ele>60.336</ele>
<time>2016-01-02T05:37:37.910Z</time>
</trkpt>
<trkpt lat="-27.1935038" lon="152.8318938">
<ele>58.906</ele>
<time>2016-01-02T05:37:39.846Z</time>
</trkpt>
<trkpt lat="-27.1935319" lon="152.8315750">
<ele>57.653</ele>
<time>2016-01-02T05:37:41.680Z</time>
</trkpt>
<trkpt lat="-27.1936390" lon="152.8310699">
<ele>56.737</ele>
<time>2016-01-02T05:37:44.695Z</time>
</trkpt>
<trkpt lat="-27.1937337" lon="152.8307318">
<ele>55.741</ele>
<time>2016-01-02T05:37:46.782Z</time>
</trkpt>
<trkpt lat="-27.1939076" lon="152.8302886">
<ele>53.989</ele>
<time>2016-01-02T05:37:49.649Z</time>
</trkpt>
<trkpt lat="-27.1940391" lon="152.8300017">
<ele>51.112</ele>
<time>2016-01-02T05:37:51.554Z</time>
</trkpt>
<trkpt lat="-27.1943020" lon="152.8295974">
<ele>47.715</ele>
<time>2016-01-02T05:37:54.528Z</time>
</trkpt>
<trkpt lat="-27.1945930" lon="152.8292177">
<ele>44.995</ele>
<time>2016-01-02T05:37:57.543Z</time>
</trkpt>
<trkpt lat="-27.1947852" lon="152.8289431">
<ele>43.651</ele>
<time>2016-01-02T05:37:59.662Z</time>
</trkpt>
<trkpt lat="-27.1950941" lon="152.8285603">
<ele>43.404</ele>
<time>2016-01-02T05:38:02.778Z</time>
</trkpt>
<trkpt lat="-27.1953785" lon="152.8281799">
<ele>43.427</ele>
<time>2016-01-02T05:38:05.743Z</time>
</trkpt>
<trkpt lat="-27.1955467" lon="152.8279278">
<ele>43.216</ele>
<time>2016-01-02T05:38:07.616Z</time>
</trkpt>
<trkpt lat="-27.1956800" lon="152.8276280">
<ele>42.816</ele>
<time>2016-01-02T05:38:09.606Z</time>
</trkpt>
<trkpt lat="-27.1957863" lon="152.8271409">
<ele>42.416</ele>
<time>2016-01-02T05:38:12.570Z</time>
</trkpt>
<trkpt lat="-27.1958312" lon="152.8266833">
<ele>41.647</ele>
<time>2016-01-02T05:38:15.267Z</time>
</trkpt>
<trkpt lat="-27.1958607" lon="152.8264098">
<ele>39.804</ele>
<time>2016-01-02T05:38:16.893Z</time>
</trkpt>
<trkpt lat="-27.1958846" lon="152.8261685">
<ele>37.209</ele>
<time>2016-01-02T05:38:18.338Z</time>
</trkpt>
<trkpt lat="-27.1958782" lon="152.8258982">
<ele>35.027</ele>
<time>2016-01-02T05:38:19.992Z</time>
</trkpt>
<trkpt lat="-27.1956639" lon="152.8258986">
<ele>33.763</ele>
<time>2016-01-02T05:38:21.495Z</time>
</trkpt>
<trkpt lat="-27.1954894" lon="152.8259307">
<ele>33.265</ele>
<time>2016-01-02T05:38:22.797Z</time>
</trkpt>
<trkpt lat="-27.1951324" lon="152.8260125">
<ele>33.560</ele>
<time>2016-01-02T05:38:25.746Z</time>
</trkpt>
<trkpt lat="-27.1947535" lon="152.8260949">
<ele>34.659</ele>
<time>2016-01-02T05:38:30.014Z</time>
</trkpt>
<trkpt lat="-27.1943534" lon="152.8262736">
<ele>36.051</ele>
<time>2016-01-02T05:38:35.251Z</time>
</trkpt>
<trkpt lat="-27.1941111" lon="152.8263529">
<ele>37.142</ele>
<time>2016-01-02T05:38:37.595Z</time>
</trkpt>
<trkpt lat="-27.1937643" lon="152.8264462">
<ele>37.796</ele>
<time>2016-01-02T05:38:40.515Z</time>
</trkpt>
<trkpt lat="-27.1933992" lon="152.8265085">
<ele>38.057</ele>
<time>2016-01-02T05:38:43.387Z</time>
</trkpt>
<trkpt lat="-27.1931572" lon="152.8265871">
<ele>38.063</ele>
<time>2016-01-02T05:38:45.372Z</time>
</trkpt>
<trkpt lat="-27.1927489" lon="152.8266202">
<ele>38.101</ele>
<time>2016-01-02T05:38:48.737Z</time>
</trkpt>
<trkpt lat="-27.1923808" lon="152.8265863">
<ele>38.386</ele>
<time>2016-01-02T05:38:51.840Z</time>
</trkpt>
<trkpt lat="-27.1921011" lon="152.8265573">
<ele>38.804</ele>
<time>2016-01-02T05:38:54.175Z</time>
</trkpt>
<trkpt lat="-27.1918511" lon="152.8265280">
<ele>39.073</ele>
<time>2016-01-02T05:38:56.213Z</time>
</trkpt>
<trkpt lat="-27.1914775" lon="152.8264921">
<ele>39.111</ele>
<time>2016-01-02T05:38:59.209Z</time>
</trkpt>
<trkpt lat="-27.1912092" lon="152.8264894">
<ele>38.984</ele>
<time>2016-01-02T05:39:01.346Z</time>
</trkpt>
<trkpt lat="-27.1908327" lon="152.8264564">
<ele>38.791</ele>
<time>2016-01-02T05:39:04.312Z</time>
</trkpt>
<trkpt lat="-27.1905991" lon="152.8264529">
<ele>38.679</ele>
<time>2016-01-02T05:39:06.160Z</time>
</trkpt>
<trkpt lat="-27.1902273" lon="152.8264227">
<ele>38.907</ele>
<time>2016-01-02T05:39:09.094Z</time>
</trkpt>
<trkpt lat="-27.1899463" lon="152.8263755">
<ele>39.534</ele>
<time>2016-01-02T05:39:11.331Z</time>
</trkpt>
<trkpt lat="-27.1895644" lon="152.8263294">
<ele>40.227</ele>
<time>2016-01-02T05:39:14.441Z</time>
</trkpt>
<trkpt lat="-27.1891919" lon="152.8262868">
<ele>40.655</ele>
<time>2016-01-02T05:39:17.480Z</time>
</trkpt>
<trkpt lat="-27.1889456" lon="152.8263035">
<ele>40.928</ele>
<time>2016-01-02T05:39:19.401Z</time>
</trkpt>
<trkpt lat="-27.1885626" lon="152.8264315">
<ele>41.533</ele>
<time>2016-01-02T05:39:22.522Z</time>
</trkpt>
<trkpt lat="-27.1882960" lon="152.8265642">
<ele>43.121</ele>
<time>2016-01-02T05:39:24.837Z</time>
</trkpt>
<trkpt lat="-27.1880253" lon="152.8268267">
<ele>45.710</ele>
<time>2016-01-02T05:39:27.677Z</time>
</trkpt>
<trkpt lat="-27.1877670" lon="152.8271244">
<ele>48.424</ele>
<time>2016-01-02T05:39:30.497Z</time>
</trkpt>
<trkpt lat="-27.1873989" lon="152.8275270">
<ele>50.333</ele>
<time>2016-01-02T05:39:33.898Z</time>
</trkpt>
<trkpt lat="-27.1871184" lon="152.8277581">
<ele>51.105</ele>
<time>2016-01-02T05:39:35.949Z</time>
</trkpt>
<trkpt lat="-27.1868539" lon="152.8279590">
<ele>50.750</ele>
<time>2016-01-02T05:39:37.785Z</time>
</trkpt>
<trkpt lat="-27.1864905" lon="152.8282062">
<ele>49.403</ele>
<time>2016-01-02T05:39:40.262Z</time>
</trkpt>
<trkpt lat="-27.1861671" lon="152.8284296">
<ele>47.367</ele>
<time>2016-01-02T05:39:42.582Z</time>
</trkpt>
<trkpt lat="-27.1859587" lon="152.8285736">
<ele>44.695</ele>
<time>2016-01-02T05:39:44.185Z</time>
</trkpt>
<trkpt lat="-27.1857227" lon="152.8287310">
<ele>41.716</ele>
<time>2016-01-02T05:39:46.118Z</time>
</trkpt>
<trkpt lat="-27.1853437" lon="152.8289079">
<ele>39.945</ele>
<time>2016-01-02T05:39:49.240Z</time>
</trkpt>
<trkpt lat="-27.1850843" lon="152.8288822">
<ele>40.447</ele>
<time>2016-01-02T05:39:51.240Z</time>
</trkpt>
<trkpt lat="-27.1847022" lon="152.8287479">
<ele>42.444</ele>
<time>2016-01-02T05:39:54.190Z</time>
</trkpt>
<trkpt lat="-27.1844459" lon="152.8285778">
<ele>44.557</ele>
<time>2016-01-02T05:39:56.369Z</time>
</trkpt>
<trkpt lat="-27.1840382" lon="152.8282740">
<ele>46.164</ele>
<time>2016-01-02T05:39:59.966Z</time>
</trkpt>
<trkpt lat="-27.1836054" lon="152.8280422">
<ele>47.578</ele>
<time>2016-01-02T05:40:03.178Z</time>
</trkpt>
<trkpt lat="-27.1832791" lon="152.8279470">
<ele>49.371</ele>
<time>2016-01-02T05:40:05.287Z</time>
</trkpt>
<trkpt lat="-27.1829472" lon="152.8278699">
<ele>51.964</ele>
<time>2016-01-02T05:40:07.337Z</time>
</trkpt>
<trkpt lat="-27.1824598" lon="152.8277325">
<ele>55.353</ele>
<time>2016-01-02T05:40:10.343Z</time>
</trkpt>
<trkpt lat="-27.1819706" lon="152.8276103">
<ele>58.826</ele>
<time>2016-01-02T05:40:13.285Z</time>
</trkpt>
<trkpt lat="-27.1816448" lon="152.8275561">
<ele>61.507</ele>
<time>2016-01-02T05:40:15.231Z</time>
</trkpt>
<trkpt lat="-27.1811701" lon="152.8275268">
<ele>63.000</ele>
<time>2016-01-02T05:40:18.053Z</time>
</trkpt>
<trkpt lat="-27.1806971" lon="152.8274924">
<ele>63.832</ele>
<time>2016-01-02T05:40:20.889Z</time>
</trkpt>
<trkpt lat="-27.1802134" lon="152.8273745">
<ele>64.939</ele>
<time>2016-01-02T05:40:23.893Z</time>
</trkpt>
<trkpt lat="-27.1798738" lon="152.8273025">
<ele>66.515</ele>
<time>2016-01-02T05:40:25.996Z</time>
</trkpt>
<trkpt lat="-27.1793769" lon="152.8271693">
<ele>68.331</ele>
<time>2016-01-02T05:40:29.035Z</time>
</trkpt>
<trkpt lat="-27.1788813" lon="152.8270372">
<ele>70.455</ele>
<time>2016-01-02T05:40:32.033Z</time>
</trkpt>
<trkpt lat="-27.1783841" lon="152.8269070">
<ele>72.595</ele>
<time>2016-01-02T05:40:35.057Z</time>
</trkpt>
<trkpt lat="-27.1780478" lon="152.8268302">
<ele>74.095</ele>
<time>2016-01-02T05:40:37.096Z</time>
</trkpt>
<trkpt lat="-27.1775403" lon="152.8267226">
<ele>74.784</ele>
<time>2016-01-02T05:40:40.151Z</time>
</trkpt>
<trkpt lat="-27.1771999" lon="152.8266188">
<ele>74.957</ele>
<time>2016-01-02T05:40:42.212Z</time>
</trkpt>
<trkpt lat="-27.1768552" lon="152.8265204">
<ele>74.918</ele>
<time>2016-01-02T05:40:44.267Z</time>
</trkpt>
<trkpt lat="-27.1765051" lon="152.8264499">
<ele>74.885</ele>
<time>2016-01-02T05:40:46.320Z</time>
</trkpt>
<trkpt lat="-27.1761703" lon="152.8263609">
<ele>74.900</ele>
<time>2016-01-02T05:40:48.297Z</time>
</trkpt>
<trkpt lat="-27.1756626" lon="152.8262269">
<ele>74.839</ele>
<time>2016-01-02T05:40:51.297Z</time>
</trkpt>
<trkpt lat="-27.1753590" lon="152.8260765">
<ele>74.639</ele>
<time>2016-01-02T05:40:53.237Z</time>
</trkpt>
<trkpt lat="-27.1750873" lon="152.8258196">
<ele>74.429</ele>
<time>2016-01-02T05:40:55.318Z</time>
</trkpt>
<trkpt lat="-27.1747102" lon="152.8253930">
<ele>74.871</ele>
<time>2016-01-02T05:40:58.473Z</time>
</trkpt>
<trkpt lat="-27.1744640" lon="152.8251398">
<ele>76.609</ele>
<time>2016-01-02T05:41:00.428Z</time>
</trkpt>
<trkpt lat="-27.1741821" lon="152.8249760">
<ele>79.127</ele>
<time>2016-01-02T05:41:02.234Z</time>
</trkpt>
<trkpt lat="-27.1736805" lon="152.8249709">
<ele>81.180</ele>
<time>2016-01-02T05:41:05.085Z</time>
</trkpt>
<trkpt lat="-27.1732021" lon="152.8249165">
<ele>82.765</ele>
<time>2016-01-02T05:41:07.947Z</time>
</trkpt>
<trkpt lat="-27.1728653" lon="152.8249049">
<ele>84.807</ele>
<time>2016-01-02T05:41:09.983Z</time>
</trkpt>
<trkpt lat="-27.1723933" lon="152.8249965">
<ele>87.196</ele>
<time>2016-01-02T05:41:12.890Z</time>
</trkpt>
<trkpt lat="-27.1720824" lon="152.8250828">
<ele>89.338</ele>
<time>2016-01-02T05:41:14.830Z</time>
</trkpt>
<trkpt lat="-27.1715884" lon="152.8250957">
<ele>91.725</ele>
<time>2016-01-02T05:41:17.860Z</time>
</trkpt>
<trkpt lat="-27.1711197" lon="152.8250207">
<ele>94.816</ele>
<time>2016-01-02T05:41:20.767Z</time>
</trkpt>
<trkpt lat="-27.1707872" lon="152.8249989">
<ele>98.073</ele>
<time>2016-01-02T05:41:22.793Z</time>
</trkpt>
<trkpt lat="-27.1704807" lon="152.8250945">
<ele>100.580</ele>
<time>2016-01-02T05:41:24.719Z</time>
</trkpt>
<trkpt lat="-27.1701982" lon="152.8252133">
<ele>102.249</ele>
<time>2016-01-02T05:41:26.547Z</time>
</trkpt>
<trkpt lat="-27.1699642" lon="152.8254320">
<ele>103.762</ele>
<time>2016-01-02T05:41:28.413Z</time>
</trkpt>
<trkpt lat="-27.1695933" lon="152.8257488">
<ele>105.274</ele>
<time>2016-01-02T05:41:31.393Z</time>
</trkpt>
<trkpt lat="-27.1694115" lon="152.8260162">
<ele>106.401</ele>
<time>2016-01-02T05:41:33.372Z</time>
</trkpt>
<trkpt lat="-27.1693455" lon="152.8262741">
<ele>107.230</ele>
<time>2016-01-02T05:41:34.958Z</time>
</trkpt>
<trkpt lat="-27.1692571" lon="152.8267617">
<ele>108.229</ele>
<time>2016-01-02T05:41:37.908Z</time>
</trkpt>
<trkpt lat="-27.1689528" lon="152.8271063">
<ele>110.141</ele>
<time>2016-01-02T05:41:40.920Z</time>
</trkpt>
<trkpt lat="-27.1685452" lon="152.8271708">
<ele>113.074</ele>
<time>2016-01-02T05:41:43.819Z</time>
</trkpt>
<trkpt lat="-27.1682776" lon="152.8271060">
<ele>115.820</ele>
<time>2016-01-02T05:41:45.726Z</time>
</trkpt>
<trkpt lat="-27.1678306" lon="152.8267300">
<ele>117.591</ele>
<time>2016-01-02T05:41:49.749Z</time>
</trkpt>
<trkpt lat="-27.1673887" lon="152.8265483">
<ele>119.111</ele>
<time>2016-01-02T05:41:53.207Z</time>
</trkpt>
<trkpt lat="-27.1669292" lon="152.8265364">
<ele>120.913</ele>
<time>2016-01-02T05:41:56.279Z</time>
</trkpt>
<trkpt lat="-27.1666182" lon="152.8266219">
<ele>122.819</ele>
<time>2016-01-02T05:41:58.324Z</time>
</trkpt>
<trkpt lat="-27.1661845" lon="152.8267375">
<ele>125.165</ele>
<time>2016-01-02T05:42:01.224Z</time>
</trkpt>
<trkpt lat="-27.1657513" lon="152.8268742">
<ele>128.038</ele>
<time>2016-01-02T05:42:04.151Z</time>
</trkpt>
<trkpt lat="-27.1653149" lon="152.8269919">
<ele>130.691</ele>
<time>2016-01-02T05:42:07.097Z</time>
</trkpt>
<trkpt lat="-27.1650224" lon="152.8270406">
<ele>133.173</ele>
<time>2016-01-02T05:42:09.056Z</time>
</trkpt>
<trkpt lat="-27.1647377" lon="152.8269917">
<ele>135.747</ele>
<time>2016-01-02T05:42:10.988Z</time>
</trkpt>
<trkpt lat="-27.1643366" lon="152.8268383">
<ele>137.800</ele>
<time>2016-01-02T05:42:13.855Z</time>
</trkpt>
<trkpt lat="-27.1639848" lon="152.8265844">
<ele>139.297</ele>
<time>2016-01-02T05:42:16.710Z</time>
</trkpt>
<trkpt lat="-27.1638791" lon="152.8263176">
<ele>140.838</ele>
<time>2016-01-02T05:42:18.477Z</time>
</trkpt>
<trkpt lat="-27.1639167" lon="152.8258444">
<ele>142.305</ele>
<time>2016-01-02T05:42:21.444Z</time>
</trkpt>
<trkpt lat="-27.1641066" lon="152.8256102">
<ele>143.869</ele>
<time>2016-01-02T05:42:23.583Z</time>
</trkpt>
<trkpt lat="-27.1642623" lon="152.8251057">
<ele>146.167</ele>
<time>2016-01-02T05:42:27.215Z</time>
</trkpt>
<trkpt lat="-27.1643320" lon="152.8248022">
<ele>148.830</ele>
<time>2016-01-02T05:42:29.179Z</time>
</trkpt>
<trkpt lat="-27.1643170" lon="152.8245413">
<ele>150.920</ele>
<time>2016-01-02T05:42:30.779Z</time>
</trkpt>
<trkpt lat="-27.1642252" lon="152.8243029">
<ele>152.214</ele>
<time>2016-01-02T05:42:32.379Z</time>
</trkpt>
<trkpt lat="-27.1640304" lon="152.8239917">
<ele>153.050</ele>
<time>2016-01-02T05:42:34.840Z</time>
</trkpt>
<trkpt lat="-27.1638343" lon="152.8237819">
<ele>154.135</ele>
<time>2016-01-02T05:42:37.012Z</time>
</trkpt>
<trkpt lat="-27.1634438" lon="152.8234019">
<ele>156.318</ele>
<time>2016-01-02T05:42:41.032Z</time>
</trkpt>
<trkpt lat="-27.1631500" lon="152.8231616">
<ele>159.629</ele>
<time>2016-01-02T05:42:43.572Z</time>
</trkpt>
<trkpt lat="-27.1629496" lon="152.8231052">
<ele>163.056</ele>
<time>2016-01-02T05:42:44.961Z</time>
</trkpt>
<trkpt lat="-27.1625134" lon="152.8229884">
<ele>165.530</ele>
<time>2016-01-02T05:42:47.935Z</time>
</trkpt>
<trkpt lat="-27.1622167" lon="152.8229793">
<ele>167.349</ele>
<time>2016-01-02T05:42:50.027Z</time>
</trkpt>
<trkpt lat="-27.1618019" lon="152.8230697">
<ele>169.607</ele>
<time>2016-01-02T05:42:53.029Z</time>
</trkpt>
<trkpt lat="-27.1615142" lon="152.8231704">
<ele>172.654</ele>
<time>2016-01-02T05:42:55.137Z</time>
</trkpt>
<trkpt lat="-27.1612501" lon="152.8233563">
<ele>175.804</ele>
<time>2016-01-02T05:42:57.347Z</time>
</trkpt>
<trkpt lat="-27.1611491" lon="152.8237604">
<ele>178.404</ele>
<time>2016-01-02T05:42:59.970Z</time>
</trkpt>
<trkpt lat="-27.1609552" lon="152.8239858">
<ele>180.463</ele>
<time>2016-01-02T05:43:01.875Z</time>
</trkpt>
<trkpt lat="-27.1606360" lon="152.8242956">
<ele>182.287</ele>
<time>2016-01-02T05:43:04.788Z</time>
</trkpt>
<trkpt lat="-27.1602118" lon="152.8244857">
<ele>184.378</ele>
<time>2016-01-02T05:43:08.030Z</time>
</trkpt>
<trkpt lat="-27.1598544" lon="152.8248428">
<ele>187.186</ele>
<time>2016-01-02T05:43:11.363Z</time>
</trkpt>
<trkpt lat="-27.1594955" lon="152.8250938">
<ele>190.322</ele>
<time>2016-01-02T05:43:14.168Z</time>
</trkpt>
<trkpt lat="-27.1591185" lon="152.8252046">
<ele>193.209</ele>
<time>2016-01-02T05:43:16.748Z</time>
</trkpt>
<trkpt lat="-27.1588789" lon="152.8251743">
<ele>195.605</ele>
<time>2016-01-02T05:43:18.383Z</time>
</trkpt>
<trkpt lat="-27.1587528" lon="152.8249286">
<ele>197.392</ele>
<time>2016-01-02T05:43:20.221Z</time>
</trkpt>
<trkpt lat="-27.1584423" lon="152.8248017">
<ele>198.761</ele>
<time>2016-01-02T05:43:22.744Z</time>
</trkpt>
<trkpt lat="-27.1581905" lon="152.8249218">
<ele>200.088</ele>
<time>2016-01-02T05:43:25.042Z</time>
</trkpt>
<trkpt lat="-27.1578344" lon="152.8249020">
<ele>201.670</ele>
<time>2016-01-02T05:43:28.240Z</time>
</trkpt>
<trkpt lat="-27.1574827" lon="152.8247420">
<ele>203.563</ele>
<time>2016-01-02T05:43:31.437Z</time>
</trkpt>
<trkpt lat="-27.1571011" lon="152.8246695">
<ele>205.754</ele>
<time>2016-01-02T05:43:34.607Z</time>
</trkpt>
<trkpt lat="-27.1567052" lon="152.8245708">
<ele>208.222</ele>
<time>2016-01-02T05:43:37.818Z</time>
</trkpt>
<trkpt lat="-27.1564734" lon="152.8244965">
<ele>210.808</ele>
<time>2016-01-02T05:43:39.684Z</time>
</trkpt>
<trkpt lat="-27.1562471" lon="152.8245209">
<ele>213.436</ele>
<time>2016-01-02T05:43:41.432Z</time>
</trkpt>
<trkpt lat="-27.1560756" lon="152.8248183">
<ele>216.091</ele>
<time>2016-01-02T05:43:43.931Z</time>
</trkpt>
<trkpt lat="-27.1559231" lon="152.8252336">
<ele>218.765</ele>
<time>2016-01-02T05:43:47.287Z</time>
</trkpt>
<trkpt lat="-27.1556499" lon="152.8254385">
<ele>221.538</ele>
<time>2016-01-02T05:43:49.958Z</time>
</trkpt>
<trkpt lat="-27.1552584" lon="152.8254310">
<ele>224.224</ele>
<time>2016-01-02T05:43:53.190Z</time>
</trkpt>
<trkpt lat="-27.1548553" lon="152.8254612">
<ele>227.008</ele>
<time>2016-01-02T05:43:56.517Z</time>
</trkpt>
<trkpt lat="-27.1546247" lon="152.8256167">
<ele>230.375</ele>
<time>2016-01-02T05:43:58.576Z</time>
</trkpt>
<trkpt lat="-27.1543749" lon="152.8259050">
<ele>233.992</ele>
<time>2016-01-02T05:44:01.284Z</time>
</trkpt>
<trkpt lat="-27.1541384" lon="152.8259549">
<ele>237.099</ele>
<time>2016-01-02T05:44:03.185Z</time>
</trkpt>
<trkpt lat="-27.1538571" lon="152.8257316">
<ele>239.393</ele>
<time>2016-01-02T05:44:06.013Z</time>
</trkpt>
<trkpt lat="-27.1536922" lon="152.8254331">
<ele>240.931</ele>
<time>2016-01-02T05:44:08.774Z</time>
</trkpt>
<trkpt lat="-27.1534191" lon="152.8250012">
<ele>242.418</ele>
<time>2016-01-02T05:44:12.628Z</time>
</trkpt>
<trkpt lat="-27.1532540" lon="152.8247004">
<ele>244.924</ele>
<time>2016-01-02T05:44:14.728Z</time>
</trkpt>
<trkpt lat="-27.1529313" lon="152.8243334">
<ele>248.309</ele>
<time>2016-01-02T05:44:17.630Z</time>
</trkpt>
<trkpt lat="-27.1526716" lon="152.8241092">
<ele>251.496</ele>
<time>2016-01-02T05:44:19.719Z</time>
</trkpt>
<trkpt lat="-27.1523051" lon="152.8238381">
<ele>254.152</ele>
<time>2016-01-02T05:44:22.516Z</time>
</trkpt>
<trkpt lat="-27.1520210" lon="152.8234967">
<ele>256.509</ele>
<time>2016-01-02T05:44:25.216Z</time>
</trkpt>
<trkpt lat="-27.1519522" lon="152.8231865">
<ele>258.426</ele>
<time>2016-01-02T05:44:27.146Z</time>
</trkpt>
<trkpt lat="-27.1519203" lon="152.8228393">
<ele>260.271</ele>
<time>2016-01-02T05:44:29.276Z</time>
</trkpt>
<trkpt lat="-27.1518759" lon="152.8224913">
<ele>262.616</ele>
<time>2016-01-02T05:44:31.372Z</time>
</trkpt>
<trkpt lat="-27.1518170" lon="152.8219453">
<ele>265.589</ele>
<time>2016-01-02T05:44:34.453Z</time>
</trkpt>
<trkpt lat="-27.1517779" lon="152.8215900">
<ele>268.917</ele>
<time>2016-01-02T05:44:36.417Z</time>
</trkpt>
<trkpt lat="-27.1517696" lon="152.8210656">
<ele>272.059</ele>
<time>2016-01-02T05:44:39.326Z</time>
</trkpt>
<trkpt lat="-27.1517657" lon="152.8207078">
<ele>274.291</ele>
<time>2016-01-02T05:44:41.361Z</time>
</trkpt>
<trkpt lat="-27.1517367" lon="152.8203726">
<ele>275.278</ele>
<time>2016-01-02T05:44:43.296Z</time>
</trkpt>
<trkpt lat="-27.1513729" lon="152.8200312">
<ele>275.279</ele>
<time>2016-01-02T05:44:46.372Z</time>
</trkpt>
<trkpt lat="-27.1511146" lon="152.8198151">
<ele>275.464</ele>
<time>2016-01-02T05:44:48.481Z</time>
</trkpt>
<trkpt lat="-27.1508680" lon="152.8194707">
<ele>277.082</ele>
<time>2016-01-02T05:44:51.047Z</time>
</trkpt>
<trkpt lat="-27.1508508" lon="152.8191703">
<ele>280.150</ele>
<time>2016-01-02T05:44:52.895Z</time>
</trkpt>
<trkpt lat="-27.1509292" lon="152.8188844">
<ele>283.366</ele>
<time>2016-01-02T05:44:54.793Z</time>
</trkpt>
<trkpt lat="-27.1509592" lon="152.8184762">
<ele>285.696</ele>
<time>2016-01-02T05:44:57.527Z</time>
</trkpt>
<trkpt lat="-27.1507100" lon="152.8181988">
<ele>287.377</ele>
<time>2016-01-02T05:45:00.249Z</time>
</trkpt>
<trkpt lat="-27.1503115" lon="152.8180161">
<ele>289.061</ele>
<time>2016-01-02T05:45:03.782Z</time>
</trkpt>
<trkpt lat="-27.1500475" lon="152.8179275">
<ele>290.949</ele>
<time>2016-01-02T05:45:05.906Z</time>
</trkpt>
<trkpt lat="-27.1497824" lon="152.8177956">
<ele>293.108</ele>
<time>2016-01-02T05:45:08.008Z</time>
</trkpt>
<trkpt lat="-27.1494535" lon="152.8174978">
<ele>295.307</ele>
<time>2016-01-02T05:45:10.922Z</time>
</trkpt>
<trkpt lat="-27.1492722" lon="152.8170379">
<ele>297.374</ele>
<time>2016-01-02T05:45:14.099Z</time>
</trkpt>
<trkpt lat="-27.1492311" lon="152.8168749">
<ele>299.653</ele>
<time>2016-01-02T05:45:15.144Z</time>
</trkpt>
<trkpt lat="-27.1490998" lon="152.8162845">
<ele>302.099</ele>
<time>2016-01-02T05:45:18.856Z</time>
</trkpt>
<trkpt lat="-27.1488727" lon="152.8159264">
<ele>304.573</ele>
<time>2016-01-02T05:45:21.562Z</time>
</trkpt>
<trkpt lat="-27.1486240" lon="152.8157695">
<ele>307.360</ele>
<time>2016-01-02T05:45:23.593Z</time>
</trkpt>
<trkpt lat="-27.1481902" lon="152.8156648">
<ele>310.237</ele>
<time>2016-01-02T05:45:26.803Z</time>
</trkpt>
<trkpt lat="-27.1478360" lon="152.8154346">
<ele>313.208</ele>
<time>2016-01-02T05:45:29.627Z</time>
</trkpt>
<trkpt lat="-27.1476274" lon="152.8149729">
<ele>316.403</ele>
<time>2016-01-02T05:45:32.777Z</time>
</trkpt>
<trkpt lat="-27.1476309" lon="152.8146008">
<ele>318.846</ele>
<time>2016-01-02T05:45:35.022Z</time>
</trkpt>
<trkpt lat="-27.1476704" lon="152.8142443">
<ele>319.813</ele>
<time>2016-01-02T05:45:37.155Z</time>
</trkpt>
<trkpt lat="-27.1476808" lon="152.8137189">
<ele>319.821</ele>
<time>2016-01-02T05:45:40.241Z</time>
</trkpt>
<trkpt lat="-27.1475532" lon="152.8134292">
<ele>319.877</ele>
<time>2016-01-02T05:45:42.151Z</time>
</trkpt>
<trkpt lat="-27.1473392" lon="152.8131780">
<ele>320.904</ele>
<time>2016-01-02T05:45:44.233Z</time>
</trkpt>
<trkpt lat="-27.1469302" lon="152.8128564">
<ele>323.115</ele>
<time>2016-01-02T05:45:47.586Z</time>
</trkpt>
<trkpt lat="-27.1466594" lon="152.8126644">
<ele>325.754</ele>
<time>2016-01-02T05:45:49.620Z</time>
</trkpt>
<trkpt lat="-27.1463886" lon="152.8124701">
<ele>327.961</ele>
<time>2016-01-02T05:45:51.606Z</time>
</trkpt>
<trkpt lat="-27.1461338" lon="152.8122440">
<ele>329.841</ele>
<time>2016-01-02T05:45:53.606Z</time>
</trkpt>
<trkpt lat="-27.1458074" lon="152.8118863">
<ele>331.899</ele>
<time>2016-01-02T05:45:56.470Z</time>
</trkpt>
<trkpt lat="-27.1456126" lon="152.8116910">
<ele>334.028</ele>
<time>2016-01-02T05:45:58.167Z</time>
</trkpt>
<trkpt lat="-27.1453788" lon="152.8115605">
<ele>335.861</ele>
<time>2016-01-02T05:45:59.923Z</time>
</trkpt>
<trkpt lat="-27.1451108" lon="152.8114880">
<ele>337.282</ele>
<time>2016-01-02T05:46:01.880Z</time>
</trkpt>
<trkpt lat="-27.1446879" lon="152.8113872">
<ele>338.809</ele>
<time>2016-01-02T05:46:05.011Z</time>
</trkpt>
<trkpt lat="-27.1444419" lon="152.8112365">
<ele>341.108</ele>
<time>2016-01-02T05:46:06.982Z</time>
</trkpt>
<trkpt lat="-27.1441923" lon="152.8108836">
<ele>343.876</ele>
<time>2016-01-02T05:46:09.821Z</time>
</trkpt>
<trkpt lat="-27.1438940" lon="152.8106075">
<ele>346.173</ele>
<time>2016-01-02T05:46:12.633Z</time>
</trkpt>
<trkpt lat="-27.1436591" lon="152.8105892">
<ele>347.790</ele>
<time>2016-01-02T05:46:14.406Z</time>
</trkpt>
<trkpt lat="-27.1433115" lon="152.8105719">
<ele>349.395</ele>
<time>2016-01-02T05:46:17.128Z</time>
</trkpt>
<trkpt lat="-27.1430535" lon="152.8102853">
<ele>351.571</ele>
<time>2016-01-02T05:46:20.214Z</time>
</trkpt>
<trkpt lat="-27.1430062" lon="152.8099885">
<ele>354.377</ele>
<time>2016-01-02T05:46:22.511Z</time>
</trkpt>
<trkpt lat="-27.1428035" lon="152.8096454">
<ele>357.579</ele>
<time>2016-01-02T05:46:25.530Z</time>
</trkpt>
<trkpt lat="-27.1424215" lon="152.8095036">
<ele>360.587</ele>
<time>2016-01-02T05:46:28.715Z</time>
</trkpt>
<trkpt lat="-27.1421861" lon="152.8094641">
<ele>363.042</ele>
<time>2016-01-02T05:46:30.603Z</time>
</trkpt>
<trkpt lat="-27.1419600" lon="152.8091376">
<ele>364.964</ele>
<time>2016-01-02T05:46:33.566Z</time>
</trkpt>
<trkpt lat="-27.1418528" lon="152.8088985">
<ele>366.805</ele>
<time>2016-01-02T05:46:35.554Z</time>
</trkpt>
<trkpt lat="-27.1416288" lon="152.8087408">
<ele>368.876</ele>
<time>2016-01-02T05:46:37.755Z</time>
</trkpt>
<trkpt lat="-27.1412103" lon="152.8087167">
<ele>370.702</ele>
<time>2016-01-02T05:46:41.144Z</time>
</trkpt>
<trkpt lat="-27.1409394" lon="152.8088314">
<ele>372.062</ele>
<time>2016-01-02T05:46:43.368Z</time>
</trkpt>
<trkpt lat="-27.1405308" lon="152.8088947">
<ele>373.774</ele>
<time>2016-01-02T05:46:46.383Z</time>
</trkpt>
<trkpt lat="-27.1402016" lon="152.8087312">
<ele>376.398</ele>
<time>2016-01-02T05:46:48.943Z</time>
</trkpt>
<trkpt lat="-27.1397602" lon="152.8085505">
<ele>379.701</ele>
<time>2016-01-02T05:46:52.080Z</time>
</trkpt>
<trkpt lat="-27.1394777" lon="152.8084324">
<ele>383.209</ele>
<time>2016-01-02T05:46:54.006Z</time>
</trkpt>
<trkpt lat="-27.1392150" lon="152.8083097">
<ele>386.483</ele>
<time>2016-01-02T05:46:55.793Z</time>
</trkpt>
<trkpt lat="-27.1389519" lon="152.8081608">
<ele>388.869</ele>
<time>2016-01-02T05:46:57.692Z</time>
</trkpt>
<trkpt lat="-27.1386901" lon="152.8080325">
<ele>390.168</ele>
<time>2016-01-02T05:46:59.581Z</time>
</trkpt>
<trkpt lat="-27.1382513" lon="152.8078850">
<ele>391.118</ele>
<time>2016-01-02T05:47:02.637Z</time>
</trkpt>
<trkpt lat="-27.1379572" lon="152.8078568">
<ele>392.658</ele>
<time>2016-01-02T05:47:04.601Z</time>
</trkpt>
<trkpt lat="-27.1374836" lon="152.8079746">
<ele>395.080</ele>
<time>2016-01-02T05:47:07.755Z</time>
</trkpt>
<trkpt lat="-27.1370061" lon="152.8080569">
<ele>398.403</ele>
<time>2016-01-02T05:47:10.816Z</time>
</trkpt>
<trkpt lat="-27.1366882" lon="152.8080876">
<ele>402.085</ele>
<time>2016-01-02T05:47:12.829Z</time>
</trkpt>
<trkpt lat="-27.1363766" lon="152.8080528">
<ele>404.615</ele>
<time>2016-01-02T05:47:14.819Z</time>
</trkpt>
<trkpt lat="-27.1360510" lon="152.8079858">
<ele>405.129</ele>
<time>2016-01-02T05:47:16.912Z</time>
</trkpt>
<trkpt lat="-27.1357390" lon="152.8079296">
<ele>404.096</ele>
<time>2016-01-02T05:47:18.885Z</time>
</trkpt>
<trkpt lat="-27.1352580" lon="152.8078218">
<ele>402.069</ele>
<time>2016-01-02T05:47:21.910Z</time>
</trkpt>
<trkpt lat="-27.1349437" lon="152.8077496">
<ele>399.233</ele>
<time>2016-01-02T05:47:23.877Z</time>
</trkpt>
<trkpt lat="-27.1346374" lon="152.8076482">
<ele>396.095</ele>
<time>2016-01-02T05:47:25.838Z</time>
</trkpt>
<trkpt lat="-27.1343438" lon="152.8074984">
<ele>393.559</ele>
<time>2016-01-02T05:47:27.826Z</time>
</trkpt>
<trkpt lat="-27.1339360" lon="152.8072095">
<ele>391.854</ele>
<time>2016-01-02T05:47:30.824Z</time>
</trkpt>
<trkpt lat="-27.1335153" lon="152.8069025">
<ele>390.317</ele>
<time>2016-01-02T05:47:33.959Z</time>
</trkpt>
<trkpt lat="-27.1332666" lon="152.8067833">
<ele>388.269</ele>
<time>2016-01-02T05:47:35.651Z</time>
</trkpt>
<trkpt lat="-27.1328222" lon="152.8067814">
<ele>385.838</ele>
<time>2016-01-02T05:47:38.537Z</time>
</trkpt>
<trkpt lat="-27.1325217" lon="152.8068220">
<ele>383.919</ele>
<time>2016-01-02T05:47:40.553Z</time>
</trkpt>
<trkpt lat="-27.1320664" lon="152.8068969">
<ele>382.951</ele>
<time>2016-01-02T05:47:43.592Z</time>
</trkpt>
<trkpt lat="-27.1318171" lon="152.8069688">
<ele>382.672</ele>
<time>2016-01-02T05:47:45.296Z</time>
</trkpt>
<trkpt lat="-27.1314662" lon="152.8070634">
<ele>382.702</ele>
<time>2016-01-02T05:47:47.799Z</time>
</trkpt>
<trkpt lat="-27.1311169" lon="152.8070784">
<ele>382.720</ele>
<time>2016-01-02T05:47:50.496Z</time>
</trkpt>
<trkpt lat="-27.1308787" lon="152.8066134">
<ele>382.630</ele>
<time>2016-01-02T05:47:54.446Z</time>
</trkpt>
<trkpt lat="-27.1306758" lon="152.8061465">
<ele>382.470</ele>
<time>2016-01-02T05:47:58.051Z</time>
</trkpt>
<trkpt lat="-27.1305866" lon="152.8058399">
<ele>382.114</ele>
<time>2016-01-02T05:48:00.071Z</time>
</trkpt>
<trkpt lat="-27.1303812" lon="152.8053892">
<ele>381.457</ele>
<time>2016-01-02T05:48:03.015Z</time>
</trkpt>
<trkpt lat="-27.1300153" lon="152.8050585">
<ele>380.950</ele>
<time>2016-01-02T05:48:06.114Z</time>
</trkpt>
<trkpt lat="-27.1297539" lon="152.8048865">
<ele>381.190</ele>
<time>2016-01-02T05:48:08.108Z</time>
</trkpt>
<trkpt lat="-27.1294242" lon="152.8045445">
<ele>382.417</ele>
<time>2016-01-02T05:48:11.052Z</time>
</trkpt>
<trkpt lat="-27.1292583" lon="152.8042988">
<ele>384.507</ele>
<time>2016-01-02T05:48:12.879Z</time>
</trkpt>
<trkpt lat="-27.1290812" lon="152.8039843">
<ele>386.800</ele>
<time>2016-01-02T05:48:15.147Z</time>
</trkpt>
<trkpt lat="-27.1289189" lon="152.8036980">
<ele>388.715</ele>
<time>2016-01-02T05:48:17.182Z</time>
</trkpt>
<trkpt lat="-27.1286165" lon="152.8033058">
<ele>390.289</ele>
<time>2016-01-02T05:48:20.220Z</time>
</trkpt>
<trkpt lat="-27.1283647" lon="152.8030979">
<ele>391.891</ele>
<time>2016-01-02T05:48:22.272Z</time>
</trkpt>
<trkpt lat="-27.1280868" lon="152.8029249">
<ele>393.648</ele>
<time>2016-01-02T05:48:24.321Z</time>
</trkpt>
<trkpt lat="-27.1277865" lon="152.8027408">
<ele>395.274</ele>
<time>2016-01-02T05:48:26.473Z</time>
</trkpt>
<trkpt lat="-27.1273748" lon="152.8025157">
<ele>396.377</ele>
<time>2016-01-02T05:48:29.369Z</time>
</trkpt>
<trkpt lat="-27.1269982" lon="152.8023013">
<ele>396.870</ele>
<time>2016-01-02T05:48:32.159Z</time>
</trkpt>
<trkpt lat="-27.1266269" lon="152.8020686">
<ele>397.038</ele>
<time>2016-01-02T05:48:35.111Z</time>
</trkpt>
<trkpt lat="-27.1263571" lon="152.8017423">
<ele>397.899</ele>
<time>2016-01-02T05:48:37.903Z</time>
</trkpt>
<trkpt lat="-27.1262349" lon="152.8014384">
<ele>400.116</ele>
<time>2016-01-02T05:48:39.973Z</time>
</trkpt>
<trkpt lat="-27.1261785" lon="152.8011328">
<ele>402.958</ele>
<time>2016-01-02T05:48:41.892Z</time>
</trkpt>
<trkpt lat="-27.1262665" lon="152.8006409">
<ele>405.602</ele>
<time>2016-01-02T05:48:44.999Z</time>
</trkpt>
<trkpt lat="-27.1263244" lon="152.8001359">
<ele>407.829</ele>
<time>2016-01-02T05:48:48.175Z</time>
</trkpt>
<trkpt lat="-27.1262980" lon="152.7998470">
<ele>409.640</ele>
<time>2016-01-02T05:48:49.993Z</time>
</trkpt>
<trkpt lat="-27.1262129" lon="152.7993950">
<ele>411.380</ele>
<time>2016-01-02T05:48:52.977Z</time>
</trkpt>
<trkpt lat="-27.1261616" lon="152.7991381">
<ele>413.186</ele>
<time>2016-01-02T05:48:54.717Z</time>
</trkpt>
<trkpt lat="-27.1258969" lon="152.7988581">
<ele>414.658</ele>
<time>2016-01-02T05:48:57.646Z</time>
</trkpt>
<trkpt lat="-27.1255303" lon="152.7987666">
<ele>415.536</ele>
<time>2016-01-02T05:49:00.919Z</time>
</trkpt>
<trkpt lat="-27.1252848" lon="152.7984157">
<ele>416.392</ele>
<time>2016-01-02T05:49:04.280Z</time>
</trkpt>
<trkpt lat="-27.1250815" lon="152.7979948">
<ele>418.086</ele>
<time>2016-01-02T05:49:07.502Z</time>
</trkpt>
<trkpt lat="-27.1248550" lon="152.7975498">
<ele>420.557</ele>
<time>2016-01-02T05:49:10.620Z</time>
</trkpt>
<trkpt lat="-27.1246898" lon="152.7972977">
<ele>422.902</ele>
<time>2016-01-02T05:49:12.489Z</time>
</trkpt>
<trkpt lat="-27.1242934" lon="152.7970995">
<ele>424.486</ele>
<time>2016-01-02T05:49:15.520Z</time>
</trkpt>
<trkpt lat="-27.1240325" lon="152.7969454">
<ele>425.374</ele>
<time>2016-01-02T05:49:17.609Z</time>
</trkpt>
<trkpt lat="-27.1238079" lon="152.7966357">
<ele>425.893</ele>
<time>2016-01-02T05:49:20.188Z</time>
</trkpt>
<trkpt lat="-27.1237051" lon="152.7962161">
<ele>426.269</ele>
<time>2016-01-02T05:49:23.185Z</time>
</trkpt>
<trkpt lat="-27.1237944" lon="152.7959487">
<ele>426.655</ele>
<time>2016-01-02T05:49:25.227Z</time>
</trkpt>
<trkpt lat="-27.1239738" lon="152.7956547">
<ele>426.973</ele>
<time>2016-01-02T05:49:27.815Z</time>
</trkpt>
<trkpt lat="-27.1238888" lon="152.7953206">
<ele>427.138</ele>
<time>2016-01-02T05:49:30.594Z</time>
</trkpt>
<trkpt lat="-27.1236097" lon="152.7949847">
<ele>427.830</ele>
<time>2016-01-02T05:49:34.522Z</time>
</trkpt>
<trkpt lat="-27.1233345" lon="152.7945501">
<ele>429.745</ele>
<time>2016-01-02T05:49:37.880Z</time>
</trkpt>
<trkpt lat="-27.1231534" lon="152.7942721">
<ele>432.404</ele>
<time>2016-01-02T05:49:39.857Z</time>
</trkpt>
<trkpt lat="-27.1228581" lon="152.7938631">
<ele>434.670</ele>
<time>2016-01-02T05:49:42.874Z</time>
</trkpt>
<trkpt lat="-27.1225427" lon="152.7935013">
<ele>435.912</ele>
<time>2016-01-02T05:49:45.787Z</time>
</trkpt>
<trkpt lat="-27.1223100" lon="152.7932731">
<ele>436.569</ele>
<time>2016-01-02T05:49:47.794Z</time>
</trkpt>
<trkpt lat="-27.1220691" lon="152.7931005">
<ele>437.449</ele>
<time>2016-01-02T05:49:49.684Z</time>
</trkpt>
<trkpt lat="-27.1216571" lon="152.7928629">
<ele>438.836</ele>
<time>2016-01-02T05:49:52.756Z</time>
</trkpt>
<trkpt lat="-27.1213594" lon="152.7927368">
<ele>440.846</ele>
<time>2016-01-02T05:49:54.812Z</time>
</trkpt>
<trkpt lat="-27.1210697" lon="152.7925962">
<ele>443.039</ele>
<time>2016-01-02T05:49:56.826Z</time>
</trkpt>
<trkpt lat="-27.1206959" lon="152.7923406">
<ele>444.411</ele>
<time>2016-01-02T05:49:59.707Z</time>
</trkpt>
<trkpt lat="-27.1204627" lon="152.7921032">
<ele>444.731</ele>
<time>2016-01-02T05:50:01.846Z</time>
</trkpt>
<trkpt lat="-27.1201857" lon="152.7917694">
<ele>444.661</ele>
<time>2016-01-02T05:50:04.690Z</time>
</trkpt>
<trkpt lat="-27.1199499" lon="152.7913765">
<ele>444.819</ele>
<time>2016-01-02T05:50:07.717Z</time>
</trkpt>
<trkpt lat="-27.1197920" lon="152.7908864">
<ele>445.266</ele>
<time>2016-01-02T05:50:11.005Z</time>
</trkpt>
<trkpt lat="-27.1197148" lon="152.7905664">
<ele>445.884</ele>
<time>2016-01-02T05:50:13.038Z</time>
</trkpt>
<trkpt lat="-27.1195036" lon="152.7901746">
<ele>446.592</ele>
<time>2016-01-02T05:50:15.900Z</time>
</trkpt>
<trkpt lat="-27.1191969" lon="152.7897918">
<ele>447.153</ele>
<time>2016-01-02T05:50:19.091Z</time>
</trkpt>
<trkpt lat="-27.1189284" lon="152.7893858">
<ele>446.996</ele>
<time>2016-01-02T05:50:22.078Z</time>
</trkpt>
<trkpt lat="-27.1186378" lon="152.7890052">
<ele>445.968</ele>
<time>2016-01-02T05:50:25.114Z</time>
</trkpt>
<trkpt lat="-27.1183653" lon="152.7888405">
<ele>444.962</ele>
<time>2016-01-02T05:50:27.206Z</time>
</trkpt>
<trkpt lat="-27.1179078" lon="152.7886212">
<ele>445.139</ele>
<time>2016-01-02T05:50:30.344Z</time>
</trkpt>
<trkpt lat="-27.1174856" lon="152.7884050">
<ele>447.083</ele>
<time>2016-01-02T05:50:33.288Z</time>
</trkpt>
<trkpt lat="-27.1171997" lon="152.7882466">
<ele>450.320</ele>
<time>2016-01-02T05:50:35.403Z</time>
</trkpt>
<trkpt lat="-27.1168759" lon="152.7879136">
<ele>453.551</ele>
<time>2016-01-02T05:50:38.346Z</time>
</trkpt>
<trkpt lat="-27.1165928" lon="152.7875085">
<ele>456.031</ele>
<time>2016-01-02T05:50:41.410Z</time>
</trkpt>
<trkpt lat="-27.1164619" lon="152.7871864">
<ele>458.111</ele>
<time>2016-01-02T05:50:43.481Z</time>
</trkpt>
<trkpt lat="-27.1163486" lon="152.7868595">
<ele>460.157</ele>
<time>2016-01-02T05:50:45.503Z</time>
</trkpt>
<trkpt lat="-27.1162565" lon="152.7863711">
<ele>461.809</ele>
<time>2016-01-02T05:50:48.361Z</time>
</trkpt>
<trkpt lat="-27.1162235" lon="152.7859996">
<ele>462.567</ele>
<time>2016-01-02T05:50:50.434Z</time>
</trkpt>
<trkpt lat="-27.1162050" lon="152.7853676">
<ele>462.595</ele>
<time>2016-01-02T05:50:53.623Z</time>
</trkpt>
<trkpt lat="-27.1162178" lon="152.7847164">
<ele>462.392</ele>
<time>2016-01-02T05:50:56.697Z</time>
</trkpt>
<trkpt lat="-27.1162071" lon="152.7841416">
<ele>462.286</ele>
<time>2016-01-02T05:50:59.480Z</time>
</trkpt>
<trkpt lat="-27.1161986" lon="152.7837548">
<ele>461.578</ele>
<time>2016-01-02T05:51:01.438Z</time>
</trkpt>
<trkpt lat="-27.1161634" lon="152.7831921">
<ele>459.259</ele>
<time>2016-01-02T05:51:04.368Z</time>
</trkpt>
<trkpt lat="-27.1161385" lon="152.7828096">
<ele>455.982</ele>
<time>2016-01-02T05:51:06.355Z</time>
</trkpt>
<trkpt lat="-27.1160964" lon="152.7822114">
<ele>453.438</ele>
<time>2016-01-02T05:51:09.347Z</time>
</trkpt>
<trkpt lat="-27.1161427" lon="152.7817937">
<ele>452.262</ele>
<time>2016-01-02T05:51:11.374Z</time>
</trkpt>
<trkpt lat="-27.1162272" lon="152.7813819">
<ele>452.053</ele>
<time>2016-01-02T05:51:13.396Z</time>
</trkpt>
<trkpt lat="-27.1164804" lon="152.7808335">
<ele>452.228</ele>
<time>2016-01-02T05:51:16.336Z</time>
</trkpt>
<trkpt lat="-27.1167824" lon="152.7805055">
<ele>452.861</ele>
<time>2016-01-02T05:51:18.548Z</time>
</trkpt>
<trkpt lat="-27.1172072" lon="152.7801095">
<ele>454.579</ele>
<time>2016-01-02T05:51:21.418Z</time>
</trkpt>
<trkpt lat="-27.1174857" lon="152.7798070">
<ele>457.141</ele>
<time>2016-01-02T05:51:23.407Z</time>
</trkpt>
<trkpt lat="-27.1179212" lon="152.7794053">
<ele>459.306</ele>
<time>2016-01-02T05:51:26.268Z</time>
</trkpt>
<trkpt lat="-27.1182228" lon="152.7790919">
<ele>460.691</ele>
<time>2016-01-02T05:51:28.338Z</time>
</trkpt>
<trkpt lat="-27.1186675" lon="152.7786554">
<ele>461.959</ele>
<time>2016-01-02T05:51:31.319Z</time>
</trkpt>
<trkpt lat="-27.1190973" lon="152.7782150">
<ele>463.233</ele>
<time>2016-01-02T05:51:34.311Z</time>
</trkpt>
<trkpt lat="-27.1194115" lon="152.7777103">
<ele>464.027</ele>
<time>2016-01-02T05:51:37.187Z</time>
</trkpt>
<trkpt lat="-27.1196679" lon="152.7771238">
<ele>464.254</ele>
<time>2016-01-02T05:51:40.240Z</time>
</trkpt>
<trkpt lat="-27.1198166" lon="152.7767355">
<ele>464.319</ele>
<time>2016-01-02T05:51:42.224Z</time>
</trkpt>
<trkpt lat="-27.1199589" lon="152.7763402">
<ele>464.581</ele>
<time>2016-01-02T05:51:44.229Z</time>
</trkpt>
<trkpt lat="-27.1202497" lon="152.7757870">
<ele>465.274</ele>
<time>2016-01-02T05:51:47.229Z</time>
</trkpt>
<trkpt lat="-27.1205130" lon="152.7754726">
<ele>466.517</ele>
<time>2016-01-02T05:51:49.235Z</time>
</trkpt>
<trkpt lat="-27.1209666" lon="152.7750354">
<ele>467.977</ele>
<time>2016-01-02T05:51:52.306Z</time>
</trkpt>
<trkpt lat="-27.1214032" lon="152.7746087">
<ele>469.109</ele>
<time>2016-01-02T05:51:55.259Z</time>
</trkpt>
<trkpt lat="-27.1217126" lon="152.7743588">
<ele>469.749</ele>
<time>2016-01-02T05:51:57.219Z</time>
</trkpt>
<trkpt lat="-27.1220148" lon="152.7740454">
<ele>469.986</ele>
<time>2016-01-02T05:51:59.290Z</time>
</trkpt>
<trkpt lat="-27.1224164" lon="152.7735474">
<ele>469.901</ele>
<time>2016-01-02T05:52:02.224Z</time>
</trkpt>
<trkpt lat="-27.1227959" lon="152.7730010">
<ele>469.618</ele>
<time>2016-01-02T05:52:05.235Z</time>
</trkpt>
<trkpt lat="-27.1231801" lon="152.7724809">
<ele>469.304</ele>
<time>2016-01-02T05:52:08.212Z</time>
</trkpt>
<trkpt lat="-27.1234696" lon="152.7721754">
<ele>468.855</ele>
<time>2016-01-02T05:52:10.205Z</time>
</trkpt>
<trkpt lat="-27.1238061" lon="152.7720127">
<ele>468.168</ele>
<time>2016-01-02T05:52:12.076Z</time>
</trkpt>
<trkpt lat="-27.1243099" lon="152.7717607">
<ele>467.553</ele>
<time>2016-01-02T05:52:15.013Z</time>
</trkpt>
<trkpt lat="-27.1246090" lon="152.7715603">
<ele>467.501</ele>
<time>2016-01-02T05:52:16.942Z</time>
</trkpt>
<trkpt lat="-27.1249049" lon="152.7710676">
<ele>467.829</ele>
<time>2016-01-02T05:52:19.944Z</time>
</trkpt>
<trkpt lat="-27.1250629" lon="152.7704816">
<ele>468.125</ele>
<time>2016-01-02T05:52:22.981Z</time>
</trkpt>
<trkpt lat="-27.1251627" lon="152.7700874">
<ele>468.218</ele>
<time>2016-01-02T05:52:24.950Z</time>
</trkpt>
<trkpt lat="-27.1254382" lon="152.7695738">
<ele>467.799</ele>
<time>2016-01-02T05:52:27.882Z</time>
</trkpt>
<trkpt lat="-27.1257096" lon="152.7693564">
<ele>466.327</ele>
<time>2016-01-02T05:52:29.796Z</time>
</trkpt>
<trkpt lat="-27.1261457" lon="152.7689344">
<ele>464.179</ele>
<time>2016-01-02T05:52:33.075Z</time>
</trkpt>
<trkpt lat="-27.1267661" lon="152.7689878">
<ele>462.465</ele>
<time>2016-01-02T05:52:36.542Z</time>
</trkpt>
<trkpt lat="-27.1272296" lon="152.7686638">
<ele>461.635</ele>
<time>2016-01-02T05:52:39.640Z</time>
</trkpt>
<trkpt lat="-27.1275126" lon="152.7684166">
<ele>461.216</ele>
<time>2016-01-02T05:52:41.746Z</time>
</trkpt>
<trkpt lat="-27.1276628" lon="152.7681800">
<ele>461.429</ele>
<time>2016-01-02T05:52:43.356Z</time>
</trkpt>
<trkpt lat="-27.1274841" lon="152.7675376">
<ele>463.027</ele>
<time>2016-01-02T05:52:47.387Z</time>
</trkpt>
<trkpt lat="-27.1272876" lon="152.7671597">
<ele>465.642</ele>
<time>2016-01-02T05:52:49.717Z</time>
</trkpt>
<trkpt lat="-27.1270632" lon="152.7668790">
<ele>468.254</ele>
<time>2016-01-02T05:52:51.564Z</time>
</trkpt>
<trkpt lat="-27.1265673" lon="152.7664694">
<ele>470.927</ele>
<time>2016-01-02T05:52:54.833Z</time>
</trkpt>
<trkpt lat="-27.1262371" lon="152.7662375">
<ele>474.485</ele>
<time>2016-01-02T05:52:56.866Z</time>
</trkpt>
<trkpt lat="-27.1257067" lon="152.7659658">
<ele>478.785</ele>
<time>2016-01-02T05:52:59.932Z</time>
</trkpt>
<trkpt lat="-27.1251580" lon="152.7657383">
<ele>482.788</ele>
<time>2016-01-02T05:53:03.070Z</time>
</trkpt>
<trkpt lat="-27.1248930" lon="152.7654764">
<ele>485.965</ele>
<time>2016-01-02T05:53:05.082Z</time>
</trkpt>
<trkpt lat="-27.1246740" lon="152.7652032">
<ele>488.394</ele>
<time>2016-01-02T05:53:06.970Z</time>
</trkpt>
<trkpt lat="-27.1244399" lon="152.7646949">
<ele>489.959</ele>
<time>2016-01-02T05:53:09.795Z</time>
</trkpt>
<trkpt lat="-27.1242948" lon="152.7642944">
<ele>490.837</ele>
<time>2016-01-02T05:53:11.755Z</time>
</trkpt>
<trkpt lat="-27.1241719" lon="152.7638831">
<ele>491.790</ele>
<time>2016-01-02T05:53:13.644Z</time>
</trkpt>
<trkpt lat="-27.1240210" lon="152.7631970">
<ele>493.069</ele>
<time>2016-01-02T05:53:16.703Z</time>
</trkpt>
<trkpt lat="-27.1239663" lon="152.7627409">
<ele>494.066</ele>
<time>2016-01-02T05:53:18.752Z</time>
</trkpt>
<trkpt lat="-27.1238853" lon="152.7621083">
<ele>494.414</ele>
<time>2016-01-02T05:53:21.678Z</time>
</trkpt>
<trkpt lat="-27.1238192" lon="152.7616699">
<ele>494.459</ele>
<time>2016-01-02T05:53:23.818Z</time>
</trkpt>
<trkpt lat="-27.1237359" lon="152.7610690">
<ele>494.556</ele>
<time>2016-01-02T05:53:26.805Z</time>
</trkpt>
<trkpt lat="-27.1235997" lon="152.7604863">
<ele>494.592</ele>
<time>2016-01-02T05:53:29.735Z</time>
</trkpt>
<trkpt lat="-27.1234572" lon="152.7600816">
<ele>494.384</ele>
<time>2016-01-02T05:53:31.756Z</time>
</trkpt>
<trkpt lat="-27.1231851" lon="152.7594916">
<ele>494.387</ele>
<time>2016-01-02T05:53:34.799Z</time>
</trkpt>
<trkpt lat="-27.1230327" lon="152.7591075">
<ele>495.169</ele>
<time>2016-01-02T05:53:36.718Z</time>
</trkpt>
<trkpt lat="-27.1228795" lon="152.7587118">
<ele>496.409</ele>
<time>2016-01-02T05:53:38.786Z</time>
</trkpt>
<trkpt lat="-27.1226688" lon="152.7581964">
<ele>497.320</ele>
<time>2016-01-02T05:53:41.672Z</time>
</trkpt>
<trkpt lat="-27.1225026" lon="152.7578892">
<ele>497.247</ele>
<time>2016-01-02T05:53:43.654Z</time>
</trkpt>
<trkpt lat="-27.1221907" lon="152.7574856">
<ele>496.177</ele>
<time>2016-01-02T05:53:46.577Z</time>
</trkpt>
<trkpt lat="-27.1219002" lon="152.7571765">
<ele>495.226</ele>
<time>2016-01-02T05:53:48.785Z</time>
</trkpt>
<trkpt lat="-27.1215442" lon="152.7568903">
<ele>495.259</ele>
<time>2016-01-02T05:53:51.017Z</time>
</trkpt>
<trkpt lat="-27.1211915" lon="152.7566400">
<ele>495.794</ele>
<time>2016-01-02T05:53:53.151Z</time>
</trkpt>
<trkpt lat="-27.1206504" lon="152.7563091">
<ele>496.107</ele>
<time>2016-01-02T05:53:56.363Z</time>
</trkpt>
<trkpt lat="-27.1203334" lon="152.7560705">
<ele>495.813</ele>
<time>2016-01-02T05:53:58.422Z</time>
</trkpt>
<trkpt lat="-27.1200311" lon="152.7558591">
<ele>494.997</ele>
<time>2016-01-02T05:54:00.349Z</time>
</trkpt>
<trkpt lat="-27.1197200" lon="152.7556353">
<ele>494.509</ele>
<time>2016-01-02T05:54:02.285Z</time>
</trkpt>
<trkpt lat="-27.1193787" lon="152.7554080">
<ele>495.218</ele>
<time>2016-01-02T05:54:04.303Z</time>
</trkpt>
<trkpt lat="-27.1188378" lon="152.7550933">
<ele>497.251</ele>
<time>2016-01-02T05:54:07.399Z</time>
</trkpt>
<trkpt lat="-27.1182985" lon="152.7548652">
<ele>499.920</ele>
<time>2016-01-02T05:54:10.341Z</time>
</trkpt>
<trkpt lat="-27.1179311" lon="152.7547305">
<ele>502.321</ele>
<time>2016-01-02T05:54:12.321Z</time>
</trkpt>
<trkpt lat="-27.1175602" lon="152.7545793">
<ele>504.233</ele>
<time>2016-01-02T05:54:14.357Z</time>
</trkpt>
<trkpt lat="-27.1170005" lon="152.7543592">
<ele>506.071</ele>
<time>2016-01-02T05:54:17.466Z</time>
</trkpt>
<trkpt lat="-27.1165173" lon="152.7540288">
<ele>508.103</ele>
<time>2016-01-02T05:54:20.472Z</time>
</trkpt>
<trkpt lat="-27.1162516" lon="152.7537384">
<ele>510.024</ele>
<time>2016-01-02T05:54:22.429Z</time>
</trkpt>
<trkpt lat="-27.1158690" lon="152.7532513">
<ele>511.249</ele>
<time>2016-01-02T05:54:25.479Z</time>
</trkpt>
<trkpt lat="-27.1156091" lon="152.7529503">
<ele>511.975</ele>
<time>2016-01-02T05:54:27.500Z</time>
</trkpt>
<trkpt lat="-27.1152033" lon="152.7525836">
<ele>512.924</ele>
<time>2016-01-02T05:54:30.310Z</time>
</trkpt>
<trkpt lat="-27.1148560" lon="152.7523529">
<ele>514.053</ele>
<time>2016-01-02T05:54:32.378Z</time>
</trkpt>
<trkpt lat="-27.1142960" lon="152.7520701">
<ele>514.842</ele>
<time>2016-01-02T05:54:35.454Z</time>
</trkpt>
<trkpt lat="-27.1137365" lon="152.7517924">
<ele>515.180</ele>
<time>2016-01-02T05:54:38.499Z</time>
</trkpt>
<trkpt lat="-27.1133615" lon="152.7516123">
<ele>515.082</ele>
<time>2016-01-02T05:54:40.569Z</time>
</trkpt>
<trkpt lat="-27.1130002" lon="152.7514487">
<ele>514.571</ele>
<time>2016-01-02T05:54:42.594Z</time>
</trkpt>
<trkpt lat="-27.1124728" lon="152.7512131">
<ele>513.794</ele>
<time>2016-01-02T05:54:45.609Z</time>
</trkpt>
<trkpt lat="-27.1119601" lon="152.7509811">
<ele>512.955</ele>
<time>2016-01-02T05:54:48.585Z</time>
</trkpt>
<trkpt lat="-27.1116241" lon="152.7508403">
<ele>511.889</ele>
<time>2016-01-02T05:54:50.498Z</time>
</trkpt>
<trkpt lat="-27.1112712" lon="152.7507001">
<ele>510.434</ele>
<time>2016-01-02T05:54:52.450Z</time>
</trkpt>
<trkpt lat="-27.1106882" lon="152.7505425">
<ele>509.087</ele>
<time>2016-01-02T05:54:55.534Z</time>
</trkpt>
<trkpt lat="-27.1103103" lon="152.7504777">
<ele>508.416</ele>
<time>2016-01-02T05:54:57.488Z</time>
</trkpt>
<trkpt lat="-27.1097233" lon="152.7504413">
<ele>508.296</ele>
<time>2016-01-02T05:55:00.397Z</time>
</trkpt>
<trkpt lat="-27.1093209" lon="152.7504839">
<ele>508.754</ele>
<time>2016-01-02T05:55:02.338Z</time>
</trkpt>
<trkpt lat="-27.1087016" lon="152.7505843">
<ele>509.895</ele>
<time>2016-01-02T05:55:05.354Z</time>
</trkpt>
<trkpt lat="-27.1083186" lon="152.7506746">
<ele>511.171</ele>
<time>2016-01-02T05:55:07.255Z</time>
</trkpt>
<trkpt lat="-27.1077115" lon="152.7507865">
<ele>511.781</ele>
<time>2016-01-02T05:55:10.250Z</time>
</trkpt>
<trkpt lat="-27.1073068" lon="152.7508743">
<ele>511.642</ele>
<time>2016-01-02T05:55:12.273Z</time>
</trkpt>
<trkpt lat="-27.1069135" lon="152.7509568">
<ele>511.247</ele>
<time>2016-01-02T05:55:14.260Z</time>
</trkpt>
<trkpt lat="-27.1065266" lon="152.7510505">
<ele>511.069</ele>
<time>2016-01-02T05:55:16.225Z</time>
</trkpt>
<trkpt lat="-27.1059238" lon="152.7511665">
<ele>511.169</ele>
<time>2016-01-02T05:55:19.209Z</time>
</trkpt>
<trkpt lat="-27.1055105" lon="152.7512504">
<ele>510.917</ele>
<time>2016-01-02T05:55:21.223Z</time>
</trkpt>
<trkpt lat="-27.1051114" lon="152.7513529">
<ele>509.715</ele>
<time>2016-01-02T05:55:23.195Z</time>
</trkpt>
<trkpt lat="-27.1047033" lon="152.7514223">
<ele>508.109</ele>
<time>2016-01-02T05:55:25.195Z</time>
</trkpt>
<trkpt lat="-27.1042810" lon="152.7514384">
<ele>507.037</ele>
<time>2016-01-02T05:55:27.241Z</time>
</trkpt>
<trkpt lat="-27.1036666" lon="152.7513521">
<ele>506.575</ele>
<time>2016-01-02T05:55:30.235Z</time>
</trkpt>
<trkpt lat="-27.1030650" lon="152.7511815">
<ele>506.180</ele>
<time>2016-01-02T05:55:33.251Z</time>
</trkpt>
<trkpt lat="-27.1024806" lon="152.7510234">
<ele>505.484</ele>
<time>2016-01-02T05:55:36.190Z</time>
</trkpt>
<trkpt lat="-27.1019214" lon="152.7507566">
<ele>504.110</ele>
<time>2016-01-02T05:55:39.167Z</time>
</trkpt>
<trkpt lat="-27.1014299" lon="152.7503506">
<ele>501.717</ele>
<time>2016-01-02T05:55:42.190Z</time>
</trkpt>
<trkpt lat="-27.1011611" lon="152.7500330">
<ele>498.548</ele>
<time>2016-01-02T05:55:44.180Z</time>
</trkpt>
<trkpt lat="-27.1007766" lon="152.7495402">
<ele>495.457</ele>
<time>2016-01-02T05:55:47.131Z</time>
</trkpt>
<trkpt lat="-27.1004831" lon="152.7492270">
<ele>493.359</ele>
<time>2016-01-02T05:55:49.110Z</time>
</trkpt>
<trkpt lat="-27.0999796" lon="152.7488393">
<ele>492.841</ele>
<time>2016-01-02T05:55:52.068Z</time>
</trkpt>
<trkpt lat="-27.0996201" lon="152.7486249">
<ele>493.891</ele>
<time>2016-01-02T05:55:54.009Z</time>
</trkpt>
<trkpt lat="-27.0990189" lon="152.7483830">
<ele>495.832</ele>
<time>2016-01-02T05:55:56.986Z</time>
</trkpt>
<trkpt lat="-27.0985686" lon="152.7482552">
<ele>497.527</ele>
<time>2016-01-02T05:55:59.090Z</time>
</trkpt>
<trkpt lat="-27.0981537" lon="152.7482300">
<ele>498.460</ele>
<time>2016-01-02T05:56:00.993Z</time>
</trkpt>
<trkpt lat="-27.0974850" lon="152.7482595">
<ele>498.871</ele>
<time>2016-01-02T05:56:04.127Z</time>
</trkpt>
<trkpt lat="-27.0970738" lon="152.7483210">
<ele>498.788</ele>
<time>2016-01-02T05:56:06.175Z</time>
</trkpt>
<trkpt lat="-27.0965031" lon="152.7484393">
<ele>498.188</ele>
<time>2016-01-02T05:56:09.150Z</time>
</trkpt>
<trkpt lat="-27.0959723" lon="152.7485676">
<ele>497.528</ele>
<time>2016-01-02T05:56:12.048Z</time>
</trkpt>
<trkpt lat="-27.0954369" lon="152.7486822">
<ele>497.273</ele>
<time>2016-01-02T05:56:15.006Z</time>
</trkpt>
<trkpt lat="-27.0950573" lon="152.7487440">
<ele>497.823</ele>
<time>2016-01-02T05:56:17.061Z</time>
</trkpt>
<trkpt lat="-27.0944892" lon="152.7487323">
<ele>499.654</ele>
<time>2016-01-02T05:56:20.082Z</time>
</trkpt>
<trkpt lat="-27.0941143" lon="152.7486563">
<ele>502.948</ele>
<time>2016-01-02T05:56:22.097Z</time>
</trkpt>
<trkpt lat="-27.0937554" lon="152.7484896">
<ele>507.174</ele>
<time>2016-01-02T05:56:24.128Z</time>
</trkpt>
<trkpt lat="-27.0932678" lon="152.7481577">
<ele>510.993</ele>
<time>2016-01-02T05:56:27.028Z</time>
</trkpt>
<trkpt lat="-27.0929571" lon="152.7478702">
<ele>513.297</ele>
<time>2016-01-02T05:56:29.030Z</time>
</trkpt>
<trkpt lat="-27.0926276" lon="152.7476022">
<ele>514.438</ele>
<time>2016-01-02T05:56:31.072Z</time>
</trkpt>
<trkpt lat="-27.0923150" lon="152.7473469">
<ele>515.250</ele>
<time>2016-01-02T05:56:33.015Z</time>
</trkpt>
<trkpt lat="-27.0918142" lon="152.7469784">
<ele>516.257</ele>
<time>2016-01-02T05:56:36.049Z</time>
</trkpt>
<trkpt lat="-27.0914631" lon="152.7468100">
<ele>517.566</ele>
<time>2016-01-02T05:56:38.054Z</time>
</trkpt>
<trkpt lat="-27.0911136" lon="152.7467190">
<ele>518.855</ele>
<time>2016-01-02T05:56:39.947Z</time>
</trkpt>
<trkpt lat="-27.0905708" lon="152.7467090">
<ele>519.813</ele>
<time>2016-01-02T05:56:42.783Z</time>
</trkpt>
<trkpt lat="-27.0901922" lon="152.7467590">
<ele>521.498</ele>
<time>2016-01-02T05:56:44.724Z</time>
</trkpt>
<trkpt lat="-27.0896087" lon="152.7469627">
<ele>524.764</ele>
<time>2016-01-02T05:56:47.821Z</time>
</trkpt>
<trkpt lat="-27.0890951" lon="152.7472820">
<ele>529.111</ele>
<time>2016-01-02T05:56:50.836Z</time>
</trkpt>
<trkpt lat="-27.0886744" lon="152.7477105">
<ele>533.295</ele>
<time>2016-01-02T05:56:53.810Z</time>
</trkpt>
<trkpt lat="-27.0884439" lon="152.7480444">
<ele>535.885</ele>
<time>2016-01-02T05:56:55.746Z</time>
</trkpt>
<trkpt lat="-27.0881967" lon="152.7486295">
<ele>536.280</ele>
<time>2016-01-02T05:56:58.640Z</time>
</trkpt>
<trkpt lat="-27.0880082" lon="152.7492651">
<ele>536.118</ele>
<time>2016-01-02T05:57:01.538Z</time>
</trkpt>
<trkpt lat="-27.0878406" lon="152.7499445">
<ele>536.759</ele>
<time>2016-01-02T05:57:04.519Z</time>
</trkpt>
<trkpt lat="-27.0877332" lon="152.7504019">
<ele>537.070</ele>
<time>2016-01-02T05:57:06.508Z</time>
</trkpt>
<trkpt lat="-27.0876347" lon="152.7508573">
<ele>535.472</ele>
<time>2016-01-02T05:57:08.504Z</time>
</trkpt>
<trkpt lat="-27.0874800" lon="152.7515258">
<ele>532.208</ele>
<time>2016-01-02T05:57:11.477Z</time>
</trkpt>
<trkpt lat="-27.0873626" lon="152.7519647">
<ele>527.774</ele>
<time>2016-01-02T05:57:13.455Z</time>
</trkpt>
<trkpt lat="-27.0872484" lon="152.7524135">
<ele>522.481</ele>
<time>2016-01-02T05:57:15.457Z</time>
</trkpt>
<trkpt lat="-27.0870846" lon="152.7530666">
<ele>517.549</ele>
<time>2016-01-02T05:57:18.363Z</time>
</trkpt>
<trkpt lat="-27.0868898" lon="152.7537309">
<ele>513.674</ele>
<time>2016-01-02T05:57:21.360Z</time>
</trkpt>
<trkpt lat="-27.0866135" lon="152.7543208">
<ele>510.212</ele>
<time>2016-01-02T05:57:24.223Z</time>
</trkpt>
<trkpt lat="-27.0864025" lon="152.7547128">
<ele>506.697</ele>
<time>2016-01-02T05:57:26.194Z</time>
</trkpt>
<trkpt lat="-27.0861218" lon="152.7553154">
<ele>503.575</ele>
<time>2016-01-02T05:57:29.119Z</time>
</trkpt>
<trkpt lat="-27.0859782" lon="152.7557472">
<ele>501.119</ele>
<time>2016-01-02T05:57:31.090Z</time>
</trkpt>
<trkpt lat="-27.0858207" lon="152.7564231">
<ele>499.246</ele>
<time>2016-01-02T05:57:34.065Z</time>
</trkpt>
<trkpt lat="-27.0857085" lon="152.7568667">
<ele>498.056</ele>
<time>2016-01-02T05:57:36.032Z</time>
</trkpt>
<trkpt lat="-27.0854528" lon="152.7574940">
<ele>497.537</ele>
<time>2016-01-02T05:57:38.977Z</time>
</trkpt>
<trkpt lat="-27.0850899" lon="152.7580613">
<ele>497.268</ele>
<time>2016-01-02T05:57:41.936Z</time>
</trkpt>
<trkpt lat="-27.0846676" lon="152.7585836">
<ele>496.997</ele>
<time>2016-01-02T05:57:44.911Z</time>
</trkpt>
<trkpt lat="-27.0842623" lon="152.7591165">
<ele>496.434</ele>
<time>2016-01-02T05:57:47.874Z</time>
</trkpt>
<trkpt lat="-27.0839876" lon="152.7594702">
<ele>495.337</ele>
<time>2016-01-02T05:57:49.871Z</time>
</trkpt>
<trkpt lat="-27.0837167" lon="152.7598123">
<ele>493.503</ele>
<time>2016-01-02T05:57:51.894Z</time>
</trkpt>
<trkpt lat="-27.0832564" lon="152.7601644">
<ele>491.072</ele>
<time>2016-01-02T05:57:54.808Z</time>
</trkpt>
<trkpt lat="-27.0829230" lon="152.7602978">
<ele>488.440</ele>
<time>2016-01-02T05:57:56.793Z</time>
</trkpt>
<trkpt lat="-27.0826280" lon="152.7604481">
<ele>485.798</ele>
<time>2016-01-02T05:57:58.763Z</time>
</trkpt>
<trkpt lat="-27.0823441" lon="152.7608420">
<ele>482.929</ele>
<time>2016-01-02T05:58:01.754Z</time>
</trkpt>
<trkpt lat="-27.0822850" lon="152.7611843">
<ele>480.145</ele>
<time>2016-01-02T05:58:03.844Z</time>
</trkpt>
<trkpt lat="-27.0823157" lon="152.7617444">
<ele>478.263</ele>
<time>2016-01-02T05:58:06.986Z</time>
</trkpt>
<trkpt lat="-27.0823733" lon="152.7621118">
<ele>478.140</ele>
<time>2016-01-02T05:58:08.958Z</time>
</trkpt>
<trkpt lat="-27.0823937" lon="152.7624726">
<ele>479.823</ele>
<time>2016-01-02T05:58:10.848Z</time>
</trkpt>
<trkpt lat="-27.0823274" lon="152.7628554">
<ele>482.142</ele>
<time>2016-01-02T05:58:12.841Z</time>
</trkpt>
<trkpt lat="-27.0820680" lon="152.7633918">
<ele>483.674</ele>
<time>2016-01-02T05:58:15.841Z</time>
</trkpt>
<trkpt lat="-27.0818204" lon="152.7637405">
<ele>484.494</ele>
<time>2016-01-02T05:58:17.947Z</time>
</trkpt>
<trkpt lat="-27.0814666" lon="152.7642201">
<ele>485.793</ele>
<time>2016-01-02T05:58:20.922Z</time>
</trkpt>
<trkpt lat="-27.0812894" lon="152.7645575">
<ele>487.924</ele>
<time>2016-01-02T05:58:22.854Z</time>
</trkpt>
<trkpt lat="-27.0811096" lon="152.7651151">
<ele>489.881</ele>
<time>2016-01-02T05:58:25.763Z</time>
</trkpt>
<trkpt lat="-27.0810393" lon="152.7657220">
<ele>490.543</ele>
<time>2016-01-02T05:58:28.655Z</time>
</trkpt>
<trkpt lat="-27.0810100" lon="152.7663771">
<ele>489.787</ele>
<time>2016-01-02T05:58:31.613Z</time>
</trkpt>
<trkpt lat="-27.0809849" lon="152.7668426">
<ele>488.620</ele>
<time>2016-01-02T05:58:33.700Z</time>
</trkpt>
<trkpt lat="-27.0809584" lon="152.7672574">
<ele>487.943</ele>
<time>2016-01-02T05:58:35.699Z</time>
</trkpt>
<trkpt lat="-27.0809350" lon="152.7677830">
<ele>487.810</ele>
<time>2016-01-02T05:58:38.528Z</time>
</trkpt>
<trkpt lat="-27.0809121" lon="152.7682383">
<ele>487.889</ele>
<time>2016-01-02T05:58:41.357Z</time>
</trkpt>
<trkpt lat="-27.0808850" lon="152.7686799">
<ele>487.645</ele>
<time>2016-01-02T05:58:44.267Z</time>
</trkpt>
<trkpt lat="-27.0808623" lon="152.7690018">
<ele>486.732</ele>
<time>2016-01-02T05:58:46.295Z</time>
</trkpt>
<trkpt lat="-27.0808415" lon="152.7693397">
<ele>485.446</ele>
<time>2016-01-02T05:58:48.346Z</time>
</trkpt>
<trkpt lat="-27.0807900" lon="152.7696664">
<ele>484.191</ele>
<time>2016-01-02T05:58:50.405Z</time>
</trkpt>
<trkpt lat="-27.0806011" lon="152.7700562">
<ele>482.981</ele>
<time>2016-01-02T05:58:53.350Z</time>
</trkpt>
<trkpt lat="-27.0805652" lon="152.7704546">
<ele>481.505</ele>
<time>2016-01-02T05:58:56.142Z</time>
</trkpt>
<trkpt lat="-27.0806197" lon="152.7707416">
<ele>479.920</ele>
<time>2016-01-02T05:58:58.198Z</time>
</trkpt>
<trkpt lat="-27.0807341" lon="152.7711731">
<ele>478.790</ele>
<time>2016-01-02T05:59:01.235Z</time>
</trkpt>
<trkpt lat="-27.0807776" lon="152.7714901">
<ele>478.191</ele>
<time>2016-01-02T05:59:03.322Z</time>
</trkpt>
<trkpt lat="-27.0807376" lon="152.7719334">
<ele>477.591</ele>
<time>2016-01-02T05:59:06.226Z</time>
</trkpt>
<trkpt lat="-27.0806398" lon="152.7723530">
<ele>476.447</ele>
<time>2016-01-02T05:59:09.167Z</time>
</trkpt>
<trkpt lat="-27.0804480" lon="152.7727111">
<ele>474.888</ele>
<time>2016-01-02T05:59:12.126Z</time>
</trkpt>
<trkpt lat="-27.0802684" lon="152.7729137">
<ele>473.775</ele>
<time>2016-01-02T05:59:14.123Z</time>
</trkpt>
<trkpt lat="-27.0800257" lon="152.7731585">
<ele>473.728</ele>
<time>2016-01-02T05:59:16.472Z</time>
</trkpt>
<trkpt lat="-27.0796919" lon="152.7734896">
<ele>474.448</ele>
<time>2016-01-02T05:59:19.578Z</time>
</trkpt>
<trkpt lat="-27.0794930" lon="152.7736979">
<ele>475.194</ele>
<time>2016-01-02T05:59:21.502Z</time>
</trkpt>
<trkpt lat="-27.0793533" lon="152.7739494">
<ele>475.644</ele>
<time>2016-01-02T05:59:23.362Z</time>
</trkpt>
<trkpt lat="-27.0791629" lon="152.7744175">
<ele>476.279</ele>
<time>2016-01-02T05:59:26.487Z</time>
</trkpt>
<trkpt lat="-27.0790388" lon="152.7746958">
<ele>477.422</ele>
<time>2016-01-02T05:59:28.327Z</time>
</trkpt>
<trkpt lat="-27.0789434" lon="152.7750227">
<ele>478.790</ele>
<time>2016-01-02T05:59:30.365Z</time>
</trkpt>
<trkpt lat="-27.0789022" lon="152.7753480">
<ele>480.049</ele>
<time>2016-01-02T05:59:32.295Z</time>
</trkpt>
<trkpt lat="-27.0789040" lon="152.7758793">
<ele>481.145</ele>
<time>2016-01-02T05:59:35.340Z</time>
</trkpt>
<trkpt lat="-27.0789769" lon="152.7762244">
<ele>482.033</ele>
<time>2016-01-02T05:59:37.313Z</time>
</trkpt>
<trkpt lat="-27.0790919" lon="152.7767520">
<ele>482.580</ele>
<time>2016-01-02T05:59:40.294Z</time>
</trkpt>
<trkpt lat="-27.0791663" lon="152.7772844">
<ele>482.392</ele>
<time>2016-01-02T05:59:43.235Z</time>
</trkpt>
<trkpt lat="-27.0792081" lon="152.7776487">
<ele>481.474</ele>
<time>2016-01-02T05:59:45.233Z</time>
</trkpt>
<trkpt lat="-27.0791799" lon="152.7780327">
<ele>481.037</ele>
<time>2016-01-02T05:59:47.347Z</time>
</trkpt>
<trkpt lat="-27.0791448" lon="152.7785241">
<ele>482.179</ele>
<time>2016-01-02T05:59:50.169Z</time>
</trkpt>
<trkpt lat="-27.0791097" lon="152.7788624">
<ele>484.144</ele>
<time>2016-01-02T05:59:52.197Z</time>
</trkpt>
<trkpt lat="-27.0789660" lon="152.7793730">
<ele>484.930</ele>
<time>2016-01-02T05:59:55.250Z</time>
</trkpt>
<trkpt lat="-27.0788362" lon="152.7797415">
<ele>483.390</ele>
<time>2016-01-02T05:59:57.317Z</time>
</trkpt>
<trkpt lat="-27.0785206" lon="152.7802525">
<ele>480.569</ele>
<time>2016-01-02T06:00:00.361Z</time>
</trkpt>
<trkpt lat="-27.0782803" lon="152.7805741">
<ele>478.375</ele>
<time>2016-01-02T06:00:02.345Z</time>
</trkpt>
<trkpt lat="-27.0780446" lon="152.7808932">
<ele>477.237</ele>
<time>2016-01-02T06:00:04.322Z</time>
</trkpt>
<trkpt lat="-27.0776671" lon="152.7813087">
<ele>475.803</ele>
<time>2016-01-02T06:00:07.215Z</time>
</trkpt>
<trkpt lat="-27.0773419" lon="152.7815377">
<ele>472.769</ele>
<time>2016-01-02T06:00:09.328Z</time>
</trkpt>
<trkpt lat="-27.0769974" lon="152.7817161">
<ele>468.637</ele>
<time>2016-01-02T06:00:11.359Z</time>
</trkpt>
<trkpt lat="-27.0766203" lon="152.7818471">
<ele>465.060</ele>
<time>2016-01-02T06:00:13.432Z</time>
</trkpt>
<trkpt lat="-27.0760605" lon="152.7819244">
<ele>462.993</ele>
<time>2016-01-02T06:00:16.384Z</time>
</trkpt>
<trkpt lat="-27.0756673" lon="152.7819182">
<ele>462.098</ele>
<time>2016-01-02T06:00:18.431Z</time>
</trkpt>
<trkpt lat="-27.0752872" lon="152.7818690">
<ele>461.615</ele>
<time>2016-01-02T06:00:20.408Z</time>
</trkpt>
<trkpt lat="-27.0746961" lon="152.7818091">
<ele>461.526</ele>
<time>2016-01-02T06:00:23.425Z</time>
</trkpt>
<trkpt lat="-27.0740993" lon="152.7818389">
<ele>461.986</ele>
<time>2016-01-02T06:00:26.405Z</time>
</trkpt>
<trkpt lat="-27.0734905" lon="152.7819286">
<ele>462.569</ele>
<time>2016-01-02T06:00:29.465Z</time>
</trkpt>
<trkpt lat="-27.0730914" lon="152.7819301">
<ele>463.044</ele>
<time>2016-01-02T06:00:31.468Z</time>
</trkpt>
<trkpt lat="-27.0727068" lon="152.7818630">
<ele>463.694</ele>
<time>2016-01-02T06:00:33.440Z</time>
</trkpt>
<trkpt lat="-27.0721369" lon="152.7816839">
<ele>464.862</ele>
<time>2016-01-02T06:00:36.482Z</time>
</trkpt>
<trkpt lat="-27.0717856" lon="152.7816016">
<ele>466.982</ele>
<time>2016-01-02T06:00:38.365Z</time>
</trkpt>
<trkpt lat="-27.0712250" lon="152.7815866">
<ele>470.203</ele>
<time>2016-01-02T06:00:41.306Z</time>
</trkpt>
<trkpt lat="-27.0708286" lon="152.7816146">
<ele>474.011</ele>
<time>2016-01-02T06:00:43.352Z</time>
</trkpt>
<trkpt lat="-27.0702660" lon="152.7816074">
<ele>477.622</ele>
<time>2016-01-02T06:00:46.288Z</time>
</trkpt>
<trkpt lat="-27.0698913" lon="152.7815567">
<ele>480.255</ele>
<time>2016-01-02T06:00:48.305Z</time>
</trkpt>
<trkpt lat="-27.0695249" lon="152.7814517">
<ele>481.490</ele>
<time>2016-01-02T06:00:50.332Z</time>
</trkpt>
<trkpt lat="-27.0689973" lon="152.7813076">
<ele>481.688</ele>
<time>2016-01-02T06:00:53.261Z</time>
</trkpt>
<trkpt lat="-27.0686383" lon="152.7812208">
<ele>481.583</ele>
<time>2016-01-02T06:00:55.241Z</time>
</trkpt>
<trkpt lat="-27.0680926" lon="152.7811214">
<ele>481.585</ele>
<time>2016-01-02T06:00:58.228Z</time>
</trkpt>
<trkpt lat="-27.0675742" lon="152.7810381">
<ele>481.723</ele>
<time>2016-01-02T06:01:01.143Z</time>
</trkpt>
<trkpt lat="-27.0672403" lon="152.7809797">
<ele>482.001</ele>
<time>2016-01-02T06:01:03.102Z</time>
</trkpt>
<trkpt lat="-27.0667351" lon="152.7809080">
<ele>482.295</ele>
<time>2016-01-02T06:01:06.081Z</time>
</trkpt>
<trkpt lat="-27.0662132" lon="152.7808471">
<ele>482.331</ele>
<time>2016-01-02T06:01:09.124Z</time>
</trkpt>
<trkpt lat="-27.0658821" lon="152.7808219">
<ele>482.063</ele>
<time>2016-01-02T06:01:11.052Z</time>
</trkpt>
<trkpt lat="-27.0655257" lon="152.7808206">
<ele>481.385</ele>
<time>2016-01-02T06:01:13.082Z</time>
</trkpt>
<trkpt lat="-27.0651461" lon="152.7808101">
<ele>480.237</ele>
<time>2016-01-02T06:01:15.161Z</time>
</trkpt>
<trkpt lat="-27.0646082" lon="152.7807681">
<ele>478.705</ele>
<time>2016-01-02T06:01:18.104Z</time>
</trkpt>
<trkpt lat="-27.0641014" lon="152.7806413">
<ele>476.293</ele>
<time>2016-01-02T06:01:21.020Z</time>
</trkpt>
<trkpt lat="-27.0636391" lon="152.7804102">
<ele>472.784</ele>
<time>2016-01-02T06:01:23.932Z</time>
</trkpt>
<trkpt lat="-27.0631923" lon="152.7800448">
<ele>468.936</ele>
<time>2016-01-02T06:01:27.016Z</time>
</trkpt>
<trkpt lat="-27.0627161" lon="152.7796102">
<ele>465.171</ele>
<time>2016-01-02T06:01:30.169Z</time>
</trkpt>
<trkpt lat="-27.0622326" lon="152.7791694">
<ele>461.493</ele>
<time>2016-01-02T06:01:33.161Z</time>
</trkpt>
<trkpt lat="-27.0618688" lon="152.7788258">
<ele>458.539</ele>
<time>2016-01-02T06:01:35.315Z</time>
</trkpt>
<trkpt lat="-27.0615963" lon="152.7785518">
<ele>456.988</ele>
<time>2016-01-02T06:01:36.947Z</time>
</trkpt>
<trkpt lat="-27.0611631" lon="152.7781140">
<ele>456.284</ele>
<time>2016-01-02T06:01:39.547Z</time>
</trkpt>
<trkpt lat="-27.0608397" lon="152.7777089">
<ele>455.069</ele>
<time>2016-01-02T06:01:41.674Z</time>
</trkpt>
<trkpt lat="-27.0604319" lon="152.7771401">
<ele>452.577</ele>
<time>2016-01-02T06:01:44.538Z</time>
</trkpt>
<trkpt lat="-27.0600303" lon="152.7765815">
<ele>449.127</ele>
<time>2016-01-02T06:01:47.408Z</time>
</trkpt>
<trkpt lat="-27.0595992" lon="152.7760053">
<ele>445.756</ele>
<time>2016-01-02T06:01:50.476Z</time>
</trkpt>
<trkpt lat="-27.0593345" lon="152.7756517">
<ele>443.455</ele>
<time>2016-01-02T06:01:52.396Z</time>
</trkpt>
<trkpt lat="-27.0588797" lon="152.7751676">
<ele>442.204</ele>
<time>2016-01-02T06:01:55.371Z</time>
</trkpt>
<trkpt lat="-27.0585346" lon="152.7749375">
<ele>440.922</ele>
<time>2016-01-02T06:01:57.295Z</time>
</trkpt>
<trkpt lat="-27.0579644" lon="152.7746792">
<ele>439.076</ele>
<time>2016-01-02T06:02:00.202Z</time>
</trkpt>
<trkpt lat="-27.0574779" lon="152.7745220">
<ele>437.466</ele>
<time>2016-01-02T06:02:02.472Z</time>
</trkpt>
<trkpt lat="-27.0567948" lon="152.7743215">
<ele>437.044</ele>
<time>2016-01-02T06:02:05.520Z</time>
</trkpt>
<trkpt lat="-27.0561571" lon="152.7741670">
<ele>437.770</ele>
<time>2016-01-02T06:02:08.309Z</time>
</trkpt>
<trkpt lat="-27.0554719" lon="152.7740005">
<ele>438.775</ele>
<time>2016-01-02T06:02:11.295Z</time>
</trkpt>
<trkpt lat="-27.0550149" lon="152.7738755">
<ele>439.166</ele>
<time>2016-01-02T06:02:13.283Z</time>
</trkpt>
<trkpt lat="-27.0545647" lon="152.7737486">
<ele>438.768</ele>
<time>2016-01-02T06:02:15.249Z</time>
</trkpt>
<trkpt lat="-27.0541366" lon="152.7736253">
<ele>437.995</ele>
<time>2016-01-02T06:02:17.143Z</time>
</trkpt>
<trkpt lat="-27.0535048" lon="152.7733000">
<ele>437.051</ele>
<time>2016-01-02T06:02:20.123Z</time>
</trkpt>
<trkpt lat="-27.0531075" lon="152.7729821">
<ele>435.923</ele>
<time>2016-01-02T06:02:22.153Z</time>
</trkpt>
<trkpt lat="-27.0525555" lon="152.7724376">
<ele>435.123</ele>
<time>2016-01-02T06:02:25.152Z</time>
</trkpt>
<trkpt lat="-27.0520367" lon="152.7719276">
<ele>435.191</ele>
<time>2016-01-02T06:02:28.006Z</time>
</trkpt>
<trkpt lat="-27.0516677" lon="152.7715831">
<ele>435.969</ele>
<time>2016-01-02T06:02:30.014Z</time>
</trkpt>
<trkpt lat="-27.0511311" lon="152.7711898">
<ele>437.249</ele>
<time>2016-01-02T06:02:32.770Z</time>
</trkpt>
<trkpt lat="-27.0505609" lon="152.7709338">
<ele>438.835</ele>
<time>2016-01-02T06:02:35.560Z</time>
</trkpt>
<trkpt lat="-27.0501695" lon="152.7708879">
<ele>440.544</ele>
<time>2016-01-02T06:02:37.428Z</time>
</trkpt>
<trkpt lat="-27.0495562" lon="152.7709470">
<ele>442.275</ele>
<time>2016-01-02T06:02:40.431Z</time>
</trkpt>
<trkpt lat="-27.0491474" lon="152.7710931">
<ele>443.709</ele>
<time>2016-01-02T06:02:42.480Z</time>
</trkpt>
<trkpt lat="-27.0484978" lon="152.7714223">
<ele>444.518</ele>
<time>2016-01-02T06:02:45.635Z</time>
</trkpt>
<trkpt lat="-27.0480830" lon="152.7716293">
<ele>444.850</ele>
<time>2016-01-02T06:02:47.582Z</time>
</trkpt>
<trkpt lat="-27.0476962" lon="152.7718421">
<ele>444.309</ele>
<time>2016-01-02T06:02:49.492Z</time>
</trkpt>
<trkpt lat="-27.0473584" lon="152.7719978">
<ele>442.381</ele>
<time>2016-01-02T06:02:51.233Z</time>
</trkpt>
<trkpt lat="-27.0470557" lon="152.7721313">
<ele>438.954</ele>
<time>2016-01-02T06:02:52.920Z</time>
</trkpt>
<trkpt lat="-27.0466169" lon="152.7723508">
<ele>434.047</ele>
<time>2016-01-02T06:02:55.689Z</time>
</trkpt>
<trkpt lat="-27.0462908" lon="152.7727421">
<ele>428.282</ele>
<time>2016-01-02T06:02:58.646Z</time>
</trkpt>
<trkpt lat="-27.0461796" lon="152.7731086">
<ele>422.854</ele>
<time>2016-01-02T06:03:00.833Z</time>
</trkpt>
<trkpt lat="-27.0461265" lon="152.7734714">
<ele>418.599</ele>
<time>2016-01-02T06:03:02.878Z</time>
</trkpt>
<trkpt lat="-27.0461516" lon="152.7739717">
<ele>415.676</ele>
<time>2016-01-02T06:03:05.709Z</time>
</trkpt>
<trkpt lat="-27.0462553" lon="152.7742627">
<ele>412.831</ele>
<time>2016-01-02T06:03:07.538Z</time>
</trkpt>
<trkpt lat="-27.0463584" lon="152.7747676">
<ele>409.243</ele>
<time>2016-01-02T06:03:10.682Z</time>
</trkpt>
<trkpt lat="-27.0463868" lon="152.7750702">
<ele>405.607</ele>
<time>2016-01-02T06:03:12.524Z</time>
</trkpt>
<trkpt lat="-27.0462887" lon="152.7755447">
<ele>402.017</ele>
<time>2016-01-02T06:03:15.490Z</time>
</trkpt>
<trkpt lat="-27.0461504" lon="152.7757848">
<ele>397.781</ele>
<time>2016-01-02T06:03:17.289Z</time>
</trkpt>
<trkpt lat="-27.0459651" lon="152.7759577">
<ele>392.807</ele>
<time>2016-01-02T06:03:19.057Z</time>
</trkpt>
<trkpt lat="-27.0456732" lon="152.7762232">
<ele>387.703</ele>
<time>2016-01-02T06:03:22.022Z</time>
</trkpt>
<trkpt lat="-27.0455250" lon="152.7765489">
<ele>383.111</ele>
<time>2016-01-02T06:03:24.732Z</time>
</trkpt>
<trkpt lat="-27.0454283" lon="152.7768207">
<ele>379.292</ele>
<time>2016-01-02T06:03:26.988Z</time>
</trkpt>
<trkpt lat="-27.0452694" lon="152.7770774">
<ele>376.297</ele>
<time>2016-01-02T06:03:29.323Z</time>
</trkpt>
<trkpt lat="-27.0447710" lon="152.7772412">
<ele>374.052</ele>
<time>2016-01-02T06:03:33.146Z</time>
</trkpt>
<trkpt lat="-27.0443125" lon="152.7775275">
<ele>372.497</ele>
<time>2016-01-02T06:03:36.533Z</time>
</trkpt>
<trkpt lat="-27.0438413" lon="152.7776477">
<ele>370.730</ele>
<time>2016-01-02T06:03:39.490Z</time>
</trkpt>
<trkpt lat="-27.0433743" lon="152.7777740">
<ele>367.031</ele>
<time>2016-01-02T06:03:42.451Z</time>
</trkpt>
<trkpt lat="-27.0429915" lon="152.7776700">
<ele>360.958</ele>
<time>2016-01-02T06:03:44.864Z</time>
</trkpt>
<trkpt lat="-27.0424463" lon="152.7775392">
<ele>354.132</ele>
<time>2016-01-02T06:03:48.089Z</time>
</trkpt>
<trkpt lat="-27.0419405" lon="152.7774838">
<ele>348.365</ele>
<time>2016-01-02T06:03:50.965Z</time>
</trkpt>
<trkpt lat="-27.0415626" lon="152.7774529">
<ele>343.450</ele>
<time>2016-01-02T06:03:53.091Z</time>
</trkpt>
<trkpt lat="-27.0410268" lon="152.7774334">
<ele>338.343</ele>
<time>2016-01-02T06:03:55.998Z</time>
</trkpt>
<trkpt lat="-27.0406551" lon="152.7773822">
<ele>333.070</ele>
<time>2016-01-02T06:03:58.019Z</time>
</trkpt>
<trkpt lat="-27.0401455" lon="152.7772929">
<ele>328.144</ele>
<time>2016-01-02T06:04:00.902Z</time>
</trkpt>
<trkpt lat="-27.0397033" lon="152.7772250">
<ele>323.435</ele>
<time>2016-01-02T06:04:03.655Z</time>
</trkpt>
<trkpt lat="-27.0394482" lon="152.7771575">
<ele>317.839</ele>
<time>2016-01-02T06:04:05.478Z</time>
</trkpt>
<trkpt lat="-27.0392273" lon="152.7770179">
<ele>311.229</ele>
<time>2016-01-02T06:04:07.418Z</time>
</trkpt>
<trkpt lat="-27.0389040" lon="152.7769235">
<ele>305.619</ele>
<time>2016-01-02T06:04:10.154Z</time>
</trkpt>
<trkpt lat="-27.0385867" lon="152.7771321">
<ele>301.790</ele>
<time>2016-01-02T06:04:13.263Z</time>
</trkpt>
<trkpt lat="-27.0382096" lon="152.7773234">
<ele>298.924</ele>
<time>2016-01-02T06:04:16.633Z</time>
</trkpt>
<trkpt lat="-27.0377340" lon="152.7772096">
<ele>296.177</ele>
<time>2016-01-02T06:04:20.300Z</time>
</trkpt>
<trkpt lat="-27.0373770" lon="152.7773746">
<ele>292.571</ele>
<time>2016-01-02T06:04:23.217Z</time>
</trkpt>
<trkpt lat="-27.0369673" lon="152.7773080">
<ele>287.510</ele>
<time>2016-01-02T06:04:26.464Z</time>
</trkpt>
<trkpt lat="-27.0365802" lon="152.7773814">
<ele>281.966</ele>
<time>2016-01-02T06:04:29.504Z</time>
</trkpt>
<trkpt lat="-27.0363222" lon="152.7774485">
<ele>277.042</ele>
<time>2016-01-02T06:04:31.467Z</time>
</trkpt>
<trkpt lat="-27.0360294" lon="152.7773744">
<ele>272.892</ele>
<time>2016-01-02T06:04:33.553Z</time>
</trkpt>
<trkpt lat="-27.0356057" lon="152.7770910">
<ele>269.671</ele>
<time>2016-01-02T06:04:36.839Z</time>
</trkpt>
<trkpt lat="-27.0352153" lon="152.7769560">
<ele>267.322</ele>
<time>2016-01-02T06:04:39.751Z</time>
</trkpt>
<trkpt lat="-27.0349360" lon="152.7767275">
<ele>264.051</ele>
<time>2016-01-02T06:04:42.499Z</time>
</trkpt>
<trkpt lat="-27.0347479" lon="152.7764858">
<ele>258.755</ele>
<time>2016-01-02T06:04:44.862Z</time>
</trkpt>
<trkpt lat="-27.0344269" lon="152.7764586">
<ele>252.626</ele>
<time>2016-01-02T06:04:47.561Z</time>
</trkpt>
<trkpt lat="-27.0341400" lon="152.7769491">
<ele>246.998</ele>
<time>2016-01-02T06:04:51.495Z</time>
</trkpt>
<trkpt lat="-27.0337321" lon="152.7771910">
<ele>242.545</ele>
<time>2016-01-02T06:04:54.573Z</time>
</trkpt>
<trkpt lat="-27.0334113" lon="152.7775314">
<ele>238.938</ele>
<time>2016-01-02T06:04:57.548Z</time>
</trkpt>
<trkpt lat="-27.0331649" lon="152.7776925">
<ele>234.493</ele>
<time>2016-01-02T06:04:59.473Z</time>
</trkpt>
<trkpt lat="-27.0328464" lon="152.7777386">
<ele>228.797</ele>
<time>2016-01-02T06:05:01.628Z</time>
</trkpt>
<trkpt lat="-27.0325183" lon="152.7780731">
<ele>223.340</ele>
<time>2016-01-02T06:05:04.544Z</time>
</trkpt>
<trkpt lat="-27.0320088" lon="152.7781450">
<ele>218.706</ele>
<time>2016-01-02T06:05:07.691Z</time>
</trkpt>
<trkpt lat="-27.0314649" lon="152.7781823">
<ele>214.226</ele>
<time>2016-01-02T06:05:10.840Z</time>
</trkpt>
<trkpt lat="-27.0309440" lon="152.7783482">
<ele>208.763</ele>
<time>2016-01-02T06:05:14.006Z</time>
</trkpt>
<trkpt lat="-27.0306701" lon="152.7785456">
<ele>201.982</ele>
<time>2016-01-02T06:05:15.913Z</time>
</trkpt>
<trkpt lat="-27.0304065" lon="152.7788006">
<ele>195.667</ele>
<time>2016-01-02T06:05:17.889Z</time>
</trkpt>
<trkpt lat="-27.0301316" lon="152.7790645">
<ele>191.748</ele>
<time>2016-01-02T06:05:19.886Z</time>
</trkpt>
<trkpt lat="-27.0296354" lon="152.7793345">
<ele>189.863</ele>
<time>2016-01-02T06:05:22.880Z</time>
</trkpt>
<trkpt lat="-27.0290706" lon="152.7793354">
<ele>189.185</ele>
<time>2016-01-02T06:05:25.910Z</time>
</trkpt>
<trkpt lat="-27.0285231" lon="152.7792059">
<ele>189.944</ele>
<time>2016-01-02T06:05:28.962Z</time>
</trkpt>
<trkpt lat="-27.0281848" lon="152.7791392">
<ele>192.368</ele>
<time>2016-01-02T06:05:31.000Z</time>
</trkpt>
<trkpt lat="-27.0277052" lon="152.7793202">
<ele>195.429</ele>
<time>2016-01-02T06:05:34.145Z</time>
</trkpt>
<trkpt lat="-27.0273993" lon="152.7793753">
<ele>198.362</ele>
<time>2016-01-02T06:05:36.164Z</time>
</trkpt>
<trkpt lat="-27.0269838" lon="152.7791300">
<ele>201.434</ele>
<time>2016-01-02T06:05:39.169Z</time>
</trkpt>
<trkpt lat="-27.0266591" lon="152.7787418">
<ele>204.972</ele>
<time>2016-01-02T06:05:42.040Z</time>
</trkpt>
<trkpt lat="-27.0264021" lon="152.7784769">
<ele>209.383</ele>
<time>2016-01-02T06:05:44.260Z</time>
</trkpt>
<trkpt lat="-27.0260852" lon="152.7782240">
<ele>214.883</ele>
<time>2016-01-02T06:05:47.129Z</time>
</trkpt>
<trkpt lat="-27.0258799" lon="152.7781465">
<ele>219.982</ele>
<time>2016-01-02T06:05:49.076Z</time>
</trkpt>
<trkpt lat="-27.0255898" lon="152.7782859">
<ele>222.851</ele>
<time>2016-01-02T06:05:52.044Z</time>
</trkpt>
<trkpt lat="-27.0255778" lon="152.7785502">
<ele>223.481</ele>
<time>2016-01-02T06:05:54.192Z</time>
</trkpt>
<trkpt lat="-27.0256145" lon="152.7788035">
<ele>223.432</ele>
<time>2016-01-02T06:05:56.100Z</time>
</trkpt>
<trkpt lat="-27.0255636" lon="152.7792177">
<ele>223.841</ele>
<time>2016-01-02T06:05:59.008Z</time>
</trkpt>
<trkpt lat="-27.0253584" lon="152.7794764">
<ele>224.430</ele>
<time>2016-01-02T06:06:01.145Z</time>
</trkpt>
<trkpt lat="-27.0250389" lon="152.7796042">
<ele>224.554</ele>
<time>2016-01-02T06:06:03.455Z</time>
</trkpt>
<trkpt lat="-27.0246160" lon="152.7794948">
<ele>224.276</ele>
<time>2016-01-02T06:06:06.583Z</time>
</trkpt>
<trkpt lat="-27.0243640" lon="152.7794790">
<ele>223.077</ele>
<time>2016-01-02T06:06:08.526Z</time>
</trkpt>
<trkpt lat="-27.0240234" lon="152.7797063">
<ele>220.211</ele>
<time>2016-01-02T06:06:11.633Z</time>
</trkpt>
<trkpt lat="-27.0238435" lon="152.7800984">
<ele>216.412</ele>
<time>2016-01-02T06:06:14.402Z</time>
</trkpt>
<trkpt lat="-27.0237910" lon="152.7804996">
<ele>213.204</ele>
<time>2016-01-02T06:06:16.687Z</time>
</trkpt>
<trkpt lat="-27.0236141" lon="152.7808106">
<ele>211.046</ele>
<time>2016-01-02T06:06:18.779Z</time>
</trkpt>
<trkpt lat="-27.0232301" lon="152.7811085">
<ele>209.414</ele>
<time>2016-01-02T06:06:22.092Z</time>
</trkpt>
<trkpt lat="-27.0229674" lon="152.7811696">
<ele>207.786</ele>
<time>2016-01-02T06:06:23.906Z</time>
</trkpt>
<trkpt lat="-27.0224586" lon="152.7808688">
<ele>206.192</ele>
<time>2016-01-02T06:06:26.956Z</time>
</trkpt>
<trkpt lat="-27.0220207" lon="152.7806337">
<ele>204.512</ele>
<time>2016-01-02T06:06:29.229Z</time>
</trkpt>
<trkpt lat="-27.0213738" lon="152.7803123">
<ele>202.646</ele>
<time>2016-01-02T06:06:32.416Z</time>
</trkpt>
<trkpt lat="-27.0209833" lon="152.7801513">
<ele>200.668</ele>
<time>2016-01-02T06:06:34.321Z</time>
</trkpt>
<trkpt lat="-27.0203683" lon="152.7798964">
<ele>198.694</ele>
<time>2016-01-02T06:06:37.485Z</time>
</trkpt>
<trkpt lat="-27.0199717" lon="152.7797316">
<ele>196.635</ele>
<time>2016-01-02T06:06:39.592Z</time>
</trkpt>
<trkpt lat="-27.0196138" lon="152.7796022">
<ele>194.420</ele>
<time>2016-01-02T06:06:41.449Z</time>
</trkpt>
<trkpt lat="-27.0190446" lon="152.7793755">
<ele>191.715</ele>
<time>2016-01-02T06:06:44.332Z</time>
</trkpt>
<trkpt lat="-27.0186484" lon="152.7792737">
<ele>188.361</ele>
<time>2016-01-02T06:06:46.200Z</time>
</trkpt>
<trkpt lat="-27.0182205" lon="152.7792020">
<ele>185.194</ele>
<time>2016-01-02T06:06:48.167Z</time>
</trkpt>
<trkpt lat="-27.0175349" lon="152.7791017">
<ele>183.332</ele>
<time>2016-01-02T06:06:51.253Z</time>
</trkpt>
<trkpt lat="-27.0170968" lon="152.7790263">
<ele>182.427</ele>
<time>2016-01-02T06:06:53.206Z</time>
</trkpt>
<trkpt lat="-27.0164471" lon="152.7789579">
<ele>181.608</ele>
<time>2016-01-02T06:06:56.054Z</time>
</trkpt>
<trkpt lat="-27.0157647" lon="152.7788691">
<ele>180.353</ele>
<time>2016-01-02T06:06:59.029Z</time>
</trkpt>
<trkpt lat="-27.0150646" lon="152.7788256">
<ele>178.699</ele>
<time>2016-01-02T06:07:02.063Z</time>
</trkpt>
<trkpt lat="-27.0146057" lon="152.7788663">
<ele>176.932</ele>
<time>2016-01-02T06:07:04.041Z</time>
</trkpt>
<trkpt lat="-27.0141544" lon="152.7788635">
<ele>175.295</ele>
<time>2016-01-02T06:07:05.975Z</time>
</trkpt>
<trkpt lat="-27.0134257" lon="152.7787536">
<ele>174.045</ele>
<time>2016-01-02T06:07:09.134Z</time>
</trkpt>
<trkpt lat="-27.0127569" lon="152.7786495">
<ele>173.224</ele>
<time>2016-01-02T06:07:12.071Z</time>
</trkpt>
<trkpt lat="-27.0120926" lon="152.7785449">
<ele>172.537</ele>
<time>2016-01-02T06:07:15.017Z</time>
</trkpt>
<trkpt lat="-27.0116435" lon="152.7784867">
<ele>171.680</ele>
<time>2016-01-02T06:07:16.982Z</time>
</trkpt>
<trkpt lat="-27.0111889" lon="152.7784280">
<ele>170.398</ele>
<time>2016-01-02T06:07:18.945Z</time>
</trkpt>
<trkpt lat="-27.0104964" lon="152.7783452">
<ele>168.953</ele>
<time>2016-01-02T06:07:21.902Z</time>
</trkpt>
<trkpt lat="-27.0100189" lon="152.7783552">
<ele>167.681</ele>
<time>2016-01-02T06:07:23.986Z</time>
</trkpt>
<trkpt lat="-27.0095653" lon="152.7783656">
<ele>166.339</ele>
<time>2016-01-02T06:07:25.969Z</time>
</trkpt>
<trkpt lat="-27.0088933" lon="152.7784394">
<ele>164.589</ele>
<time>2016-01-02T06:07:28.876Z</time>
</trkpt>
<trkpt lat="-27.0084396" lon="152.7785015">
<ele>161.595</ele>
<time>2016-01-02T06:07:30.794Z</time>
</trkpt>
<trkpt lat="-27.0079854" lon="152.7786193">
<ele>157.157</ele>
<time>2016-01-02T06:07:32.782Z</time>
</trkpt>
<trkpt lat="-27.0075448" lon="152.7787883">
<ele>152.747</ele>
<time>2016-01-02T06:07:34.800Z</time>
</trkpt>
<trkpt lat="-27.0069215" lon="152.7791035">
<ele>149.744</ele>
<time>2016-01-02T06:07:37.820Z</time>
</trkpt>
<trkpt lat="-27.0065213" lon="152.7793248">
<ele>147.706</ele>
<time>2016-01-02T06:07:39.782Z</time>
</trkpt>
<trkpt lat="-27.0059355" lon="152.7797185">
<ele>145.826</ele>
<time>2016-01-02T06:07:42.771Z</time>
</trkpt>
<trkpt lat="-27.0054017" lon="152.7801811">
<ele>144.368</ele>
<time>2016-01-02T06:07:45.722Z</time>
</trkpt>
<trkpt lat="-27.0049122" lon="152.7807233">
<ele>143.955</ele>
<time>2016-01-02T06:07:48.689Z</time>
</trkpt>
<trkpt lat="-27.0046033" lon="152.7810976">
<ele>144.312</ele>
<time>2016-01-02T06:07:50.653Z</time>
</trkpt>
<trkpt lat="-27.0043161" lon="152.7815187">
<ele>145.099</ele>
<time>2016-01-02T06:07:52.728Z</time>
</trkpt>
<trkpt lat="-27.0039151" lon="152.7821477">
<ele>146.089</ele>
<time>2016-01-02T06:07:55.868Z</time>
</trkpt>
<trkpt lat="-27.0035615" lon="152.7827520">
<ele>146.262</ele>
<time>2016-01-02T06:07:58.922Z</time>
</trkpt>
<trkpt lat="-27.0033214" lon="152.7831486">
<ele>144.470</ele>
<time>2016-01-02T06:08:00.970Z</time>
</trkpt>
<trkpt lat="-27.0029819" lon="152.7837227">
<ele>141.428</ele>
<time>2016-01-02T06:08:03.905Z</time>
</trkpt>
<trkpt lat="-27.0027544" lon="152.7841029">
<ele>138.941</ele>
<time>2016-01-02T06:08:05.833Z</time>
</trkpt>
<trkpt lat="-27.0024033" lon="152.7846905">
<ele>137.803</ele>
<time>2016-01-02T06:08:08.756Z</time>
</trkpt>
<trkpt lat="-27.0021886" lon="152.7850810">
<ele>137.669</ele>
<time>2016-01-02T06:08:10.627Z</time>
</trkpt>
<trkpt lat="-27.0019236" lon="152.7857388">
<ele>137.952</ele>
<time>2016-01-02T06:08:13.534Z</time>
</trkpt>
<trkpt lat="-27.0017689" lon="152.7862106">
<ele>138.010</ele>
<time>2016-01-02T06:08:15.562Z</time>
</trkpt>
<trkpt lat="-27.0016168" lon="152.7869262">
<ele>137.544</ele>
<time>2016-01-02T06:08:18.546Z</time>
</trkpt>
<trkpt lat="-27.0015160" lon="152.7876458">
<ele>136.508</ele>
<time>2016-01-02T06:08:21.517Z</time>
</trkpt>
<trkpt lat="-27.0014785" lon="152.7881341">
<ele>135.069</ele>
<time>2016-01-02T06:08:23.542Z</time>
</trkpt>
<trkpt lat="-27.0014609" lon="152.7883727">
<ele>134.226</ele>
<time>2016-01-02T06:08:24.533Z</time>
</trkpt>
<trkpt lat="-27.0013689" lon="152.7893260">
<ele>134.674</ele>
<time>2016-01-02T06:08:28.530Z</time>
</trkpt>
<trkpt lat="-27.0013266" lon="152.7897817">
<ele>135.425</ele>
<time>2016-01-02T06:08:30.456Z</time>
</trkpt>
<trkpt lat="-27.0012805" lon="152.7902492">
<ele>135.510</ele>
<time>2016-01-02T06:08:32.449Z</time>
</trkpt>
<trkpt lat="-27.0012363" lon="152.7907411">
<ele>135.170</ele>
<time>2016-01-02T06:08:34.586Z</time>
</trkpt>
<trkpt lat="-27.0011377" lon="152.7914231">
<ele>134.894</ele>
<time>2016-01-02T06:08:37.765Z</time>
</trkpt>
<trkpt lat="-27.0009502" lon="152.7920309">
<ele>134.788</ele>
<time>2016-01-02T06:08:41.058Z</time>
</trkpt>
<trkpt lat="-27.0006849" lon="152.7925249">
<ele>134.791</ele>
<time>2016-01-02T06:08:44.480Z</time>
</trkpt>
<trkpt lat="-27.0003938" lon="152.7928963">
<ele>134.592</ele>
<time>2016-01-02T06:08:48.099Z</time>
</trkpt>
<trkpt lat="-27.0001986" lon="152.7930701">
<ele>133.715</ele>
<time>2016-01-02T06:08:50.169Z</time>
</trkpt>
<trkpt lat="-27.0000432" lon="152.7932053">
<ele>132.111</ele>
<time>2016-01-02T06:08:51.600Z</time>
</trkpt>
<trkpt lat="-26.9998488" lon="152.7933371">
<ele>130.454</ele>
<time>2016-01-02T06:08:53.027Z</time>
</trkpt>
<trkpt lat="-26.9994539" lon="152.7935560">
<ele>129.538</ele>
<time>2016-01-02T06:08:55.588Z</time>
</trkpt>
<trkpt lat="-26.9989370" lon="152.7937154">
<ele>130.094</ele>
<time>2016-01-02T06:08:58.378Z</time>
</trkpt>
<trkpt lat="-26.9985609" lon="152.7937916">
<ele>132.614</ele>
<time>2016-01-02T06:09:00.307Z</time>
</trkpt>
<trkpt lat="-26.9979608" lon="152.7939057">
<ele>136.300</ele>
<time>2016-01-02T06:09:03.314Z</time>
</trkpt>
<trkpt lat="-26.9973551" lon="152.7939886">
<ele>139.369</ele>
<time>2016-01-02T06:09:06.421Z</time>
</trkpt>
<trkpt lat="-26.9969800" lon="152.7940573">
<ele>140.964</ele>
<time>2016-01-02T06:09:08.382Z</time>
</trkpt>
<trkpt lat="-26.9966101" lon="152.7941028">
<ele>141.457</ele>
<time>2016-01-02T06:09:10.296Z</time>
</trkpt>
<trkpt lat="-26.9960120" lon="152.7941861">
<ele>141.437</ele>
<time>2016-01-02T06:09:13.369Z</time>
</trkpt>
<trkpt lat="-26.9954350" lon="152.7942588">
<ele>140.983</ele>
<time>2016-01-02T06:09:16.288Z</time>
</trkpt>
<trkpt lat="-26.9950459" lon="152.7943305">
<ele>140.095</ele>
<time>2016-01-02T06:09:18.260Z</time>
</trkpt>
<trkpt lat="-26.9946592" lon="152.7943969">
<ele>139.394</ele>
<time>2016-01-02T06:09:20.214Z</time>
</trkpt>
<trkpt lat="-26.9940684" lon="152.7944883">
<ele>139.374</ele>
<time>2016-01-02T06:09:23.198Z</time>
</trkpt>
<trkpt lat="-26.9936750" lon="152.7945591">
<ele>139.626</ele>
<time>2016-01-02T06:09:25.185Z</time>
</trkpt>
<trkpt lat="-26.9930757" lon="152.7946351">
<ele>139.694</ele>
<time>2016-01-02T06:09:28.106Z</time>
</trkpt>
<trkpt lat="-26.9924668" lon="152.7947260">
<ele>139.604</ele>
<time>2016-01-02T06:09:30.962Z</time>
</trkpt>
<trkpt lat="-26.9918174" lon="152.7948149">
<ele>139.355</ele>
<time>2016-01-02T06:09:33.949Z</time>
</trkpt>
<trkpt lat="-26.9913879" lon="152.7948815">
<ele>138.461</ele>
<time>2016-01-02T06:09:35.950Z</time>
</trkpt>
<trkpt lat="-26.9909637" lon="152.7949598">
<ele>136.406</ele>
<time>2016-01-02T06:09:37.989Z</time>
</trkpt>
<trkpt lat="-26.9905390" lon="152.7950427">
<ele>133.265</ele>
<time>2016-01-02T06:09:40.105Z</time>
</trkpt>
<trkpt lat="-26.9901937" lon="152.7952113">
<ele>129.534</ele>
<time>2016-01-02T06:09:41.977Z</time>
</trkpt>
<trkpt lat="-26.9897995" lon="152.7953755">
<ele>126.151</ele>
<time>2016-01-02T06:09:44.044Z</time>
</trkpt>
<trkpt lat="-26.9892406" lon="152.7956790">
<ele>124.314</ele>
<time>2016-01-02T06:09:47.142Z</time>
</trkpt>
<trkpt lat="-26.9889106" lon="152.7959258">
<ele>124.487</ele>
<time>2016-01-02T06:09:49.224Z</time>
</trkpt>
<trkpt lat="-26.9886010" lon="152.7961494">
<ele>126.305</ele>
<time>2016-01-02T06:09:51.314Z</time>
</trkpt>
<trkpt lat="-26.9883167" lon="152.7964059">
<ele>128.896</ele>
<time>2016-01-02T06:09:53.542Z</time>
</trkpt>
<trkpt lat="-26.9879899" lon="152.7967253">
<ele>131.022</ele>
<time>2016-01-02T06:09:56.726Z</time>
</trkpt>
<trkpt lat="-26.9877926" lon="152.7969150">
<ele>132.010</ele>
<time>2016-01-02T06:09:58.846Z</time>
</trkpt>
<trkpt lat="-26.9875419" lon="152.7971961">
<ele>132.148</ele>
<time>2016-01-02T06:10:02.295Z</time>
</trkpt>
<trkpt lat="-26.9873980" lon="152.7973456">
<ele>132.020</ele>
<time>2016-01-02T06:10:05.475Z</time>
</trkpt>
<trkpt lat="-26.9872636" lon="152.7974825">
<ele>131.997</ele>
<time>2016-01-02T06:10:10.528Z</time>
</trkpt>
<trkpt lat="-26.9871914" lon="152.7975964">
<ele>132.081</ele>
<time>2016-01-02T06:10:13.234Z</time>
</trkpt>
<trkpt lat="-26.9871144" lon="152.7976714">
<ele>131.895</ele>
<time>2016-01-02T06:10:14.706Z</time>
</trkpt>
<trkpt lat="-26.9870019" lon="152.7976309">
<ele>131.274</ele>
<time>2016-01-02T06:10:15.832Z</time>
</trkpt>
<trkpt lat="-26.9867616" lon="152.7973734">
<ele>130.808</ele>
<time>2016-01-02T06:10:18.316Z</time>
</trkpt>
<trkpt lat="-26.9865527" lon="152.7971684">
<ele>131.384</ele>
<time>2016-01-02T06:10:20.083Z</time>
</trkpt>
<trkpt lat="-26.9863356" lon="152.7969501">
<ele>133.505</ele>
<time>2016-01-02T06:10:21.873Z</time>
</trkpt>
<trkpt lat="-26.9860526" lon="152.7967193">
<ele>136.781</ele>
<time>2016-01-02T06:10:24.009Z</time>
</trkpt>
<trkpt lat="-26.9858103" lon="152.7965197">
<ele>139.815</ele>
<time>2016-01-02T06:10:25.815Z</time>
</trkpt>
<trkpt lat="-26.9853779" lon="152.7961972">
<ele>141.082</ele>
<time>2016-01-02T06:10:28.758Z</time>
</trkpt>
<trkpt lat="-26.9850642" lon="152.7959909">
<ele>140.452</ele>
<time>2016-01-02T06:10:30.796Z</time>
</trkpt>
<trkpt lat="-26.9847575" lon="152.7958017">
<ele>139.230</ele>
<time>2016-01-02T06:10:32.771Z</time>
</trkpt>
<trkpt lat="-26.9842659" lon="152.7955383">
<ele>138.524</ele>
<time>2016-01-02T06:10:35.936Z</time>
</trkpt>
<trkpt lat="-26.9839506" lon="152.7953776">
<ele>138.316</ele>
<time>2016-01-02T06:10:37.941Z</time>
</trkpt>
<trkpt lat="-26.9834545" lon="152.7951660">
<ele>138.187</ele>
<time>2016-01-02T06:10:40.812Z</time>
</trkpt>
<trkpt lat="-26.9830998" lon="152.7950274">
<ele>137.970</ele>
<time>2016-01-02T06:10:42.759Z</time>
</trkpt>
<trkpt lat="-26.9825476" lon="152.7948050">
<ele>137.896</ele>
<time>2016-01-02T06:10:45.660Z</time>
</trkpt>
<trkpt lat="-26.9821516" lon="152.7946352">
<ele>138.097</ele>
<time>2016-01-02T06:10:47.699Z</time>
</trkpt>
<trkpt lat="-26.9817691" lon="152.7944480">
<ele>138.366</ele>
<time>2016-01-02T06:10:49.675Z</time>
</trkpt>
<trkpt lat="-26.9812008" lon="152.7941457">
<ele>138.285</ele>
<time>2016-01-02T06:10:52.614Z</time>
</trkpt>
<trkpt lat="-26.9806188" lon="152.7937987">
<ele>137.674</ele>
<time>2016-01-02T06:10:55.705Z</time>
</trkpt>
<trkpt lat="-26.9802625" lon="152.7935572">
<ele>136.814</ele>
<time>2016-01-02T06:10:57.699Z</time>
</trkpt>
<trkpt lat="-26.9799229" lon="152.7933081">
<ele>135.968</ele>
<time>2016-01-02T06:10:59.671Z</time>
</trkpt>
<trkpt lat="-26.9794176" lon="152.7929497">
<ele>135.215</ele>
<time>2016-01-02T06:11:02.617Z</time>
</trkpt>
<trkpt lat="-26.9789385" lon="152.7926065">
<ele>134.912</ele>
<time>2016-01-02T06:11:05.416Z</time>
</trkpt>
<trkpt lat="-26.9785911" lon="152.7923543">
<ele>135.297</ele>
<time>2016-01-02T06:11:07.424Z</time>
</trkpt>
<trkpt lat="-26.9780565" lon="152.7919694">
<ele>136.194</ele>
<time>2016-01-02T06:11:10.465Z</time>
</trkpt>
<trkpt lat="-26.9776966" lon="152.7917142">
<ele>137.580</ele>
<time>2016-01-02T06:11:12.506Z</time>
</trkpt>
<trkpt lat="-26.9773445" lon="152.7914646">
<ele>139.374</ele>
<time>2016-01-02T06:11:14.521Z</time>
</trkpt>
<trkpt lat="-26.9768364" lon="152.7911018">
<ele>140.950</ele>
<time>2016-01-02T06:11:17.430Z</time>
</trkpt>
<trkpt lat="-26.9764869" lon="152.7908685">
<ele>141.380</ele>
<time>2016-01-02T06:11:19.388Z</time>
</trkpt>
<trkpt lat="-26.9759660" lon="152.7905015">
<ele>140.302</ele>
<time>2016-01-02T06:11:22.347Z</time>
</trkpt>
<trkpt lat="-26.9756166" lon="152.7902657">
<ele>138.362</ele>
<time>2016-01-02T06:11:24.310Z</time>
</trkpt>
<trkpt lat="-26.9750920" lon="152.7899063">
<ele>136.478</ele>
<time>2016-01-02T06:11:27.291Z</time>
</trkpt>
<trkpt lat="-26.9747600" lon="152.7896755">
<ele>134.913</ele>
<time>2016-01-02T06:11:29.193Z</time>
</trkpt>
<trkpt lat="-26.9742187" lon="152.7892984">
<ele>133.681</ele>
<time>2016-01-02T06:11:32.323Z</time>
</trkpt>
<trkpt lat="-26.9737073" lon="152.7889385">
<ele>132.964</ele>
<time>2016-01-02T06:11:35.326Z</time>
</trkpt>
<trkpt lat="-26.9733793" lon="152.7887121">
<ele>132.969</ele>
<time>2016-01-02T06:11:37.244Z</time>
</trkpt>
<trkpt lat="-26.9728659" lon="152.7883576">
<ele>133.338</ele>
<time>2016-01-02T06:11:40.239Z</time>
</trkpt>
<trkpt lat="-26.9725234" lon="152.7881246">
<ele>133.542</ele>
<time>2016-01-02T06:11:42.235Z</time>
</trkpt>
<trkpt lat="-26.9720143" lon="152.7877577">
<ele>133.562</ele>
<time>2016-01-02T06:11:45.199Z</time>
</trkpt>
<trkpt lat="-26.9716419" lon="152.7875225">
<ele>134.065</ele>
<time>2016-01-02T06:11:47.262Z</time>
</trkpt>
<trkpt lat="-26.9713175" lon="152.7872796">
<ele>135.602</ele>
<time>2016-01-02T06:11:49.160Z</time>
</trkpt>
<trkpt lat="-26.9709647" lon="152.7870100">
<ele>137.720</ele>
<time>2016-01-02T06:11:51.216Z</time>
</trkpt>
<trkpt lat="-26.9706254" lon="152.7867381">
<ele>139.340</ele>
<time>2016-01-02T06:11:53.207Z</time>
</trkpt>
<trkpt lat="-26.9701502" lon="152.7863231">
<ele>140.052</ele>
<time>2016-01-02T06:11:56.083Z</time>
</trkpt>
<trkpt lat="-26.9698274" lon="152.7860387">
<ele>140.265</ele>
<time>2016-01-02T06:11:58.051Z</time>
</trkpt>
<trkpt lat="-26.9695047" lon="152.7857517">
<ele>140.644</ele>
<time>2016-01-02T06:12:00.041Z</time>
</trkpt>
<trkpt lat="-26.9691971" lon="152.7854598">
<ele>141.331</ele>
<time>2016-01-02T06:12:02.026Z</time>
</trkpt>
<trkpt lat="-26.9687591" lon="152.7850551">
<ele>141.735</ele>
<time>2016-01-02T06:12:04.861Z</time>
</trkpt>
<trkpt lat="-26.9682966" lon="152.7846481">
<ele>141.321</ele>
<time>2016-01-02T06:12:07.842Z</time>
</trkpt>
<trkpt lat="-26.9678425" lon="152.7842449">
<ele>140.316</ele>
<time>2016-01-02T06:12:10.794Z</time>
</trkpt>
<trkpt lat="-26.9673928" lon="152.7838489">
<ele>139.070</ele>
<time>2016-01-02T06:12:13.667Z</time>
</trkpt>
<trkpt lat="-26.9670301" lon="152.7835436">
<ele>137.698</ele>
<time>2016-01-02T06:12:15.863Z</time>
</trkpt>
<trkpt lat="-26.9665642" lon="152.7831118">
<ele>136.466</ele>
<time>2016-01-02T06:12:18.755Z</time>
</trkpt>
<trkpt lat="-26.9660164" lon="152.7826622">
<ele>135.176</ele>
<time>2016-01-02T06:12:22.027Z</time>
</trkpt>
<trkpt lat="-26.9656993" lon="152.7824265">
<ele>132.836</ele>
<time>2016-01-02T06:12:23.999Z</time>
</trkpt>
<trkpt lat="-26.9652376" lon="152.7821319">
<ele>129.160</ele>
<time>2016-01-02T06:12:26.899Z</time>
</trkpt>
<trkpt lat="-26.9649396" lon="152.7819626">
<ele>124.963</ele>
<time>2016-01-02T06:12:28.865Z</time>
</trkpt>
<trkpt lat="-26.9646421" lon="152.7817951">
<ele>121.272</ele>
<time>2016-01-02T06:12:30.889Z</time>
</trkpt>
<trkpt lat="-26.9642121" lon="152.7815493">
<ele>118.592</ele>
<time>2016-01-02T06:12:33.892Z</time>
</trkpt>
<trkpt lat="-26.9638037" lon="152.7813142">
<ele>116.933</ele>
<time>2016-01-02T06:12:36.814Z</time>
</trkpt>
<trkpt lat="-26.9635275" lon="152.7811541">
<ele>116.224</ele>
<time>2016-01-02T06:12:38.842Z</time>
</trkpt>
<trkpt lat="-26.9632639" lon="152.7810061">
<ele>116.271</ele>
<time>2016-01-02T06:12:40.811Z</time>
</trkpt>
<trkpt lat="-26.9628679" lon="152.7807782">
<ele>116.828</ele>
<time>2016-01-02T06:12:43.800Z</time>
</trkpt>
<trkpt lat="-26.9626084" lon="152.7806252">
<ele>117.730</ele>
<time>2016-01-02T06:12:45.773Z</time>
</trkpt>
<trkpt lat="-26.9622043" lon="152.7804082">
<ele>118.680</ele>
<time>2016-01-02T06:12:48.769Z</time>
</trkpt>
<trkpt lat="-26.9619263" lon="152.7802431">
<ele>119.675</ele>
<time>2016-01-02T06:12:50.844Z</time>
</trkpt>
<trkpt lat="-26.9616600" lon="152.7800878">
<ele>120.772</ele>
<time>2016-01-02T06:12:52.820Z</time>
</trkpt>
<trkpt lat="-26.9613870" lon="152.7799378">
<ele>121.578</ele>
<time>2016-01-02T06:12:54.831Z</time>
</trkpt>
<trkpt lat="-26.9609944" lon="152.7797151">
<ele>121.896</ele>
<time>2016-01-02T06:12:57.752Z</time>
</trkpt>
<trkpt lat="-26.9605850" lon="152.7795418">
<ele>122.013</ele>
<time>2016-01-02T06:13:00.679Z</time>
</trkpt>
<trkpt lat="-26.9603121" lon="152.7794420">
<ele>122.151</ele>
<time>2016-01-02T06:13:02.600Z</time>
</trkpt>
<trkpt lat="-26.9598785" lon="152.7793218">
<ele>122.283</ele>
<time>2016-01-02T06:13:05.569Z</time>
</trkpt>
<trkpt lat="-26.9595875" lon="152.7792418">
<ele>122.566</ele>
<time>2016-01-02T06:13:07.538Z</time>
</trkpt>
<trkpt lat="-26.9591552" lon="152.7791307">
<ele>123.347</ele>
<time>2016-01-02T06:13:10.462Z</time>
</trkpt>
<trkpt lat="-26.9588566" lon="152.7790575">
<ele>124.570</ele>
<time>2016-01-02T06:13:12.493Z</time>
</trkpt>
<trkpt lat="-26.9584234" lon="152.7789246">
<ele>125.807</ele>
<time>2016-01-02T06:13:15.441Z</time>
</trkpt>
<trkpt lat="-26.9579643" lon="152.7788018">
<ele>126.658</ele>
<time>2016-01-02T06:13:18.481Z</time>
</trkpt>
<trkpt lat="-26.9576762" lon="152.7787223">
<ele>126.965</ele>
<time>2016-01-02T06:13:20.404Z</time>
</trkpt>
<trkpt lat="-26.9572213" lon="152.7786024">
<ele>126.696</ele>
<time>2016-01-02T06:13:23.497Z</time>
</trkpt>
<trkpt lat="-26.9569440" lon="152.7785228">
<ele>125.897</ele>
<time>2016-01-02T06:13:25.517Z</time>
</trkpt>
<trkpt lat="-26.9566877" lon="152.7784599">
<ele>124.942</ele>
<time>2016-01-02T06:13:27.428Z</time>
</trkpt>
<trkpt lat="-26.9563065" lon="152.7783560">
<ele>124.133</ele>
<time>2016-01-02T06:13:30.449Z</time>
</trkpt>
<trkpt lat="-26.9559464" lon="152.7782595">
<ele>123.410</ele>
<time>2016-01-02T06:13:33.526Z</time>
</trkpt>
<trkpt lat="-26.9557309" lon="152.7781996">
<ele>122.887</ele>
<time>2016-01-02T06:13:35.689Z</time>
</trkpt>
<trkpt lat="-26.9555580" lon="152.7781556">
<ele>122.934</ele>
<time>2016-01-02T06:13:37.780Z</time>
</trkpt>
<trkpt lat="-26.9554231" lon="152.7780928">
<ele>123.543</ele>
<time>2016-01-02T06:13:40.671Z</time>
</trkpt>
<trkpt lat="-26.9553374" lon="152.7780127">
<ele>123.866</ele>
<time>2016-01-02T06:13:43.000Z</time>
</trkpt>
<trkpt lat="-26.9553374" lon="152.7780127">
<ele>123.296</ele>
<time>2016-01-02T06:13:49.000Z</time>
</trkpt>
<trkpt lat="-26.9553374" lon="152.7780127">
<ele>122.595</ele>
<time>2016-01-02T06:14:16.562Z</time>
</trkpt>
<trkpt lat="-26.9551701" lon="152.7778714">
<ele>122.609</ele>
<time>2016-01-02T06:14:24.200Z</time>
</trkpt>
<trkpt lat="-26.9550519" lon="152.7778178">
<ele>123.281</ele>
<time>2016-01-02T06:14:26.956Z</time>
</trkpt>
<trkpt lat="-26.9549590" lon="152.7777901">
<ele>124.143</ele>
<time>2016-01-02T06:14:28.895Z</time>
</trkpt>
<trkpt lat="-26.9548156" lon="152.7777526">
<ele>124.744</ele>
<time>2016-01-02T06:14:31.902Z</time>
</trkpt>
<trkpt lat="-26.9546780" lon="152.7776977">
<ele>124.915</ele>
<time>2016-01-02T06:14:34.905Z</time>
</trkpt>
<trkpt lat="-26.9545914" lon="152.7776621">
<ele>124.784</ele>
<time>2016-01-02T06:14:36.768Z</time>
</trkpt>
<trkpt lat="-26.9544628" lon="152.7776125">
<ele>124.538</ele>
<time>2016-01-02T06:14:39.455Z</time>
</trkpt>
<trkpt lat="-26.9543277" lon="152.7775566">
<ele>124.406</ele>
<time>2016-01-02T06:14:42.291Z</time>
</trkpt>
<trkpt lat="-26.9542346" lon="152.7775346">
<ele>124.536</ele>
<time>2016-01-02T06:14:44.864Z</time>
</trkpt>
<trkpt lat="-26.9541478" lon="152.7774776">
<ele>124.827</ele>
<time>2016-01-02T06:14:48.000Z</time>
</trkpt>
<trkpt lat="-26.9541478" lon="152.7774776">
<ele>125.002</ele>
<time>2016-01-02T06:14:52.000Z</time>
</trkpt>
<trkpt lat="-26.9541478" lon="152.7774776">
<ele>124.941</ele>
<time>2016-01-02T06:44:43.917Z</time>
</trkpt>
<trkpt lat="-26.9539317" lon="152.7774902">
<ele>124.786</ele>
<time>2016-01-02T06:44:51.257Z</time>
</trkpt>
<trkpt lat="-26.9538251" lon="152.7774590">
<ele>123.871</ele>
<time>2016-01-02T06:44:53.603Z</time>
</trkpt>
<trkpt lat="-26.9537385" lon="152.7774265">
<ele>121.715</ele>
<time>2016-01-02T06:44:55.965Z</time>
</trkpt>
<trkpt lat="-26.9536111" lon="152.7774271">
<ele>119.504</ele>
<time>2016-01-02T06:45:00.043Z</time>
</trkpt>
<trkpt lat="-26.9536073" lon="152.7775358">
<ele>118.318</ele>
<time>2016-01-02T06:45:03.005Z</time>
</trkpt>
<trkpt lat="-26.9536971" lon="152.7776030">
<ele>117.879</ele>
<time>2016-01-02T06:45:04.929Z</time>
</trkpt>
<trkpt lat="-26.9539636" lon="152.7777048">
<ele>117.854</ele>
<time>2016-01-02T06:45:08.291Z</time>
</trkpt>
<trkpt lat="-26.9542845" lon="152.7777953">
<ele>118.311</ele>
<time>2016-01-02T06:45:11.371Z</time>
</trkpt>
<trkpt lat="-26.9545116" lon="152.7778562">
<ele>119.436</ele>
<time>2016-01-02T06:45:13.322Z</time>
</trkpt>
<trkpt lat="-26.9548779" lon="152.7779846">
<ele>120.932</ele>
<time>2016-01-02T06:45:16.446Z</time>
</trkpt>
<trkpt lat="-26.9551151" lon="152.7780468">
<ele>122.126</ele>
<time>2016-01-02T06:45:18.430Z</time>
</trkpt>
<trkpt lat="-26.9554484" lon="152.7781568">
<ele>122.707</ele>
<time>2016-01-02T06:45:21.369Z</time>
</trkpt>
<trkpt lat="-26.9556635" lon="152.7782217">
<ele>122.838</ele>
<time>2016-01-02T06:45:23.300Z</time>
</trkpt>
<trkpt lat="-26.9558805" lon="152.7782926">
<ele>122.786</ele>
<time>2016-01-02T06:45:25.206Z</time>
</trkpt>
<trkpt lat="-26.9562641" lon="152.7783926">
<ele>122.815</ele>
<time>2016-01-02T06:45:28.342Z</time>
</trkpt>
<trkpt lat="-26.9566589" lon="152.7784879">
<ele>123.188</ele>
<time>2016-01-02T06:45:31.329Z</time>
</trkpt>
<trkpt lat="-26.9570761" lon="152.7786008">
<ele>123.954</ele>
<time>2016-01-02T06:45:34.456Z</time>
</trkpt>
<trkpt lat="-26.9573208" lon="152.7786817">
<ele>124.801</ele>
<time>2016-01-02T06:45:36.397Z</time>
</trkpt>
<trkpt lat="-26.9576973" lon="152.7787717">
<ele>125.268</ele>
<time>2016-01-02T06:45:39.316Z</time>
</trkpt>
<trkpt lat="-26.9581127" lon="152.7789445">
<ele>125.231</ele>
<time>2016-01-02T06:45:42.560Z</time>
</trkpt>
<trkpt lat="-26.9584859" lon="152.7790351">
<ele>125.029</ele>
<time>2016-01-02T06:45:45.276Z</time>
</trkpt>
<trkpt lat="-26.9587723" lon="152.7791013">
<ele>125.085</ele>
<time>2016-01-02T06:45:47.286Z</time>
</trkpt>
<trkpt lat="-26.9592054" lon="152.7792141">
<ele>125.467</ele>
<time>2016-01-02T06:45:50.267Z</time>
</trkpt>
<trkpt lat="-26.9595086" lon="152.7793075">
<ele>125.999</ele>
<time>2016-01-02T06:45:52.332Z</time>
</trkpt>
<trkpt lat="-26.9597943" lon="152.7793851">
<ele>126.517</ele>
<time>2016-01-02T06:45:54.270Z</time>
</trkpt>
<trkpt lat="-26.9602385" lon="152.7795102">
<ele>126.800</ele>
<time>2016-01-02T06:45:57.281Z</time>
</trkpt>
<trkpt lat="-26.9605315" lon="152.7796003">
<ele>126.621</ele>
<time>2016-01-02T06:45:59.260Z</time>
</trkpt>
<trkpt lat="-26.9609584" lon="152.7797829">
<ele>126.239</ele>
<time>2016-01-02T06:46:02.209Z</time>
</trkpt>
<trkpt lat="-26.9613900" lon="152.7800188">
<ele>126.255</ele>
<time>2016-01-02T06:46:05.247Z</time>
</trkpt>
<trkpt lat="-26.9618176" lon="152.7802403">
<ele>126.779</ele>
<time>2016-01-02T06:46:08.205Z</time>
</trkpt>
<trkpt lat="-26.9621054" lon="152.7804047">
<ele>127.280</ele>
<time>2016-01-02T06:46:10.244Z</time>
</trkpt>
<trkpt lat="-26.9625304" lon="152.7806400">
<ele>127.378</ele>
<time>2016-01-02T06:46:13.223Z</time>
</trkpt>
<trkpt lat="-26.9628216" lon="152.7808172">
<ele>127.118</ele>
<time>2016-01-02T06:46:15.274Z</time>
</trkpt>
<trkpt lat="-26.9632522" lon="152.7810491">
<ele>126.372</ele>
<time>2016-01-02T06:46:18.173Z</time>
</trkpt>
<trkpt lat="-26.9635640" lon="152.7812240">
<ele>125.070</ele>
<time>2016-01-02T06:46:20.216Z</time>
</trkpt>
<trkpt lat="-26.9640172" lon="152.7814748">
<ele>123.699</ele>
<time>2016-01-02T06:46:23.143Z</time>
</trkpt>
<trkpt lat="-26.9643310" lon="152.7816472">
<ele>122.674</ele>
<time>2016-01-02T06:46:25.150Z</time>
</trkpt>
<trkpt lat="-26.9648070" lon="152.7819339">
<ele>121.983</ele>
<time>2016-01-02T06:46:28.131Z</time>
</trkpt>
<trkpt lat="-26.9651435" lon="152.7821280">
<ele>121.772</ele>
<time>2016-01-02T06:46:30.132Z</time>
</trkpt>
<trkpt lat="-26.9656449" lon="152.7824545">
<ele>122.246</ele>
<time>2016-01-02T06:46:33.139Z</time>
</trkpt>
<trkpt lat="-26.9659771" lon="152.7826967">
<ele>123.419</ele>
<time>2016-01-02T06:46:35.175Z</time>
</trkpt>
<trkpt lat="-26.9662769" lon="152.7829553">
<ele>125.141</ele>
<time>2016-01-02T06:46:37.129Z</time>
</trkpt>
<trkpt lat="-26.9665868" lon="152.7832219">
<ele>127.367</ele>
<time>2016-01-02T06:46:39.121Z</time>
</trkpt>
<trkpt lat="-26.9669044" lon="152.7834984">
<ele>129.862</ele>
<time>2016-01-02T06:46:41.075Z</time>
</trkpt>
<trkpt lat="-26.9674230" lon="152.7839636">
<ele>132.731</ele>
<time>2016-01-02T06:46:44.161Z</time>
</trkpt>
<trkpt lat="-26.9677789" lon="152.7842729">
<ele>136.210</ele>
<time>2016-01-02T06:46:46.171Z</time>
</trkpt>
<trkpt lat="-26.9683192" lon="152.7847517">
<ele>139.842</ele>
<time>2016-01-02T06:46:49.178Z</time>
</trkpt>
<trkpt lat="-26.9686802" lon="152.7850767">
<ele>143.045</ele>
<time>2016-01-02T06:46:51.142Z</time>
</trkpt>
<trkpt lat="-26.9690530" lon="152.7854010">
<ele>145.763</ele>
<time>2016-01-02T06:46:53.111Z</time>
</trkpt>
<trkpt lat="-26.9696252" lon="152.7859063">
<ele>147.720</ele>
<time>2016-01-02T06:46:56.121Z</time>
</trkpt>
<trkpt lat="-26.9700063" lon="152.7862455">
<ele>148.684</ele>
<time>2016-01-02T06:46:58.135Z</time>
</trkpt>
<trkpt lat="-26.9705809" lon="152.7867455">
<ele>148.827</ele>
<time>2016-01-02T06:47:01.203Z</time>
</trkpt>
<trkpt lat="-26.9711351" lon="152.7871972">
<ele>148.194</ele>
<time>2016-01-02T06:47:04.195Z</time>
</trkpt>
<trkpt lat="-26.9714985" lon="152.7874665">
<ele>146.530</ele>
<time>2016-01-02T06:47:06.159Z</time>
</trkpt>
<trkpt lat="-26.9720513" lon="152.7878543">
<ele>144.351</ele>
<time>2016-01-02T06:47:09.133Z</time>
</trkpt>
<trkpt lat="-26.9724173" lon="152.7881084">
<ele>142.592</ele>
<time>2016-01-02T06:47:11.093Z</time>
</trkpt>
<trkpt lat="-26.9729907" lon="152.7885378">
<ele>141.381</ele>
<time>2016-01-02T06:47:14.157Z</time>
</trkpt>
<trkpt lat="-26.9735730" lon="152.7889627">
<ele>140.518</ele>
<time>2016-01-02T06:47:17.126Z</time>
</trkpt>
<trkpt lat="-26.9741722" lon="152.7893731">
<ele>140.339</ele>
<time>2016-01-02T06:47:20.054Z</time>
</trkpt>
<trkpt lat="-26.9747904" lon="152.7898214">
<ele>141.121</ele>
<time>2016-01-02T06:47:23.084Z</time>
</trkpt>
<trkpt lat="-26.9752144" lon="152.7901071">
<ele>142.418</ele>
<time>2016-01-02T06:47:25.120Z</time>
</trkpt>
<trkpt lat="-26.9758148" lon="152.7905123">
<ele>143.531</ele>
<time>2016-01-02T06:47:28.064Z</time>
</trkpt>
<trkpt lat="-26.9763943" lon="152.7909185">
<ele>144.156</ele>
<time>2016-01-02T06:47:31.056Z</time>
</trkpt>
<trkpt lat="-26.9769630" lon="152.7913177">
<ele>144.085</ele>
<time>2016-01-02T06:47:34.098Z</time>
</trkpt>
<trkpt lat="-26.9773366" lon="152.7915847">
<ele>143.373</ele>
<time>2016-01-02T06:47:36.130Z</time>
</trkpt>
<trkpt lat="-26.9779064" lon="152.7919850">
<ele>142.706</ele>
<time>2016-01-02T06:47:39.140Z</time>
</trkpt>
<trkpt lat="-26.9784872" lon="152.7923758">
<ele>142.671</ele>
<time>2016-01-02T06:47:42.096Z</time>
</trkpt>
<trkpt lat="-26.9788783" lon="152.7926454">
<ele>143.214</ele>
<time>2016-01-02T06:47:44.077Z</time>
</trkpt>
<trkpt lat="-26.9792705" lon="152.7929241">
<ele>143.976</ele>
<time>2016-01-02T06:47:46.063Z</time>
</trkpt>
<trkpt lat="-26.9798739" lon="152.7933599">
<ele>144.543</ele>
<time>2016-01-02T06:47:49.104Z</time>
</trkpt>
<trkpt lat="-26.9804789" lon="152.7937761">
<ele>144.523</ele>
<time>2016-01-02T06:47:52.105Z</time>
</trkpt>
<trkpt lat="-26.9808818" lon="152.7940318">
<ele>143.371</ele>
<time>2016-01-02T06:47:54.110Z</time>
</trkpt>
<trkpt lat="-26.9812709" lon="152.7942496">
<ele>141.184</ele>
<time>2016-01-02T06:47:56.048Z</time>
</trkpt>
<trkpt lat="-26.9816627" lon="152.7944569">
<ele>139.097</ele>
<time>2016-01-02T06:47:57.992Z</time>
</trkpt>
<trkpt lat="-26.9822865" lon="152.7947646">
<ele>137.941</ele>
<time>2016-01-02T06:48:01.019Z</time>
</trkpt>
<trkpt lat="-26.9826999" lon="152.7949608">
<ele>138.055</ele>
<time>2016-01-02T06:48:03.009Z</time>
</trkpt>
<trkpt lat="-26.9833221" lon="152.7952131">
<ele>139.462</ele>
<time>2016-01-02T06:48:06.011Z</time>
</trkpt>
<trkpt lat="-26.9839029" lon="152.7954394">
<ele>141.533</ele>
<time>2016-01-02T06:48:08.902Z</time>
</trkpt>
<trkpt lat="-26.9844772" lon="152.7957170">
<ele>143.547</ele>
<time>2016-01-02T06:48:11.888Z</time>
</trkpt>
<trkpt lat="-26.9850385" lon="152.7960466">
<ele>145.125</ele>
<time>2016-01-02T06:48:14.934Z</time>
</trkpt>
<trkpt lat="-26.9854052" lon="152.7962937">
<ele>146.095</ele>
<time>2016-01-02T06:48:16.992Z</time>
</trkpt>
<trkpt lat="-26.9857533" lon="152.7965580">
<ele>146.515</ele>
<time>2016-01-02T06:48:19.032Z</time>
</trkpt>
<trkpt lat="-26.9862298" lon="152.7969783">
<ele>146.530</ele>
<time>2016-01-02T06:48:22.076Z</time>
</trkpt>
<trkpt lat="-26.9865125" lon="152.7972626">
<ele>146.186</ele>
<time>2016-01-02T06:48:24.199Z</time>
</trkpt>
<trkpt lat="-26.9868314" lon="152.7976108">
<ele>145.408</ele>
<time>2016-01-02T06:48:27.436Z</time>
</trkpt>
<trkpt lat="-26.9870271" lon="152.7978164">
<ele>143.683</ele>
<time>2016-01-02T06:48:30.386Z</time>
</trkpt>
<trkpt lat="-26.9871912" lon="152.7978519">
<ele>140.635</ele>
<time>2016-01-02T06:48:32.865Z</time>
</trkpt>
<trkpt lat="-26.9872848" lon="152.7977351">
<ele>137.344</ele>
<time>2016-01-02T06:48:34.723Z</time>
</trkpt>
<trkpt lat="-26.9875420" lon="152.7974544">
<ele>135.578</ele>
<time>2016-01-02T06:48:38.047Z</time>
</trkpt>
<trkpt lat="-26.9877417" lon="152.7972184">
<ele>135.926</ele>
<time>2016-01-02T06:48:40.008Z</time>
</trkpt>
<trkpt lat="-26.9880839" lon="152.7967974">
<ele>137.523</ele>
<time>2016-01-02T06:48:43.050Z</time>
</trkpt>
<trkpt lat="-26.9885091" lon="152.7963844">
<ele>138.825</ele>
<time>2016-01-02T06:48:46.095Z</time>
</trkpt>
<trkpt lat="-26.9888184" lon="152.7961166">
<ele>139.035</ele>
<time>2016-01-02T06:48:48.120Z</time>
</trkpt>
<trkpt lat="-26.9893209" lon="152.7957499">
<ele>138.381</ele>
<time>2016-01-02T06:48:51.196Z</time>
</trkpt>
<trkpt lat="-26.9898290" lon="152.7954406">
<ele>136.744</ele>
<time>2016-01-02T06:48:54.154Z</time>
</trkpt>
<trkpt lat="-26.9901841" lon="152.7952646">
<ele>134.143</ele>
<time>2016-01-02T06:48:56.170Z</time>
</trkpt>
<trkpt lat="-26.9907059" lon="152.7950515">
<ele>131.589</ele>
<time>2016-01-02T06:48:59.076Z</time>
</trkpt>
<trkpt lat="-26.9910823" lon="152.7949778">
<ele>129.872</ele>
<time>2016-01-02T06:49:01.060Z</time>
</trkpt>
<trkpt lat="-26.9916959" lon="152.7949295">
<ele>128.941</ele>
<time>2016-01-02T06:49:04.207Z</time>
</trkpt>
<trkpt lat="-26.9922805" lon="152.7948209">
<ele>129.101</ele>
<time>2016-01-02T06:49:07.215Z</time>
</trkpt>
<trkpt lat="-26.9926649" lon="152.7947724">
<ele>131.033</ele>
<time>2016-01-02T06:49:09.205Z</time>
</trkpt>
<trkpt lat="-26.9930231" lon="152.7947074">
<ele>134.170</ele>
<time>2016-01-02T06:49:11.110Z</time>
</trkpt>
<trkpt lat="-26.9934008" lon="152.7946681">
<ele>136.938</ele>
<time>2016-01-02T06:49:13.138Z</time>
</trkpt>
<trkpt lat="-26.9939588" lon="152.7946100">
<ele>138.792</ele>
<time>2016-01-02T06:49:16.158Z</time>
</trkpt>
<trkpt lat="-26.9943234" lon="152.7945725">
<ele>139.983</ele>
<time>2016-01-02T06:49:18.119Z</time>
</trkpt>
<trkpt lat="-26.9947064" lon="152.7945420">
<ele>140.778</ele>
<time>2016-01-02T06:49:20.149Z</time>
</trkpt>
<trkpt lat="-26.9952685" lon="152.7944434">
<ele>141.517</ele>
<time>2016-01-02T06:49:23.136Z</time>
</trkpt>
<trkpt lat="-26.9956528" lon="152.7943836">
<ele>142.140</ele>
<time>2016-01-02T06:49:25.153Z</time>
</trkpt>
<trkpt lat="-26.9960447" lon="152.7943243">
<ele>142.470</ele>
<time>2016-01-02T06:49:27.181Z</time>
</trkpt>
<trkpt lat="-26.9966418" lon="152.7942659">
<ele>142.602</ele>
<time>2016-01-02T06:49:30.213Z</time>
</trkpt>
<trkpt lat="-26.9972500" lon="152.7941968">
<ele>142.636</ele>
<time>2016-01-02T06:49:33.289Z</time>
</trkpt>
<trkpt lat="-26.9978263" lon="152.7941031">
<ele>142.734</ele>
<time>2016-01-02T06:49:36.527Z</time>
</trkpt>
<trkpt lat="-26.9982491" lon="152.7940702">
<ele>143.003</ele>
<time>2016-01-02T06:49:40.200Z</time>
</trkpt>
<trkpt lat="-26.9983862" lon="152.7940227">
<ele>142.042</ele>
<time>2016-01-02T06:49:43.674Z</time>
</trkpt>
<trkpt lat="-26.9984797" lon="152.7940235">
<ele>138.395</ele>
<time>2016-01-02T06:49:46.996Z</time>
</trkpt>
<trkpt lat="-26.9984797" lon="152.7940235">
<ele>133.679</ele>
<time>2016-01-02T06:49:51.996Z</time>
</trkpt>
<trkpt lat="-26.9984797" lon="152.7940235">
<ele>131.053</ele>
<time>2016-01-02T06:50:22.799Z</time>
</trkpt>
<trkpt lat="-26.9986335" lon="152.7939313">
<ele>131.202</ele>
<time>2016-01-02T06:50:29.442Z</time>
</trkpt>
<trkpt lat="-26.9988976" lon="152.7938904">
<ele>132.482</ele>
<time>2016-01-02T06:50:32.235Z</time>
</trkpt>
<trkpt lat="-26.9994370" lon="152.7937416">
<ele>133.802</ele>
<time>2016-01-02T06:50:36.663Z</time>
</trkpt>
<trkpt lat="-26.9999011" lon="152.7934851">
<ele>135.738</ele>
<time>2016-01-02T06:50:40.129Z</time>
</trkpt>
<trkpt lat="-27.0001598" lon="152.7932717">
<ele>138.270</ele>
<time>2016-01-02T06:50:42.127Z</time>
</trkpt>
<trkpt lat="-27.0004967" lon="152.7929133">
<ele>139.722</ele>
<time>2016-01-02T06:50:44.890Z</time>
</trkpt>
<trkpt lat="-27.0007925" lon="152.7924785">
<ele>139.223</ele>
<time>2016-01-02T06:50:47.545Z</time>
</trkpt>
<trkpt lat="-27.0009779" lon="152.7921285">
<ele>138.047</ele>
<time>2016-01-02T06:50:49.434Z</time>
</trkpt>
<trkpt lat="-27.0011660" lon="152.7915231">
<ele>137.474</ele>
<time>2016-01-02T06:50:52.278Z</time>
</trkpt>
<trkpt lat="-27.0012730" lon="152.7908664">
<ele>137.496</ele>
<time>2016-01-02T06:50:55.138Z</time>
</trkpt>
<trkpt lat="-27.0013410" lon="152.7901124">
<ele>137.515</ele>
<time>2016-01-02T06:50:58.471Z</time>
</trkpt>
<trkpt lat="-27.0013836" lon="152.7896801">
<ele>136.810</ele>
<time>2016-01-02T06:51:00.435Z</time>
</trkpt>
<trkpt lat="-27.0014245" lon="152.7892464">
<ele>135.267</ele>
<time>2016-01-02T06:51:02.398Z</time>
</trkpt>
<trkpt lat="-27.0014545" lon="152.7888088">
<ele>133.683</ele>
<time>2016-01-02T06:51:04.361Z</time>
</trkpt>
<trkpt lat="-27.0014951" lon="152.7881404">
<ele>132.794</ele>
<time>2016-01-02T06:51:07.319Z</time>
</trkpt>
<trkpt lat="-27.0015366" lon="152.7876945">
<ele>132.574</ele>
<time>2016-01-02T06:51:09.298Z</time>
</trkpt>
<trkpt lat="-27.0016182" lon="152.7870311">
<ele>132.625</ele>
<time>2016-01-02T06:51:12.282Z</time>
</trkpt>
<trkpt lat="-27.0017490" lon="152.7864006">
<ele>132.659</ele>
<time>2016-01-02T06:51:15.134Z</time>
</trkpt>
<trkpt lat="-27.0018809" lon="152.7859836">
<ele>132.548</ele>
<time>2016-01-02T06:51:17.065Z</time>
</trkpt>
<trkpt lat="-27.0021317" lon="152.7853518">
<ele>132.373</ele>
<time>2016-01-02T06:51:20.031Z</time>
</trkpt>
<trkpt lat="-27.0024523" lon="152.7847352">
<ele>132.374</ele>
<time>2016-01-02T06:51:22.939Z</time>
</trkpt>
<trkpt lat="-27.0028181" lon="152.7841215">
<ele>132.947</ele>
<time>2016-01-02T06:51:25.852Z</time>
</trkpt>
<trkpt lat="-27.0030588" lon="152.7836955">
<ele>134.493</ele>
<time>2016-01-02T06:51:27.873Z</time>
</trkpt>
<trkpt lat="-27.0034118" lon="152.7830921">
<ele>136.571</ele>
<time>2016-01-02T06:51:30.923Z</time>
</trkpt>
<trkpt lat="-27.0036358" lon="152.7827113">
<ele>137.927</ele>
<time>2016-01-02T06:51:32.910Z</time>
</trkpt>
<trkpt lat="-27.0039781" lon="152.7821866">
<ele>137.963</ele>
<time>2016-01-02T06:51:35.814Z</time>
</trkpt>
<trkpt lat="-27.0042857" lon="152.7816571">
<ele>137.207</ele>
<time>2016-01-02T06:51:38.581Z</time>
</trkpt>
<trkpt lat="-27.0046423" lon="152.7810911">
<ele>136.468</ele>
<time>2016-01-02T06:51:41.519Z</time>
</trkpt>
<trkpt lat="-27.0050828" lon="152.7805989">
<ele>136.149</ele>
<time>2016-01-02T06:51:44.408Z</time>
</trkpt>
<trkpt lat="-27.0055603" lon="152.7801235">
<ele>136.438</ele>
<time>2016-01-02T06:51:47.340Z</time>
</trkpt>
<trkpt lat="-27.0058847" lon="152.7798367">
<ele>137.447</ele>
<time>2016-01-02T06:51:49.236Z</time>
</trkpt>
<trkpt lat="-27.0062393" lon="152.7795545">
<ele>138.757</ele>
<time>2016-01-02T06:51:51.230Z</time>
</trkpt>
<trkpt lat="-27.0066039" lon="152.7792981">
<ele>139.664</ele>
<time>2016-01-02T06:51:53.194Z</time>
</trkpt>
<trkpt lat="-27.0072093" lon="152.7790116">
<ele>140.053</ele>
<time>2016-01-02T06:51:56.185Z</time>
</trkpt>
<trkpt lat="-27.0076121" lon="152.7788315">
<ele>140.350</ele>
<time>2016-01-02T06:51:58.206Z</time>
</trkpt>
<trkpt lat="-27.0082060" lon="152.7786406">
<ele>140.759</ele>
<time>2016-01-02T06:52:01.161Z</time>
</trkpt>
<trkpt lat="-27.0085892" lon="152.7785353">
<ele>141.078</ele>
<time>2016-01-02T06:52:03.091Z</time>
</trkpt>
<trkpt lat="-27.0089927" lon="152.7784718">
<ele>141.165</ele>
<time>2016-01-02T06:52:05.108Z</time>
</trkpt>
<trkpt lat="-27.0095934" lon="152.7784154">
<ele>141.367</ele>
<time>2016-01-02T06:52:08.121Z</time>
</trkpt>
<trkpt lat="-27.0099794" lon="152.7784044">
<ele>142.383</ele>
<time>2016-01-02T06:52:10.067Z</time>
</trkpt>
<trkpt lat="-27.0103646" lon="152.7783872">
<ele>144.352</ele>
<time>2016-01-02T06:52:11.985Z</time>
</trkpt>
<trkpt lat="-27.0109820" lon="152.7784817">
<ele>146.585</ele>
<time>2016-01-02T06:52:15.021Z</time>
</trkpt>
<trkpt lat="-27.0114011" lon="152.7785434">
<ele>148.915</ele>
<time>2016-01-02T06:52:16.967Z</time>
</trkpt>
<trkpt lat="-27.0120531" lon="152.7786386">
<ele>151.590</ele>
<time>2016-01-02T06:52:19.892Z</time>
</trkpt>
<trkpt lat="-27.0125241" lon="152.7787476">
<ele>154.525</ele>
<time>2016-01-02T06:52:21.970Z</time>
</trkpt>
<trkpt lat="-27.0131916" lon="152.7788287">
<ele>157.562</ele>
<time>2016-01-02T06:52:24.922Z</time>
</trkpt>
<trkpt lat="-27.0136280" lon="152.7788811">
<ele>160.173</ele>
<time>2016-01-02T06:52:26.926Z</time>
</trkpt>
<trkpt lat="-27.0140133" lon="152.7788671">
<ele>161.554</ele>
<time>2016-01-02T06:52:28.686Z</time>
</trkpt>
<trkpt lat="-27.0146782" lon="152.7789049">
<ele>161.731</ele>
<time>2016-01-02T06:52:31.707Z</time>
</trkpt>
<trkpt lat="-27.0153324" lon="152.7788751">
<ele>161.357</ele>
<time>2016-01-02T06:52:34.686Z</time>
</trkpt>
<trkpt lat="-27.0157598" lon="152.7788851">
<ele>161.171</ele>
<time>2016-01-02T06:52:36.669Z</time>
</trkpt>
<trkpt lat="-27.0163975" lon="152.7789686">
<ele>161.542</ele>
<time>2016-01-02T06:52:39.608Z</time>
</trkpt>
<trkpt lat="-27.0168407" lon="152.7790242">
<ele>162.358</ele>
<time>2016-01-02T06:52:41.568Z</time>
</trkpt>
<trkpt lat="-27.0172960" lon="152.7790741">
<ele>163.754</ele>
<time>2016-01-02T06:52:43.578Z</time>
</trkpt>
<trkpt lat="-27.0179687" lon="152.7791840">
<ele>166.104</ele>
<time>2016-01-02T06:52:46.603Z</time>
</trkpt>
<trkpt lat="-27.0183876" lon="152.7792442">
<ele>169.107</ele>
<time>2016-01-02T06:52:48.562Z</time>
</trkpt>
<trkpt lat="-27.0190034" lon="152.7793612">
<ele>171.921</ele>
<time>2016-01-02T06:52:51.537Z</time>
</trkpt>
<trkpt lat="-27.0193922" lon="152.7794955">
<ele>174.052</ele>
<time>2016-01-02T06:52:53.448Z</time>
</trkpt>
<trkpt lat="-27.0200641" lon="152.7798705">
<ele>175.613</ele>
<time>2016-01-02T06:52:56.883Z</time>
</trkpt>
<trkpt lat="-27.0204685" lon="152.7800229">
<ele>177.484</ele>
<time>2016-01-02T06:52:58.885Z</time>
</trkpt>
<trkpt lat="-27.0208652" lon="152.7801867">
<ele>180.093</ele>
<time>2016-01-02T06:53:00.858Z</time>
</trkpt>
<trkpt lat="-27.0213010" lon="152.7803704">
<ele>182.890</ele>
<time>2016-01-02T06:53:02.932Z</time>
</trkpt>
<trkpt lat="-27.0219383" lon="152.7806454">
<ele>185.485</ele>
<time>2016-01-02T06:53:06.004Z</time>
</trkpt>
<trkpt lat="-27.0225193" lon="152.7808455">
<ele>187.837</ele>
<time>2016-01-02T06:53:08.945Z</time>
</trkpt>
<trkpt lat="-27.0228352" lon="152.7809585">
<ele>189.615</ele>
<time>2016-01-02T06:53:10.838Z</time>
</trkpt>
<trkpt lat="-27.0231583" lon="152.7810668">
<ele>190.750</ele>
<time>2016-01-02T06:53:12.938Z</time>
</trkpt>
<trkpt lat="-27.0234494" lon="152.7809987">
<ele>191.363</ele>
<time>2016-01-02T06:53:14.862Z</time>
</trkpt>
<trkpt lat="-27.0238593" lon="152.7807499">
<ele>191.602</ele>
<time>2016-01-02T06:53:17.911Z</time>
</trkpt>
<trkpt lat="-27.0239989" lon="152.7801922">
<ele>191.917</ele>
<time>2016-01-02T06:53:21.449Z</time>
</trkpt>
<trkpt lat="-27.0240579" lon="152.7799031">
<ele>193.031</ele>
<time>2016-01-02T06:53:23.408Z</time>
</trkpt>
<trkpt lat="-27.0242086" lon="152.7795151">
<ele>194.869</ele>
<time>2016-01-02T06:53:26.407Z</time>
</trkpt>
<trkpt lat="-27.0244368" lon="152.7792546">
<ele>196.909</ele>
<time>2016-01-02T06:53:29.125Z</time>
</trkpt>
<trkpt lat="-27.0249637" lon="152.7795050">
<ele>199.352</ele>
<time>2016-01-02T06:53:33.638Z</time>
</trkpt>
<trkpt lat="-27.0253703" lon="152.7793877">
<ele>202.631</ele>
<time>2016-01-02T06:53:36.964Z</time>
</trkpt>
<trkpt lat="-27.0255826" lon="152.7792380">
<ele>206.382</ele>
<time>2016-01-02T06:53:39.096Z</time>
</trkpt>
<trkpt lat="-27.0257023" lon="152.7788542">
<ele>209.673</ele>
<time>2016-01-02T06:53:42.335Z</time>
</trkpt>
<trkpt lat="-27.0256512" lon="152.7784748">
<ele>211.919</ele>
<time>2016-01-02T06:53:45.620Z</time>
</trkpt>
<trkpt lat="-27.0257358" lon="152.7782470">
<ele>213.256</ele>
<time>2016-01-02T06:53:47.587Z</time>
</trkpt>
<trkpt lat="-27.0259928" lon="152.7781836">
<ele>213.961</ele>
<time>2016-01-02T06:53:49.456Z</time>
</trkpt>
<trkpt lat="-27.0262244" lon="152.7783236">
<ele>214.189</ele>
<time>2016-01-02T06:53:51.202Z</time>
</trkpt>
<trkpt lat="-27.0265849" lon="152.7786659">
<ele>214.304</ele>
<time>2016-01-02T06:53:54.044Z</time>
</trkpt>
<trkpt lat="-27.0268375" lon="152.7789264">
<ele>214.594</ele>
<time>2016-01-02T06:53:56.281Z</time>
</trkpt>
<trkpt lat="-27.0270234" lon="152.7791909">
<ele>214.518</ele>
<time>2016-01-02T06:53:58.358Z</time>
</trkpt>
<trkpt lat="-27.0273650" lon="152.7793934">
<ele>212.718</ele>
<time>2016-01-02T06:54:01.177Z</time>
</trkpt>
<trkpt lat="-27.0277695" lon="152.7792799">
<ele>208.425</ele>
<time>2016-01-02T06:54:04.120Z</time>
</trkpt>
<trkpt lat="-27.0281871" lon="152.7791736">
<ele>202.896</ele>
<time>2016-01-02T06:54:06.980Z</time>
</trkpt>
<trkpt lat="-27.0284907" lon="152.7792294">
<ele>197.901</ele>
<time>2016-01-02T06:54:08.975Z</time>
</trkpt>
<trkpt lat="-27.0289748" lon="152.7793645">
<ele>194.025</ele>
<time>2016-01-02T06:54:12.049Z</time>
</trkpt>
<trkpt lat="-27.0292866" lon="152.7793979">
<ele>190.695</ele>
<time>2016-01-02T06:54:13.986Z</time>
</trkpt>
<trkpt lat="-27.0296120" lon="152.7793357">
<ele>187.021</ele>
<time>2016-01-02T06:54:16.047Z</time>
</trkpt>
<trkpt lat="-27.0298668" lon="152.7791504">
<ele>182.984</ele>
<time>2016-01-02T06:54:17.948Z</time>
</trkpt>
<trkpt lat="-27.0302928" lon="152.7788646">
<ele>179.527</ele>
<time>2016-01-02T06:54:20.925Z</time>
</trkpt>
<trkpt lat="-27.0305589" lon="152.7786564">
<ele>177.288</ele>
<time>2016-01-02T06:54:22.816Z</time>
</trkpt>
<trkpt lat="-27.0310054" lon="152.7783237">
<ele>176.539</ele>
<time>2016-01-02T06:54:25.926Z</time>
</trkpt>
<trkpt lat="-27.0313113" lon="152.7781762">
<ele>177.366</ele>
<time>2016-01-02T06:54:27.867Z</time>
</trkpt>
<trkpt lat="-27.0318405" lon="152.7780888">
<ele>179.802</ele>
<time>2016-01-02T06:54:31.148Z</time>
</trkpt>
<trkpt lat="-27.0321435" lon="152.7780621">
<ele>183.863</ele>
<time>2016-01-02T06:54:33.192Z</time>
</trkpt>
<trkpt lat="-27.0324449" lon="152.7780594">
<ele>188.779</ele>
<time>2016-01-02T06:54:35.338Z</time>
</trkpt>
<trkpt lat="-27.0326655" lon="152.7779408">
<ele>193.222</ele>
<time>2016-01-02T06:54:37.102Z</time>
</trkpt>
<trkpt lat="-27.0329982" lon="152.7776934">
<ele>196.430</ele>
<time>2016-01-02T06:54:39.898Z</time>
</trkpt>
<trkpt lat="-27.0332592" lon="152.7775679">
<ele>199.153</ele>
<time>2016-01-02T06:54:41.847Z</time>
</trkpt>
<trkpt lat="-27.0335609" lon="152.7772496">
<ele>202.441</ele>
<time>2016-01-02T06:54:44.744Z</time>
</trkpt>
<trkpt lat="-27.0339176" lon="152.7770543">
<ele>206.581</ele>
<time>2016-01-02T06:54:47.597Z</time>
</trkpt>
<trkpt lat="-27.0341230" lon="152.7768389">
<ele>211.647</ele>
<time>2016-01-02T06:54:49.732Z</time>
</trkpt>
<trkpt lat="-27.0343178" lon="152.7765617">
<ele>217.482</ele>
<time>2016-01-02T06:54:52.481Z</time>
</trkpt>
<trkpt lat="-27.0346701" lon="152.7765450">
<ele>223.030</ele>
<time>2016-01-02T06:54:55.645Z</time>
</trkpt>
<trkpt lat="-27.0349706" lon="152.7768458">
<ele>227.869</ele>
<time>2016-01-02T06:54:58.939Z</time>
</trkpt>
<trkpt lat="-27.0351685" lon="152.7769697">
<ele>232.417</ele>
<time>2016-01-02T06:55:00.675Z</time>
</trkpt>
<trkpt lat="-27.0355838" lon="152.7771153">
<ele>236.507</ele>
<time>2016-01-02T06:55:03.806Z</time>
</trkpt>
<trkpt lat="-27.0358194" lon="152.7772839">
<ele>240.120</ele>
<time>2016-01-02T06:55:05.830Z</time>
</trkpt>
<trkpt lat="-27.0361921" lon="152.7774736">
<ele>244.343</ele>
<time>2016-01-02T06:55:09.064Z</time>
</trkpt>
<trkpt lat="-27.0364478" lon="152.7774243">
<ele>249.253</ele>
<time>2016-01-02T06:55:11.113Z</time>
</trkpt>
<trkpt lat="-27.0368813" lon="152.7772939">
<ele>253.382</ele>
<time>2016-01-02T06:55:14.491Z</time>
</trkpt>
<trkpt lat="-27.0372743" lon="152.7773927">
<ele>256.432</ele>
<time>2016-01-02T06:55:17.380Z</time>
</trkpt>
<trkpt lat="-27.0375523" lon="152.7773008">
<ele>259.594</ele>
<time>2016-01-02T06:55:19.413Z</time>
</trkpt>
<trkpt lat="-27.0379904" lon="152.7772097">
<ele>263.546</ele>
<time>2016-01-02T06:55:22.622Z</time>
</trkpt>
<trkpt lat="-27.0383716" lon="152.7772477">
<ele>267.961</ele>
<time>2016-01-02T06:55:25.426Z</time>
</trkpt>
<trkpt lat="-27.0387148" lon="152.7769904">
<ele>272.582</ele>
<time>2016-01-02T06:55:28.339Z</time>
</trkpt>
<trkpt lat="-27.0391438" lon="152.7768904">
<ele>277.265</ele>
<time>2016-01-02T06:55:31.312Z</time>
</trkpt>
<trkpt lat="-27.0395652" lon="152.7770488">
<ele>281.796</ele>
<time>2016-01-02T06:55:34.257Z</time>
</trkpt>
<trkpt lat="-27.0399848" lon="152.7771488">
<ele>286.427</ele>
<time>2016-01-02T06:55:36.980Z</time>
</trkpt>
<trkpt lat="-27.0404751" lon="152.7772312">
<ele>291.865</ele>
<time>2016-01-02T06:55:39.972Z</time>
</trkpt>
<trkpt lat="-27.0409774" lon="152.7773792">
<ele>298.082</ele>
<time>2016-01-02T06:55:43.073Z</time>
</trkpt>
<trkpt lat="-27.0414753" lon="152.7773937">
<ele>304.284</ele>
<time>2016-01-02T06:55:45.987Z</time>
</trkpt>
<trkpt lat="-27.0418277" lon="152.7774125">
<ele>310.094</ele>
<time>2016-01-02T06:55:48.028Z</time>
</trkpt>
<trkpt lat="-27.0423228" lon="152.7774239">
<ele>315.299</ele>
<time>2016-01-02T06:55:50.954Z</time>
</trkpt>
<trkpt lat="-27.0426558" lon="152.7774624">
<ele>319.893</ele>
<time>2016-01-02T06:55:52.997Z</time>
</trkpt>
<trkpt lat="-27.0431056" lon="152.7775317">
<ele>324.436</ele>
<time>2016-01-02T06:55:55.802Z</time>
</trkpt>
<trkpt lat="-27.0435691" lon="152.7774773">
<ele>329.199</ele>
<time>2016-01-02T06:55:58.612Z</time>
</trkpt>
<trkpt lat="-27.0438793" lon="152.7774099">
<ele>334.120</ele>
<time>2016-01-02T06:56:00.476Z</time>
</trkpt>
<trkpt lat="-27.0443785" lon="152.7772505">
<ele>339.194</ele>
<time>2016-01-02T06:56:03.494Z</time>
</trkpt>
<trkpt lat="-27.0446917" lon="152.7770809">
<ele>344.329</ele>
<time>2016-01-02T06:56:05.606Z</time>
</trkpt>
<trkpt lat="-27.0450766" lon="152.7768307">
<ele>349.073</ele>
<time>2016-01-02T06:56:08.637Z</time>
</trkpt>
<trkpt lat="-27.0453124" lon="152.7767003">
<ele>352.574</ele>
<time>2016-01-02T06:56:10.742Z</time>
</trkpt>
<trkpt lat="-27.0454309" lon="152.7765403">
<ele>354.685</ele>
<time>2016-01-02T06:56:12.329Z</time>
</trkpt>
<trkpt lat="-27.0455262" lon="152.7763060">
<ele>356.153</ele>
<time>2016-01-02T06:56:14.248Z</time>
</trkpt>
<trkpt lat="-27.0456712" lon="152.7759158">
<ele>357.790</ele>
<time>2016-01-02T06:56:17.228Z</time>
</trkpt>
<trkpt lat="-27.0459979" lon="152.7756303">
<ele>360.566</ele>
<time>2016-01-02T06:56:20.358Z</time>
</trkpt>
<trkpt lat="-27.0461833" lon="152.7754507">
<ele>365.004</ele>
<time>2016-01-02T06:56:22.190Z</time>
</trkpt>
<trkpt lat="-27.0463071" lon="152.7751839">
<ele>370.163</ele>
<time>2016-01-02T06:56:24.176Z</time>
</trkpt>
<trkpt lat="-27.0463283" lon="152.7747245">
<ele>374.645</ele>
<time>2016-01-02T06:56:27.093Z</time>
</trkpt>
<trkpt lat="-27.0462523" lon="152.7742174">
<ele>378.712</ele>
<time>2016-01-02T06:56:30.121Z</time>
</trkpt>
<trkpt lat="-27.0461175" lon="152.7736832">
<ele>383.295</ele>
<time>2016-01-02T06:56:33.169Z</time>
</trkpt>
<trkpt lat="-27.0461647" lon="152.7730820">
<ele>388.247</ele>
<time>2016-01-02T06:56:36.342Z</time>
</trkpt>
<trkpt lat="-27.0463811" lon="152.7726029">
<ele>393.387</ele>
<time>2016-01-02T06:56:39.113Z</time>
</trkpt>
<trkpt lat="-27.0466573" lon="152.7723733">
<ele>398.766</ele>
<time>2016-01-02T06:56:41.000Z</time>
</trkpt>
<trkpt lat="-27.0471610" lon="152.7720699">
<ele>403.909</ele>
<time>2016-01-02T06:56:44.061Z</time>
</trkpt>
<trkpt lat="-27.0474937" lon="152.7719142">
<ele>408.823</ele>
<time>2016-01-02T06:56:46.036Z</time>
</trkpt>
<trkpt lat="-27.0479824" lon="152.7716924">
<ele>413.692</ele>
<time>2016-01-02T06:56:48.977Z</time>
</trkpt>
<trkpt lat="-27.0483022" lon="152.7715370">
<ele>417.815</ele>
<time>2016-01-02T06:56:50.899Z</time>
</trkpt>
<trkpt lat="-27.0488245" lon="152.7713138">
<ele>420.725</ele>
<time>2016-01-02T06:56:53.937Z</time>
</trkpt>
<trkpt lat="-27.0493359" lon="152.7710675">
<ele>423.029</ele>
<time>2016-01-02T06:56:56.940Z</time>
</trkpt>
<trkpt lat="-27.0498299" lon="152.7709311">
<ele>425.162</ele>
<time>2016-01-02T06:56:59.642Z</time>
</trkpt>
<trkpt lat="-27.0502245" lon="152.7709201">
<ele>427.237</ele>
<time>2016-01-02T06:57:01.649Z</time>
</trkpt>
<trkpt lat="-27.0506093" lon="152.7709888">
<ele>429.206</ele>
<time>2016-01-02T06:57:03.615Z</time>
</trkpt>
<trkpt lat="-27.0511407" lon="152.7712342">
<ele>430.625</ele>
<time>2016-01-02T06:57:06.490Z</time>
</trkpt>
<trkpt lat="-27.0514738" lon="152.7714901">
<ele>430.806</ele>
<time>2016-01-02T06:57:08.430Z</time>
</trkpt>
<trkpt lat="-27.0517969" lon="152.7718137">
<ele>429.857</ele>
<time>2016-01-02T06:57:10.484Z</time>
</trkpt>
<trkpt lat="-27.0522753" lon="152.7722615">
<ele>428.526</ele>
<time>2016-01-02T06:57:13.476Z</time>
</trkpt>
<trkpt lat="-27.0527337" lon="152.7726960">
<ele>426.797</ele>
<time>2016-01-02T06:57:16.433Z</time>
</trkpt>
<trkpt lat="-27.0530390" lon="152.7729789">
<ele>424.281</ele>
<time>2016-01-02T06:57:18.412Z</time>
</trkpt>
<trkpt lat="-27.0535121" lon="152.7733659">
<ele>421.663</ele>
<time>2016-01-02T06:57:21.322Z</time>
</trkpt>
<trkpt lat="-27.0538740" lon="152.7735672">
<ele>419.868</ele>
<time>2016-01-02T06:57:23.281Z</time>
</trkpt>
<trkpt lat="-27.0542675" lon="152.7737078">
<ele>419.191</ele>
<time>2016-01-02T06:57:25.245Z</time>
</trkpt>
<trkpt lat="-27.0546760" lon="152.7738260">
<ele>419.465</ele>
<time>2016-01-02T06:57:27.232Z</time>
</trkpt>
<trkpt lat="-27.0552843" lon="152.7739923">
<ele>420.416</ele>
<time>2016-01-02T06:57:30.173Z</time>
</trkpt>
<trkpt lat="-27.0559038" lon="152.7741701">
<ele>421.725</ele>
<time>2016-01-02T06:57:33.165Z</time>
</trkpt>
<trkpt lat="-27.0565313" lon="152.7743499">
<ele>422.848</ele>
<time>2016-01-02T06:57:36.174Z</time>
</trkpt>
<trkpt lat="-27.0569573" lon="152.7744859">
<ele>423.765</ele>
<time>2016-01-02T06:57:38.228Z</time>
</trkpt>
<trkpt lat="-27.0575800" lon="152.7746605">
<ele>424.815</ele>
<time>2016-01-02T06:57:41.206Z</time>
</trkpt>
<trkpt lat="-27.0582039" lon="152.7748669">
<ele>425.715</ele>
<time>2016-01-02T06:57:44.229Z</time>
</trkpt>
<trkpt lat="-27.0585612" lon="152.7749934">
<ele>426.105</ele>
<time>2016-01-02T06:57:45.982Z</time>
</trkpt>
<trkpt lat="-27.0589118" lon="152.7752420">
<ele>426.115</ele>
<time>2016-01-02T06:57:47.908Z</time>
</trkpt>
<trkpt lat="-27.0592321" lon="152.7755811">
<ele>426.360</ele>
<time>2016-01-02T06:57:49.912Z</time>
</trkpt>
<trkpt lat="-27.0595215" lon="152.7759559">
<ele>427.338</ele>
<time>2016-01-02T06:57:51.917Z</time>
</trkpt>
<trkpt lat="-27.0599213" lon="152.7764867">
<ele>429.165</ele>
<time>2016-01-02T06:57:54.763Z</time>
</trkpt>
<trkpt lat="-27.0603319" lon="152.7770452">
<ele>431.841</ele>
<time>2016-01-02T06:57:57.720Z</time>
</trkpt>
<trkpt lat="-27.0606247" lon="152.7774521">
<ele>434.781</ele>
<time>2016-01-02T06:57:59.772Z</time>
</trkpt>
<trkpt lat="-27.0609122" lon="152.7778422">
<ele>436.872</ele>
<time>2016-01-02T06:58:01.751Z</time>
</trkpt>
<trkpt lat="-27.0612019" lon="152.7782061">
<ele>437.698</ele>
<time>2016-01-02T06:58:03.716Z</time>
</trkpt>
<trkpt lat="-27.0616404" lon="152.7786812">
<ele>437.656</ele>
<time>2016-01-02T06:58:06.568Z</time>
</trkpt>
<trkpt lat="-27.0619472" lon="152.7789694">
<ele>437.408</ele>
<time>2016-01-02T06:58:08.487Z</time>
</trkpt>
<trkpt lat="-27.0622741" lon="152.7792768">
<ele>437.435</ele>
<time>2016-01-02T06:58:10.506Z</time>
</trkpt>
<trkpt lat="-27.0627671" lon="152.7797303">
<ele>438.363</ele>
<time>2016-01-02T06:58:13.479Z</time>
</trkpt>
<trkpt lat="-27.0630852" lon="152.7800170">
<ele>440.986</ele>
<time>2016-01-02T06:58:15.410Z</time>
</trkpt>
<trkpt lat="-27.0633896" lon="152.7802862">
<ele>444.922</ele>
<time>2016-01-02T06:58:17.314Z</time>
</trkpt>
<trkpt lat="-27.0637104" lon="152.7805037">
<ele>448.734</ele>
<time>2016-01-02T06:58:19.228Z</time>
</trkpt>
<trkpt lat="-27.0640525" lon="152.7806779">
<ele>451.765</ele>
<time>2016-01-02T06:58:21.183Z</time>
</trkpt>
<trkpt lat="-27.0646135" lon="152.7808460">
<ele>454.098</ele>
<time>2016-01-02T06:58:24.166Z</time>
</trkpt>
<trkpt lat="-27.0652098" lon="152.7808899">
<ele>456.561</ele>
<time>2016-01-02T06:58:27.155Z</time>
</trkpt>
<trkpt lat="-27.0657987" lon="152.7808953">
<ele>460.476</ele>
<time>2016-01-02T06:58:30.087Z</time>
</trkpt>
<trkpt lat="-27.0662010" lon="152.7809204">
<ele>465.480</ele>
<time>2016-01-02T06:58:32.100Z</time>
</trkpt>
<trkpt lat="-27.0667968" lon="152.7809947">
<ele>470.271</ele>
<time>2016-01-02T06:58:35.077Z</time>
</trkpt>
<trkpt lat="-27.0673512" lon="152.7810688">
<ele>474.347</ele>
<time>2016-01-02T06:58:37.916Z</time>
</trkpt>
<trkpt lat="-27.0677217" lon="152.7811218">
<ele>477.127</ele>
<time>2016-01-02T06:58:39.870Z</time>
</trkpt>
<trkpt lat="-27.0682794" lon="152.7811976">
<ele>478.333</ele>
<time>2016-01-02T06:58:42.813Z</time>
</trkpt>
<trkpt lat="-27.0686570" lon="152.7812713">
<ele>478.650</ele>
<time>2016-01-02T06:58:44.811Z</time>
</trkpt>
<trkpt lat="-27.0690184" lon="152.7813652">
<ele>478.654</ele>
<time>2016-01-02T06:58:46.757Z</time>
</trkpt>
<trkpt lat="-27.0695694" lon="152.7815311">
<ele>478.313</ele>
<time>2016-01-02T06:58:49.756Z</time>
</trkpt>
<trkpt lat="-27.0701291" lon="152.7816665">
<ele>477.463</ele>
<time>2016-01-02T06:58:52.711Z</time>
</trkpt>
<trkpt lat="-27.0706944" lon="152.7816944">
<ele>476.094</ele>
<time>2016-01-02T06:58:55.626Z</time>
</trkpt>
<trkpt lat="-27.0712270" lon="152.7816452">
<ele>474.365</ele>
<time>2016-01-02T06:58:58.479Z</time>
</trkpt>
<trkpt lat="-27.0717650" lon="152.7816628">
<ele>472.545</ele>
<time>2016-01-02T06:59:01.433Z</time>
</trkpt>
<trkpt lat="-27.0721239" lon="152.7817581">
<ele>470.830</ele>
<time>2016-01-02T06:59:03.457Z</time>
</trkpt>
<trkpt lat="-27.0726517" lon="152.7819142">
<ele>469.026</ele>
<time>2016-01-02T06:59:06.421Z</time>
</trkpt>
<trkpt lat="-27.0732334" lon="152.7820123">
<ele>466.178</ele>
<time>2016-01-02T06:59:09.513Z</time>
</trkpt>
<trkpt lat="-27.0738469" lon="152.7819366">
<ele>461.824</ele>
<time>2016-01-02T06:59:12.554Z</time>
</trkpt>
<trkpt lat="-27.0742770" lon="152.7818651">
<ele>457.557</ele>
<time>2016-01-02T06:59:14.589Z</time>
</trkpt>
<trkpt lat="-27.0746918" lon="152.7818430">
<ele>455.165</ele>
<time>2016-01-02T06:59:16.501Z</time>
</trkpt>
<trkpt lat="-27.0752942" lon="152.7819248">
<ele>454.322</ele>
<time>2016-01-02T06:59:19.365Z</time>
</trkpt>
<trkpt lat="-27.0756881" lon="152.7819820">
<ele>453.688</ele>
<time>2016-01-02T06:59:21.299Z</time>
</trkpt>
<trkpt lat="-27.0760776" lon="152.7819928">
<ele>452.610</ele>
<time>2016-01-02T06:59:23.233Z</time>
</trkpt>
<trkpt lat="-27.0766673" lon="152.7818970">
<ele>451.387</ele>
<time>2016-01-02T06:59:26.203Z</time>
</trkpt>
<trkpt lat="-27.0772281" lon="152.7816593">
<ele>450.585</ele>
<time>2016-01-02T06:59:29.161Z</time>
</trkpt>
<trkpt lat="-27.0775753" lon="152.7814194">
<ele>450.659</ele>
<time>2016-01-02T06:59:31.145Z</time>
</trkpt>
<trkpt lat="-27.0780140" lon="152.7809790">
<ele>451.879</ele>
<time>2016-01-02T06:59:34.017Z</time>
</trkpt>
<trkpt lat="-27.0783305" lon="152.7805762">
<ele>453.790</ele>
<time>2016-01-02T06:59:36.526Z</time>
</trkpt>
<trkpt lat="-27.0785081" lon="152.7803412">
<ele>455.424</ele>
<time>2016-01-02T06:59:38.039Z</time>
</trkpt>
<trkpt lat="-27.0786685" lon="152.7801055">
<ele>456.359</ele>
<time>2016-01-02T06:59:39.754Z</time>
</trkpt>
<trkpt lat="-27.0788540" lon="152.7797933">
<ele>456.853</ele>
<time>2016-01-02T06:59:42.151Z</time>
</trkpt>
<trkpt lat="-27.0789404" lon="152.7796477">
<ele>457.268</ele>
<time>2016-01-02T06:59:43.423Z</time>
</trkpt>
<trkpt lat="-27.0791272" lon="152.7796240">
<ele>457.783</ele>
<time>2016-01-02T06:59:44.959Z</time>
</trkpt>
<trkpt lat="-27.0792598" lon="152.7797719">
<ele>458.380</ele>
<time>2016-01-02T06:59:46.851Z</time>
</trkpt>
<trkpt lat="-27.0794969" lon="152.7800497">
<ele>458.932</ele>
<time>2016-01-02T06:59:51.494Z</time>
</trkpt>
<trkpt lat="-27.0798692" lon="152.7801445">
<ele>459.128</ele>
<time>2016-01-02T06:59:55.573Z</time>
</trkpt>
<trkpt lat="-27.0802342" lon="152.7801783">
<ele>458.848</ele>
<time>2016-01-02T06:59:58.716Z</time>
</trkpt>
<trkpt lat="-27.0804468" lon="152.7802785">
<ele>457.980</ele>
<time>2016-01-02T07:00:00.587Z</time>
</trkpt>
<trkpt lat="-27.0806705" lon="152.7807008">
<ele>456.299</ele>
<time>2016-01-02T07:00:04.104Z</time>
</trkpt>
<trkpt lat="-27.0807658" lon="152.7809919">
<ele>453.642</ele>
<time>2016-01-02T07:00:06.299Z</time>
</trkpt>
<trkpt lat="-27.0808378" lon="152.7814309">
<ele>450.275</ele>
<time>2016-01-02T07:00:09.319Z</time>
</trkpt>
<trkpt lat="-27.0808664" lon="152.7817339">
<ele>446.680</ele>
<time>2016-01-02T07:00:11.343Z</time>
</trkpt>
<trkpt lat="-27.0809004" lon="152.7822261">
<ele>443.261</ele>
<time>2016-01-02T07:00:14.528Z</time>
</trkpt>
<trkpt lat="-27.0809670" lon="152.7825338">
<ele>440.104</ele>
<time>2016-01-02T07:00:16.519Z</time>
</trkpt>
<trkpt lat="-27.0811026" lon="152.7828015">
<ele>437.210</ele>
<time>2016-01-02T07:00:18.424Z</time>
</trkpt>
<trkpt lat="-27.0812679" lon="152.7829926">
<ele>434.496</ele>
<time>2016-01-02T07:00:20.099Z</time>
</trkpt>
<trkpt lat="-27.0815290" lon="152.7832779">
<ele>432.106</ele>
<time>2016-01-02T07:00:22.862Z</time>
</trkpt>
<trkpt lat="-27.0817125" lon="152.7834732">
<ele>430.013</ele>
<time>2016-01-02T07:00:24.874Z</time>
</trkpt>
<trkpt lat="-27.0819962" lon="152.7837601">
<ele>427.952</ele>
<time>2016-01-02T07:00:27.822Z</time>
</trkpt>
<trkpt lat="-27.0822324" lon="152.7841449">
<ele>425.967</ele>
<time>2016-01-02T07:00:30.948Z</time>
</trkpt>
<trkpt lat="-27.0824049" lon="152.7846879">
<ele>424.111</ele>
<time>2016-01-02T07:00:34.457Z</time>
</trkpt>
<trkpt lat="-27.0825242" lon="152.7852480">
<ele>421.791</ele>
<time>2016-01-02T07:00:37.552Z</time>
</trkpt>
<trkpt lat="-27.0826088" lon="152.7856160">
<ele>418.405</ele>
<time>2016-01-02T07:00:39.500Z</time>
</trkpt>
<trkpt lat="-27.0826743" lon="152.7861948">
<ele>414.058</ele>
<time>2016-01-02T07:00:42.496Z</time>
</trkpt>
<trkpt lat="-27.0826448" lon="152.7865591">
<ele>409.297</ele>
<time>2016-01-02T07:00:44.393Z</time>
</trkpt>
<trkpt lat="-27.0826068" lon="152.7871400">
<ele>404.477</ele>
<time>2016-01-02T07:00:47.418Z</time>
</trkpt>
<trkpt lat="-27.0825691" lon="152.7877480">
<ele>399.662</ele>
<time>2016-01-02T07:00:50.482Z</time>
</trkpt>
<trkpt lat="-27.0825527" lon="152.7881550">
<ele>394.802</ele>
<time>2016-01-02T07:00:52.476Z</time>
</trkpt>
<trkpt lat="-27.0825173" lon="152.7887364">
<ele>389.870</ele>
<time>2016-01-02T07:00:55.306Z</time>
</trkpt>
<trkpt lat="-27.0825366" lon="152.7893393">
<ele>385.108</ele>
<time>2016-01-02T07:00:58.266Z</time>
</trkpt>
<trkpt lat="-27.0825217" lon="152.7898789">
<ele>380.596</ele>
<time>2016-01-02T07:01:00.963Z</time>
</trkpt>
<trkpt lat="-27.0823334" lon="152.7902959">
<ele>376.715</ele>
<time>2016-01-02T07:01:03.400Z</time>
</trkpt>
<trkpt lat="-27.0819577" lon="152.7905099">
<ele>374.675</ele>
<time>2016-01-02T07:01:06.127Z</time>
</trkpt>
<trkpt lat="-27.0816605" lon="152.7905420">
<ele>374.796</ele>
<time>2016-01-02T07:01:08.218Z</time>
</trkpt>
<trkpt lat="-27.0813697" lon="152.7905068">
<ele>375.396</ele>
<time>2016-01-02T07:01:10.274Z</time>
</trkpt>
<trkpt lat="-27.0810942" lon="152.7905382">
<ele>374.682</ele>
<time>2016-01-02T07:01:12.214Z</time>
</trkpt>
<trkpt lat="-27.0807082" lon="152.7908600">
<ele>372.548</ele>
<time>2016-01-02T07:01:15.559Z</time>
</trkpt>
<trkpt lat="-27.0804388" lon="152.7910714">
<ele>369.888</ele>
<time>2016-01-02T07:01:17.760Z</time>
</trkpt>
<trkpt lat="-27.0800084" lon="152.7913667">
<ele>366.934</ele>
<time>2016-01-02T07:01:20.862Z</time>
</trkpt>
<trkpt lat="-27.0795158" lon="152.7915860">
<ele>363.578</ele>
<time>2016-01-02T07:01:23.983Z</time>
</trkpt>
<trkpt lat="-27.0791577" lon="152.7917004">
<ele>360.008</ele>
<time>2016-01-02T07:01:26.106Z</time>
</trkpt>
<trkpt lat="-27.0786732" lon="152.7919245">
<ele>356.810</ele>
<time>2016-01-02T07:01:28.994Z</time>
</trkpt>
<trkpt lat="-27.0783949" lon="152.7921343">
<ele>355.129</ele>
<time>2016-01-02T07:01:30.864Z</time>
</trkpt>
<trkpt lat="-27.0779949" lon="152.7925269">
<ele>355.791</ele>
<time>2016-01-02T07:01:33.895Z</time>
</trkpt>
<trkpt lat="-27.0777746" lon="152.7927414">
<ele>359.082</ele>
<time>2016-01-02T07:01:35.572Z</time>
</trkpt>
<trkpt lat="-27.0775587" lon="152.7929763">
<ele>363.993</ele>
<time>2016-01-02T07:01:37.384Z</time>
</trkpt>
<trkpt lat="-27.0772857" lon="152.7934525">
<ele>367.833</ele>
<time>2016-01-02T07:01:40.549Z</time>
</trkpt>
<trkpt lat="-27.0771846" lon="152.7938192">
<ele>368.722</ele>
<time>2016-01-02T07:01:42.633Z</time>
</trkpt>
<trkpt lat="-27.0770280" lon="152.7943357">
<ele>367.359</ele>
<time>2016-01-02T07:01:45.450Z</time>
</trkpt>
<trkpt lat="-27.0770632" lon="152.7948458">
<ele>365.566</ele>
<time>2016-01-02T07:01:48.131Z</time>
</trkpt>
<trkpt lat="-27.0771536" lon="152.7952149">
<ele>365.002</ele>
<time>2016-01-02T07:01:50.270Z</time>
</trkpt>
<trkpt lat="-27.0772569" lon="152.7955542">
<ele>366.069</ele>
<time>2016-01-02T07:01:52.258Z</time>
</trkpt>
<trkpt lat="-27.0773699" lon="152.7958153">
<ele>367.796</ele>
<time>2016-01-02T07:01:53.852Z</time>
</trkpt>
<trkpt lat="-27.0776267" lon="152.7960706">
<ele>368.985</ele>
<time>2016-01-02T07:01:56.079Z</time>
</trkpt>
<trkpt lat="-27.0778126" lon="152.7962288">
<ele>369.845</ele>
<time>2016-01-02T07:01:57.694Z</time>
</trkpt>
<trkpt lat="-27.0779951" lon="152.7966049">
<ele>371.030</ele>
<time>2016-01-02T07:02:00.743Z</time>
</trkpt>
<trkpt lat="-27.0781628" lon="152.7970637">
<ele>372.224</ele>
<time>2016-01-02T07:02:04.305Z</time>
</trkpt>
<trkpt lat="-27.0783402" lon="152.7973446">
<ele>372.457</ele>
<time>2016-01-02T07:02:06.570Z</time>
</trkpt>
<trkpt lat="-27.0785154" lon="152.7977755">
<ele>371.583</ele>
<time>2016-01-02T07:02:09.451Z</time>
</trkpt>
<trkpt lat="-27.0786347" lon="152.7982474">
<ele>370.550</ele>
<time>2016-01-02T07:02:12.334Z</time>
</trkpt>
<trkpt lat="-27.0787572" lon="152.7985429">
<ele>370.328</ele>
<time>2016-01-02T07:02:14.280Z</time>
</trkpt>
<trkpt lat="-27.0789267" lon="152.7989545">
<ele>370.889</ele>
<time>2016-01-02T07:02:17.011Z</time>
</trkpt>
<trkpt lat="-27.0789626" lon="152.7992359">
<ele>371.666</ele>
<time>2016-01-02T07:02:18.767Z</time>
</trkpt>
<trkpt lat="-27.0788779" lon="152.7996613">
<ele>372.196</ele>
<time>2016-01-02T07:02:21.577Z</time>
</trkpt>
<trkpt lat="-27.0787744" lon="152.7999368">
<ele>372.388</ele>
<time>2016-01-02T07:02:23.612Z</time>
</trkpt>
<trkpt lat="-27.0785849" lon="152.8003407">
<ele>372.005</ele>
<time>2016-01-02T07:02:26.738Z</time>
</trkpt>
<trkpt lat="-27.0784027" lon="152.8006833">
<ele>370.459</ele>
<time>2016-01-02T07:02:29.396Z</time>
</trkpt>
<trkpt lat="-27.0784059" lon="152.8012122">
<ele>367.358</ele>
<time>2016-01-02T07:02:32.809Z</time>
</trkpt>
<trkpt lat="-27.0784444" lon="152.8015852">
<ele>363.623</ele>
<time>2016-01-02T07:02:35.115Z</time>
</trkpt>
<trkpt lat="-27.0784680" lon="152.8019150">
<ele>361.044</ele>
<time>2016-01-02T07:02:37.098Z</time>
</trkpt>
<trkpt lat="-27.0783954" lon="152.8021840">
<ele>360.361</ele>
<time>2016-01-02T07:02:38.739Z</time>
</trkpt>
<trkpt lat="-27.0783218" lon="152.8025121">
<ele>360.792</ele>
<time>2016-01-02T07:02:40.731Z</time>
</trkpt>
<trkpt lat="-27.0782702" lon="152.8028023">
<ele>361.331</ele>
<time>2016-01-02T07:02:42.562Z</time>
</trkpt>
<trkpt lat="-27.0780231" lon="152.8032861">
<ele>361.290</ele>
<time>2016-01-02T07:02:46.148Z</time>
</trkpt>
<trkpt lat="-27.0778526" lon="152.8035769">
<ele>359.930</ele>
<time>2016-01-02T07:02:48.244Z</time>
</trkpt>
<trkpt lat="-27.0776965" lon="152.8038680">
<ele>357.225</ele>
<time>2016-01-02T07:02:50.200Z</time>
</trkpt>
<trkpt lat="-27.0775967" lon="152.8041896">
<ele>354.570</ele>
<time>2016-01-02T07:02:52.114Z</time>
</trkpt>
<trkpt lat="-27.0775095" lon="152.8046721">
<ele>353.099</ele>
<time>2016-01-02T07:02:54.932Z</time>
</trkpt>
<trkpt lat="-27.0774656" lon="152.8049572">
<ele>352.481</ele>
<time>2016-01-02T07:02:56.763Z</time>
</trkpt>
<trkpt lat="-27.0772687" lon="152.8053266">
<ele>352.138</ele>
<time>2016-01-02T07:02:59.659Z</time>
</trkpt>
<trkpt lat="-27.0770680" lon="152.8055873">
<ele>352.644</ele>
<time>2016-01-02T07:03:02.057Z</time>
</trkpt>
<trkpt lat="-27.0767479" lon="152.8059774">
<ele>354.642</ele>
<time>2016-01-02T07:03:05.584Z</time>
</trkpt>
<trkpt lat="-27.0764084" lon="152.8062802">
<ele>357.254</ele>
<time>2016-01-02T07:03:08.632Z</time>
</trkpt>
<trkpt lat="-27.0761265" lon="152.8064718">
<ele>359.517</ele>
<time>2016-01-02T07:03:10.861Z</time>
</trkpt>
<trkpt lat="-27.0758642" lon="152.8066599">
<ele>361.300</ele>
<time>2016-01-02T07:03:12.872Z</time>
</trkpt>
<trkpt lat="-27.0755503" lon="152.8069644">
<ele>361.613</ele>
<time>2016-01-02T07:03:15.558Z</time>
</trkpt>
<trkpt lat="-27.0753686" lon="152.8071621">
<ele>358.812</ele>
<time>2016-01-02T07:03:17.251Z</time>
</trkpt>
<trkpt lat="-27.0752356" lon="152.8073667">
<ele>353.319</ele>
<time>2016-01-02T07:03:18.810Z</time>
</trkpt>
<trkpt lat="-27.0750208" lon="152.8076739">
<ele>347.451</ele>
<time>2016-01-02T07:03:21.361Z</time>
</trkpt>
<trkpt lat="-27.0748248" lon="152.8077793">
<ele>342.153</ele>
<time>2016-01-02T07:03:23.071Z</time>
</trkpt>
<trkpt lat="-27.0745951" lon="152.8077551">
<ele>337.154</ele>
<time>2016-01-02T07:03:24.939Z</time>
</trkpt>
<trkpt lat="-27.0742964" lon="152.8076436">
<ele>332.761</ele>
<time>2016-01-02T07:03:27.714Z</time>
</trkpt>
<trkpt lat="-27.0740570" lon="152.8075439">
<ele>328.754</ele>
<time>2016-01-02T07:03:29.988Z</time>
</trkpt>
<trkpt lat="-27.0737276" lon="152.8074172">
<ele>324.485</ele>
<time>2016-01-02T07:03:33.113Z</time>
</trkpt>
<trkpt lat="-27.0734570" lon="152.8073279">
<ele>320.094</ele>
<time>2016-01-02T07:03:35.603Z</time>
</trkpt>
<trkpt lat="-27.0730262" lon="152.8073519">
<ele>316.040</ele>
<time>2016-01-02T07:03:39.334Z</time>
</trkpt>
<trkpt lat="-27.0727530" lon="152.8074685">
<ele>312.232</ele>
<time>2016-01-02T07:03:41.692Z</time>
</trkpt>
<trkpt lat="-27.0725176" lon="152.8076090">
<ele>308.426</ele>
<time>2016-01-02T07:03:43.722Z</time>
</trkpt>
<trkpt lat="-27.0722218" lon="152.8079834">
<ele>305.060</ele>
<time>2016-01-02T07:03:46.995Z</time>
</trkpt>
<trkpt lat="-27.0720373" lon="152.8082827">
<ele>302.729</ele>
<time>2016-01-02T07:03:49.236Z</time>
</trkpt>
<trkpt lat="-27.0719497" lon="152.8086247">
<ele>301.156</ele>
<time>2016-01-02T07:03:51.290Z</time>
</trkpt>
<trkpt lat="-27.0718226" lon="152.8091057">
<ele>299.372</ele>
<time>2016-01-02T07:03:54.184Z</time>
</trkpt>
<trkpt lat="-27.0718324" lon="152.8093944">
<ele>295.685</ele>
<time>2016-01-02T07:03:55.901Z</time>
</trkpt>
<trkpt lat="-27.0716829" lon="152.8097586">
<ele>289.566</ele>
<time>2016-01-02T07:03:58.528Z</time>
</trkpt>
<trkpt lat="-27.0713878" lon="152.8101333">
<ele>282.616</ele>
<time>2016-01-02T07:04:02.040Z</time>
</trkpt>
<trkpt lat="-27.0712263" lon="152.8104767">
<ele>276.141</ele>
<time>2016-01-02T07:04:04.762Z</time>
</trkpt>
<trkpt lat="-27.0711207" lon="152.8106167">
<ele>270.035</ele>
<time>2016-01-02T07:04:06.056Z</time>
</trkpt>
<trkpt lat="-27.0708916" lon="152.8106021">
<ele>264.341</ele>
<time>2016-01-02T07:04:08.022Z</time>
</trkpt>
<trkpt lat="-27.0707327" lon="152.8105513">
<ele>259.372</ele>
<time>2016-01-02T07:04:09.769Z</time>
</trkpt>
<trkpt lat="-27.0703581" lon="152.8104232">
<ele>255.201</ele>
<time>2016-01-02T07:04:15.114Z</time>
</trkpt>
<trkpt lat="-27.0700846" lon="152.8104890">
<ele>251.736</ele>
<time>2016-01-02T07:04:18.032Z</time>
</trkpt>
<trkpt lat="-27.0697869" lon="152.8106322">
<ele>248.899</ele>
<time>2016-01-02T07:04:20.586Z</time>
</trkpt>
<trkpt lat="-27.0691756" lon="152.8109406">
<ele>246.415</ele>
<time>2016-01-02T07:04:25.106Z</time>
</trkpt>
<trkpt lat="-27.0689335" lon="152.8111087">
<ele>243.420</ele>
<time>2016-01-02T07:04:26.878Z</time>
</trkpt>
<trkpt lat="-27.0686868" lon="152.8112961">
<ele>239.524</ele>
<time>2016-01-02T07:04:28.799Z</time>
</trkpt>
<trkpt lat="-27.0684615" lon="152.8114629">
<ele>236.034</ele>
<time>2016-01-02T07:04:30.563Z</time>
</trkpt>
<trkpt lat="-27.0681206" lon="152.8117422">
<ele>234.858</ele>
<time>2016-01-02T07:04:33.368Z</time>
</trkpt>
<trkpt lat="-27.0678423" lon="152.8120833">
<ele>236.817</ele>
<time>2016-01-02T07:04:36.204Z</time>
</trkpt>
<trkpt lat="-27.0675788" lon="152.8124506">
<ele>241.706</ele>
<time>2016-01-02T07:04:39.209Z</time>
</trkpt>
<trkpt lat="-27.0673914" lon="152.8126839">
<ele>248.300</ele>
<time>2016-01-02T07:04:41.264Z</time>
</trkpt>
<trkpt lat="-27.0671377" lon="152.8128263">
<ele>254.653</ele>
<time>2016-01-02T07:04:43.373Z</time>
</trkpt>
<trkpt lat="-27.0669078" lon="152.8129493">
<ele>259.185</ele>
<time>2016-01-02T07:04:45.302Z</time>
</trkpt>
<trkpt lat="-27.0667116" lon="152.8132235">
<ele>261.684</ele>
<time>2016-01-02T07:04:47.878Z</time>
</trkpt>
<trkpt lat="-27.0668027" lon="152.8134121">
<ele>262.822</ele>
<time>2016-01-02T07:04:49.585Z</time>
</trkpt>
<trkpt lat="-27.0668560" lon="152.8136367">
<ele>263.384</ele>
<time>2016-01-02T07:04:51.675Z</time>
</trkpt>
<trkpt lat="-27.0668234" lon="152.8140247">
<ele>264.134</ele>
<time>2016-01-02T07:04:55.059Z</time>
</trkpt>
<trkpt lat="-27.0666595" lon="152.8143233">
<ele>265.307</ele>
<time>2016-01-02T07:04:57.913Z</time>
</trkpt>
<trkpt lat="-27.0666013" lon="152.8146167">
<ele>266.397</ele>
<time>2016-01-02T07:05:00.464Z</time>
</trkpt>
<trkpt lat="-27.0665454" lon="152.8148460">
<ele>267.008</ele>
<time>2016-01-02T07:05:02.614Z</time>
</trkpt>
<trkpt lat="-27.0662837" lon="152.8150453">
<ele>267.345</ele>
<time>2016-01-02T07:05:05.947Z</time>
</trkpt>
<trkpt lat="-27.0659973" lon="152.8151775">
<ele>267.649</ele>
<time>2016-01-02T07:05:09.095Z</time>
</trkpt>
<trkpt lat="-27.0658638" lon="152.8153741">
<ele>267.558</ele>
<time>2016-01-02T07:05:11.264Z</time>
</trkpt>
<trkpt lat="-27.0657263" lon="152.8157216">
<ele>266.761</ele>
<time>2016-01-02T07:05:14.397Z</time>
</trkpt>
<trkpt lat="-27.0657131" lon="152.8159285">
<ele>265.694</ele>
<time>2016-01-02T07:05:16.088Z</time>
</trkpt>
<trkpt lat="-27.0658661" lon="152.8161514">
<ele>264.541</ele>
<time>2016-01-02T07:05:18.479Z</time>
</trkpt>
<trkpt lat="-27.0660125" lon="152.8164457">
<ele>263.150</ele>
<time>2016-01-02T07:05:21.221Z</time>
</trkpt>
<trkpt lat="-27.0661563" lon="152.8167010">
<ele>261.748</ele>
<time>2016-01-02T07:05:23.371Z</time>
</trkpt>
<trkpt lat="-27.0663168" lon="152.8171038">
<ele>260.342</ele>
<time>2016-01-02T07:05:26.361Z</time>
</trkpt>
<trkpt lat="-27.0664222" lon="152.8176511">
<ele>258.296</ele>
<time>2016-01-02T07:05:29.814Z</time>
</trkpt>
<trkpt lat="-27.0665040" lon="152.8181247">
<ele>255.233</ele>
<time>2016-01-02T07:05:32.642Z</time>
</trkpt>
<trkpt lat="-27.0665413" lon="152.8184192">
<ele>251.297</ele>
<time>2016-01-02T07:05:34.469Z</time>
</trkpt>
<trkpt lat="-27.0666629" lon="152.8188434">
<ele>246.682</ele>
<time>2016-01-02T07:05:37.378Z</time>
</trkpt>
<trkpt lat="-27.0668372" lon="152.8190911">
<ele>241.449</ele>
<time>2016-01-02T07:05:39.454Z</time>
</trkpt>
<trkpt lat="-27.0670666" lon="152.8192710">
<ele>236.041</ele>
<time>2016-01-02T07:05:41.465Z</time>
</trkpt>
<trkpt lat="-27.0674895" lon="152.8194299">
<ele>231.692</ele>
<time>2016-01-02T07:05:44.420Z</time>
</trkpt>
<trkpt lat="-27.0677934" lon="152.8195469">
<ele>229.506</ele>
<time>2016-01-02T07:05:46.472Z</time>
</trkpt>
<trkpt lat="-27.0681151" lon="152.8197029">
<ele>229.377</ele>
<time>2016-01-02T07:05:48.920Z</time>
</trkpt>
<trkpt lat="-27.0682546" lon="152.8198771">
<ele>230.614</ele>
<time>2016-01-02T07:05:50.763Z</time>
</trkpt>
<trkpt lat="-27.0683477" lon="152.8202205">
<ele>232.460</ele>
<time>2016-01-02T07:05:53.897Z</time>
</trkpt>
<trkpt lat="-27.0683037" lon="152.8205182">
<ele>234.750</ele>
<time>2016-01-02T07:05:56.666Z</time>
</trkpt>
<trkpt lat="-27.0681629" lon="152.8207743">
<ele>238.150</ele>
<time>2016-01-02T07:05:59.223Z</time>
</trkpt>
<trkpt lat="-27.0679314" lon="152.8212706">
<ele>242.912</ele>
<time>2016-01-02T07:06:02.752Z</time>
</trkpt>
<trkpt lat="-27.0677266" lon="152.8216432">
<ele>248.410</ele>
<time>2016-01-02T07:06:05.137Z</time>
</trkpt>
<trkpt lat="-27.0674259" lon="152.8220321">
<ele>253.312</ele>
<time>2016-01-02T07:06:07.965Z</time>
</trkpt>
<trkpt lat="-27.0672935" lon="152.8223713">
<ele>256.340</ele>
<time>2016-01-02T07:06:10.266Z</time>
</trkpt>
<trkpt lat="-27.0672844" lon="152.8227164">
<ele>257.507</ele>
<time>2016-01-02T07:06:12.943Z</time>
</trkpt>
<trkpt lat="-27.0672412" lon="152.8228532">
<ele>257.845</ele>
<time>2016-01-02T07:06:14.708Z</time>
</trkpt>
<trkpt lat="-27.0671970" lon="152.8229645">
<ele>258.218</ele>
<time>2016-01-02T07:06:16.704Z</time>
</trkpt>
<trkpt lat="-27.0672943" lon="152.8231003">
<ele>258.997</ele>
<time>2016-01-02T07:06:20.748Z</time>
</trkpt>
<trkpt lat="-27.0675076" lon="152.8231505">
<ele>260.051</ele>
<time>2016-01-02T07:06:24.737Z</time>
</trkpt>
<trkpt lat="-27.0676639" lon="152.8233591">
<ele>261.252</ele>
<time>2016-01-02T07:06:27.837Z</time>
</trkpt>
<trkpt lat="-27.0677222" lon="152.8236145">
<ele>262.686</ele>
<time>2016-01-02T07:06:30.214Z</time>
</trkpt>
<trkpt lat="-27.0678646" lon="152.8240130">
<ele>264.164</ele>
<time>2016-01-02T07:06:33.658Z</time>
</trkpt>
<trkpt lat="-27.0681144" lon="152.8242697">
<ele>264.750</ele>
<time>2016-01-02T07:06:36.725Z</time>
</trkpt>
<trkpt lat="-27.0682750" lon="152.8243850">
<ele>263.919</ele>
<time>2016-01-02T07:06:38.841Z</time>
</trkpt>
<trkpt lat="-27.0684379" lon="152.8245075">
<ele>262.260</ele>
<time>2016-01-02T07:06:41.284Z</time>
</trkpt>
<trkpt lat="-27.0686000" lon="152.8246627">
<ele>260.394</ele>
<time>2016-01-02T07:06:44.062Z</time>
</trkpt>
<trkpt lat="-27.0687340" lon="152.8249132">
<ele>258.701</ele>
<time>2016-01-02T07:06:47.281Z</time>
</trkpt>
<trkpt lat="-27.0688209" lon="152.8251456">
<ele>258.059</ele>
<time>2016-01-02T07:06:50.333Z</time>
</trkpt>
<trkpt lat="-27.0688866" lon="152.8253087">
<ele>258.851</ele>
<time>2016-01-02T07:06:52.936Z</time>
</trkpt>
<trkpt lat="-27.0689392" lon="152.8254084">
<ele>260.177</ele>
<time>2016-01-02T07:06:54.770Z</time>
</trkpt>
<trkpt lat="-27.0690118" lon="152.8256064">
<ele>261.173</ele>
<time>2016-01-02T07:06:57.959Z</time>
</trkpt>
<trkpt lat="-27.0690636" lon="152.8257361">
<ele>261.944</ele>
<time>2016-01-02T07:07:00.044Z</time>
</trkpt>
<trkpt lat="-27.0691194" lon="152.8258350">
<ele>262.817</ele>
<time>2016-01-02T07:07:02.044Z</time>
</trkpt>
<trkpt lat="-27.0692063" lon="152.8259286">
<ele>263.820</ele>
<time>2016-01-02T07:07:04.965Z</time>
</trkpt>
<trkpt lat="-27.0692846" lon="152.8259795">
<ele>264.866</ele>
<time>2016-01-02T07:07:07.996Z</time>
</trkpt>
<trkpt lat="-27.0692846" lon="152.8259795">
<ele>265.803</ele>
<time>2016-01-02T07:07:10.996Z</time>
</trkpt>
<trkpt lat="-27.0692846" lon="152.8259795">
<ele>266.254</ele>
<time>2016-01-02T07:08:07.719Z</time>
</trkpt>
<trkpt lat="-27.0693871" lon="152.8260991">
<ele>266.101</ele>
<time>2016-01-02T07:08:16.164Z</time>
</trkpt>
<trkpt lat="-27.0694770" lon="152.8262152">
<ele>266.293</ele>
<time>2016-01-02T07:08:19.284Z</time>
</trkpt>
<trkpt lat="-27.0695413" lon="152.8263075">
<ele>267.513</ele>
<time>2016-01-02T07:08:21.348Z</time>
</trkpt>
<trkpt lat="-27.0696125" lon="152.8264546">
<ele>268.847</ele>
<time>2016-01-02T07:08:24.196Z</time>
</trkpt>
<trkpt lat="-27.0696391" lon="152.8265674">
<ele>269.307</ele>
<time>2016-01-02T07:08:25.997Z</time>
</trkpt>
<trkpt lat="-27.0696543" lon="152.8267835">
<ele>269.123</ele>
<time>2016-01-02T07:08:29.131Z</time>
</trkpt>
<trkpt lat="-27.0696658" lon="152.8269328">
<ele>268.951</ele>
<time>2016-01-02T07:08:31.098Z</time>
</trkpt>
<trkpt lat="-27.0696144" lon="152.8270648">
<ele>269.196</ele>
<time>2016-01-02T07:08:32.966Z</time>
</trkpt>
<trkpt lat="-27.0695627" lon="152.8272130">
<ele>269.814</ele>
<time>2016-01-02T07:08:35.203Z</time>
</trkpt>
<trkpt lat="-27.0694979" lon="152.8274504">
<ele>270.520</ele>
<time>2016-01-02T07:08:38.780Z</time>
</trkpt>
<trkpt lat="-27.0694744" lon="152.8275834">
<ele>271.211</ele>
<time>2016-01-02T07:08:40.608Z</time>
</trkpt>
<trkpt lat="-27.0694858" lon="152.8278689">
<ele>272.027</ele>
<time>2016-01-02T07:08:43.882Z</time>
</trkpt>
<trkpt lat="-27.0695000" lon="152.8280962">
<ele>273.125</ele>
<time>2016-01-02T07:08:46.267Z</time>
</trkpt>
<trkpt lat="-27.0695364" lon="152.8282949">
<ele>274.478</ele>
<time>2016-01-02T07:08:48.260Z</time>
</trkpt>
<trkpt lat="-27.0695660" lon="152.8285966">
<ele>275.753</ele>
<time>2016-01-02T07:08:51.072Z</time>
</trkpt>
<trkpt lat="-27.0695432" lon="152.8288163">
<ele>276.551</ele>
<time>2016-01-02T07:08:53.067Z</time>
</trkpt>
<trkpt lat="-27.0695226" lon="152.8291320">
<ele>276.856</ele>
<time>2016-01-02T07:08:55.947Z</time>
</trkpt>
<trkpt lat="-27.0695058" lon="152.8293483">
<ele>276.936</ele>
<time>2016-01-02T07:08:58.073Z</time>
</trkpt>
<trkpt lat="-27.0694947" lon="152.8295587">
<ele>277.002</ele>
<time>2016-01-02T07:09:00.211Z</time>
</trkpt>
<trkpt lat="-27.0695569" lon="152.8298575">
<ele>277.108</ele>
<time>2016-01-02T07:09:03.421Z</time>
</trkpt>
<trkpt lat="-27.0696642" lon="152.8299963">
<ele>277.701</ele>
<time>2016-01-02T07:09:05.342Z</time>
</trkpt>
<trkpt lat="-27.0698338" lon="152.8302155">
<ele>279.252</ele>
<time>2016-01-02T07:09:08.302Z</time>
</trkpt>
<trkpt lat="-27.0699936" lon="152.8304696">
<ele>281.121</ele>
<time>2016-01-02T07:09:11.425Z</time>
</trkpt>
<trkpt lat="-27.0701276" lon="152.8305986">
<ele>282.438</ele>
<time>2016-01-02T07:09:13.442Z</time>
</trkpt>
<trkpt lat="-27.0702806" lon="152.8306912">
<ele>283.167</ele>
<time>2016-01-02T07:09:15.487Z</time>
</trkpt>
<trkpt lat="-27.0705449" lon="152.8307589">
<ele>283.507</ele>
<time>2016-01-02T07:09:19.011Z</time>
</trkpt>
<trkpt lat="-27.0706740" lon="152.8307926">
<ele>283.606</ele>
<time>2016-01-02T07:09:20.603Z</time>
</trkpt>
<trkpt lat="-27.0708378" lon="152.8307689">
<ele>283.514</ele>
<time>2016-01-02T07:09:22.551Z</time>
</trkpt>
<trkpt lat="-27.0710393" lon="152.8308209">
<ele>283.220</ele>
<time>2016-01-02T07:09:25.065Z</time>
</trkpt>
<trkpt lat="-27.0712009" lon="152.8308631">
<ele>282.892</ele>
<time>2016-01-02T07:09:27.177Z</time>
</trkpt>
<trkpt lat="-27.0713500" lon="152.8309385">
<ele>282.710</ele>
<time>2016-01-02T07:09:29.396Z</time>
</trkpt>
<trkpt lat="-27.0715485" lon="152.8310358">
<ele>282.387</ele>
<time>2016-01-02T07:09:32.400Z</time>
</trkpt>
<trkpt lat="-27.0716842" lon="152.8310792">
<ele>281.523</ele>
<time>2016-01-02T07:09:34.280Z</time>
</trkpt>
<trkpt lat="-27.0719220" lon="152.8310458">
<ele>280.384</ele>
<time>2016-01-02T07:09:37.366Z</time>
</trkpt>
<trkpt lat="-27.0720799" lon="152.8309995">
<ele>279.344</ele>
<time>2016-01-02T07:09:39.611Z</time>
</trkpt>
<trkpt lat="-27.0723503" lon="152.8309882">
<ele>278.074</ele>
<time>2016-01-02T07:09:43.808Z</time>
</trkpt>
<trkpt lat="-27.0724700" lon="152.8309781">
<ele>276.029</ele>
<time>2016-01-02T07:09:45.629Z</time>
</trkpt>
<trkpt lat="-27.0726130" lon="152.8309118">
<ele>273.276</ele>
<time>2016-01-02T07:09:47.937Z</time>
</trkpt>
<trkpt lat="-27.0727248" lon="152.8308308">
<ele>270.562</ele>
<time>2016-01-02T07:09:49.889Z</time>
</trkpt>
<trkpt lat="-27.0728908" lon="152.8306697">
<ele>268.457</ele>
<time>2016-01-02T07:09:52.926Z</time>
</trkpt>
<trkpt lat="-27.0730390" lon="152.8305013">
<ele>266.783</ele>
<time>2016-01-02T07:09:55.604Z</time>
</trkpt>
<trkpt lat="-27.0732023" lon="152.8303268">
<ele>265.148</ele>
<time>2016-01-02T07:09:58.306Z</time>
</trkpt>
<trkpt lat="-27.0733222" lon="152.8301947">
<ele>263.287</ele>
<time>2016-01-02T07:10:00.162Z</time>
</trkpt>
<trkpt lat="-27.0735218" lon="152.8300144">
<ele>261.162</ele>
<time>2016-01-02T07:10:02.899Z</time>
</trkpt>
<trkpt lat="-27.0737406" lon="152.8297963">
<ele>259.207</ele>
<time>2016-01-02T07:10:06.127Z</time>
</trkpt>
<trkpt lat="-27.0739260" lon="152.8297257">
<ele>258.003</ele>
<time>2016-01-02T07:10:08.584Z</time>
</trkpt>
<trkpt lat="-27.0741611" lon="152.8296181">
<ele>257.836</ele>
<time>2016-01-02T07:10:11.863Z</time>
</trkpt>
<trkpt lat="-27.0744119" lon="152.8296651">
<ele>258.549</ele>
<time>2016-01-02T07:10:14.745Z</time>
</trkpt>
<trkpt lat="-27.0745628" lon="152.8296884">
<ele>259.510</ele>
<time>2016-01-02T07:10:16.289Z</time>
</trkpt>
<trkpt lat="-27.0748731" lon="152.8298390">
<ele>259.987</ele>
<time>2016-01-02T07:10:19.557Z</time>
</trkpt>
<trkpt lat="-27.0751455" lon="152.8299569">
<ele>259.508</ele>
<time>2016-01-02T07:10:22.347Z</time>
</trkpt>
<trkpt lat="-27.0754029" lon="152.8300903">
<ele>257.854</ele>
<time>2016-01-02T07:10:25.139Z</time>
</trkpt>
<trkpt lat="-27.0755806" lon="152.8302295">
<ele>255.269</ele>
<time>2016-01-02T07:10:27.425Z</time>
</trkpt>
<trkpt lat="-27.0758233" lon="152.8304339">
<ele>252.682</ele>
<time>2016-01-02T07:10:30.856Z</time>
</trkpt>
<trkpt lat="-27.0759217" lon="152.8305831">
<ele>251.031</ele>
<time>2016-01-02T07:10:32.736Z</time>
</trkpt>
<trkpt lat="-27.0760319" lon="152.8307386">
<ele>250.367</ele>
<time>2016-01-02T07:10:34.794Z</time>
</trkpt>
<trkpt lat="-27.0761464" lon="152.8308954">
<ele>249.989</ele>
<time>2016-01-02T07:10:36.983Z</time>
</trkpt>
<trkpt lat="-27.0762355" lon="152.8309624">
<ele>249.266</ele>
<time>2016-01-02T07:10:38.353Z</time>
</trkpt>
<trkpt lat="-27.0765001" lon="152.8312275">
<ele>248.041</ele>
<time>2016-01-02T07:10:43.184Z</time>
</trkpt>
<trkpt lat="-27.0766400" lon="152.8312957">
<ele>246.262</ele>
<time>2016-01-02T07:10:45.515Z</time>
</trkpt>
<trkpt lat="-27.0767906" lon="152.8313659">
<ele>243.787</ele>
<time>2016-01-02T07:10:47.974Z</time>
</trkpt>
<trkpt lat="-27.0769310" lon="152.8314286">
<ele>240.843</ele>
<time>2016-01-02T07:10:50.208Z</time>
</trkpt>
<trkpt lat="-27.0770735" lon="152.8315136">
<ele>237.778</ele>
<time>2016-01-02T07:10:52.410Z</time>
</trkpt>
<trkpt lat="-27.0771879" lon="152.8315728">
<ele>234.910</ele>
<time>2016-01-02T07:10:54.047Z</time>
</trkpt>
<trkpt lat="-27.0773133" lon="152.8317114">
<ele>232.658</ele>
<time>2016-01-02T07:10:56.262Z</time>
</trkpt>
<trkpt lat="-27.0774072" lon="152.8319607">
<ele>231.011</ele>
<time>2016-01-02T07:10:59.154Z</time>
</trkpt>
<trkpt lat="-27.0774695" lon="152.8321967">
<ele>229.385</ele>
<time>2016-01-02T07:11:01.684Z</time>
</trkpt>
<trkpt lat="-27.0775210" lon="152.8324102">
<ele>226.948</ele>
<time>2016-01-02T07:11:03.934Z</time>
</trkpt>
<trkpt lat="-27.0775804" lon="152.8325766">
<ele>223.464</ele>
<time>2016-01-02T07:11:05.773Z</time>
</trkpt>
<trkpt lat="-27.0776538" lon="152.8327810">
<ele>219.647</ele>
<time>2016-01-02T07:11:08.057Z</time>
</trkpt>
<trkpt lat="-27.0777683" lon="152.8330474">
<ele>216.211</ele>
<time>2016-01-02T07:11:11.187Z</time>
</trkpt>
<trkpt lat="-27.0778465" lon="152.8331752">
<ele>213.255</ele>
<time>2016-01-02T07:11:12.874Z</time>
</trkpt>
<trkpt lat="-27.0779424" lon="152.8333326">
<ele>210.760</ele>
<time>2016-01-02T07:11:15.003Z</time>
</trkpt>
<trkpt lat="-27.0781212" lon="152.8335006">
<ele>208.721</ele>
<time>2016-01-02T07:11:18.051Z</time>
</trkpt>
<trkpt lat="-27.0782469" lon="152.8336391">
<ele>206.801</ele>
<time>2016-01-02T07:11:20.493Z</time>
</trkpt>
<trkpt lat="-27.0784036" lon="152.8338203">
<ele>204.642</ele>
<time>2016-01-02T07:11:23.465Z</time>
</trkpt>
<trkpt lat="-27.0785556" lon="152.8339673">
<ele>202.391</ele>
<time>2016-01-02T07:11:25.923Z</time>
</trkpt>
<trkpt lat="-27.0786850" lon="152.8340975">
<ele>200.242</ele>
<time>2016-01-02T07:11:28.007Z</time>
</trkpt>
<trkpt lat="-27.0787987" lon="152.8342056">
<ele>198.249</ele>
<time>2016-01-02T07:11:29.826Z</time>
</trkpt>
<trkpt lat="-27.0789681" lon="152.8344037">
<ele>196.594</ele>
<time>2016-01-02T07:11:33.352Z</time>
</trkpt>
<trkpt lat="-27.0790583" lon="152.8345987">
<ele>194.995</ele>
<time>2016-01-02T07:11:36.332Z</time>
</trkpt>
<trkpt lat="-27.0791179" lon="152.8347370">
<ele>192.762</ele>
<time>2016-01-02T07:11:38.011Z</time>
</trkpt>
<trkpt lat="-27.0790836" lon="152.8349303">
<ele>189.522</ele>
<time>2016-01-02T07:11:39.929Z</time>
</trkpt>
<trkpt lat="-27.0789048" lon="152.8351196">
<ele>185.206</ele>
<time>2016-01-02T07:11:42.090Z</time>
</trkpt>
<trkpt lat="-27.0785476" lon="152.8351350">
<ele>180.131</ele>
<time>2016-01-02T07:11:45.431Z</time>
</trkpt>
<trkpt lat="-27.0781864" lon="152.8351936">
<ele>175.345</ele>
<time>2016-01-02T07:11:50.394Z</time>
</trkpt>
<trkpt lat="-27.0780018" lon="152.8352258">
<ele>171.600</ele>
<time>2016-01-02T07:11:53.660Z</time>
</trkpt>
<trkpt lat="-27.0777960" lon="152.8352314">
<ele>168.939</ele>
<time>2016-01-02T07:11:56.423Z</time>
</trkpt>
<trkpt lat="-27.0777216" lon="152.8353636">
<ele>167.394</ele>
<time>2016-01-02T07:11:58.107Z</time>
</trkpt>
<trkpt lat="-27.0777442" lon="152.8355028">
<ele>167.064</ele>
<time>2016-01-02T07:11:59.593Z</time>
</trkpt>
<trkpt lat="-27.0778652" lon="152.8356255">
<ele>167.915</ele>
<time>2016-01-02T07:12:01.540Z</time>
</trkpt>
<trkpt lat="-27.0780218" lon="152.8358440">
<ele>169.975</ele>
<time>2016-01-02T07:12:04.612Z</time>
</trkpt>
<trkpt lat="-27.0781597" lon="152.8361072">
<ele>173.441</ele>
<time>2016-01-02T07:12:07.965Z</time>
</trkpt>
<trkpt lat="-27.0782419" lon="152.8362574">
<ele>177.981</ele>
<time>2016-01-02T07:12:10.070Z</time>
</trkpt>
<trkpt lat="-27.0783548" lon="152.8364774">
<ele>182.442</ele>
<time>2016-01-02T07:12:13.546Z</time>
</trkpt>
<trkpt lat="-27.0784409" lon="152.8366202">
<ele>186.130</ele>
<time>2016-01-02T07:12:16.289Z</time>
</trkpt>
<trkpt lat="-27.0785530" lon="152.8368314">
<ele>189.207</ele>
<time>2016-01-02T07:12:20.503Z</time>
</trkpt>
<trkpt lat="-27.0785931" lon="152.8369840">
<ele>191.518</ele>
<time>2016-01-02T07:12:23.838Z</time>
</trkpt>
<trkpt lat="-27.0786471" lon="152.8371794">
<ele>192.515</ele>
<time>2016-01-02T07:12:28.237Z</time>
</trkpt>
<trkpt lat="-27.0786603" lon="152.8373139">
<ele>192.000</ele>
<time>2016-01-02T07:12:30.683Z</time>
</trkpt>
<trkpt lat="-27.0786196" lon="152.8374365">
<ele>190.466</ele>
<time>2016-01-02T07:12:32.670Z</time>
</trkpt>
<trkpt lat="-27.0785562" lon="152.8375422">
<ele>188.525</ele>
<time>2016-01-02T07:12:34.370Z</time>
</trkpt>
<trkpt lat="-27.0784969" lon="152.8376400">
<ele>186.429</ele>
<time>2016-01-02T07:12:35.738Z</time>
</trkpt>
<trkpt lat="-27.0784117" lon="152.8377840">
<ele>184.417</ele>
<time>2016-01-02T07:12:37.646Z</time>
</trkpt>
<trkpt lat="-27.0783611" lon="152.8378997">
<ele>182.723</ele>
<time>2016-01-02T07:12:38.953Z</time>
</trkpt>
<trkpt lat="-27.0783250" lon="152.8380313">
<ele>181.222</ele>
<time>2016-01-02T07:12:40.319Z</time>
</trkpt>
<trkpt lat="-27.0782516" lon="152.8382896">
<ele>179.720</ele>
<time>2016-01-02T07:12:42.946Z</time>
</trkpt>
<trkpt lat="-27.0782312" lon="152.8384792">
<ele>178.133</ele>
<time>2016-01-02T07:12:44.728Z</time>
</trkpt>
<trkpt lat="-27.0782147" lon="152.8387797">
<ele>176.177</ele>
<time>2016-01-02T07:12:47.417Z</time>
</trkpt>
<trkpt lat="-27.0782710" lon="152.8391094">
<ele>173.180</ele>
<time>2016-01-02T07:12:50.606Z</time>
</trkpt>
<trkpt lat="-27.0783261" lon="152.8394781">
<ele>168.712</ele>
<time>2016-01-02T07:12:54.492Z</time>
</trkpt>
<trkpt lat="-27.0782784" lon="152.8397312">
<ele>163.073</ele>
<time>2016-01-02T07:12:57.309Z</time>
</trkpt>
<trkpt lat="-27.0782611" lon="152.8400114">
<ele>156.880</ele>
<time>2016-01-02T07:13:00.445Z</time>
</trkpt>
<trkpt lat="-27.0783312" lon="152.8402423">
<ele>151.098</ele>
<time>2016-01-02T07:13:02.914Z</time>
</trkpt>
<trkpt lat="-27.0783808" lon="152.8403959">
<ele>146.907</ele>
<time>2016-01-02T07:13:04.427Z</time>
</trkpt>
<trkpt lat="-27.0783801" lon="152.8405720">
<ele>144.538</ele>
<time>2016-01-02T07:13:05.837Z</time>
</trkpt>
<trkpt lat="-27.0783358" lon="152.8408996">
<ele>143.097</ele>
<time>2016-01-02T07:13:08.314Z</time>
</trkpt>
<trkpt lat="-27.0782463" lon="152.8411756">
<ele>141.479</ele>
<time>2016-01-02T07:13:10.444Z</time>
</trkpt>
<trkpt lat="-27.0780462" lon="152.8415976">
<ele>138.898</ele>
<time>2016-01-02T07:13:14.056Z</time>
</trkpt>
<trkpt lat="-27.0779136" lon="152.8419250">
<ele>135.170</ele>
<time>2016-01-02T07:13:16.915Z</time>
</trkpt>
<trkpt lat="-27.0778276" lon="152.8422694">
<ele>131.202</ele>
<time>2016-01-02T07:13:19.835Z</time>
</trkpt>
<trkpt lat="-27.0776697" lon="152.8426147">
<ele>128.212</ele>
<time>2016-01-02T07:13:23.139Z</time>
</trkpt>
<trkpt lat="-27.0774247" lon="152.8428537">
<ele>125.772</ele>
<time>2016-01-02T07:13:26.323Z</time>
</trkpt>
<trkpt lat="-27.0771698" lon="152.8430731">
<ele>122.196</ele>
<time>2016-01-02T07:13:29.437Z</time>
</trkpt>
<trkpt lat="-27.0770818" lon="152.8433826">
<ele>117.744</ele>
<time>2016-01-02T07:13:32.201Z</time>
</trkpt>
<trkpt lat="-27.0770441" lon="152.8436196">
<ele>114.476</ele>
<time>2016-01-02T07:13:34.203Z</time>
</trkpt>
<trkpt lat="-27.0769222" lon="152.8439270">
<ele>113.190</ele>
<time>2016-01-02T07:13:36.868Z</time>
</trkpt>
<trkpt lat="-27.0768070" lon="152.8441460">
<ele>112.752</ele>
<time>2016-01-02T07:13:38.749Z</time>
</trkpt>
<trkpt lat="-27.0766504" lon="152.8444899">
<ele>111.709</ele>
<time>2016-01-02T07:13:41.714Z</time>
</trkpt>
<trkpt lat="-27.0765778" lon="152.8447773">
<ele>109.442</ele>
<time>2016-01-02T07:13:44.146Z</time>
</trkpt>
<trkpt lat="-27.0765266" lon="152.8451178">
<ele>106.749</ele>
<time>2016-01-02T07:13:46.930Z</time>
</trkpt>
<trkpt lat="-27.0764333" lon="152.8453362">
<ele>104.982</ele>
<time>2016-01-02T07:13:48.751Z</time>
</trkpt>
<trkpt lat="-27.0762634" lon="152.8456277">
<ele>104.998</ele>
<time>2016-01-02T07:13:51.260Z</time>
</trkpt>
<trkpt lat="-27.0760143" lon="152.8459485">
<ele>106.778</ele>
<time>2016-01-02T07:13:54.114Z</time>
</trkpt>
<trkpt lat="-27.0758223" lon="152.8462016">
<ele>109.465</ele>
<time>2016-01-02T07:13:56.357Z</time>
</trkpt>
<trkpt lat="-27.0756199" lon="152.8464218">
<ele>111.797</ele>
<time>2016-01-02T07:13:58.627Z</time>
</trkpt>
<trkpt lat="-27.0754205" lon="152.8466190">
<ele>113.038</ele>
<time>2016-01-02T07:14:00.696Z</time>
</trkpt>
<trkpt lat="-27.0752704" lon="152.8469410">
<ele>113.265</ele>
<time>2016-01-02T07:14:03.071Z</time>
</trkpt>
<trkpt lat="-27.0750826" lon="152.8474078">
<ele>112.516</ele>
<time>2016-01-02T07:14:06.236Z</time>
</trkpt>
<trkpt lat="-27.0749536" lon="152.8478933">
<ele>110.137</ele>
<time>2016-01-02T07:14:09.591Z</time>
</trkpt>
<trkpt lat="-27.0748746" lon="152.8481794">
<ele>105.930</ele>
<time>2016-01-02T07:14:11.784Z</time>
</trkpt>
<trkpt lat="-27.0747375" lon="152.8485848">
<ele>101.118</ele>
<time>2016-01-02T07:14:15.129Z</time>
</trkpt>
<trkpt lat="-27.0746538" lon="152.8489826">
<ele>97.444</ele>
<time>2016-01-02T07:14:18.247Z</time>
</trkpt>
<trkpt lat="-27.0746492" lon="152.8492485">
<ele>95.760</ele>
<time>2016-01-02T07:14:20.178Z</time>
</trkpt>
<trkpt lat="-27.0747109" lon="152.8496929">
<ele>95.598</ele>
<time>2016-01-02T07:14:23.320Z</time>
</trkpt>
<trkpt lat="-27.0747367" lon="152.8499917">
<ele>95.901</ele>
<time>2016-01-02T07:14:25.377Z</time>
</trkpt>
<trkpt lat="-27.0747625" lon="152.8504175">
<ele>95.934</ele>
<time>2016-01-02T07:14:28.349Z</time>
</trkpt>
<trkpt lat="-27.0747552" lon="152.8507199">
<ele>95.583</ele>
<time>2016-01-02T07:14:30.460Z</time>
</trkpt>
<trkpt lat="-27.0747273" lon="152.8509843">
<ele>94.775</ele>
<time>2016-01-02T07:14:32.301Z</time>
</trkpt>
<trkpt lat="-27.0746602" lon="152.8514226">
<ele>93.160</ele>
<time>2016-01-02T07:14:35.372Z</time>
</trkpt>
<trkpt lat="-27.0745762" lon="152.8518540">
<ele>90.726</ele>
<time>2016-01-02T07:14:38.247Z</time>
</trkpt>
<trkpt lat="-27.0745536" lon="152.8523003">
<ele>88.010</ele>
<time>2016-01-02T07:14:40.875Z</time>
</trkpt>
<trkpt lat="-27.0745744" lon="152.8526608">
<ele>85.640</ele>
<time>2016-01-02T07:14:42.951Z</time>
</trkpt>
<trkpt lat="-27.0746771" lon="152.8531777">
<ele>83.745</ele>
<time>2016-01-02T07:14:46.032Z</time>
</trkpt>
<trkpt lat="-27.0748237" lon="152.8536732">
<ele>81.868</ele>
<time>2016-01-02T07:14:49.101Z</time>
</trkpt>
<trkpt lat="-27.0749563" lon="152.8541556">
<ele>79.868</ele>
<time>2016-01-02T07:14:52.085Z</time>
</trkpt>
<trkpt lat="-27.0751088" lon="152.8546380">
<ele>78.222</ele>
<time>2016-01-02T07:14:55.102Z</time>
</trkpt>
<trkpt lat="-27.0752766" lon="152.8550997">
<ele>77.127</ele>
<time>2016-01-02T07:14:58.018Z</time>
</trkpt>
<trkpt lat="-27.0754856" lon="152.8555486">
<ele>76.356</ele>
<time>2016-01-02T07:15:01.045Z</time>
</trkpt>
<trkpt lat="-27.0757012" lon="152.8560101">
<ele>75.505</ele>
<time>2016-01-02T07:15:04.506Z</time>
</trkpt>
<trkpt lat="-27.0758239" lon="152.8562748">
<ele>74.220</ele>
<time>2016-01-02T07:15:06.547Z</time>
</trkpt>
<trkpt lat="-27.0760740" lon="152.8565890">
<ele>72.466</ele>
<time>2016-01-02T07:15:09.318Z</time>
</trkpt>
<trkpt lat="-27.0763020" lon="152.8567333">
<ele>70.415</ele>
<time>2016-01-02T07:15:11.204Z</time>
</trkpt>
<trkpt lat="-27.0765615" lon="152.8568176">
<ele>68.274</ele>
<time>2016-01-02T07:15:13.056Z</time>
</trkpt>
<trkpt lat="-27.0769844" lon="152.8568778">
<ele>66.208</ele>
<time>2016-01-02T07:15:15.946Z</time>
</trkpt>
<trkpt lat="-27.0774275" lon="152.8569368">
<ele>64.439</ele>
<time>2016-01-02T07:15:19.081Z</time>
</trkpt>
<trkpt lat="-27.0778646" lon="152.8570055">
<ele>63.231</ele>
<time>2016-01-02T07:15:22.355Z</time>
</trkpt>
<trkpt lat="-27.0782427" lon="152.8571143">
<ele>62.572</ele>
<time>2016-01-02T07:15:25.217Z</time>
</trkpt>
<trkpt lat="-27.0785706" lon="152.8573858">
<ele>62.282</ele>
<time>2016-01-02T07:15:28.074Z</time>
</trkpt>
<trkpt lat="-27.0787440" lon="152.8576344">
<ele>62.407</ele>
<time>2016-01-02T07:15:29.986Z</time>
</trkpt>
<trkpt lat="-27.0789822" lon="152.8580650">
<ele>63.166</ele>
<time>2016-01-02T07:15:32.932Z</time>
</trkpt>
<trkpt lat="-27.0791196" lon="152.8585469">
<ele>64.544</ele>
<time>2016-01-02T07:15:35.734Z</time>
</trkpt>
<trkpt lat="-27.0791812" lon="152.8589144">
<ele>65.846</ele>
<time>2016-01-02T07:15:37.852Z</time>
</trkpt>
<trkpt lat="-27.0792370" lon="152.8592635">
<ele>66.432</ele>
<time>2016-01-02T07:15:39.935Z</time>
</trkpt>
<trkpt lat="-27.0792996" lon="152.8597754">
<ele>66.125</ele>
<time>2016-01-02T07:15:43.133Z</time>
</trkpt>
<trkpt lat="-27.0793866" lon="152.8600967">
<ele>64.841</ele>
<time>2016-01-02T07:15:45.342Z</time>
</trkpt>
<trkpt lat="-27.0794392" lon="152.8603755">
<ele>62.829</ele>
<time>2016-01-02T07:15:47.313Z</time>
</trkpt>
<trkpt lat="-27.0795331" lon="152.8607260">
<ele>60.658</ele>
<time>2016-01-02T07:15:49.787Z</time>
</trkpt>
<trkpt lat="-27.0796575" lon="152.8609924">
<ele>58.850</ele>
<time>2016-01-02T07:15:51.757Z</time>
</trkpt>
<trkpt lat="-27.0798325" lon="152.8611721">
<ele>58.121</ele>
<time>2016-01-02T07:15:53.468Z</time>
</trkpt>
<trkpt lat="-27.0800608" lon="152.8613902">
<ele>58.764</ele>
<time>2016-01-02T07:15:55.643Z</time>
</trkpt>
<trkpt lat="-27.0804047" lon="152.8616661">
<ele>60.035</ele>
<time>2016-01-02T07:15:58.870Z</time>
</trkpt>
<trkpt lat="-27.0806365" lon="152.8618321">
<ele>60.977</ele>
<time>2016-01-02T07:16:01.005Z</time>
</trkpt>
<trkpt lat="-27.0808466" lon="152.8619781">
<ele>61.239</ele>
<time>2016-01-02T07:16:02.888Z</time>
</trkpt>
<trkpt lat="-27.0810797" lon="152.8620734">
<ele>60.818</ele>
<time>2016-01-02T07:16:04.745Z</time>
</trkpt>
<trkpt lat="-27.0814876" lon="152.8621944">
<ele>59.845</ele>
<time>2016-01-02T07:16:07.921Z</time>
</trkpt>
<trkpt lat="-27.0818854" lon="152.8622926">
<ele>58.714</ele>
<time>2016-01-02T07:16:10.841Z</time>
</trkpt>
<trkpt lat="-27.0822117" lon="152.8625099">
<ele>57.905</ele>
<time>2016-01-02T07:16:13.374Z</time>
</trkpt>
<trkpt lat="-27.0825132" lon="152.8629090">
<ele>57.718</ele>
<time>2016-01-02T07:16:16.366Z</time>
</trkpt>
<trkpt lat="-27.0828110" lon="152.8633182">
<ele>58.097</ele>
<time>2016-01-02T07:16:19.373Z</time>
</trkpt>
<trkpt lat="-27.0831199" lon="152.8637358">
<ele>58.373</ele>
<time>2016-01-02T07:16:22.467Z</time>
</trkpt>
<trkpt lat="-27.0834266" lon="152.8641379">
<ele>58.058</ele>
<time>2016-01-02T07:16:25.422Z</time>
</trkpt>
<trkpt lat="-27.0836608" lon="152.8645977">
<ele>57.518</ele>
<time>2016-01-02T07:16:28.237Z</time>
</trkpt>
<trkpt lat="-27.0837924" lon="152.8649374">
<ele>57.449</ele>
<time>2016-01-02T07:16:30.179Z</time>
</trkpt>
<trkpt lat="-27.0839924" lon="152.8654594">
<ele>58.119</ele>
<time>2016-01-02T07:16:33.150Z</time>
</trkpt>
<trkpt lat="-27.0841078" lon="152.8658146">
<ele>59.485</ele>
<time>2016-01-02T07:16:35.165Z</time>
</trkpt>
<trkpt lat="-27.0843062" lon="152.8663325">
<ele>61.236</ele>
<time>2016-01-02T07:16:38.385Z</time>
</trkpt>
<trkpt lat="-27.0844464" lon="152.8666397">
<ele>63.023</ele>
<time>2016-01-02T07:16:40.475Z</time>
</trkpt>
<trkpt lat="-27.0846068" lon="152.8671053">
<ele>64.775</ele>
<time>2016-01-02T07:16:43.816Z</time>
</trkpt>
<trkpt lat="-27.0847854" lon="152.8675896">
<ele>66.614</ele>
<time>2016-01-02T07:16:50.993Z</time>
</trkpt>
<trkpt lat="-27.0849262" lon="152.8679000">
<ele>68.747</ele>
<time>2016-01-02T07:16:57.343Z</time>
</trkpt>
<trkpt lat="-27.0849924" lon="152.8679776">
<ele>71.028</ele>
<time>2016-01-02T07:16:58.283Z</time>
</trkpt>
<trkpt lat="-27.0850516" lon="152.8680570">
<ele>72.521</ele>
<time>2016-01-02T07:16:59.150Z</time>
</trkpt>
<trkpt lat="-27.0851418" lon="152.8680801">
<ele>72.264</ele>
<time>2016-01-02T07:16:59.878Z</time>
</trkpt>
<trkpt lat="-27.0853079" lon="152.8679080">
<ele>70.479</ele>
<time>2016-01-02T07:17:01.656Z</time>
</trkpt>
<trkpt lat="-27.0854620" lon="152.8677097">
<ele>68.536</ele>
<time>2016-01-02T07:17:03.358Z</time>
</trkpt>
<trkpt lat="-27.0857237" lon="152.8673437">
<ele>67.505</ele>
<time>2016-01-02T07:17:06.294Z</time>
</trkpt>
<trkpt lat="-27.0858888" lon="152.8670819">
<ele>67.131</ele>
<time>2016-01-02T07:17:08.368Z</time>
</trkpt>
<trkpt lat="-27.0861438" lon="152.8667071">
<ele>66.848</ele>
<time>2016-01-02T07:17:11.586Z</time>
</trkpt>
<trkpt lat="-27.0863727" lon="152.8663548">
<ele>66.127</ele>
<time>2016-01-02T07:17:14.631Z</time>
</trkpt>
<trkpt lat="-27.0865413" lon="152.8661566">
<ele>63.975</ele>
<time>2016-01-02T07:17:16.349Z</time>
</trkpt>
<trkpt lat="-27.0868758" lon="152.8659372">
<ele>59.876</ele>
<time>2016-01-02T07:17:18.897Z</time>
</trkpt>
<trkpt lat="-27.0873622" lon="152.8658193">
<ele>55.085</ele>
<time>2016-01-02T07:17:21.963Z</time>
</trkpt>
<trkpt lat="-27.0877083" lon="152.8657870">
<ele>51.255</ele>
<time>2016-01-02T07:17:24.152Z</time>
</trkpt>
<trkpt lat="-27.0881439" lon="152.8656598">
<ele>48.533</ele>
<time>2016-01-02T07:17:26.907Z</time>
</trkpt>
<trkpt lat="-27.0883830" lon="152.8654297">
<ele>46.456</ele>
<time>2016-01-02T07:17:28.694Z</time>
</trkpt>
<trkpt lat="-27.0886548" lon="152.8651755">
<ele>45.508</ele>
<time>2016-01-02T07:17:30.708Z</time>
</trkpt>
<trkpt lat="-27.0890354" lon="152.8648054">
<ele>46.513</ele>
<time>2016-01-02T07:17:33.629Z</time>
</trkpt>
<trkpt lat="-27.0894015" lon="152.8643905">
<ele>49.604</ele>
<time>2016-01-02T07:17:36.704Z</time>
</trkpt>
<trkpt lat="-27.0896239" lon="152.8640802">
<ele>53.863</ele>
<time>2016-01-02T07:17:38.809Z</time>
</trkpt>
<trkpt lat="-27.0899799" lon="152.8636700">
<ele>57.607</ele>
<time>2016-01-02T07:17:41.974Z</time>
</trkpt>
<trkpt lat="-27.0901827" lon="152.8633622">
<ele>60.434</ele>
<time>2016-01-02T07:17:44.357Z</time>
</trkpt>
<trkpt lat="-27.0903836" lon="152.8631172">
<ele>62.915</ele>
<time>2016-01-02T07:17:46.478Z</time>
</trkpt>
<trkpt lat="-27.0907070" lon="152.8628614">
<ele>64.496</ele>
<time>2016-01-02T07:17:49.268Z</time>
</trkpt>
<trkpt lat="-27.0911106" lon="152.8627489">
<ele>64.627</ele>
<time>2016-01-02T07:17:52.077Z</time>
</trkpt>
<trkpt lat="-27.0915662" lon="152.8627652">
<ele>64.082</ele>
<time>2016-01-02T07:17:55.081Z</time>
</trkpt>
<trkpt lat="-27.0920413" lon="152.8627304">
<ele>63.632</ele>
<time>2016-01-02T07:17:58.196Z</time>
</trkpt>
<trkpt lat="-27.0924652" lon="152.8625966">
<ele>63.164</ele>
<time>2016-01-02T07:18:00.931Z</time>
</trkpt>
<trkpt lat="-27.0928163" lon="152.8622634">
<ele>61.726</ele>
<time>2016-01-02T07:18:03.496Z</time>
</trkpt>
<trkpt lat="-27.0930855" lon="152.8619610">
<ele>58.538</ele>
<time>2016-01-02T07:18:05.558Z</time>
</trkpt>
<trkpt lat="-27.0934481" lon="152.8614757">
<ele>54.612</ele>
<time>2016-01-02T07:18:08.646Z</time>
</trkpt>
<trkpt lat="-27.0936831" lon="152.8611634">
<ele>52.196</ele>
<time>2016-01-02T07:18:10.679Z</time>
</trkpt>
<trkpt lat="-27.0940443" lon="152.8607277">
<ele>52.317</ele>
<time>2016-01-02T07:18:13.681Z</time>
</trkpt>
<trkpt lat="-27.0943263" lon="152.8605102">
<ele>53.969</ele>
<time>2016-01-02T07:18:15.636Z</time>
</trkpt>
<trkpt lat="-27.0946447" lon="152.8603188">
<ele>55.637</ele>
<time>2016-01-02T07:18:17.810Z</time>
</trkpt>
<trkpt lat="-27.0951454" lon="152.8600755">
<ele>57.145</ele>
<time>2016-01-02T07:18:21.735Z</time>
</trkpt>
<trkpt lat="-27.0954017" lon="152.8599841">
<ele>59.262</ele>
<time>2016-01-02T07:18:23.788Z</time>
</trkpt>
<trkpt lat="-27.0957546" lon="152.8599365">
<ele>61.742</ele>
<time>2016-01-02T07:18:26.259Z</time>
</trkpt>
<trkpt lat="-27.0961169" lon="152.8601206">
<ele>63.495</ele>
<time>2016-01-02T07:18:28.712Z</time>
</trkpt>
<trkpt lat="-27.0965659" lon="152.8604719">
<ele>64.070</ele>
<time>2016-01-02T07:18:31.800Z</time>
</trkpt>
<trkpt lat="-27.0968708" lon="152.8607087">
<ele>63.706</ele>
<time>2016-01-02T07:18:33.896Z</time>
</trkpt>
<trkpt lat="-27.0972895" lon="152.8610516">
<ele>62.529</ele>
<time>2016-01-02T07:18:36.910Z</time>
</trkpt>
<trkpt lat="-27.0975606" lon="152.8613027">
<ele>60.505</ele>
<time>2016-01-02T07:18:39.184Z</time>
</trkpt>
<trkpt lat="-27.0978229" lon="152.8615378">
<ele>58.198</ele>
<time>2016-01-02T07:18:41.513Z</time>
</trkpt>
<trkpt lat="-27.0981840" lon="152.8618114">
<ele>56.212</ele>
<time>2016-01-02T07:18:44.644Z</time>
</trkpt>
<trkpt lat="-27.0984299" lon="152.8619112">
<ele>54.059</ele>
<time>2016-01-02T07:18:46.402Z</time>
</trkpt>
<trkpt lat="-27.0986992" lon="152.8619539">
<ele>51.360</ele>
<time>2016-01-02T07:18:48.066Z</time>
</trkpt>
<trkpt lat="-27.0991879" lon="152.8619292">
<ele>48.971</ele>
<time>2016-01-02T07:18:50.895Z</time>
</trkpt>
<trkpt lat="-27.0997273" lon="152.8617636">
<ele>47.966</ele>
<time>2016-01-02T07:18:54.155Z</time>
</trkpt>
<trkpt lat="-27.1002363" lon="152.8616774">
<ele>48.664</ele>
<time>2016-01-02T07:18:57.420Z</time>
</trkpt>
<trkpt lat="-27.1007277" lon="152.8616174">
<ele>50.588</ele>
<time>2016-01-02T07:19:00.795Z</time>
</trkpt>
<trkpt lat="-27.1009955" lon="152.8615995">
<ele>53.055</ele>
<time>2016-01-02T07:19:02.572Z</time>
</trkpt>
<trkpt lat="-27.1012885" lon="152.8616130">
<ele>55.425</ele>
<time>2016-01-02T07:19:04.474Z</time>
</trkpt>
<trkpt lat="-27.1017476" lon="152.8616033">
<ele>57.291</ele>
<time>2016-01-02T07:19:07.520Z</time>
</trkpt>
<trkpt lat="-27.1020481" lon="152.8615829">
<ele>58.955</ele>
<time>2016-01-02T07:19:09.502Z</time>
</trkpt>
<trkpt lat="-27.1024952" lon="152.8616347">
<ele>60.621</ele>
<time>2016-01-02T07:19:12.360Z</time>
</trkpt>
<trkpt lat="-27.1028938" lon="152.8619253">
<ele>61.739</ele>
<time>2016-01-02T07:19:15.214Z</time>
</trkpt>
<trkpt lat="-27.1032879" lon="152.8622752">
<ele>62.083</ele>
<time>2016-01-02T07:19:18.006Z</time>
</trkpt>
<trkpt lat="-27.1035680" lon="152.8624984">
<ele>62.349</ele>
<time>2016-01-02T07:19:19.862Z</time>
</trkpt>
<trkpt lat="-27.1040722" lon="152.8627885">
<ele>63.110</ele>
<time>2016-01-02T07:19:22.993Z</time>
</trkpt>
<trkpt lat="-27.1043812" lon="152.8629877">
<ele>64.017</ele>
<time>2016-01-02T07:19:25.137Z</time>
</trkpt>
<trkpt lat="-27.1046862" lon="152.8631931">
<ele>64.540</ele>
<time>2016-01-02T07:19:27.401Z</time>
</trkpt>
<trkpt lat="-27.1051101" lon="152.8634372">
<ele>64.310</ele>
<time>2016-01-02T07:19:30.524Z</time>
</trkpt>
<trkpt lat="-27.1053953" lon="152.8635298">
<ele>63.251</ele>
<time>2016-01-02T07:19:32.427Z</time>
</trkpt>
<trkpt lat="-27.1057083" lon="152.8635263">
<ele>62.019</ele>
<time>2016-01-02T07:19:34.441Z</time>
</trkpt>
<trkpt lat="-27.1061792" lon="152.8634918">
<ele>61.179</ele>
<time>2016-01-02T07:19:37.531Z</time>
</trkpt>
<trkpt lat="-27.1066165" lon="152.8634594">
<ele>60.504</ele>
<time>2016-01-02T07:19:40.372Z</time>
</trkpt>
<trkpt lat="-27.1069111" lon="152.8634303">
<ele>59.403</ele>
<time>2016-01-02T07:19:42.192Z</time>
</trkpt>
<trkpt lat="-27.1074169" lon="152.8634093">
<ele>57.647</ele>
<time>2016-01-02T07:19:45.190Z</time>
</trkpt>
<trkpt lat="-27.1079470" lon="152.8633893">
<ele>55.318</ele>
<time>2016-01-02T07:19:48.273Z</time>
</trkpt>
<trkpt lat="-27.1084639" lon="152.8633355">
<ele>52.398</ele>
<time>2016-01-02T07:19:51.336Z</time>
</trkpt>
<trkpt lat="-27.1089394" lon="152.8633024">
<ele>49.080</ele>
<time>2016-01-02T07:19:54.166Z</time>
</trkpt>
<trkpt lat="-27.1092794" lon="152.8632642">
<ele>46.044</ele>
<time>2016-01-02T07:19:56.207Z</time>
</trkpt>
<trkpt lat="-27.1096240" lon="152.8632332">
<ele>43.592</ele>
<time>2016-01-02T07:19:58.301Z</time>
</trkpt>
<trkpt lat="-27.1101102" lon="152.8632012">
<ele>41.487</ele>
<time>2016-01-02T07:20:01.306Z</time>
</trkpt>
<trkpt lat="-27.1104536" lon="152.8631758">
<ele>39.588</ele>
<time>2016-01-02T07:20:03.459Z</time>
</trkpt>
<trkpt lat="-27.1107554" lon="152.8631081">
<ele>37.967</ele>
<time>2016-01-02T07:20:05.340Z</time>
</trkpt>
<trkpt lat="-27.1110128" lon="152.8629640">
<ele>36.602</ele>
<time>2016-01-02T07:20:07.016Z</time>
</trkpt>
<trkpt lat="-27.1113133" lon="152.8627911">
<ele>35.640</ele>
<time>2016-01-02T07:20:08.965Z</time>
</trkpt>
<trkpt lat="-27.1117043" lon="152.8623661">
<ele>35.251</ele>
<time>2016-01-02T07:20:12.157Z</time>
</trkpt>
<trkpt lat="-27.1119258" lon="152.8620952">
<ele>35.314</ele>
<time>2016-01-02T07:20:14.156Z</time>
</trkpt>
<trkpt lat="-27.1121555" lon="152.8618105">
<ele>35.256</ele>
<time>2016-01-02T07:20:16.252Z</time>
</trkpt>
<trkpt lat="-27.1124876" lon="152.8614586">
<ele>34.700</ele>
<time>2016-01-02T07:20:19.019Z</time>
</trkpt>
<trkpt lat="-27.1127417" lon="152.8612405">
<ele>34.018</ele>
<time>2016-01-02T07:20:20.923Z</time>
</trkpt>
<trkpt lat="-27.1132004" lon="152.8609787">
<ele>33.741</ele>
<time>2016-01-02T07:20:23.929Z</time>
</trkpt>
<trkpt lat="-27.1136602" lon="152.8607168">
<ele>33.889</ele>
<time>2016-01-02T07:20:26.921Z</time>
</trkpt>
<trkpt lat="-27.1141245" lon="152.8604400">
<ele>34.048</ele>
<time>2016-01-02T07:20:30.117Z</time>
</trkpt>
<trkpt lat="-27.1144140" lon="152.8602661">
<ele>33.577</ele>
<time>2016-01-02T07:20:32.202Z</time>
</trkpt>
<trkpt lat="-27.1146749" lon="152.8600931">
<ele>32.281</ele>
<time>2016-01-02T07:20:34.119Z</time>
</trkpt>
<trkpt lat="-27.1149569" lon="152.8596682">
<ele>30.456</ele>
<time>2016-01-02T07:20:37.138Z</time>
</trkpt>
<trkpt lat="-27.1152328" lon="152.8592290">
<ele>28.596</ele>
<time>2016-01-02T07:20:40.350Z</time>
</trkpt>
<trkpt lat="-27.1155814" lon="152.8589123">
<ele>27.275</ele>
<time>2016-01-02T07:20:43.539Z</time>
</trkpt>
<trkpt lat="-27.1158398" lon="152.8588054">
<ele>26.762</ele>
<time>2016-01-02T07:20:45.419Z</time>
</trkpt>
<trkpt lat="-27.1162613" lon="152.8588045">
<ele>26.634</ele>
<time>2016-01-02T07:20:48.135Z</time>
</trkpt>
<trkpt lat="-27.1167067" lon="152.8586944">
<ele>26.467</ele>
<time>2016-01-02T07:20:50.817Z</time>
</trkpt>
<trkpt lat="-27.1170334" lon="152.8585303">
<ele>26.357</ele>
<time>2016-01-02T07:20:52.877Z</time>
</trkpt>
<trkpt lat="-27.1173518" lon="152.8583661">
<ele>26.786</ele>
<time>2016-01-02T07:20:54.864Z</time>
</trkpt>
<trkpt lat="-27.1178388" lon="152.8581883">
<ele>27.938</ele>
<time>2016-01-02T07:20:57.647Z</time>
</trkpt>
<trkpt lat="-27.1182458" lon="152.8581927">
<ele>29.696</ele>
<time>2016-01-02T07:20:59.906Z</time>
</trkpt>
<trkpt lat="-27.1186219" lon="152.8581855">
<ele>31.993</ele>
<time>2016-01-02T07:21:02.098Z</time>
</trkpt>
<trkpt lat="-27.1191105" lon="152.8581874">
<ele>34.458</ele>
<time>2016-01-02T07:21:05.179Z</time>
</trkpt>
<trkpt lat="-27.1194213" lon="152.8581803">
<ele>36.579</ele>
<time>2016-01-02T07:21:07.207Z</time>
</trkpt>
<trkpt lat="-27.1198732" lon="152.8581681">
<ele>38.152</ele>
<time>2016-01-02T07:21:10.284Z</time>
</trkpt>
<trkpt lat="-27.1201622" lon="152.8581257">
<ele>38.827</ele>
<time>2016-01-02T07:21:12.387Z</time>
</trkpt>
<trkpt lat="-27.1205646" lon="152.8580220">
<ele>38.175</ele>
<time>2016-01-02T07:21:15.733Z</time>
</trkpt>
<trkpt lat="-27.1208154" lon="152.8579622">
<ele>36.141</ele>
<time>2016-01-02T07:21:18.186Z</time>
</trkpt>
<trkpt lat="-27.1211472" lon="152.8578947">
<ele>33.295</ele>
<time>2016-01-02T07:21:21.908Z</time>
</trkpt>
<trkpt lat="-27.1214315" lon="152.8579239">
<ele>30.259</ele>
<time>2016-01-02T07:21:25.167Z</time>
</trkpt>
<trkpt lat="-27.1216540" lon="152.8580446">
<ele>26.951</ele>
<time>2016-01-02T07:21:28.007Z</time>
</trkpt>
<trkpt lat="-27.1217057" lon="152.8583443">
<ele>23.208</ele>
<time>2016-01-02T07:21:31.693Z</time>
</trkpt>
<trkpt lat="-27.1217502" lon="152.8585823">
<ele>19.498</ele>
<time>2016-01-02T07:21:34.652Z</time>
</trkpt>
<trkpt lat="-27.1217715" lon="152.8587701">
<ele>16.549</ele>
<time>2016-01-02T07:21:36.468Z</time>
</trkpt>
<trkpt lat="-27.1218717" lon="152.8589281">
<ele>14.797</ele>
<time>2016-01-02T07:21:38.053Z</time>
</trkpt>
<trkpt lat="-27.1219024" lon="152.8590738">
<ele>14.067</ele>
<time>2016-01-02T07:21:39.266Z</time>
</trkpt>
<trkpt lat="-27.1218912" lon="152.8592532">
<ele>13.917</ele>
<time>2016-01-02T07:21:40.675Z</time>
</trkpt>
<trkpt lat="-27.1218424" lon="152.8595095">
<ele>14.060</ele>
<time>2016-01-02T07:21:42.922Z</time>
</trkpt>
<trkpt lat="-27.1217675" lon="152.8599306">
<ele>14.702</ele>
<time>2016-01-02T07:21:46.530Z</time>
</trkpt>
<trkpt lat="-27.1218215" lon="152.8601741">
<ele>16.139</ele>
<time>2016-01-02T07:21:48.299Z</time>
</trkpt>
<trkpt lat="-27.1221134" lon="152.8603030">
<ele>18.178</ele>
<time>2016-01-02T07:21:50.641Z</time>
</trkpt>
<trkpt lat="-27.1223308" lon="152.8602803">
<ele>20.653</ele>
<time>2016-01-02T07:21:52.373Z</time>
</trkpt>
<trkpt lat="-27.1227476" lon="152.8602143">
<ele>23.505</ele>
<time>2016-01-02T07:21:56.127Z</time>
</trkpt>
<trkpt lat="-27.1230063" lon="152.8601706">
<ele>26.771</ele>
<time>2016-01-02T07:21:59.642Z</time>
</trkpt>
<trkpt lat="-27.1233407" lon="152.8601200">
<ele>30.126</ele>
<time>2016-01-02T07:22:04.510Z</time>
</trkpt>
<trkpt lat="-27.1235316" lon="152.8600769">
<ele>32.475</ele>
<time>2016-01-02T07:22:06.763Z</time>
</trkpt>
<trkpt lat="-27.1236674" lon="152.8600769">
<ele>33.224</ele>
<time>2016-01-02T07:22:08.184Z</time>
</trkpt>
<trkpt lat="-27.1238150" lon="152.8601510">
<ele>33.067</ele>
<time>2016-01-02T07:22:09.798Z</time>
</trkpt>
<trkpt lat="-27.1238478" lon="152.8603301">
<ele>32.792</ele>
<time>2016-01-02T07:22:11.380Z</time>
</trkpt>
<trkpt lat="-27.1238750" lon="152.8606273">
<ele>33.073</ele>
<time>2016-01-02T07:22:13.659Z</time>
</trkpt>
<trkpt lat="-27.1239013" lon="152.8608408">
<ele>34.250</ele>
<time>2016-01-02T07:22:15.139Z</time>
</trkpt>
<trkpt lat="-27.1239493" lon="152.8612162">
<ele>35.853</ele>
<time>2016-01-02T07:22:17.483Z</time>
</trkpt>
<trkpt lat="-27.1239925" lon="152.8614961">
<ele>37.144</ele>
<time>2016-01-02T07:22:19.129Z</time>
</trkpt>
<trkpt lat="-27.1240439" lon="152.8619288">
<ele>38.050</ele>
<time>2016-01-02T07:22:21.444Z</time>
</trkpt>
<trkpt lat="-27.1241266" lon="152.8624740">
<ele>38.733</ele>
<time>2016-01-02T07:22:24.260Z</time>
</trkpt>
<trkpt lat="-27.1241795" lon="152.8628494">
<ele>38.845</ele>
<time>2016-01-02T07:22:26.145Z</time>
</trkpt>
<trkpt lat="-27.1242482" lon="152.8634307">
<ele>37.986</ele>
<time>2016-01-02T07:22:28.962Z</time>
</trkpt>
<trkpt lat="-27.1242929" lon="152.8638183">
<ele>36.131</ele>
<time>2016-01-02T07:22:30.818Z</time>
</trkpt>
<trkpt lat="-27.1243390" lon="152.8642241">
<ele>33.780</ele>
<time>2016-01-02T07:22:32.702Z</time>
</trkpt>
<trkpt lat="-27.1244281" lon="152.8648181">
<ele>31.857</ele>
<time>2016-01-02T07:22:35.460Z</time>
</trkpt>
<trkpt lat="-27.1244933" lon="152.8652824">
<ele>30.877</ele>
<time>2016-01-02T07:22:37.724Z</time>
</trkpt>
<trkpt lat="-27.1245452" lon="152.8656859">
<ele>30.583</ele>
<time>2016-01-02T07:22:39.790Z</time>
</trkpt>
<trkpt lat="-27.1246182" lon="152.8662691">
<ele>30.621</ele>
<time>2016-01-02T07:22:42.842Z</time>
</trkpt>
<trkpt lat="-27.1247038" lon="152.8668312">
<ele>31.259</ele>
<time>2016-01-02T07:22:45.824Z</time>
</trkpt>
<trkpt lat="-27.1247678" lon="152.8673898">
<ele>33.294</ele>
<time>2016-01-02T07:22:48.708Z</time>
</trkpt>
<trkpt lat="-27.1248162" lon="152.8677586">
<ele>36.476</ele>
<time>2016-01-02T07:22:50.564Z</time>
</trkpt>
<trkpt lat="-27.1248908" lon="152.8683436">
<ele>39.269</ele>
<time>2016-01-02T07:22:53.430Z</time>
</trkpt>
<trkpt lat="-27.1249643" lon="152.8689392">
<ele>40.510</ele>
<time>2016-01-02T07:22:56.242Z</time>
</trkpt>
<trkpt lat="-27.1250536" lon="152.8695820">
<ele>40.024</ele>
<time>2016-01-02T07:22:59.207Z</time>
</trkpt>
<trkpt lat="-27.1251105" lon="152.8700175">
<ele>38.353</ele>
<time>2016-01-02T07:23:01.236Z</time>
</trkpt>
<trkpt lat="-27.1251647" lon="152.8704528">
<ele>36.354</ele>
<time>2016-01-02T07:23:03.272Z</time>
</trkpt>
<trkpt lat="-27.1252597" lon="152.8710962">
<ele>34.509</ele>
<time>2016-01-02T07:23:06.293Z</time>
</trkpt>
<trkpt lat="-27.1253170" lon="152.8715187">
<ele>32.954</ele>
<time>2016-01-02T07:23:08.276Z</time>
</trkpt>
<trkpt lat="-27.1253705" lon="152.8719493">
<ele>31.925</ele>
<time>2016-01-02T07:23:10.305Z</time>
</trkpt>
<trkpt lat="-27.1254236" lon="152.8723640">
<ele>31.492</ele>
<time>2016-01-02T07:23:12.259Z</time>
</trkpt>
<trkpt lat="-27.1254759" lon="152.8727871">
<ele>31.488</ele>
<time>2016-01-02T07:23:14.239Z</time>
</trkpt>
<trkpt lat="-27.1255557" lon="152.8734227">
<ele>31.830</ele>
<time>2016-01-02T07:23:17.200Z</time>
</trkpt>
<trkpt lat="-27.1256443" lon="152.8740926">
<ele>32.984</ele>
<time>2016-01-02T07:23:20.317Z</time>
</trkpt>
<trkpt lat="-27.1257228" lon="152.8746991">
<ele>35.017</ele>
<time>2016-01-02T07:23:23.114Z</time>
</trkpt>
<trkpt lat="-27.1257890" lon="152.8751133">
<ele>37.190</ele>
<time>2016-01-02T07:23:25.026Z</time>
</trkpt>
<trkpt lat="-27.1258805" lon="152.8757680">
<ele>38.886</ele>
<time>2016-01-02T07:23:28.037Z</time>
</trkpt>
<trkpt lat="-27.1259364" lon="152.8761977">
<ele>39.283</ele>
<time>2016-01-02T07:23:30.048Z</time>
</trkpt>
<trkpt lat="-27.1259964" lon="152.8768706">
<ele>37.905</ele>
<time>2016-01-02T07:23:33.299Z</time>
</trkpt>
<trkpt lat="-27.1260442" lon="152.8774786">
<ele>35.429</ele>
<time>2016-01-02T07:23:36.376Z</time>
</trkpt>
<trkpt lat="-27.1260668" lon="152.8778638">
<ele>32.352</ele>
<time>2016-01-02T07:23:38.383Z</time>
</trkpt>
<trkpt lat="-27.1260974" lon="152.8784372">
<ele>29.321</ele>
<time>2016-01-02T07:23:41.413Z</time>
</trkpt>
<trkpt lat="-27.1260771" lon="152.8788062">
<ele>27.599</ele>
<time>2016-01-02T07:23:43.319Z</time>
</trkpt>
<trkpt lat="-27.1261036" lon="152.8794149">
<ele>27.533</ele>
<time>2016-01-02T07:23:46.369Z</time>
</trkpt>
<trkpt lat="-27.1261266" lon="152.8798214">
<ele>28.648</ele>
<time>2016-01-02T07:23:48.373Z</time>
</trkpt>
<trkpt lat="-27.1261198" lon="152.8802198">
<ele>30.335</ele>
<time>2016-01-02T07:23:50.355Z</time>
</trkpt>
<trkpt lat="-27.1261303" lon="152.8808233">
<ele>31.820</ele>
<time>2016-01-02T07:23:53.531Z</time>
</trkpt>
<trkpt lat="-27.1261617" lon="152.8814064">
<ele>32.340</ele>
<time>2016-01-02T07:23:57.851Z</time>
</trkpt>
<trkpt lat="-27.1261750" lon="152.8817387">
<ele>31.125</ele>
<time>2016-01-02T07:24:01.419Z</time>
</trkpt>
<trkpt lat="-27.1262000" lon="152.8819948">
<ele>27.834</ele>
<time>2016-01-02T07:24:04.022Z</time>
</trkpt>
<trkpt lat="-27.1262072" lon="152.8821774">
<ele>23.419</ele>
<time>2016-01-02T07:24:05.333Z</time>
</trkpt>
<trkpt lat="-27.1262747" lon="152.8824040">
<ele>19.404</ele>
<time>2016-01-02T07:24:07.038Z</time>
</trkpt>
<trkpt lat="-27.1265968" lon="152.8822914">
<ele>16.744</ele>
<time>2016-01-02T07:24:09.249Z</time>
</trkpt>
<trkpt lat="-27.1270295" lon="152.8822282">
<ele>15.810</ele>
<time>2016-01-02T07:24:12.061Z</time>
</trkpt>
<trkpt lat="-27.1274987" lon="152.8821473">
<ele>17.039</ele>
<time>2016-01-02T07:24:15.088Z</time>
</trkpt>
<trkpt lat="-27.1279321" lon="152.8820749">
<ele>20.133</ele>
<time>2016-01-02T07:24:17.840Z</time>
</trkpt>
<trkpt lat="-27.1282484" lon="152.8820132">
<ele>23.264</ele>
<time>2016-01-02T07:24:19.906Z</time>
</trkpt>
<trkpt lat="-27.1287213" lon="152.8819300">
<ele>24.911</ele>
<time>2016-01-02T07:24:23.022Z</time>
</trkpt>
<trkpt lat="-27.1291745" lon="152.8818309">
<ele>25.381</ele>
<time>2016-01-02T07:24:26.044Z</time>
</trkpt>
<trkpt lat="-27.1296031" lon="152.8816340">
<ele>26.047</ele>
<time>2016-01-02T07:24:29.030Z</time>
</trkpt>
<trkpt lat="-27.1298638" lon="152.8814631">
<ele>27.910</ele>
<time>2016-01-02T07:24:30.894Z</time>
</trkpt>
<trkpt lat="-27.1302210" lon="152.8811115">
<ele>30.468</ele>
<time>2016-01-02T07:24:33.759Z</time>
</trkpt>
<trkpt lat="-27.1304337" lon="152.8808312">
<ele>32.879</ele>
<time>2016-01-02T07:24:35.745Z</time>
</trkpt>
<trkpt lat="-27.1306462" lon="152.8805388">
<ele>35.070</ele>
<time>2016-01-02T07:24:37.841Z</time>
</trkpt>
<trkpt lat="-27.1309212" lon="152.8801023">
<ele>37.196</ele>
<time>2016-01-02T07:24:40.798Z</time>
</trkpt>
<trkpt lat="-27.1311443" lon="152.8796421">
<ele>39.249</ele>
<time>2016-01-02T07:24:43.670Z</time>
</trkpt>
<trkpt lat="-27.1313631" lon="152.8791274">
<ele>41.143</ele>
<time>2016-01-02T07:24:46.845Z</time>
</trkpt>
<trkpt lat="-27.1314937" lon="152.8787937">
<ele>42.909</ele>
<time>2016-01-02T07:24:48.842Z</time>
</trkpt>
<trkpt lat="-27.1317002" lon="152.8783071">
<ele>44.482</ele>
<time>2016-01-02T07:24:51.702Z</time>
</trkpt>
<trkpt lat="-27.1318817" lon="152.8780080">
<ele>45.462</ele>
<time>2016-01-02T07:24:53.581Z</time>
</trkpt>
<trkpt lat="-27.1322018" lon="152.8775971">
<ele>45.739</ele>
<time>2016-01-02T07:24:56.393Z</time>
</trkpt>
<trkpt lat="-27.1324360" lon="152.8773170">
<ele>45.629</ele>
<time>2016-01-02T07:24:58.391Z</time>
</trkpt>
<trkpt lat="-27.1326658" lon="152.8770318">
<ele>45.380</ele>
<time>2016-01-02T07:25:00.385Z</time>
</trkpt>
<trkpt lat="-27.1330292" lon="152.8766478">
<ele>45.029</ele>
<time>2016-01-02T07:25:03.209Z</time>
</trkpt>
<trkpt lat="-27.1333102" lon="152.8764208">
<ele>44.635</ele>
<time>2016-01-02T07:25:05.134Z</time>
</trkpt>
<trkpt lat="-27.1338096" lon="152.8761433">
<ele>44.526</ele>
<time>2016-01-02T07:25:08.202Z</time>
</trkpt>
<trkpt lat="-27.1341451" lon="152.8759538">
<ele>45.046</ele>
<time>2016-01-02T07:25:10.262Z</time>
</trkpt>
<trkpt lat="-27.1346499" lon="152.8757032">
<ele>46.217</ele>
<time>2016-01-02T07:25:13.330Z</time>
</trkpt>
<trkpt lat="-27.1351177" lon="152.8753955">
<ele>48.248</ele>
<time>2016-01-02T07:25:16.459Z</time>
</trkpt>
<trkpt lat="-27.1355806" lon="152.8750803">
<ele>51.364</ele>
<time>2016-01-02T07:25:19.669Z</time>
</trkpt>
<trkpt lat="-27.1360091" lon="152.8748470">
<ele>54.715</ele>
<time>2016-01-02T07:25:22.513Z</time>
</trkpt>
<trkpt lat="-27.1365103" lon="152.8747529">
<ele>57.728</ele>
<time>2016-01-02T07:25:25.611Z</time>
</trkpt>
<trkpt lat="-27.1369927" lon="152.8747946">
<ele>61.158</ele>
<time>2016-01-02T07:25:28.648Z</time>
</trkpt>
<trkpt lat="-27.1373191" lon="152.8748186">
<ele>64.816</ele>
<time>2016-01-02T07:25:30.669Z</time>
</trkpt>
<trkpt lat="-27.1377857" lon="152.8747371">
<ele>67.280</ele>
<time>2016-01-02T07:25:33.570Z</time>
</trkpt>
<trkpt lat="-27.1381050" lon="152.8746199">
<ele>68.095</ele>
<time>2016-01-02T07:25:35.678Z</time>
</trkpt>
<trkpt lat="-27.1383847" lon="152.8744303">
<ele>67.870</ele>
<time>2016-01-02T07:25:37.749Z</time>
</trkpt>
<trkpt lat="-27.1386526" lon="152.8742254">
<ele>67.091</ele>
<time>2016-01-02T07:25:39.781Z</time>
</trkpt>
<trkpt lat="-27.1390093" lon="152.8738715">
<ele>66.113</ele>
<time>2016-01-02T07:25:42.751Z</time>
</trkpt>
<trkpt lat="-27.1393381" lon="152.8735065">
<ele>65.154</ele>
<time>2016-01-02T07:25:45.617Z</time>
</trkpt>
<trkpt lat="-27.1396330" lon="152.8730845">
<ele>64.172</ele>
<time>2016-01-02T07:25:48.586Z</time>
</trkpt>
<trkpt lat="-27.1398944" lon="152.8726223">
<ele>63.236</ele>
<time>2016-01-02T07:25:51.661Z</time>
</trkpt>
<trkpt lat="-27.1400307" lon="152.8723182">
<ele>62.303</ele>
<time>2016-01-02T07:25:53.563Z</time>
</trkpt>
<trkpt lat="-27.1401553" lon="152.8719747">
<ele>61.011</ele>
<time>2016-01-02T07:25:55.634Z</time>
</trkpt>
<trkpt lat="-27.1402818" lon="152.8716451">
<ele>59.466</ele>
<time>2016-01-02T07:25:57.652Z</time>
</trkpt>
<trkpt lat="-27.1403995" lon="152.8713115">
<ele>58.181</ele>
<time>2016-01-02T07:25:59.661Z</time>
</trkpt>
<trkpt lat="-27.1406117" lon="152.8708243">
<ele>56.910</ele>
<time>2016-01-02T07:26:02.587Z</time>
</trkpt>
<trkpt lat="-27.1408122" lon="152.8705281">
<ele>54.657</ele>
<time>2016-01-02T07:26:04.554Z</time>
</trkpt>
<trkpt lat="-27.1411903" lon="152.8701403">
<ele>51.288</ele>
<time>2016-01-02T07:26:07.553Z</time>
</trkpt>
<trkpt lat="-27.1416478" lon="152.8699084">
<ele>47.554</ele>
<time>2016-01-02T07:26:10.451Z</time>
</trkpt>
<trkpt lat="-27.1420067" lon="152.8698591">
<ele>44.075</ele>
<time>2016-01-02T07:26:12.532Z</time>
</trkpt>
<trkpt lat="-27.1425011" lon="152.8698790">
<ele>41.553</ele>
<time>2016-01-02T07:26:15.378Z</time>
</trkpt>
<trkpt lat="-27.1430369" lon="152.8699424">
<ele>41.207</ele>
<time>2016-01-02T07:26:18.542Z</time>
</trkpt>
<trkpt lat="-27.1433393" lon="152.8700131">
<ele>43.211</ele>
<time>2016-01-02T07:26:20.370Z</time>
</trkpt>
<trkpt lat="-27.1438495" lon="152.8700842">
<ele>45.883</ele>
<time>2016-01-02T07:26:23.347Z</time>
</trkpt>
<trkpt lat="-27.1443237" lon="152.8702331">
<ele>47.503</ele>
<time>2016-01-02T07:26:25.957Z</time>
</trkpt>
<trkpt lat="-27.1446718" lon="152.8704050">
<ele>47.922</ele>
<time>2016-01-02T07:26:27.933Z</time>
</trkpt>
<trkpt lat="-27.1451854" lon="152.8707275">
<ele>47.743</ele>
<time>2016-01-02T07:26:31.055Z</time>
</trkpt>
<trkpt lat="-27.1456830" lon="152.8710202">
<ele>47.507</ele>
<time>2016-01-02T07:26:34.231Z</time>
</trkpt>
<trkpt lat="-27.1459928" lon="152.8712023">
<ele>47.237</ele>
<time>2016-01-02T07:26:36.203Z</time>
</trkpt>
<trkpt lat="-27.1464141" lon="152.8715329">
<ele>46.836</ele>
<time>2016-01-02T07:26:39.062Z</time>
</trkpt>
<trkpt lat="-27.1467622" lon="152.8720260">
<ele>46.492</ele>
<time>2016-01-02T07:26:42.155Z</time>
</trkpt>
<trkpt lat="-27.1471101" lon="152.8724957">
<ele>46.735</ele>
<time>2016-01-02T07:26:45.175Z</time>
</trkpt>
<trkpt lat="-27.1474541" lon="152.8729567">
<ele>47.700</ele>
<time>2016-01-02T07:26:48.153Z</time>
</trkpt>
<trkpt lat="-27.1476763" lon="152.8732593">
<ele>48.746</ele>
<time>2016-01-02T07:26:50.094Z</time>
</trkpt>
<trkpt lat="-27.1478955" lon="152.8735693">
<ele>49.283</ele>
<time>2016-01-02T07:26:52.062Z</time>
</trkpt>
<trkpt lat="-27.1482441" lon="152.8740514">
<ele>49.435</ele>
<time>2016-01-02T07:26:55.165Z</time>
</trkpt>
<trkpt lat="-27.1485719" lon="152.8745144">
<ele>49.730</ele>
<time>2016-01-02T07:26:58.122Z</time>
</trkpt>
<trkpt lat="-27.1487960" lon="152.8748324">
<ele>50.836</ele>
<time>2016-01-02T07:27:00.154Z</time>
</trkpt>
<trkpt lat="-27.1490251" lon="152.8751294">
<ele>53.235</ele>
<time>2016-01-02T07:27:02.128Z</time>
</trkpt>
<trkpt lat="-27.1492718" lon="152.8754320">
<ele>56.989</ele>
<time>2016-01-02T07:27:04.180Z</time>
</trkpt>
<trkpt lat="-27.1496849" lon="152.8758101">
<ele>61.438</ele>
<time>2016-01-02T07:27:07.134Z</time>
</trkpt>
<trkpt lat="-27.1499745" lon="152.8760506">
<ele>65.930</ele>
<time>2016-01-02T07:27:09.145Z</time>
</trkpt>
<trkpt lat="-27.1502608" lon="152.8762944">
<ele>70.499</ele>
<time>2016-01-02T07:27:11.188Z</time>
</trkpt>
<trkpt lat="-27.1505442" lon="152.8765501">
<ele>75.183</ele>
<time>2016-01-02T07:27:13.338Z</time>
</trkpt>
<trkpt lat="-27.1509456" lon="152.8769227">
<ele>79.296</ele>
<time>2016-01-02T07:27:16.654Z</time>
</trkpt>
<trkpt lat="-27.1513111" lon="152.8772556">
<ele>82.388</ele>
<time>2016-01-02T07:27:19.901Z</time>
</trkpt>
<trkpt lat="-27.1516481" lon="152.8775459">
<ele>84.513</ele>
<time>2016-01-02T07:27:22.792Z</time>
</trkpt>
<trkpt lat="-27.1520375" lon="152.8777497">
<ele>85.246</ele>
<time>2016-01-02T07:27:25.613Z</time>
</trkpt>
<trkpt lat="-27.1523342" lon="152.8778230">
<ele>84.386</ele>
<time>2016-01-02T07:27:27.619Z</time>
</trkpt>
<trkpt lat="-27.1526284" lon="152.8779073">
<ele>83.020</ele>
<time>2016-01-02T07:27:29.668Z</time>
</trkpt>
<trkpt lat="-27.1530263" lon="152.8781276">
<ele>81.563</ele>
<time>2016-01-02T07:27:32.694Z</time>
</trkpt>
<trkpt lat="-27.1533747" lon="152.8784128">
<ele>79.125</ele>
<time>2016-01-02T07:27:35.652Z</time>
</trkpt>
<trkpt lat="-27.1537173" lon="152.8787353">
<ele>75.746</ele>
<time>2016-01-02T07:27:38.745Z</time>
</trkpt>
<trkpt lat="-27.1539320" lon="152.8789388">
<ele>72.410</ele>
<time>2016-01-02T07:27:40.704Z</time>
</trkpt>
<trkpt lat="-27.1542797" lon="152.8792297">
<ele>69.643</ele>
<time>2016-01-02T07:27:43.767Z</time>
</trkpt>
<trkpt lat="-27.1546421" lon="152.8794845">
<ele>67.425</ele>
<time>2016-01-02T07:27:46.976Z</time>
</trkpt>
<trkpt lat="-27.1548949" lon="152.8795828">
<ele>65.201</ele>
<time>2016-01-02T07:27:49.218Z</time>
</trkpt>
<trkpt lat="-27.1552780" lon="152.8796940">
<ele>62.476</ele>
<time>2016-01-02T07:27:53.303Z</time>
</trkpt>
<trkpt lat="-27.1555094" lon="152.8797362">
<ele>59.418</ele>
<time>2016-01-02T07:27:55.735Z</time>
</trkpt>
<trkpt lat="-27.1556686" lon="152.8797492">
<ele>56.190</ele>
<time>2016-01-02T07:27:57.220Z</time>
</trkpt>
<trkpt lat="-27.1558427" lon="152.8797966">
<ele>53.295</ele>
<time>2016-01-02T07:27:58.850Z</time>
</trkpt>
<trkpt lat="-27.1561355" lon="152.8798813">
<ele>51.664</ele>
<time>2016-01-02T07:28:01.446Z</time>
</trkpt>
<trkpt lat="-27.1564570" lon="152.8799956">
<ele>51.503</ele>
<time>2016-01-02T07:28:04.232Z</time>
</trkpt>
<trkpt lat="-27.1567981" lon="152.8801111">
<ele>52.216</ele>
<time>2016-01-02T07:28:06.921Z</time>
</trkpt>
<trkpt lat="-27.1570406" lon="152.8802163">
<ele>53.080</ele>
<time>2016-01-02T07:28:08.838Z</time>
</trkpt>
<trkpt lat="-27.1572967" lon="152.8803395">
<ele>53.787</ele>
<time>2016-01-02T07:28:10.942Z</time>
</trkpt>
<trkpt lat="-27.1576413" lon="152.8805608">
<ele>54.353</ele>
<time>2016-01-02T07:28:13.972Z</time>
</trkpt>
<trkpt lat="-27.1579635" lon="152.8808138">
<ele>54.569</ele>
<time>2016-01-02T07:28:16.977Z</time>
</trkpt>
<trkpt lat="-27.1582434" lon="152.8811054">
<ele>54.308</ele>
<time>2016-01-02T07:28:19.981Z</time>
</trkpt>
<trkpt lat="-27.1584265" lon="152.8813106">
<ele>53.961</ele>
<time>2016-01-02T07:28:22.104Z</time>
</trkpt>
<trkpt lat="-27.1586519" lon="152.8816554">
<ele>53.871</ele>
<time>2016-01-02T07:28:25.490Z</time>
</trkpt>
<trkpt lat="-27.1587252" lon="152.8819173">
<ele>53.649</ele>
<time>2016-01-02T07:28:28.116Z</time>
</trkpt>
<trkpt lat="-27.1587828" lon="152.8821774">
<ele>52.845</ele>
<time>2016-01-02T07:28:31.684Z</time>
</trkpt>
<trkpt lat="-27.1588194" lon="152.8824615">
<ele>51.814</ele>
<time>2016-01-02T07:28:35.813Z</time>
</trkpt>
<trkpt lat="-27.1588161" lon="152.8826334">
<ele>51.021</ele>
<time>2016-01-02T07:28:38.274Z</time>
</trkpt>
<trkpt lat="-27.1587321" lon="152.8828076">
<ele>50.446</ele>
<time>2016-01-02T07:28:41.597Z</time>
</trkpt>
<trkpt lat="-27.1586507" lon="152.8829190">
<ele>50.143</ele>
<time>2016-01-02T07:28:44.763Z</time>
</trkpt>
<trkpt lat="-27.1584884" lon="152.8830730">
<ele>50.231</ele>
<time>2016-01-02T07:28:50.098Z</time>
</trkpt>
<trkpt lat="-27.1583504" lon="152.8831653">
<ele>50.541</ele>
<time>2016-01-02T07:28:52.429Z</time>
</trkpt>
<trkpt lat="-27.1582562" lon="152.8832234">
<ele>50.763</ele>
<time>2016-01-02T07:28:53.687Z</time>
</trkpt>
<trkpt lat="-27.1581575" lon="152.8832897">
<ele>50.734</ele>
<time>2016-01-02T07:28:54.947Z</time>
</trkpt>
<trkpt lat="-27.1580583" lon="152.8833437">
<ele>50.581</ele>
<time>2016-01-02T07:28:56.148Z</time>
</trkpt>
<trkpt lat="-27.1579166" lon="152.8833927">
<ele>50.520</ele>
<time>2016-01-02T07:28:57.710Z</time>
</trkpt>
<trkpt lat="-27.1577434" lon="152.8834691">
<ele>50.801</ele>
<time>2016-01-02T07:28:59.685Z</time>
</trkpt>
<trkpt lat="-27.1575092" lon="152.8836199">
<ele>51.484</ele>
<time>2016-01-02T07:29:02.674Z</time>
</trkpt>
<trkpt lat="-27.1573321" lon="152.8837202">
<ele>52.359</ele>
<time>2016-01-02T07:29:05.113Z</time>
</trkpt>
<trkpt lat="-27.1570163" lon="152.8839649">
<ele>53.172</ele>
<time>2016-01-02T07:29:10.010Z</time>
</trkpt>
<trkpt lat="-27.1568803" lon="152.8841520">
<ele>53.907</ele>
<time>2016-01-02T07:29:12.402Z</time>
</trkpt>
<trkpt lat="-27.1567964" lon="152.8842922">
<ele>54.561</ele>
<time>2016-01-02T07:29:14.042Z</time>
</trkpt>
<trkpt lat="-27.1566920" lon="152.8844420">
<ele>54.984</ele>
<time>2016-01-02T07:29:15.926Z</time>
</trkpt>
<trkpt lat="-27.1565759" lon="152.8847258">
<ele>54.828</ele>
<time>2016-01-02T07:29:19.109Z</time>
</trkpt>
<trkpt lat="-27.1564814" lon="152.8850138">
<ele>53.867</ele>
<time>2016-01-02T07:29:22.439Z</time>
</trkpt>
<trkpt lat="-27.1563972" lon="152.8853267">
<ele>52.475</ele>
<time>2016-01-02T07:29:25.628Z</time>
</trkpt>
<trkpt lat="-27.1562770" lon="152.8855517">
<ele>51.443</ele>
<time>2016-01-02T07:29:27.720Z</time>
</trkpt>
<trkpt lat="-27.1562169" lon="152.8857113">
<ele>51.053</ele>
<time>2016-01-02T07:29:28.992Z</time>
</trkpt>
<trkpt lat="-27.1561356" lon="152.8858986">
<ele>51.137</ele>
<time>2016-01-02T07:29:30.403Z</time>
</trkpt>
<trkpt lat="-27.1560064" lon="152.8862681">
<ele>51.468</ele>
<time>2016-01-02T07:29:33.071Z</time>
</trkpt>
<trkpt lat="-27.1558917" lon="152.8865403">
<ele>51.796</ele>
<time>2016-01-02T07:29:35.130Z</time>
</trkpt>
<trkpt lat="-27.1557014" lon="152.8869790">
<ele>51.982</ele>
<time>2016-01-02T07:29:38.611Z</time>
</trkpt>
<trkpt lat="-27.1556021" lon="152.8872334">
<ele>52.761</ele>
<time>2016-01-02T07:29:40.610Z</time>
</trkpt>
<trkpt lat="-27.1554614" lon="152.8876029">
<ele>54.635</ele>
<time>2016-01-02T07:29:43.473Z</time>
</trkpt>
<trkpt lat="-27.1553793" lon="152.8878598">
<ele>56.570</ele>
<time>2016-01-02T07:29:45.424Z</time>
</trkpt>
<trkpt lat="-27.1551884" lon="152.8882849">
<ele>57.509</ele>
<time>2016-01-02T07:29:49.051Z</time>
</trkpt>
<trkpt lat="-27.1550475" lon="152.8886878">
<ele>58.033</ele>
<time>2016-01-02T07:29:52.208Z</time>
</trkpt>
<trkpt lat="-27.1549311" lon="152.8888985">
<ele>60.009</ele>
<time>2016-01-02T07:29:53.915Z</time>
</trkpt>
<trkpt lat="-27.1548499" lon="152.8891245">
<ele>64.104</ele>
<time>2016-01-02T07:29:55.565Z</time>
</trkpt>
<trkpt lat="-27.1547523" lon="152.8893779">
<ele>68.215</ele>
<time>2016-01-02T07:29:57.528Z</time>
</trkpt>
<trkpt lat="-27.1546615" lon="152.8896725">
<ele>70.160</ele>
<time>2016-01-02T07:30:00.077Z</time>
</trkpt>
<trkpt lat="-27.1545142" lon="152.8900808">
<ele>69.886</ele>
<time>2016-01-02T07:30:06.935Z</time>
</trkpt>
<trkpt lat="-27.1543685" lon="152.8904439">
<ele>68.581</ele>
<time>2016-01-02T07:30:11.643Z</time>
</trkpt>
<trkpt lat="-27.1542443" lon="152.8905740">
<ele>67.397</ele>
<time>2016-01-02T07:30:13.030Z</time>
</trkpt>
<trkpt lat="-27.1541560" lon="152.8906164">
<ele>66.344</ele>
<time>2016-01-02T07:30:13.775Z</time>
</trkpt>
<trkpt lat="-27.1540479" lon="152.8905751">
<ele>65.131</ele>
<time>2016-01-02T07:30:14.557Z</time>
</trkpt>
<trkpt lat="-27.1538661" lon="152.8904894">
<ele>64.276</ele>
<time>2016-01-02T07:30:15.847Z</time>
</trkpt>
<trkpt lat="-27.1536500" lon="152.8903984">
<ele>64.457</ele>
<time>2016-01-02T07:30:17.324Z</time>
</trkpt>
<trkpt lat="-27.1533708" lon="152.8903056">
<ele>65.433</ele>
<time>2016-01-02T07:30:19.053Z</time>
</trkpt>
<trkpt lat="-27.1528778" lon="152.8901258">
<ele>65.983</ele>
<time>2016-01-02T07:30:22.156Z</time>
</trkpt>
<trkpt lat="-27.1523987" lon="152.8900350">
<ele>64.578</ele>
<time>2016-01-02T07:30:25.169Z</time>
</trkpt>
<trkpt lat="-27.1519133" lon="152.8900700">
<ele>61.191</ele>
<time>2016-01-02T07:30:28.417Z</time>
</trkpt>
<trkpt lat="-27.1514517" lon="152.8901543">
<ele>57.734</ele>
<time>2016-01-02T07:30:31.753Z</time>
</trkpt>
<trkpt lat="-27.1510648" lon="152.8902356">
<ele>56.734</ele>
<time>2016-01-02T07:30:34.459Z</time>
</trkpt>
<trkpt lat="-27.1508014" lon="152.8902905">
<ele>58.838</ele>
<time>2016-01-02T07:30:36.204Z</time>
</trkpt>
<trkpt lat="-27.1503733" lon="152.8903164">
<ele>61.988</ele>
<time>2016-01-02T07:30:39.063Z</time>
</trkpt>
<trkpt lat="-27.1499189" lon="152.8902565">
<ele>63.459</ele>
<time>2016-01-02T07:30:42.672Z</time>
</trkpt>
<trkpt lat="-27.1496354" lon="152.8902672">
<ele>62.100</ele>
<time>2016-01-02T07:30:45.229Z</time>
</trkpt>
<trkpt lat="-27.1492862" lon="152.8903457">
<ele>58.428</ele>
<time>2016-01-02T07:30:48.264Z</time>
</trkpt>
<trkpt lat="-27.1491018" lon="152.8904335">
<ele>54.301</ele>
<time>2016-01-02T07:30:49.762Z</time>
</trkpt>
<trkpt lat="-27.1488534" lon="152.8907997">
<ele>51.527</ele>
<time>2016-01-02T07:30:52.643Z</time>
</trkpt>
<trkpt lat="-27.1487248" lon="152.8910433">
<ele>51.567</ele>
<time>2016-01-02T07:30:54.468Z</time>
</trkpt>
<trkpt lat="-27.1485636" lon="152.8913177">
<ele>55.032</ele>
<time>2016-01-02T07:30:56.625Z</time>
</trkpt>
<trkpt lat="-27.1484115" lon="152.8915886">
<ele>60.823</ele>
<time>2016-01-02T07:30:58.731Z</time>
</trkpt>
<trkpt lat="-27.1481588" lon="152.8919063">
<ele>67.005</ele>
<time>2016-01-02T07:31:01.458Z</time>
</trkpt>
<trkpt lat="-27.1479250" lon="152.8920565">
<ele>72.234</ele>
<time>2016-01-02T07:31:03.526Z</time>
</trkpt>
<trkpt lat="-27.1476683" lon="152.8922097">
<ele>75.617</ele>
<time>2016-01-02T07:31:05.834Z</time>
</trkpt>
<trkpt lat="-27.1474712" lon="152.8923921">
<ele>76.831</ele>
<time>2016-01-02T07:31:07.809Z</time>
</trkpt>
<trkpt lat="-27.1472952" lon="152.8927460">
<ele>75.909</ele>
<time>2016-01-02T07:31:10.391Z</time>
</trkpt>
<trkpt lat="-27.1472896" lon="152.8930449">
<ele>73.331</ele>
<time>2016-01-02T07:31:12.135Z</time>
</trkpt>
<trkpt lat="-27.1473665" lon="152.8935347">
<ele>70.444</ele>
<time>2016-01-02T07:31:15.015Z</time>
</trkpt>
<trkpt lat="-27.1473991" lon="152.8938816">
<ele>68.645</ele>
<time>2016-01-02T07:31:17.070Z</time>
</trkpt>
<trkpt lat="-27.1474382" lon="152.8942285">
<ele>67.905</ele>
<time>2016-01-02T07:31:19.167Z</time>
</trkpt>
<trkpt lat="-27.1475098" lon="152.8947044">
<ele>67.238</ele>
<time>2016-01-02T07:31:21.945Z</time>
</trkpt>
<trkpt lat="-27.1475606" lon="152.8950276">
<ele>65.858</ele>
<time>2016-01-02T07:31:23.712Z</time>
</trkpt>
<trkpt lat="-27.1476076" lon="152.8953771">
<ele>63.582</ele>
<time>2016-01-02T07:31:25.529Z</time>
</trkpt>
<trkpt lat="-27.1476444" lon="152.8957585">
<ele>60.664</ele>
<time>2016-01-02T07:31:27.467Z</time>
</trkpt>
<trkpt lat="-27.1477075" lon="152.8961530">
<ele>57.143</ele>
<time>2016-01-02T07:31:29.569Z</time>
</trkpt>
<trkpt lat="-27.1477795" lon="152.8967387">
<ele>52.811</ele>
<time>2016-01-02T07:31:32.921Z</time>
</trkpt>
<trkpt lat="-27.1478219" lon="152.8970744">
<ele>48.022</ele>
<time>2016-01-02T07:31:34.878Z</time>
</trkpt>
<trkpt lat="-27.1478632" lon="152.8974189">
<ele>43.977</ele>
<time>2016-01-02T07:31:36.852Z</time>
</trkpt>
<trkpt lat="-27.1479036" lon="152.8977548">
<ele>41.912</ele>
<time>2016-01-02T07:31:38.769Z</time>
</trkpt>
<trkpt lat="-27.1479629" lon="152.8981350">
<ele>41.874</ele>
<time>2016-01-02T07:31:40.993Z</time>
</trkpt>
<trkpt lat="-27.1480323" lon="152.8986187">
<ele>42.656</ele>
<time>2016-01-02T07:31:43.707Z</time>
</trkpt>
<trkpt lat="-27.1480858" lon="152.8989766">
<ele>43.039</ele>
<time>2016-01-02T07:31:45.647Z</time>
</trkpt>
<trkpt lat="-27.1481535" lon="152.8995395">
<ele>42.063</ele>
<time>2016-01-02T07:31:48.580Z</time>
</trkpt>
<trkpt lat="-27.1482030" lon="152.8998903">
<ele>39.362</ele>
<time>2016-01-02T07:31:50.381Z</time>
</trkpt>
<trkpt lat="-27.1482479" lon="152.9002731">
<ele>36.103</ele>
<time>2016-01-02T07:31:52.323Z</time>
</trkpt>
<trkpt lat="-27.1482973" lon="152.9006471">
<ele>34.348</ele>
<time>2016-01-02T07:31:54.192Z</time>
</trkpt>
<trkpt lat="-27.1483483" lon="152.9010206">
<ele>34.892</ele>
<time>2016-01-02T07:31:56.039Z</time>
</trkpt>
<trkpt lat="-27.1484122" lon="152.9014248">
<ele>37.057</ele>
<time>2016-01-02T07:31:57.951Z</time>
</trkpt>
<trkpt lat="-27.1484835" lon="152.9018525">
<ele>39.654</ele>
<time>2016-01-02T07:31:59.931Z</time>
</trkpt>
<trkpt lat="-27.1485709" lon="152.9025340">
<ele>41.691</ele>
<time>2016-01-02T07:32:02.963Z</time>
</trkpt>
<trkpt lat="-27.1486286" lon="152.9029799">
<ele>42.769</ele>
<time>2016-01-02T07:32:04.954Z</time>
</trkpt>
<trkpt lat="-27.1487239" lon="152.9036575">
<ele>43.101</ele>
<time>2016-01-02T07:32:08.029Z</time>
</trkpt>
<trkpt lat="-27.1487584" lon="152.9040759">
<ele>42.642</ele>
<time>2016-01-02T07:32:09.906Z</time>
</trkpt>
<trkpt lat="-27.1488629" lon="152.9047470">
<ele>41.175</ele>
<time>2016-01-02T07:32:12.920Z</time>
</trkpt>
<trkpt lat="-27.1489259" lon="152.9051730">
<ele>39.184</ele>
<time>2016-01-02T07:32:14.844Z</time>
</trkpt>
<trkpt lat="-27.1489841" lon="152.9056340">
<ele>37.479</ele>
<time>2016-01-02T07:32:16.951Z</time>
</trkpt>
<trkpt lat="-27.1490456" lon="152.9060893">
<ele>36.347</ele>
<time>2016-01-02T07:32:19.066Z</time>
</trkpt>
<trkpt lat="-27.1491036" lon="152.9065225">
<ele>35.795</ele>
<time>2016-01-02T07:32:21.061Z</time>
</trkpt>
<trkpt lat="-27.1491570" lon="152.9069542">
<ele>35.903</ele>
<time>2016-01-02T07:32:23.040Z</time>
</trkpt>
<trkpt lat="-27.1492489" lon="152.9076029">
<ele>36.565</ele>
<time>2016-01-02T07:32:26.012Z</time>
</trkpt>
<trkpt lat="-27.1493147" lon="152.9080260">
<ele>37.307</ele>
<time>2016-01-02T07:32:27.956Z</time>
</trkpt>
<trkpt lat="-27.1494125" lon="152.9087355">
<ele>37.553</ele>
<time>2016-01-02T07:32:31.274Z</time>
</trkpt>
<trkpt lat="-27.1494672" lon="152.9091648">
<ele>37.229</ele>
<time>2016-01-02T07:32:33.384Z</time>
</trkpt>
<trkpt lat="-27.1495192" lon="152.9095632">
<ele>37.009</ele>
<time>2016-01-02T07:32:35.398Z</time>
</trkpt>
<trkpt lat="-27.1495667" lon="152.9099438">
<ele>37.766</ele>
<time>2016-01-02T07:32:37.323Z</time>
</trkpt>
<trkpt lat="-27.1496298" lon="152.9103305">
<ele>39.363</ele>
<time>2016-01-02T07:32:39.300Z</time>
</trkpt>
<trkpt lat="-27.1497223" lon="152.9108843">
<ele>41.034</ele>
<time>2016-01-02T07:32:42.236Z</time>
</trkpt>
<trkpt lat="-27.1497671" lon="152.9112433">
<ele>42.659</ele>
<time>2016-01-02T07:32:44.263Z</time>
</trkpt>
<trkpt lat="-27.1498159" lon="152.9115861">
<ele>44.309</ele>
<time>2016-01-02T07:32:46.245Z</time>
</trkpt>
<trkpt lat="-27.1498864" lon="152.9120907">
<ele>45.506</ele>
<time>2016-01-02T07:32:49.166Z</time>
</trkpt>
<trkpt lat="-27.1499534" lon="152.9126084">
<ele>46.038</ele>
<time>2016-01-02T07:32:52.012Z</time>
</trkpt>
<trkpt lat="-27.1499784" lon="152.9129880">
<ele>46.783</ele>
<time>2016-01-02T07:32:53.998Z</time>
</trkpt>
<trkpt lat="-27.1499830" lon="152.9136012">
<ele>48.417</ele>
<time>2016-01-02T07:32:57.088Z</time>
</trkpt>
<trkpt lat="-27.1499777" lon="152.9140050">
<ele>50.183</ele>
<time>2016-01-02T07:32:59.133Z</time>
</trkpt>
<trkpt lat="-27.1499729" lon="152.9143997">
<ele>51.126</ele>
<time>2016-01-02T07:33:01.120Z</time>
</trkpt>
<trkpt lat="-27.1499605" lon="152.9147864">
<ele>50.844</ele>
<time>2016-01-02T07:33:03.032Z</time>
</trkpt>
<trkpt lat="-27.1499529" lon="152.9153990">
<ele>49.479</ele>
<time>2016-01-02T07:33:05.984Z</time>
</trkpt>
<trkpt lat="-27.1499480" lon="152.9160367">
<ele>47.875</ele>
<time>2016-01-02T07:33:08.972Z</time>
</trkpt>
<trkpt lat="-27.1499437" lon="152.9164621">
<ele>46.675</ele>
<time>2016-01-02T07:33:11.015Z</time>
</trkpt>
<trkpt lat="-27.1499332" lon="152.9168810">
<ele>45.558</ele>
<time>2016-01-02T07:33:13.147Z</time>
</trkpt>
<trkpt lat="-27.1499279" lon="152.9172809">
<ele>43.744</ele>
<time>2016-01-02T07:33:15.334Z</time>
</trkpt>
<trkpt lat="-27.1499198" lon="152.9176508">
<ele>41.061</ele>
<time>2016-01-02T07:33:17.453Z</time>
</trkpt>
<trkpt lat="-27.1499066" lon="152.9181603">
<ele>38.325</ele>
<time>2016-01-02T07:33:20.457Z</time>
</trkpt>
<trkpt lat="-27.1498996" lon="152.9185005">
<ele>36.233</ele>
<time>2016-01-02T07:33:22.471Z</time>
</trkpt>
<trkpt lat="-27.1498714" lon="152.9188370">
<ele>34.987</ele>
<time>2016-01-02T07:33:24.476Z</time>
</trkpt>
<trkpt lat="-27.1498155" lon="152.9191721">
<ele>34.515</ele>
<time>2016-01-02T07:33:26.500Z</time>
</trkpt>
<trkpt lat="-27.1496993" lon="152.9196561">
<ele>34.424</ele>
<time>2016-01-02T07:33:29.469Z</time>
</trkpt>
<trkpt lat="-27.1496191" lon="152.9199788">
<ele>34.223</ele>
<time>2016-01-02T07:33:31.425Z</time>
</trkpt>
<trkpt lat="-27.1495511" lon="152.9203065">
<ele>33.812</ele>
<time>2016-01-02T07:33:33.404Z</time>
</trkpt>
<trkpt lat="-27.1494655" lon="152.9208137">
<ele>33.442</ele>
<time>2016-01-02T07:33:36.486Z</time>
</trkpt>
<trkpt lat="-27.1494548" lon="152.9212960">
<ele>33.527</ele>
<time>2016-01-02T07:33:39.387Z</time>
</trkpt>
<trkpt lat="-27.1495312" lon="152.9217859">
<ele>34.209</ele>
<time>2016-01-02T07:33:42.364Z</time>
</trkpt>
<trkpt lat="-27.1496849" lon="152.9222724">
<ele>35.035</ele>
<time>2016-01-02T07:33:45.472Z</time>
</trkpt>
<trkpt lat="-27.1498995" lon="152.9226951">
<ele>35.863</ele>
<time>2016-01-02T07:33:48.365Z</time>
</trkpt>
<trkpt lat="-27.1500737" lon="152.9229614">
<ele>36.886</ele>
<time>2016-01-02T07:33:50.290Z</time>
</trkpt>
<trkpt lat="-27.1503497" lon="152.9233582">
<ele>37.583</ele>
<time>2016-01-02T07:33:53.140Z</time>
</trkpt>
<trkpt lat="-27.1505061" lon="152.9236517">
<ele>37.206</ele>
<time>2016-01-02T07:33:55.066Z</time>
</trkpt>
<trkpt lat="-27.1506949" lon="152.9241332">
<ele>35.684</ele>
<time>2016-01-02T07:33:58.100Z</time>
</trkpt>
<trkpt lat="-27.1507739" lon="152.9244470">
<ele>33.124</ele>
<time>2016-01-02T07:34:00.000Z</time>
</trkpt>
<trkpt lat="-27.1508483" lon="152.9249431">
<ele>29.857</ele>
<time>2016-01-02T07:34:02.911Z</time>
</trkpt>
<trkpt lat="-27.1509220" lon="152.9254695">
<ele>26.959</ele>
<time>2016-01-02T07:34:05.980Z</time>
</trkpt>
<trkpt lat="-27.1509919" lon="152.9259934">
<ele>25.593</ele>
<time>2016-01-02T07:34:09.153Z</time>
</trkpt>
<trkpt lat="-27.1510523" lon="152.9264560">
<ele>25.723</ele>
<time>2016-01-02T07:34:12.218Z</time>
</trkpt>
<trkpt lat="-27.1510943" lon="152.9267877">
<ele>26.226</ele>
<time>2016-01-02T07:34:14.726Z</time>
</trkpt>
<trkpt lat="-27.1511506" lon="152.9272237">
<ele>25.851</ele>
<time>2016-01-02T07:34:18.776Z</time>
</trkpt>
<trkpt lat="-27.1512352" lon="152.9275638">
<ele>23.808</ele>
<time>2016-01-02T07:34:24.215Z</time>
</trkpt>
<trkpt lat="-27.1513024" lon="152.9277287">
<ele>20.217</ele>
<time>2016-01-02T07:34:27.940Z</time>
</trkpt>
<trkpt lat="-27.1513738" lon="152.9278478">
<ele>15.971</ele>
<time>2016-01-02T07:34:30.045Z</time>
</trkpt>
<trkpt lat="-27.1514457" lon="152.9279447">
<ele>11.859</ele>
<time>2016-01-02T07:34:31.325Z</time>
</trkpt>
<trkpt lat="-27.1516001" lon="152.9278506">
<ele>8.164</ele>
<time>2016-01-02T07:34:32.842Z</time>
</trkpt>
<trkpt lat="-27.1517431" lon="152.9276859">
<ele>5.278</ele>
<time>2016-01-02T07:34:34.316Z</time>
</trkpt>
<trkpt lat="-27.1519258" lon="152.9274577">
<ele>3.950</ele>
<time>2016-01-02T07:34:36.230Z</time>
</trkpt>
<trkpt lat="-27.1522271" lon="152.9270565">
<ele>4.495</ele>
<time>2016-01-02T07:34:39.339Z</time>
</trkpt>
<trkpt lat="-27.1525134" lon="152.9266746">
<ele>6.089</ele>
<time>2016-01-02T07:34:42.320Z</time>
</trkpt>
<trkpt lat="-27.1528173" lon="152.9263027">
<ele>7.537</ele>
<time>2016-01-02T07:34:45.345Z</time>
</trkpt>
<trkpt lat="-27.1531008" lon="152.9259467">
<ele>8.193</ele>
<time>2016-01-02T07:34:48.237Z</time>
</trkpt>
<trkpt lat="-27.1533867" lon="152.9255763">
<ele>8.169</ele>
<time>2016-01-02T07:34:51.213Z</time>
</trkpt>
<trkpt lat="-27.1536991" lon="152.9252168">
<ele>8.019</ele>
<time>2016-01-02T07:34:54.258Z</time>
</trkpt>
<trkpt lat="-27.1539304" lon="152.9250058">
<ele>8.140</ele>
<time>2016-01-02T07:34:56.273Z</time>
</trkpt>
<trkpt lat="-27.1543094" lon="152.9247726">
<ele>8.491</ele>
<time>2016-01-02T07:34:59.122Z</time>
</trkpt>
<trkpt lat="-27.1545924" lon="152.9246399">
<ele>9.089</ele>
<time>2016-01-02T07:35:01.116Z</time>
</trkpt>
<trkpt lat="-27.1550359" lon="152.9244860">
<ele>10.280</ele>
<time>2016-01-02T07:35:04.129Z</time>
</trkpt>
<trkpt lat="-27.1553259" lon="152.9243944">
<ele>12.669</ele>
<time>2016-01-02T07:35:06.107Z</time>
</trkpt>
<trkpt lat="-27.1556128" lon="152.9243022">
<ele>16.127</ele>
<time>2016-01-02T07:35:08.081Z</time>
</trkpt>
<trkpt lat="-27.1558985" lon="152.9241995">
<ele>19.377</ele>
<time>2016-01-02T07:35:10.073Z</time>
</trkpt>
<trkpt lat="-27.1561864" lon="152.9241084">
<ele>21.359</ele>
<time>2016-01-02T07:35:12.055Z</time>
</trkpt>
<trkpt lat="-27.1566277" lon="152.9239560">
<ele>22.355</ele>
<time>2016-01-02T07:35:15.087Z</time>
</trkpt>
<trkpt lat="-27.1569246" lon="152.9238471">
<ele>23.235</ele>
<time>2016-01-02T07:35:17.101Z</time>
</trkpt>
<trkpt lat="-27.1572167" lon="152.9237559">
<ele>24.501</ele>
<time>2016-01-02T07:35:19.023Z</time>
</trkpt>
<trkpt lat="-27.1576830" lon="152.9236145">
<ele>25.891</ele>
<time>2016-01-02T07:35:21.877Z</time>
</trkpt>
<trkpt lat="-27.1581850" lon="152.9234639">
<ele>27.429</ele>
<time>2016-01-02T07:35:24.902Z</time>
</trkpt>
<trkpt lat="-27.1586695" lon="152.9232857">
<ele>29.665</ele>
<time>2016-01-02T07:35:27.951Z</time>
</trkpt>
<trkpt lat="-27.1591361" lon="152.9231333">
<ele>32.373</ele>
<time>2016-01-02T07:35:30.970Z</time>
</trkpt>
<trkpt lat="-27.1595705" lon="152.9229572">
<ele>34.500</ele>
<time>2016-01-02T07:35:33.915Z</time>
</trkpt>
<trkpt lat="-27.1598630" lon="152.9228060">
<ele>35.617</ele>
<time>2016-01-02T07:35:35.978Z</time>
</trkpt>
<trkpt lat="-27.1602863" lon="152.9225982">
<ele>35.995</ele>
<time>2016-01-02T07:35:39.055Z</time>
</trkpt>
<trkpt lat="-27.1605521" lon="152.9224418">
<ele>36.005</ele>
<time>2016-01-02T07:35:41.124Z</time>
</trkpt>
<trkpt lat="-27.1608026" lon="152.9222741">
<ele>35.856</ele>
<time>2016-01-02T07:35:43.172Z</time>
</trkpt>
<trkpt lat="-27.1611546" lon="152.9220603">
<ele>35.601</ele>
<time>2016-01-02T07:35:46.095Z</time>
</trkpt>
<trkpt lat="-27.1613829" lon="152.9219001">
<ele>35.109</ele>
<time>2016-01-02T07:35:48.100Z</time>
</trkpt>
<trkpt lat="-27.1616131" lon="152.9217420">
<ele>34.288</ele>
<time>2016-01-02T07:35:50.110Z</time>
</trkpt>
<trkpt lat="-27.1619524" lon="152.9215046">
<ele>33.294</ele>
<time>2016-01-02T07:35:52.962Z</time>
</trkpt>
<trkpt lat="-27.1623168" lon="152.9212318">
<ele>32.420</ele>
<time>2016-01-02T07:35:55.938Z</time>
</trkpt>
<trkpt lat="-27.1625681" lon="152.9210599">
<ele>31.879</ele>
<time>2016-01-02T07:35:57.916Z</time>
</trkpt>
<trkpt lat="-27.1628216" lon="152.9208847">
<ele>31.690</ele>
<time>2016-01-02T07:35:59.909Z</time>
</trkpt>
<trkpt lat="-27.1632066" lon="152.9206226">
<ele>31.731</ele>
<time>2016-01-02T07:36:02.952Z</time>
</trkpt>
<trkpt lat="-27.1635963" lon="152.9203981">
<ele>32.094</ele>
<time>2016-01-02T07:36:05.956Z</time>
</trkpt>
<trkpt lat="-27.1638476" lon="152.9202599">
<ele>33.025</ele>
<time>2016-01-02T07:36:07.870Z</time>
</trkpt>
<trkpt lat="-27.1642380" lon="152.9200485">
<ele>34.317</ele>
<time>2016-01-02T07:36:10.813Z</time>
</trkpt>
<trkpt lat="-27.1644955" lon="152.9199190">
<ele>35.419</ele>
<time>2016-01-02T07:36:12.754Z</time>
</trkpt>
<trkpt lat="-27.1647646" lon="152.9197849">
<ele>36.075</ele>
<time>2016-01-02T07:36:14.781Z</time>
</trkpt>
<trkpt lat="-27.1651734" lon="152.9195747">
<ele>36.282</ele>
<time>2016-01-02T07:36:17.807Z</time>
</trkpt>
<trkpt lat="-27.1654539" lon="152.9194565">
<ele>36.083</ele>
<time>2016-01-02T07:36:19.807Z</time>
</trkpt>
<trkpt lat="-27.1658696" lon="152.9192785">
<ele>35.710</ele>
<time>2016-01-02T07:36:22.665Z</time>
</trkpt>
<trkpt lat="-27.1661687" lon="152.9191597">
<ele>35.436</ele>
<time>2016-01-02T07:36:24.637Z</time>
</trkpt>
<trkpt lat="-27.1664676" lon="152.9190165">
<ele>35.657</ele>
<time>2016-01-02T07:36:26.655Z</time>
</trkpt>
<trkpt lat="-27.1669034" lon="152.9188216">
<ele>36.756</ele>
<time>2016-01-02T07:36:29.594Z</time>
</trkpt>
<trkpt lat="-27.1671967" lon="152.9186997">
<ele>38.334</ele>
<time>2016-01-02T07:36:31.503Z</time>
</trkpt>
<trkpt lat="-27.1675155" lon="152.9185590">
<ele>39.478</ele>
<time>2016-01-02T07:36:33.542Z</time>
</trkpt>
<trkpt lat="-27.1679983" lon="152.9183542">
<ele>40.215</ele>
<time>2016-01-02T07:36:36.539Z</time>
</trkpt>
<trkpt lat="-27.1683219" lon="152.9182156">
<ele>41.166</ele>
<time>2016-01-02T07:36:38.557Z</time>
</trkpt>
<trkpt lat="-27.1687782" lon="152.9179999">
<ele>42.378</ele>
<time>2016-01-02T07:36:41.538Z</time>
</trkpt>
<trkpt lat="-27.1690879" lon="152.9178562">
<ele>43.557</ele>
<time>2016-01-02T07:36:43.617Z</time>
</trkpt>
<trkpt lat="-27.1693757" lon="152.9177313">
<ele>44.496</ele>
<time>2016-01-02T07:36:45.563Z</time>
</trkpt>
<trkpt lat="-27.1696844" lon="152.9176285">
<ele>45.129</ele>
<time>2016-01-02T07:36:47.600Z</time>
</trkpt>
<trkpt lat="-27.1699792" lon="152.9175603">
<ele>45.689</ele>
<time>2016-01-02T07:36:49.489Z</time>
</trkpt>
<trkpt lat="-27.1702986" lon="152.9175361">
<ele>46.309</ele>
<time>2016-01-02T07:36:51.466Z</time>
</trkpt>
<trkpt lat="-27.1707878" lon="152.9175801">
<ele>46.805</ele>
<time>2016-01-02T07:36:54.470Z</time>
</trkpt>
<trkpt lat="-27.1710997" lon="152.9176679">
<ele>47.069</ele>
<time>2016-01-02T07:36:56.447Z</time>
</trkpt>
<trkpt lat="-27.1715560" lon="152.9178748">
<ele>47.189</ele>
<time>2016-01-02T07:36:59.533Z</time>
</trkpt>
<trkpt lat="-27.1718360" lon="152.9180631">
<ele>46.770</ele>
<time>2016-01-02T07:37:01.633Z</time>
</trkpt>
<trkpt lat="-27.1721829" lon="152.9183765">
<ele>45.454</ele>
<time>2016-01-02T07:37:04.539Z</time>
</trkpt>
<trkpt lat="-27.1723895" lon="152.9186203">
<ele>43.711</ele>
<time>2016-01-02T07:37:06.477Z</time>
</trkpt>
<trkpt lat="-27.1725988" lon="152.9188733">
<ele>42.094</ele>
<time>2016-01-02T07:37:08.450Z</time>
</trkpt>
<trkpt lat="-27.1729063" lon="152.9192553">
<ele>40.835</ele>
<time>2016-01-02T07:37:11.379Z</time>
</trkpt>
<trkpt lat="-27.1732313" lon="152.9196406">
<ele>39.862</ele>
<time>2016-01-02T07:37:14.373Z</time>
</trkpt>
<trkpt lat="-27.1734524" lon="152.9198965">
<ele>38.607</ele>
<time>2016-01-02T07:37:16.396Z</time>
</trkpt>
<trkpt lat="-27.1737791" lon="152.9202921">
<ele>36.858</ele>
<time>2016-01-02T07:37:19.459Z</time>
</trkpt>
<trkpt lat="-27.1741088" lon="152.9206621">
<ele>34.729</ele>
<time>2016-01-02T07:37:22.398Z</time>
</trkpt>
<trkpt lat="-27.1743352" lon="152.9209271">
<ele>32.099</ele>
<time>2016-01-02T07:37:24.416Z</time>
</trkpt>
<trkpt lat="-27.1746775" lon="152.9213151">
<ele>29.187</ele>
<time>2016-01-02T07:37:27.367Z</time>
</trkpt>
<trkpt lat="-27.1748951" lon="152.9215841">
<ele>26.522</ele>
<time>2016-01-02T07:37:29.297Z</time>
</trkpt>
<trkpt lat="-27.1752468" lon="152.9219752">
<ele>24.434</ele>
<time>2016-01-02T07:37:32.218Z</time>
</trkpt>
<trkpt lat="-27.1756007" lon="152.9223454">
<ele>23.160</ele>
<time>2016-01-02T07:37:35.048Z</time>
</trkpt>
<trkpt lat="-27.1759358" lon="152.9227692">
<ele>22.812</ele>
<time>2016-01-02T07:37:37.964Z</time>
</trkpt>
<trkpt lat="-27.1763067" lon="152.9231831">
<ele>23.177</ele>
<time>2016-01-02T07:37:40.979Z</time>
</trkpt>
<trkpt lat="-27.1765500" lon="152.9234652">
<ele>24.411</ele>
<time>2016-01-02T07:37:43.073Z</time>
</trkpt>
<trkpt lat="-27.1767773" lon="152.9237120">
<ele>26.469</ele>
<time>2016-01-02T07:37:45.052Z</time>
</trkpt>
<trkpt lat="-27.1771064" lon="152.9240964">
<ele>28.314</ele>
<time>2016-01-02T07:37:48.142Z</time>
</trkpt>
<trkpt lat="-27.1773079" lon="152.9243419">
<ele>29.137</ele>
<time>2016-01-02T07:37:50.146Z</time>
</trkpt>
<trkpt lat="-27.1776157" lon="152.9246856">
<ele>29.106</ele>
<time>2016-01-02T07:37:53.184Z</time>
</trkpt>
<trkpt lat="-27.1778886" lon="152.9250286">
<ele>28.526</ele>
<time>2016-01-02T07:37:56.472Z</time>
</trkpt>
<trkpt lat="-27.1780787" lon="152.9252999">
<ele>27.497</ele>
<time>2016-01-02T07:37:59.543Z</time>
</trkpt>
<trkpt lat="-27.1782354" lon="152.9255176">
<ele>25.886</ele>
<time>2016-01-02T07:38:02.203Z</time>
</trkpt>
<trkpt lat="-27.1783578" lon="152.9257024">
<ele>23.961</ele>
<time>2016-01-02T07:38:04.103Z</time>
</trkpt>
<trkpt lat="-27.1786747" lon="152.9259021">
<ele>22.577</ele>
<time>2016-01-02T07:38:07.017Z</time>
</trkpt>
<trkpt lat="-27.1788913" lon="152.9261671">
<ele>22.214</ele>
<time>2016-01-02T07:38:09.235Z</time>
</trkpt>
<trkpt lat="-27.1790889" lon="152.9264046">
<ele>22.954</ele>
<time>2016-01-02T07:38:11.141Z</time>
</trkpt>
<trkpt lat="-27.1794163" lon="152.9267854">
<ele>24.524</ele>
<time>2016-01-02T07:38:13.979Z</time>
</trkpt>
<trkpt lat="-27.1796750" lon="152.9270732">
<ele>26.248</ele>
<time>2016-01-02T07:38:15.951Z</time>
</trkpt>
<trkpt lat="-27.1799418" lon="152.9273429">
<ele>28.051</ele>
<time>2016-01-02T07:38:17.921Z</time>
</trkpt>
<trkpt lat="-27.1803622" lon="152.9277022">
<ele>30.141</ele>
<time>2016-01-02T07:38:20.833Z</time>
</trkpt>
<trkpt lat="-27.1806878" lon="152.9279139">
<ele>31.888</ele>
<time>2016-01-02T07:38:22.903Z</time>
</trkpt>
<trkpt lat="-27.1810037" lon="152.9280988">
<ele>32.665</ele>
<time>2016-01-02T07:38:24.895Z</time>
</trkpt>
<trkpt lat="-27.1814653" lon="152.9283591">
<ele>32.336</ele>
<time>2016-01-02T07:38:27.812Z</time>
</trkpt>
<trkpt lat="-27.1819430" lon="152.9286116">
<ele>31.194</ele>
<time>2016-01-02T07:38:30.817Z</time>
</trkpt>
<trkpt lat="-27.1824145" lon="152.9288748">
<ele>30.047</ele>
<time>2016-01-02T07:38:33.899Z</time>
</trkpt>
<trkpt lat="-27.1828555" lon="152.9291025">
<ele>29.588</ele>
<time>2016-01-02T07:38:36.918Z</time>
</trkpt>
<trkpt lat="-27.1831447" lon="152.9292500">
<ele>29.809</ele>
<time>2016-01-02T07:38:39.149Z</time>
</trkpt>
<trkpt lat="-27.1834124" lon="152.9293640">
<ele>30.277</ele>
<time>2016-01-02T07:38:41.331Z</time>
</trkpt>
<trkpt lat="-27.1837403" lon="152.9295665">
<ele>30.618</ele>
<time>2016-01-02T07:38:44.132Z</time>
</trkpt>
<trkpt lat="-27.1840843" lon="152.9297791">
<ele>30.826</ele>
<time>2016-01-02T07:38:46.846Z</time>
</trkpt>
<trkpt lat="-27.1845029" lon="152.9300377">
<ele>31.447</ele>
<time>2016-01-02T07:38:49.900Z</time>
</trkpt>
<trkpt lat="-27.1847541" lon="152.9302517">
<ele>32.957</ele>
<time>2016-01-02T07:38:51.885Z</time>
</trkpt>
<trkpt lat="-27.1850894" lon="152.9306019">
<ele>34.763</ele>
<time>2016-01-02T07:38:54.798Z</time>
</trkpt>
<trkpt lat="-27.1852696" lon="152.9308609">
<ele>35.734</ele>
<time>2016-01-02T07:38:56.674Z</time>
</trkpt>
<trkpt lat="-27.1854959" lon="152.9313231">
<ele>35.575</ele>
<time>2016-01-02T07:38:59.678Z</time>
</trkpt>
<trkpt lat="-27.1856201" lon="152.9316536">
<ele>34.508</ele>
<time>2016-01-02T07:39:01.714Z</time>
</trkpt>
<trkpt lat="-27.1857031" lon="152.9319782">
<ele>32.879</ele>
<time>2016-01-02T07:39:03.642Z</time>
</trkpt>
<trkpt lat="-27.1857496" lon="152.9323033">
<ele>31.093</ele>
<time>2016-01-02T07:39:05.531Z</time>
</trkpt>
<trkpt lat="-27.1857874" lon="152.9328268">
<ele>29.140</ele>
<time>2016-01-02T07:39:08.575Z</time>
</trkpt>
<trkpt lat="-27.1857802" lon="152.9331555">
<ele>26.569</ele>
<time>2016-01-02T07:39:10.613Z</time>
</trkpt>
<trkpt lat="-27.1857490" lon="152.9334461">
<ele>23.399</ele>
<time>2016-01-02T07:39:12.682Z</time>
</trkpt>
<trkpt lat="-27.1856935" lon="152.9336991">
<ele>20.053</ele>
<time>2016-01-02T07:39:14.917Z</time>
</trkpt>
<trkpt lat="-27.1855740" lon="152.9339793">
<ele>16.978</ele>
<time>2016-01-02T07:39:18.070Z</time>
</trkpt>
<trkpt lat="-27.1855227" lon="152.9342281">
<ele>14.535</ele>
<time>2016-01-02T07:39:21.341Z</time>
</trkpt>
<trkpt lat="-27.1857145" lon="152.9342847">
<ele>12.843</ele>
<time>2016-01-02T07:39:24.323Z</time>
</trkpt>
<trkpt lat="-27.1858625" lon="152.9342641">
<ele>11.802</ele>
<time>2016-01-02T07:39:26.424Z</time>
</trkpt>
<trkpt lat="-27.1860180" lon="152.9343446">
<ele>11.296</ele>
<time>2016-01-02T07:39:28.801Z</time>
</trkpt>
<trkpt lat="-27.1860812" lon="152.9345087">
<ele>11.241</ele>
<time>2016-01-02T07:39:30.445Z</time>
</trkpt>
<trkpt lat="-27.1861759" lon="152.9349221">
<ele>11.596</ele>
<time>2016-01-02T07:39:33.638Z</time>
</trkpt>
<trkpt lat="-27.1862653" lon="152.9354184">
<ele>12.941</ele>
<time>2016-01-02T07:39:36.724Z</time>
</trkpt>
<trkpt lat="-27.1863346" lon="152.9357815">
<ele>15.844</ele>
<time>2016-01-02T07:39:38.907Z</time>
</trkpt>
<trkpt lat="-27.1864271" lon="152.9362401">
<ele>19.418</ele>
<time>2016-01-02T07:39:41.673Z</time>
</trkpt>
<trkpt lat="-27.1865121" lon="152.9367411">
<ele>22.071</ele>
<time>2016-01-02T07:39:44.594Z</time>
</trkpt>
<trkpt lat="-27.1866003" lon="152.9372792">
<ele>23.836</ele>
<time>2016-01-02T07:39:47.650Z</time>
</trkpt>
<trkpt lat="-27.1866713" lon="152.9376296">
<ele>25.554</ele>
<time>2016-01-02T07:39:49.676Z</time>
</trkpt>
<trkpt lat="-27.1867368" lon="152.9379677">
<ele>27.201</ele>
<time>2016-01-02T07:39:51.657Z</time>
</trkpt>
<trkpt lat="-27.1868197" lon="152.9382964">
<ele>28.403</ele>
<time>2016-01-02T07:39:53.602Z</time>
</trkpt>
<trkpt lat="-27.1870579" lon="152.9387472">
<ele>29.233</ele>
<time>2016-01-02T07:39:56.540Z</time>
</trkpt>
<trkpt lat="-27.1872489" lon="152.9390380">
<ele>30.009</ele>
<time>2016-01-02T07:39:58.582Z</time>
</trkpt>
<trkpt lat="-27.1874423" lon="152.9393185">
<ele>31.229</ele>
<time>2016-01-02T07:40:00.610Z</time>
</trkpt>
<trkpt lat="-27.1877239" lon="152.9397631">
<ele>32.997</ele>
<time>2016-01-02T07:40:03.722Z</time>
</trkpt>
<trkpt lat="-27.1879346" lon="152.9400070">
<ele>35.213</ele>
<time>2016-01-02T07:40:05.691Z</time>
</trkpt>
<trkpt lat="-27.1882644" lon="152.9403697">
<ele>37.907</ele>
<time>2016-01-02T07:40:08.693Z</time>
</trkpt>
<trkpt lat="-27.1885124" lon="152.9405746">
<ele>41.222</ele>
<time>2016-01-02T07:40:10.652Z</time>
</trkpt>
<trkpt lat="-27.1887900" lon="152.9407464">
<ele>45.077</ele>
<time>2016-01-02T07:40:12.663Z</time>
</trkpt>
<trkpt lat="-27.1890584" lon="152.9409049">
<ele>48.731</ele>
<time>2016-01-02T07:40:14.611Z</time>
</trkpt>
<trkpt lat="-27.1893412" lon="152.9410617">
<ele>51.240</ele>
<time>2016-01-02T07:40:16.710Z</time>
</trkpt>
<trkpt lat="-27.1897392" lon="152.9412636">
<ele>52.351</ele>
<time>2016-01-02T07:40:19.664Z</time>
</trkpt>
<trkpt lat="-27.1901199" lon="152.9415181">
<ele>52.380</ele>
<time>2016-01-02T07:40:22.626Z</time>
</trkpt>
<trkpt lat="-27.1904378" lon="152.9418827">
<ele>51.946</ele>
<time>2016-01-02T07:40:25.573Z</time>
</trkpt>
<trkpt lat="-27.1906763" lon="152.9423266">
<ele>51.851</ele>
<time>2016-01-02T07:40:28.506Z</time>
</trkpt>
<trkpt lat="-27.1909304" lon="152.9427648">
<ele>52.600</ele>
<time>2016-01-02T07:40:31.519Z</time>
</trkpt>
<trkpt lat="-27.1912359" lon="152.9430856">
<ele>53.837</ele>
<time>2016-01-02T07:40:34.329Z</time>
</trkpt>
<trkpt lat="-27.1916166" lon="152.9433948">
<ele>54.832</ele>
<time>2016-01-02T07:40:37.492Z</time>
</trkpt>
<trkpt lat="-27.1918503" lon="152.9435953">
<ele>55.290</ele>
<time>2016-01-02T07:40:39.429Z</time>
</trkpt>
<trkpt lat="-27.1920821" lon="152.9438184">
<ele>55.140</ele>
<time>2016-01-02T07:40:41.400Z</time>
</trkpt>
<trkpt lat="-27.1924769" lon="152.9441297">
<ele>54.374</ele>
<time>2016-01-02T07:40:44.482Z</time>
</trkpt>
<trkpt lat="-27.1927320" lon="152.9443318">
<ele>53.251</ele>
<time>2016-01-02T07:40:46.496Z</time>
</trkpt>
<trkpt lat="-27.1931073" lon="152.9446176">
<ele>52.225</ele>
<time>2016-01-02T07:40:49.463Z</time>
</trkpt>
<trkpt lat="-27.1933502" lon="152.9448144">
<ele>51.602</ele>
<time>2016-01-02T07:40:51.485Z</time>
</trkpt>
<trkpt lat="-27.1935656" lon="152.9450117">
<ele>51.398</ele>
<time>2016-01-02T07:40:53.459Z</time>
</trkpt>
<trkpt lat="-27.1938268" lon="152.9453477">
<ele>51.412</ele>
<time>2016-01-02T07:40:56.341Z</time>
</trkpt>
<trkpt lat="-27.1939288" lon="152.9456458">
<ele>51.472</ele>
<time>2016-01-02T07:40:58.282Z</time>
</trkpt>
<trkpt lat="-27.1940079" lon="152.9461672">
<ele>51.743</ele>
<time>2016-01-02T07:41:01.311Z</time>
</trkpt>
<trkpt lat="-27.1940902" lon="152.9466935">
<ele>52.495</ele>
<time>2016-01-02T07:41:04.316Z</time>
</trkpt>
<trkpt lat="-27.1941380" lon="152.9470113">
<ele>53.533</ele>
<time>2016-01-02T07:41:06.212Z</time>
</trkpt>
<trkpt lat="-27.1941914" lon="152.9473407">
<ele>54.322</ele>
<time>2016-01-02T07:41:08.211Z</time>
</trkpt>
<trkpt lat="-27.1942512" lon="152.9476676">
<ele>54.655</ele>
<time>2016-01-02T07:41:10.186Z</time>
</trkpt>
<trkpt lat="-27.1944043" lon="152.9481427">
<ele>54.767</ele>
<time>2016-01-02T07:41:13.140Z</time>
</trkpt>
<trkpt lat="-27.1945789" lon="152.9486259">
<ele>54.896</ele>
<time>2016-01-02T07:41:16.204Z</time>
</trkpt>
<trkpt lat="-27.1947263" lon="152.9490724">
<ele>55.019</ele>
<time>2016-01-02T07:41:19.125Z</time>
</trkpt>
<trkpt lat="-27.1948287" lon="152.9493573">
<ele>55.077</ele>
<time>2016-01-02T07:41:21.059Z</time>
</trkpt>
<trkpt lat="-27.1949919" lon="152.9496275">
<ele>55.189</ele>
<time>2016-01-02T07:41:23.045Z</time>
</trkpt>
<trkpt lat="-27.1952616" lon="152.9500393">
<ele>55.699</ele>
<time>2016-01-02T07:41:26.028Z</time>
</trkpt>
<trkpt lat="-27.1955585" lon="152.9504786">
<ele>56.624</ele>
<time>2016-01-02T07:41:29.135Z</time>
</trkpt>
<trkpt lat="-27.1957419" lon="152.9507580">
<ele>57.346</ele>
<time>2016-01-02T07:41:31.113Z</time>
</trkpt>
<trkpt lat="-27.1959204" lon="152.9510303">
<ele>57.403</ele>
<time>2016-01-02T07:41:33.084Z</time>
</trkpt>
<trkpt lat="-27.1960835" lon="152.9513043">
<ele>56.895</ele>
<time>2016-01-02T07:41:35.025Z</time>
</trkpt>
<trkpt lat="-27.1963482" lon="152.9517058">
<ele>56.042</ele>
<time>2016-01-02T07:41:37.972Z</time>
</trkpt>
<trkpt lat="-27.1965394" lon="152.9519798">
<ele>55.083</ele>
<time>2016-01-02T07:41:40.029Z</time>
</trkpt>
<trkpt lat="-27.1967980" lon="152.9523754">
<ele>53.998</ele>
<time>2016-01-02T07:41:42.935Z</time>
</trkpt>
<trkpt lat="-27.1969480" lon="152.9526718">
<ele>52.500</ele>
<time>2016-01-02T07:41:44.962Z</time>
</trkpt>
<trkpt lat="-27.1970429" lon="152.9529897">
<ele>50.853</ele>
<time>2016-01-02T07:41:46.979Z</time>
</trkpt>
<trkpt lat="-27.1970258" lon="152.9533312">
<ele>49.772</ele>
<time>2016-01-02T07:41:49.043Z</time>
</trkpt>
<trkpt lat="-27.1968880" lon="152.9538600">
<ele>49.741</ele>
<time>2016-01-02T07:41:52.282Z</time>
</trkpt>
<trkpt lat="-27.1967983" lon="152.9541909">
<ele>50.601</ele>
<time>2016-01-02T07:41:54.246Z</time>
</trkpt>
<trkpt lat="-27.1967102" lon="152.9547107">
<ele>51.475</ele>
<time>2016-01-02T07:41:57.245Z</time>
</trkpt>
<trkpt lat="-27.1966896" lon="152.9550509">
<ele>51.715</ele>
<time>2016-01-02T07:41:59.205Z</time>
</trkpt>
<trkpt lat="-27.1966953" lon="152.9555560">
<ele>51.419</ele>
<time>2016-01-02T07:42:02.141Z</time>
</trkpt>
<trkpt lat="-27.1967519" lon="152.9558678">
<ele>50.587</ele>
<time>2016-01-02T07:42:04.007Z</time>
</trkpt>
<trkpt lat="-27.1968955" lon="152.9563378">
<ele>49.103</ele>
<time>2016-01-02T07:42:06.953Z</time>
</trkpt>
<trkpt lat="-27.1970170" lon="152.9566207">
<ele>47.049</ele>
<time>2016-01-02T07:42:08.898Z</time>
</trkpt>
<trkpt lat="-27.1971660" lon="152.9570012">
<ele>44.693</ele>
<time>2016-01-02T07:42:11.666Z</time>
</trkpt>
<trkpt lat="-27.1972604" lon="152.9571998">
<ele>41.779</ele>
<time>2016-01-02T07:42:13.379Z</time>
</trkpt>
<trkpt lat="-27.1975263" lon="152.9573930">
<ele>37.932</ele>
<time>2016-01-02T07:42:16.283Z</time>
</trkpt>
<trkpt lat="-27.1977953" lon="152.9573845">
<ele>33.893</ele>
<time>2016-01-02T07:42:18.507Z</time>
</trkpt>
<trkpt lat="-27.1981351" lon="152.9573960">
<ele>31.032</ele>
<time>2016-01-02T07:42:20.799Z</time>
</trkpt>
<trkpt lat="-27.1986503" lon="152.9573901">
<ele>29.783</ele>
<time>2016-01-02T07:42:23.969Z</time>
</trkpt>
<trkpt lat="-27.1991312" lon="152.9573888">
<ele>29.655</ele>
<time>2016-01-02T07:42:26.938Z</time>
</trkpt>
<trkpt lat="-27.1996052" lon="152.9574047">
<ele>29.719</ele>
<time>2016-01-02T07:42:29.913Z</time>
</trkpt>
<trkpt lat="-27.1999368" lon="152.9575020">
<ele>29.444</ele>
<time>2016-01-02T07:42:32.068Z</time>
</trkpt>
<trkpt lat="-27.2003954" lon="152.9576673">
<ele>29.014</ele>
<time>2016-01-02T07:42:35.100Z</time>
</trkpt>
<trkpt lat="-27.2008285" lon="152.9578706">
<ele>28.757</ele>
<time>2016-01-02T07:42:38.107Z</time>
</trkpt>
<trkpt lat="-27.2010941" lon="152.9580187">
<ele>28.594</ele>
<time>2016-01-02T07:42:40.097Z</time>
</trkpt>
<trkpt lat="-27.2014456" lon="152.9582706">
<ele>28.369</ele>
<time>2016-01-02T07:42:43.011Z</time>
</trkpt>
<trkpt lat="-27.2016218" lon="152.9584778">
<ele>28.151</ele>
<time>2016-01-02T07:42:44.880Z</time>
</trkpt>
<trkpt lat="-27.2017864" lon="152.9586900">
<ele>28.186</ele>
<time>2016-01-02T07:42:46.738Z</time>
</trkpt>
<trkpt lat="-27.2019609" lon="152.9589151">
<ele>28.524</ele>
<time>2016-01-02T07:42:48.725Z</time>
</trkpt>
<trkpt lat="-27.2022299" lon="152.9592362">
<ele>29.044</ele>
<time>2016-01-02T07:42:51.734Z</time>
</trkpt>
<trkpt lat="-27.2023974" lon="152.9594274">
<ele>29.595</ele>
<time>2016-01-02T07:42:53.634Z</time>
</trkpt>
<trkpt lat="-27.2026674" lon="152.9597474">
<ele>29.999</ele>
<time>2016-01-02T07:42:56.753Z</time>
</trkpt>
<trkpt lat="-27.2028474" lon="152.9599559">
<ele>30.147</ele>
<time>2016-01-02T07:42:58.780Z</time>
</trkpt>
<trkpt lat="-27.2031018" lon="152.9602546">
<ele>30.149</ele>
<time>2016-01-02T07:43:01.751Z</time>
</trkpt>
<trkpt lat="-27.2032589" lon="152.9604379">
<ele>29.930</ele>
<time>2016-01-02T07:43:03.822Z</time>
</trkpt>
<trkpt lat="-27.2034338" lon="152.9606554">
<ele>29.210</ele>
<time>2016-01-02T07:43:06.762Z</time>
</trkpt>
<trkpt lat="-27.2035295" lon="152.9607711">
<ele>27.788</ele>
<time>2016-01-02T07:43:09.000Z</time>
</trkpt>
<trkpt lat="-27.2035295" lon="152.9607711">
<ele>26.050</ele>
<time>2016-01-02T07:43:13.000Z</time>
</trkpt>
<trkpt lat="-27.2035295" lon="152.9607711">
<ele>24.990</ele>
<time>2016-01-02T07:43:17.386Z</time>
</trkpt>
<trkpt lat="-27.2036721" lon="152.9609114">
<ele>25.044</ele>
<time>2016-01-02T07:43:20.923Z</time>
</trkpt>
<trkpt lat="-27.2038656" lon="152.9611685">
<ele>25.580</ele>
<time>2016-01-02T07:43:23.389Z</time>
</trkpt>
<trkpt lat="-27.2041029" lon="152.9615140">
<ele>26.679</ele>
<time>2016-01-02T07:43:26.052Z</time>
</trkpt>
<trkpt lat="-27.2044363" lon="152.9620349">
<ele>29.433</ele>
<time>2016-01-02T07:43:29.651Z</time>
</trkpt>
<trkpt lat="-27.2046635" lon="152.9623492">
<ele>33.312</ele>
<time>2016-01-02T07:43:31.799Z</time>
</trkpt>
<trkpt lat="-27.2050387" lon="152.9626940">
<ele>35.848</ele>
<time>2016-01-02T07:43:34.666Z</time>
</trkpt>
<trkpt lat="-27.2054702" lon="152.9630056">
<ele>35.821</ele>
<time>2016-01-02T07:43:37.666Z</time>
</trkpt>
<trkpt lat="-27.2057587" lon="152.9632218">
<ele>34.262</ele>
<time>2016-01-02T07:43:39.691Z</time>
</trkpt>
<trkpt lat="-27.2061713" lon="152.9635534">
<ele>32.738</ele>
<time>2016-01-02T07:43:42.583Z</time>
</trkpt>
<trkpt lat="-27.2064729" lon="152.9637874">
<ele>32.039</ele>
<time>2016-01-02T07:43:44.634Z</time>
</trkpt>
<trkpt lat="-27.2067341" lon="152.9640312">
<ele>32.152</ele>
<time>2016-01-02T07:43:46.515Z</time>
</trkpt>
<trkpt lat="-27.2070263" lon="152.9642885">
<ele>32.662</ele>
<time>2016-01-02T07:43:48.547Z</time>
</trkpt>
<trkpt lat="-27.2074848" lon="152.9646536">
<ele>33.125</ele>
<time>2016-01-02T07:43:51.557Z</time>
</trkpt>
<trkpt lat="-27.2078039" lon="152.9648202">
<ele>33.131</ele>
<time>2016-01-02T07:43:53.392Z</time>
</trkpt>
<trkpt lat="-27.2081702" lon="152.9649773">
<ele>32.545</ele>
<time>2016-01-02T07:43:55.391Z</time>
</trkpt>
<trkpt lat="-27.2087485" lon="152.9651300">
<ele>31.606</ele>
<time>2016-01-02T07:43:58.366Z</time>
</trkpt>
<trkpt lat="-27.2091401" lon="152.9651844">
<ele>30.689</ele>
<time>2016-01-02T07:44:00.375Z</time>
</trkpt>
<trkpt lat="-27.2096987" lon="152.9652295">
<ele>30.030</ele>
<time>2016-01-02T07:44:03.262Z</time>
</trkpt>
<trkpt lat="-27.2100970" lon="152.9652332">
<ele>29.875</ele>
<time>2016-01-02T07:44:05.304Z</time>
</trkpt>
<trkpt lat="-27.2104878" lon="152.9652346">
<ele>30.464</ele>
<time>2016-01-02T07:44:07.303Z</time>
</trkpt>
<trkpt lat="-27.2110822" lon="152.9652172">
<ele>31.619</ele>
<time>2016-01-02T07:44:10.316Z</time>
</trkpt>
<trkpt lat="-27.2114748" lon="152.9652277">
<ele>32.924</ele>
<time>2016-01-02T07:44:12.259Z</time>
</trkpt>
<trkpt lat="-27.2120883" lon="152.9652768">
<ele>34.088</ele>
<time>2016-01-02T07:44:15.244Z</time>
</trkpt>
<trkpt lat="-27.2126963" lon="152.9653992">
<ele>34.827</ele>
<time>2016-01-02T07:44:18.262Z</time>
</trkpt>
<trkpt lat="-27.2133125" lon="152.9655883">
<ele>35.111</ele>
<time>2016-01-02T07:44:21.494Z</time>
</trkpt>
<trkpt lat="-27.2136583" lon="152.9657238">
<ele>35.223</ele>
<time>2016-01-02T07:44:23.359Z</time>
</trkpt>
<trkpt lat="-27.2142075" lon="152.9659679">
<ele>35.336</ele>
<time>2016-01-02T07:44:26.309Z</time>
</trkpt>
<trkpt lat="-27.2147321" lon="152.9662879">
<ele>35.706</ele>
<time>2016-01-02T07:44:29.268Z</time>
</trkpt>
<trkpt lat="-27.2150877" lon="152.9665384">
<ele>36.483</ele>
<time>2016-01-02T07:44:31.355Z</time>
</trkpt>
<trkpt lat="-27.2155568" lon="152.9669878">
<ele>37.387</ele>
<time>2016-01-02T07:44:34.553Z</time>
</trkpt>
<trkpt lat="-27.2159382" lon="152.9674035">
<ele>38.102</ele>
<time>2016-01-02T07:44:37.497Z</time>
</trkpt>
<trkpt lat="-27.2161898" lon="152.9676606">
<ele>38.498</ele>
<time>2016-01-02T07:44:39.318Z</time>
</trkpt>
<trkpt lat="-27.2166839" lon="152.9680071">
<ele>38.694</ele>
<time>2016-01-02T07:44:42.183Z</time>
</trkpt>
<trkpt lat="-27.2170697" lon="152.9682080">
<ele>39.309</ele>
<time>2016-01-02T07:44:44.172Z</time>
</trkpt>
<trkpt lat="-27.2176458" lon="152.9684986">
<ele>40.712</ele>
<time>2016-01-02T07:44:47.162Z</time>
</trkpt>
<trkpt lat="-27.2182311" lon="152.9687646">
<ele>42.293</ele>
<time>2016-01-02T07:44:50.209Z</time>
</trkpt>
<trkpt lat="-27.2187801" lon="152.9690265">
<ele>43.008</ele>
<time>2016-01-02T07:44:53.120Z</time>
</trkpt>
<trkpt lat="-27.2191613" lon="152.9691900">
<ele>42.270</ele>
<time>2016-01-02T07:44:55.096Z</time>
</trkpt>
<trkpt lat="-27.2195559" lon="152.9693445">
<ele>40.453</ele>
<time>2016-01-02T07:44:57.119Z</time>
</trkpt>
<trkpt lat="-27.2199316" lon="152.9695084">
<ele>38.579</ele>
<time>2016-01-02T07:44:59.069Z</time>
</trkpt>
<trkpt lat="-27.2205170" lon="152.9697376">
<ele>36.883</ele>
<time>2016-01-02T07:45:02.098Z</time>
</trkpt>
<trkpt lat="-27.2209077" lon="152.9698339">
<ele>34.969</ele>
<time>2016-01-02T07:45:04.104Z</time>
</trkpt>
<trkpt lat="-27.2214786" lon="152.9699471">
<ele>33.180</ele>
<time>2016-01-02T07:45:06.995Z</time>
</trkpt>
<trkpt lat="-27.2220869" lon="152.9700106">
<ele>32.251</ele>
<time>2016-01-02T07:45:09.965Z</time>
</trkpt>
<trkpt lat="-27.2227199" lon="152.9700837">
<ele>32.278</ele>
<time>2016-01-02T07:45:12.974Z</time>
</trkpt>
<trkpt lat="-27.2233169" lon="152.9703060">
<ele>32.828</ele>
<time>2016-01-02T07:45:15.909Z</time>
</trkpt>
<trkpt lat="-27.2236867" lon="152.9705215">
<ele>33.353</ele>
<time>2016-01-02T07:45:17.891Z</time>
</trkpt>
<trkpt lat="-27.2241294" lon="152.9709778">
<ele>33.289</ele>
<time>2016-01-02T07:45:20.829Z</time>
</trkpt>
<trkpt lat="-27.2243834" lon="152.9713042">
<ele>32.557</ele>
<time>2016-01-02T07:45:22.790Z</time>
</trkpt>
<trkpt lat="-27.2246799" lon="152.9718697">
<ele>31.815</ele>
<time>2016-01-02T07:45:25.742Z</time>
</trkpt>
<trkpt lat="-27.2249848" lon="152.9724433">
<ele>31.882</ele>
<time>2016-01-02T07:45:28.727Z</time>
</trkpt>
<trkpt lat="-27.2252141" lon="152.9727990">
<ele>32.872</ele>
<time>2016-01-02T07:45:30.758Z</time>
</trkpt>
<trkpt lat="-27.2255872" lon="152.9732560">
<ele>34.086</ele>
<time>2016-01-02T07:45:33.690Z</time>
</trkpt>
<trkpt lat="-27.2258660" lon="152.9735181">
<ele>34.642</ele>
<time>2016-01-02T07:45:35.670Z</time>
</trkpt>
<trkpt lat="-27.2261785" lon="152.9737616">
<ele>34.200</ele>
<time>2016-01-02T07:45:37.800Z</time>
</trkpt>
<trkpt lat="-27.2264808" lon="152.9739413">
<ele>33.187</ele>
<time>2016-01-02T07:45:39.739Z</time>
</trkpt>
<trkpt lat="-27.2270122" lon="152.9740489">
<ele>32.377</ele>
<time>2016-01-02T07:45:42.762Z</time>
</trkpt>
<trkpt lat="-27.2275674" lon="152.9740415">
<ele>32.179</ele>
<time>2016-01-02T07:45:45.802Z</time>
</trkpt>
<trkpt lat="-27.2279275" lon="152.9740354">
<ele>32.470</ele>
<time>2016-01-02T07:45:47.749Z</time>
</trkpt>
<trkpt lat="-27.2284745" lon="152.9741848">
<ele>32.827</ele>
<time>2016-01-02T07:45:50.788Z</time>
</trkpt>
<trkpt lat="-27.2289818" lon="152.9744617">
<ele>32.954</ele>
<time>2016-01-02T07:45:53.825Z</time>
</trkpt>
<trkpt lat="-27.2292917" lon="152.9746655">
<ele>33.245</ele>
<time>2016-01-02T07:45:55.753Z</time>
</trkpt>
<trkpt lat="-27.2297824" lon="152.9749506">
<ele>34.124</ele>
<time>2016-01-02T07:45:58.726Z</time>
</trkpt>
<trkpt lat="-27.2301207" lon="152.9751280">
<ele>35.192</ele>
<time>2016-01-02T07:46:00.782Z</time>
</trkpt>
<trkpt lat="-27.2306092" lon="152.9753617">
<ele>35.822</ele>
<time>2016-01-02T07:46:03.771Z</time>
</trkpt>
<trkpt lat="-27.2310650" lon="152.9756194">
<ele>35.529</ele>
<time>2016-01-02T07:46:06.686Z</time>
</trkpt>
<trkpt lat="-27.2315327" lon="152.9758764">
<ele>34.106</ele>
<time>2016-01-02T07:46:09.633Z</time>
</trkpt>
<trkpt lat="-27.2320263" lon="152.9761204">
<ele>32.240</ele>
<time>2016-01-02T07:46:12.631Z</time>
</trkpt>
<trkpt lat="-27.2323758" lon="152.9762380">
<ele>30.900</ele>
<time>2016-01-02T07:46:14.619Z</time>
</trkpt>
<trkpt lat="-27.2329044" lon="152.9764014">
<ele>30.308</ele>
<time>2016-01-02T07:46:17.614Z</time>
</trkpt>
<trkpt lat="-27.2334337" lon="152.9765288">
<ele>29.980</ele>
<time>2016-01-02T07:46:20.643Z</time>
</trkpt>
<trkpt lat="-27.2339345" lon="152.9765797">
<ele>29.499</ele>
<time>2016-01-02T07:46:23.488Z</time>
</trkpt>
<trkpt lat="-27.2342948" lon="152.9765262">
<ele>29.243</ele>
<time>2016-01-02T07:46:25.401Z</time>
</trkpt>
<trkpt lat="-27.2348639" lon="152.9763252">
<ele>30.177</ele>
<time>2016-01-02T07:46:28.420Z</time>
</trkpt>
<trkpt lat="-27.2354397" lon="152.9760923">
<ele>32.917</ele>
<time>2016-01-02T07:46:31.514Z</time>
</trkpt>
<trkpt lat="-27.2357950" lon="152.9759843">
<ele>36.535</ele>
<time>2016-01-02T07:46:33.452Z</time>
</trkpt>
<trkpt lat="-27.2363374" lon="152.9758399">
<ele>39.175</ele>
<time>2016-01-02T07:46:36.432Z</time>
</trkpt>
<trkpt lat="-27.2366947" lon="152.9757612">
<ele>40.300</ele>
<time>2016-01-02T07:46:38.395Z</time>
</trkpt>
<trkpt lat="-27.2372268" lon="152.9756727">
<ele>40.671</ele>
<time>2016-01-02T07:46:41.273Z</time>
</trkpt>
<trkpt lat="-27.2377904" lon="152.9755855">
<ele>40.896</ele>
<time>2016-01-02T07:46:44.259Z</time>
</trkpt>
<trkpt lat="-27.2381749" lon="152.9755430">
<ele>41.186</ele>
<time>2016-01-02T07:46:46.253Z</time>
</trkpt>
<trkpt lat="-27.2385634" lon="152.9754996">
<ele>41.486</ele>
<time>2016-01-02T07:46:48.278Z</time>
</trkpt>
<trkpt lat="-27.2391125" lon="152.9753804">
<ele>41.378</ele>
<time>2016-01-02T07:46:51.209Z</time>
</trkpt>
<trkpt lat="-27.2394677" lon="152.9752488">
<ele>40.521</ele>
<time>2016-01-02T07:46:53.209Z</time>
</trkpt>
<trkpt lat="-27.2398212" lon="152.9751064">
<ele>39.245</ele>
<time>2016-01-02T07:46:55.239Z</time>
</trkpt>
<trkpt lat="-27.2403462" lon="152.9749072">
<ele>38.233</ele>
<time>2016-01-02T07:46:58.278Z</time>
</trkpt>
<trkpt lat="-27.2406703" lon="152.9747531">
<ele>37.689</ele>
<time>2016-01-02T07:47:00.258Z</time>
</trkpt>
<trkpt lat="-27.2409548" lon="152.9745577">
<ele>37.499</ele>
<time>2016-01-02T07:47:02.157Z</time>
</trkpt>
<trkpt lat="-27.2413200" lon="152.9741346">
<ele>37.580</ele>
<time>2016-01-02T07:47:05.095Z</time>
</trkpt>
<trkpt lat="-27.2415523" lon="152.9738014">
<ele>37.839</ele>
<time>2016-01-02T07:47:07.079Z</time>
</trkpt>
<trkpt lat="-27.2419450" lon="152.9733031">
<ele>38.174</ele>
<time>2016-01-02T07:47:10.083Z</time>
</trkpt>
<trkpt lat="-27.2424046" lon="152.9728766">
<ele>38.499</ele>
<time>2016-01-02T07:47:13.033Z</time>
</trkpt>
<trkpt lat="-27.2427398" lon="152.9726221">
<ele>38.326</ele>
<time>2016-01-02T07:47:15.011Z</time>
</trkpt>
<trkpt lat="-27.2433071" lon="152.9723450">
<ele>36.885</ele>
<time>2016-01-02T07:47:18.077Z</time>
</trkpt>
<trkpt lat="-27.2436705" lon="152.9721952">
<ele>34.450</ele>
<time>2016-01-02T07:47:20.106Z</time>
</trkpt>
<trkpt lat="-27.2441978" lon="152.9720996">
<ele>32.398</ele>
<time>2016-01-02T07:47:22.959Z</time>
</trkpt>
<trkpt lat="-27.2447625" lon="152.9720477">
<ele>31.468</ele>
<time>2016-01-02T07:47:25.951Z</time>
</trkpt>
<trkpt lat="-27.2453563" lon="152.9720465">
<ele>31.311</ele>
<time>2016-01-02T07:47:29.078Z</time>
</trkpt>
<trkpt lat="-27.2459213" lon="152.9720501">
<ele>31.645</ele>
<time>2016-01-02T07:47:32.131Z</time>
</trkpt>
<trkpt lat="-27.2462515" lon="152.9720801">
<ele>32.332</ele>
<time>2016-01-02T07:47:34.033Z</time>
</trkpt>
<trkpt lat="-27.2467463" lon="152.9721284">
<ele>32.894</ele>
<time>2016-01-02T07:47:37.018Z</time>
</trkpt>
<trkpt lat="-27.2470537" lon="152.9721294">
<ele>32.990</ele>
<time>2016-01-02T07:47:38.950Z</time>
</trkpt>
<trkpt lat="-27.2475492" lon="152.9721862">
<ele>32.995</ele>
<time>2016-01-02T07:47:42.108Z</time>
</trkpt>
<trkpt lat="-27.2478622" lon="152.9722083">
<ele>33.455</ele>
<time>2016-01-02T07:47:44.102Z</time>
</trkpt>
<trkpt lat="-27.2481678" lon="152.9722251">
<ele>34.293</ele>
<time>2016-01-02T07:47:46.128Z</time>
</trkpt>
<trkpt lat="-27.2485696" lon="152.9723210">
<ele>34.802</ele>
<time>2016-01-02T07:47:48.943Z</time>
</trkpt>
<trkpt lat="-27.2489512" lon="152.9725876">
<ele>34.336</ele>
<time>2016-01-02T07:47:52.041Z</time>
</trkpt>
<trkpt lat="-27.2492404" lon="152.9729499">
<ele>32.907</ele>
<time>2016-01-02T07:47:55.007Z</time>
</trkpt>
<trkpt lat="-27.2494517" lon="152.9733539">
<ele>31.271</ele>
<time>2016-01-02T07:47:57.887Z</time>
</trkpt>
<trkpt lat="-27.2495202" lon="152.9737215">
<ele>30.254</ele>
<time>2016-01-02T07:48:00.107Z</time>
</trkpt>
<trkpt lat="-27.2496136" lon="152.9742451">
<ele>29.991</ele>
<time>2016-01-02T07:48:03.198Z</time>
</trkpt>
<trkpt lat="-27.2497718" lon="152.9746735">
<ele>29.958</ele>
<time>2016-01-02T07:48:05.889Z</time>
</trkpt>
<trkpt lat="-27.2499239" lon="152.9749761">
<ele>29.712</ele>
<time>2016-01-02T07:48:07.892Z</time>
</trkpt>
<trkpt lat="-27.2501503" lon="152.9754334">
<ele>29.134</ele>
<time>2016-01-02T07:48:10.892Z</time>
</trkpt>
<trkpt lat="-27.2503754" lon="152.9758928">
<ele>28.159</ele>
<time>2016-01-02T07:48:13.901Z</time>
</trkpt>
<trkpt lat="-27.2505801" lon="152.9763570">
<ele>26.897</ele>
<time>2016-01-02T07:48:16.835Z</time>
</trkpt>
<trkpt lat="-27.2507193" lon="152.9767090">
<ele>25.813</ele>
<time>2016-01-02T07:48:18.958Z</time>
</trkpt>
<trkpt lat="-27.2508572" lon="152.9770325">
<ele>25.241</ele>
<time>2016-01-02T07:48:20.938Z</time>
</trkpt>
<trkpt lat="-27.2509833" lon="152.9773135">
<ele>25.118</ele>
<time>2016-01-02T07:48:22.701Z</time>
</trkpt>
<trkpt lat="-27.2512151" lon="152.9777766">
<ele>25.192</ele>
<time>2016-01-02T07:48:25.690Z</time>
</trkpt>
<trkpt lat="-27.2513751" lon="152.9780186">
<ele>25.307</ele>
<time>2016-01-02T07:48:27.378Z</time>
</trkpt>
<trkpt lat="-27.2517180" lon="152.9784716">
<ele>25.525</ele>
<time>2016-01-02T07:48:30.758Z</time>
</trkpt>
<trkpt lat="-27.2520164" lon="152.9788137">
<ele>25.888</ele>
<time>2016-01-02T07:48:33.645Z</time>
</trkpt>
<trkpt lat="-27.2523016" lon="152.9791423">
<ele>26.243</ele>
<time>2016-01-02T07:48:36.536Z</time>
</trkpt>
<trkpt lat="-27.2526055" lon="152.9795280">
<ele>26.463</ele>
<time>2016-01-02T07:48:39.661Z</time>
</trkpt>
<trkpt lat="-27.2527806" lon="152.9797191">
<ele>26.700</ele>
<time>2016-01-02T07:48:41.242Z</time>
</trkpt>
<trkpt lat="-27.2531564" lon="152.9801442">
<ele>27.098</ele>
<time>2016-01-02T07:48:44.713Z</time>
</trkpt>
<trkpt lat="-27.2534570" lon="152.9805055">
<ele>27.506</ele>
<time>2016-01-02T07:48:47.674Z</time>
</trkpt>
<trkpt lat="-27.2536825" lon="152.9807251">
<ele>27.716</ele>
<time>2016-01-02T07:48:49.693Z</time>
</trkpt>
<trkpt lat="-27.2539265" lon="152.9809151">
<ele>27.797</ele>
<time>2016-01-02T07:48:51.706Z</time>
</trkpt>
<trkpt lat="-27.2542324" lon="152.9811806">
<ele>27.888</ele>
<time>2016-01-02T07:48:54.413Z</time>
</trkpt>
<trkpt lat="-27.2545398" lon="152.9812756">
<ele>28.005</ele>
<time>2016-01-02T07:48:57.122Z</time>
</trkpt>
<trkpt lat="-27.2547872" lon="152.9813728">
<ele>27.575</ele>
<time>2016-01-02T07:49:00.231Z</time>
</trkpt>
<trkpt lat="-27.2548705" lon="152.9814189">
<ele>25.615</ele>
<time>2016-01-02T07:49:02.285Z</time>
</trkpt>
<trkpt lat="-27.2549481" lon="152.9814793">
<ele>22.396</ele>
<time>2016-01-02T07:49:05.000Z</time>
</trkpt>
<trkpt lat="-27.2549481" lon="152.9814793">
<ele>19.613</ele>
<time>2016-01-02T07:49:07.000Z</time>
</trkpt>
<trkpt lat="-27.2549481" lon="152.9814793">
<ele>18.428</ele>
<time>2016-01-02T07:50:17.374Z</time>
</trkpt>
<trkpt lat="-27.2550909" lon="152.9815676">
<ele>18.961</ele>
<time>2016-01-02T07:50:22.463Z</time>
</trkpt>
<trkpt lat="-27.2553323" lon="152.9814251">
<ele>20.842</ele>
<time>2016-01-02T07:50:25.814Z</time>
</trkpt>
<trkpt lat="-27.2555281" lon="152.9813363">
<ele>23.041</ele>
<time>2016-01-02T07:50:27.682Z</time>
</trkpt>
<trkpt lat="-27.2558717" lon="152.9812556">
<ele>24.834</ele>
<time>2016-01-02T07:50:30.537Z</time>
</trkpt>
<trkpt lat="-27.2562497" lon="152.9811916">
<ele>26.329</ele>
<time>2016-01-02T07:50:33.229Z</time>
</trkpt>
<trkpt lat="-27.2566893" lon="152.9811415">
<ele>27.498</ele>
<time>2016-01-02T07:50:36.210Z</time>
</trkpt>
<trkpt lat="-27.2571257" lon="152.9810612">
<ele>28.059</ele>
<time>2016-01-02T07:50:39.205Z</time>
</trkpt>
<trkpt lat="-27.2575590" lon="152.9809775">
<ele>27.776</ele>
<time>2016-01-02T07:50:42.197Z</time>
</trkpt>
<trkpt lat="-27.2579908" lon="152.9809092">
<ele>26.697</ele>
<time>2016-01-02T07:50:45.113Z</time>
</trkpt>
<trkpt lat="-27.2582950" lon="152.9808475">
<ele>25.296</ele>
<time>2016-01-02T07:50:47.119Z</time>
</trkpt>
<trkpt lat="-27.2587369" lon="152.9807679">
<ele>24.007</ele>
<time>2016-01-02T07:50:50.113Z</time>
</trkpt>
<trkpt lat="-27.2591395" lon="152.9806398">
<ele>23.002</ele>
<time>2016-01-02T07:50:53.008Z</time>
</trkpt>
<trkpt lat="-27.2593992" lon="152.9805331">
<ele>21.934</ele>
<time>2016-01-02T07:50:54.942Z</time>
</trkpt>
<trkpt lat="-27.2596477" lon="152.9804415">
<ele>20.350</ele>
<time>2016-01-02T07:50:56.747Z</time>
</trkpt>
<trkpt lat="-27.2600485" lon="152.9802718">
<ele>18.387</ele>
<time>2016-01-02T07:50:59.677Z</time>
</trkpt>
<trkpt lat="-27.2603122" lon="152.9801436">
<ele>16.291</ele>
<time>2016-01-02T07:51:01.652Z</time>
</trkpt>
<trkpt lat="-27.2606777" lon="152.9800005">
<ele>14.188</ele>
<time>2016-01-02T07:51:04.328Z</time>
</trkpt>
<trkpt lat="-27.2610139" lon="152.9799489">
<ele>12.083</ele>
<time>2016-01-02T07:51:06.668Z</time>
</trkpt>
<trkpt lat="-27.2613136" lon="152.9798873">
<ele>10.066</ele>
<time>2016-01-02T07:51:08.706Z</time>
</trkpt>
<trkpt lat="-27.2617918" lon="152.9798543">
<ele>8.378</ele>
<time>2016-01-02T07:51:11.772Z</time>
</trkpt>
<trkpt lat="-27.2621201" lon="152.9798791">
<ele>6.717</ele>
<time>2016-01-02T07:51:13.797Z</time>
</trkpt>
<trkpt lat="-27.2625992" lon="152.9799192">
<ele>4.856</ele>
<time>2016-01-02T07:51:16.772Z</time>
</trkpt>
<trkpt lat="-27.2630592" lon="152.9799802">
<ele>3.348</ele>
<time>2016-01-02T07:51:19.773Z</time>
</trkpt>
<trkpt lat="-27.2633553" lon="152.9800051">
<ele>2.609</ele>
<time>2016-01-02T07:51:21.731Z</time>
</trkpt>
<trkpt lat="-27.2639233" lon="152.9800071">
<ele>2.654</ele>
<time>2016-01-02T07:51:25.310Z</time>
</trkpt>
<trkpt lat="-27.2643964" lon="152.9800538">
<ele>3.709</ele>
<time>2016-01-02T07:51:28.347Z</time>
</trkpt>
<trkpt lat="-27.2646412" lon="152.9801817">
<ele>5.560</ele>
<time>2016-01-02T07:51:30.128Z</time>
</trkpt>
<trkpt lat="-27.2649849" lon="152.9805329">
<ele>7.388</ele>
<time>2016-01-02T07:51:33.157Z</time>
</trkpt>
<trkpt lat="-27.2652946" lon="152.9808966">
<ele>8.653</ele>
<time>2016-01-02T07:51:36.091Z</time>
</trkpt>
<trkpt lat="-27.2657106" lon="152.9810812">
<ele>9.245</ele>
<time>2016-01-02T07:51:39.127Z</time>
</trkpt>
<trkpt lat="-27.2661723" lon="152.9810419">
<ele>9.262</ele>
<time>2016-01-02T07:51:42.299Z</time>
</trkpt>
<trkpt lat="-27.2665902" lon="152.9809927">
<ele>9.040</ele>
<time>2016-01-02T07:51:45.133Z</time>
</trkpt>
<trkpt lat="-27.2670415" lon="152.9809080">
<ele>8.815</ele>
<time>2016-01-02T07:51:48.166Z</time>
</trkpt>
<trkpt lat="-27.2673439" lon="152.9808548">
<ele>8.587</ele>
<time>2016-01-02T07:51:50.192Z</time>
</trkpt>
<trkpt lat="-27.2677703" lon="152.9807734">
<ele>7.998</ele>
<time>2016-01-02T07:51:53.100Z</time>
</trkpt>
<trkpt lat="-27.2680527" lon="152.9807243">
<ele>6.613</ele>
<time>2016-01-02T07:51:55.060Z</time>
</trkpt>
<trkpt lat="-27.2683202" lon="152.9806629">
<ele>4.649</ele>
<time>2016-01-02T07:51:57.040Z</time>
</trkpt>
<trkpt lat="-27.2686339" lon="152.9804380">
<ele>2.744</ele>
<time>2016-01-02T07:51:59.913Z</time>
</trkpt>
<trkpt lat="-27.2687469" lon="152.9802025">
<ele>0.976</ele>
<time>2016-01-02T07:52:01.801Z</time>
</trkpt>
<trkpt lat="-27.2688670" lon="152.9799282">
<ele>0.000</ele>
<time>2016-01-02T07:52:03.836Z</time>
</trkpt>
<trkpt lat="-27.2690309" lon="152.9796398">
<ele>0.000</ele>
<time>2016-01-02T07:52:05.992Z</time>
</trkpt>
<trkpt lat="-27.2692653" lon="152.9792504">
<ele>0.000</ele>
<time>2016-01-02T07:52:08.939Z</time>
</trkpt>
<trkpt lat="-27.2694689" lon="152.9788977">
<ele>0.000</ele>
<time>2016-01-02T07:52:11.688Z</time>
</trkpt>
<trkpt lat="-27.2696054" lon="152.9786669">
<ele>0.000</ele>
<time>2016-01-02T07:52:13.836Z</time>
</trkpt>
<trkpt lat="-27.2697557" lon="152.9784871">
<ele>0.000</ele>
<time>2016-01-02T07:52:16.143Z</time>
</trkpt>
<trkpt lat="-27.2699720" lon="152.9783515">
<ele>0.000</ele>
<time>2016-01-02T07:52:19.330Z</time>
</trkpt>
<trkpt lat="-27.2701706" lon="152.9783991">
<ele>0.000</ele>
<time>2016-01-02T07:52:21.566Z</time>
</trkpt>
<trkpt lat="-27.2704828" lon="152.9785819">
<ele>0.000</ele>
<time>2016-01-02T07:52:24.733Z</time>
</trkpt>
<trkpt lat="-27.2707533" lon="152.9790054">
<ele>0.000</ele>
<time>2016-01-02T07:52:28.120Z</time>
</trkpt>
<trkpt lat="-27.2709390" lon="152.9793261">
<ele>0.000</ele>
<time>2016-01-02T07:52:30.283Z</time>
</trkpt>
<trkpt lat="-27.2711944" lon="152.9797638">
<ele>0.258</ele>
<time>2016-01-02T07:52:33.188Z</time>
</trkpt>
<trkpt lat="-27.2713545" lon="152.9800406">
<ele>2.939</ele>
<time>2016-01-02T07:52:35.046Z</time>
</trkpt>
<trkpt lat="-27.2716282" lon="152.9804681">
<ele>4.717</ele>
<time>2016-01-02T07:52:38.024Z</time>
</trkpt>
<trkpt lat="-27.2719510" lon="152.9808594">
<ele>5.190</ele>
<time>2016-01-02T07:52:41.176Z</time>
</trkpt>
<trkpt lat="-27.2722647" lon="152.9811606">
<ele>4.124</ele>
<time>2016-01-02T07:52:44.378Z</time>
</trkpt>
<trkpt lat="-27.2724382" lon="152.9812723">
<ele>1.481</ele>
<time>2016-01-02T07:52:46.522Z</time>
</trkpt>
<trkpt lat="-27.2725688" lon="152.9813395">
<ele>0.000</ele>
<time>2016-01-02T07:52:48.335Z</time>
</trkpt>
<trkpt lat="-27.2726819" lon="152.9813848">
<ele>0.000</ele>
<time>2016-01-02T07:52:50.999Z</time>
</trkpt>
<trkpt lat="-27.2726819" lon="152.9813848">
<ele>0.000</ele>
<time>2016-01-02T07:52:53.999Z</time>
</trkpt>
<trkpt lat="-27.2726819" lon="152.9813848">
<ele>0.000</ele>
<time>2016-01-02T07:52:57.769Z</time>
</trkpt>
<trkpt lat="-27.2728680" lon="152.9814609">
<ele>0.000</ele>
<time>2016-01-02T07:53:02.023Z</time>
</trkpt>
<trkpt lat="-27.2732284" lon="152.9815533">
<ele>0.000</ele>
<time>2016-01-02T07:53:05.430Z</time>
</trkpt>
<trkpt lat="-27.2735431" lon="152.9815885">
<ele>0.000</ele>
<time>2016-01-02T07:53:07.789Z</time>
</trkpt>
<trkpt lat="-27.2740375" lon="152.9816053">
<ele>0.000</ele>
<time>2016-01-02T07:53:11.110Z</time>
</trkpt>
<trkpt lat="-27.2743702" lon="152.9815852">
<ele>0.000</ele>
<time>2016-01-02T07:53:13.124Z</time>
</trkpt>
<trkpt lat="-27.2748534" lon="152.9815216">
<ele>0.000</ele>
<time>2016-01-02T07:53:15.996Z</time>
</trkpt>
<trkpt lat="-27.2753477" lon="152.9814500">
<ele>0.000</ele>
<time>2016-01-02T07:53:18.850Z</time>
</trkpt>
<trkpt lat="-27.2758682" lon="152.9813718">
<ele>0.000</ele>
<time>2016-01-02T07:53:21.790Z</time>
</trkpt>
<trkpt lat="-27.2763542" lon="152.9813474">
<ele>0.000</ele>
<time>2016-01-02T07:53:24.519Z</time>
</trkpt>
<trkpt lat="-27.2768739" lon="152.9813956">
<ele>0.000</ele>
<time>2016-01-02T07:53:27.463Z</time>
</trkpt>
<trkpt lat="-27.2773785" lon="152.9815105">
<ele>0.000</ele>
<time>2016-01-02T07:53:30.372Z</time>
</trkpt>
<trkpt lat="-27.2777109" lon="152.9816185">
<ele>0.000</ele>
<time>2016-01-02T07:53:32.316Z</time>
</trkpt>
<trkpt lat="-27.2782232" lon="152.9817622">
<ele>0.000</ele>
<time>2016-01-02T07:53:35.225Z</time>
</trkpt>
<trkpt lat="-27.2787727" lon="152.9819227">
<ele>0.000</ele>
<time>2016-01-02T07:53:38.286Z</time>
</trkpt>
<trkpt lat="-27.2790646" lon="152.9819970">
<ele>0.000</ele>
<time>2016-01-02T07:53:39.909Z</time>
</trkpt>
<trkpt lat="-27.2796638" lon="152.9821611">
<ele>0.000</ele>
<time>2016-01-02T07:53:43.273Z</time>
</trkpt>
<trkpt lat="-27.2801737" lon="152.9822965">
<ele>0.226</ele>
<time>2016-01-02T07:53:46.202Z</time>
</trkpt>
<trkpt lat="-27.2803309" lon="152.9823383">
<ele>0.124</ele>
<time>2016-01-02T07:53:47.135Z</time>
</trkpt>
<trkpt lat="-27.2809518" lon="152.9825388">
<ele>0.030</ele>
<time>2016-01-02T07:53:50.942Z</time>
</trkpt>
<trkpt lat="-27.2812526" lon="152.9826276">
<ele>0.273</ele>
<time>2016-01-02T07:53:52.814Z</time>
</trkpt>
<trkpt lat="-27.2817103" lon="152.9827628">
<ele>0.948</ele>
<time>2016-01-02T07:53:55.803Z</time>
</trkpt>
<trkpt lat="-27.2821214" lon="152.9828727">
<ele>1.691</ele>
<time>2016-01-02T07:53:58.766Z</time>
</trkpt>
<trkpt lat="-27.2824482" lon="152.9829725">
<ele>1.976</ele>
<time>2016-01-02T07:54:01.533Z</time>
</trkpt>
<trkpt lat="-27.2826289" lon="152.9830233">
<ele>1.293</ele>
<time>2016-01-02T07:54:03.382Z</time>
</trkpt>
<trkpt lat="-27.2828277" lon="152.9830880">
<ele>0.000</ele>
<time>2016-01-02T07:54:05.999Z</time>
</trkpt>
<trkpt lat="-27.2828277" lon="152.9830880">
<ele>0.000</ele>
<time>2016-01-02T07:54:09.999Z</time>
</trkpt>
<trkpt lat="-27.2828277" lon="152.9830880">
<ele>0.000</ele>
<time>2016-01-02T07:54:12.159Z</time>
</trkpt>
<trkpt lat="-27.2830491" lon="152.9831488">
<ele>0.000</ele>
<time>2016-01-02T07:54:17.336Z</time>
</trkpt>
<trkpt lat="-27.2832355" lon="152.9832022">
<ele>0.000</ele>
<time>2016-01-02T07:54:19.233Z</time>
</trkpt>
<trkpt lat="-27.2834742" lon="152.9832779">
<ele>0.000</ele>
<time>2016-01-02T07:54:21.239Z</time>
</trkpt>
<trkpt lat="-27.2838704" lon="152.9833808">
<ele>0.000</ele>
<time>2016-01-02T07:54:24.305Z</time>
</trkpt>
<trkpt lat="-27.2841183" lon="152.9834493">
<ele>0.000</ele>
<time>2016-01-02T07:54:26.163Z</time>
</trkpt>
<trkpt lat="-27.2845171" lon="152.9835574">
<ele>0.000</ele>
<time>2016-01-02T07:54:29.124Z</time>
</trkpt>
<trkpt lat="-27.2848350" lon="152.9837089">
<ele>0.000</ele>
<time>2016-01-02T07:54:31.658Z</time>
</trkpt>
<trkpt lat="-27.2851320" lon="152.9837093">
<ele>0.066</ele>
<time>2016-01-02T07:54:33.993Z</time>
</trkpt>
<trkpt lat="-27.2854858" lon="152.9837939">
<ele>0.501</ele>
<time>2016-01-02T07:54:37.044Z</time>
</trkpt>
<trkpt lat="-27.2857591" lon="152.9839347">
<ele>0.640</ele>
<time>2016-01-02T07:54:40.105Z</time>
</trkpt>
<trkpt lat="-27.2858531" lon="152.9839859">
<ele>0.494</ele>
<time>2016-01-02T07:54:41.708Z</time>
</trkpt>
<trkpt lat="-27.2859518" lon="152.9839423">
<ele>0.000</ele>
<time>2016-01-02T07:54:43.999Z</time>
</trkpt>
<trkpt lat="-27.2859518" lon="152.9839423">
<ele>0.000</ele>
<time>2016-01-02T07:54:46.999Z</time>
</trkpt>
<trkpt lat="-27.2859518" lon="152.9839423">
<ele>0.000</ele>
<time>2016-01-02T07:55:09.879Z</time>
</trkpt>
<trkpt lat="-27.2861139" lon="152.9839778">
<ele>0.000</ele>
<time>2016-01-02T07:55:14.347Z</time>
</trkpt>
<trkpt lat="-27.2862060" lon="152.9838339">
<ele>0.000</ele>
<time>2016-01-02T07:55:16.487Z</time>
</trkpt>
<trkpt lat="-27.2862336" lon="152.9837281">
<ele>0.799</ele>
<time>2016-01-02T07:55:17.558Z</time>
</trkpt>
<trkpt lat="-27.2863221" lon="152.9831152">
<ele>1.651</ele>
<time>2016-01-02T07:55:22.207Z</time>
</trkpt>
<trkpt lat="-27.2864470" lon="152.9827799">
<ele>3.335</ele>
<time>2016-01-02T07:55:24.420Z</time>
</trkpt>
<trkpt lat="-27.2865934" lon="152.9822914">
<ele>6.984</ele>
<time>2016-01-02T07:55:27.308Z</time>
</trkpt>
<trkpt lat="-27.2867125" lon="152.9819636">
<ele>11.553</ele>
<time>2016-01-02T07:55:29.136Z</time>
</trkpt>
<trkpt lat="-27.2868820" lon="152.9816094">
<ele>14.880</ele>
<time>2016-01-02T07:55:31.196Z</time>
</trkpt>
<trkpt lat="-27.2870801" lon="152.9812849">
<ele>15.956</ele>
<time>2016-01-02T07:55:33.251Z</time>
</trkpt>
<trkpt lat="-27.2873430" lon="152.9807832">
<ele>14.723</ele>
<time>2016-01-02T07:55:36.373Z</time>
</trkpt>
<trkpt lat="-27.2874723" lon="152.9803228">
<ele>11.802</ele>
<time>2016-01-02T07:55:39.050Z</time>
</trkpt>
<trkpt lat="-27.2874591" lon="152.9799021">
<ele>8.633</ele>
<time>2016-01-02T07:55:41.504Z</time>
</trkpt>
<trkpt lat="-27.2874093" lon="152.9793985">
<ele>6.766</ele>
<time>2016-01-02T07:55:44.524Z</time>
</trkpt>
<trkpt lat="-27.2873624" lon="152.9790727">
<ele>6.537</ele>
<time>2016-01-02T07:55:46.495Z</time>
</trkpt>
<trkpt lat="-27.2873364" lon="152.9787561">
<ele>7.142</ele>
<time>2016-01-02T07:55:48.404Z</time>
</trkpt>
<trkpt lat="-27.2872850" lon="152.9782841">
<ele>7.892</ele>
<time>2016-01-02T07:55:51.321Z</time>
</trkpt>
<trkpt lat="-27.2871600" lon="152.9776217">
<ele>8.860</ele>
<time>2016-01-02T07:55:55.760Z</time>
</trkpt>
<trkpt lat="-27.2870958" lon="152.9774254">
<ele>8.812</ele>
<time>2016-01-02T07:55:57.476Z</time>
</trkpt>
<trkpt lat="-27.2870480" lon="152.9771061">
<ele>8.440</ele>
<time>2016-01-02T07:56:00.393Z</time>
</trkpt>
<trkpt lat="-27.2870149" lon="152.9769323">
<ele>8.047</ele>
<time>2016-01-02T07:56:01.976Z</time>
</trkpt>
<trkpt lat="-27.2868927" lon="152.9763757">
<ele>7.946</ele>
<time>2016-01-02T07:56:06.205Z</time>
</trkpt>
<trkpt lat="-27.2867938" lon="152.9755858">
<ele>8.299</ele>
<time>2016-01-02T07:56:11.231Z</time>
</trkpt>
<trkpt lat="-27.2867555" lon="152.9752717">
<ele>9.239</ele>
<time>2016-01-02T07:56:13.086Z</time>
</trkpt>
<trkpt lat="-27.2867083" lon="152.9749223">
<ele>10.726</ele>
<time>2016-01-02T07:56:15.156Z</time>
</trkpt>
<trkpt lat="-27.2866662" lon="152.9746331">
<ele>12.262</ele>
<time>2016-01-02T07:56:16.856Z</time>
</trkpt>
<trkpt lat="-27.2866046" lon="152.9742412">
<ele>13.050</ele>
<time>2016-01-02T07:56:19.115Z</time>
</trkpt>
<trkpt lat="-27.2865305" lon="152.9737297">
<ele>12.780</ele>
<time>2016-01-02T07:56:22.041Z</time>
</trkpt>
<trkpt lat="-27.2864510" lon="152.9731974">
<ele>11.712</ele>
<time>2016-01-02T07:56:25.080Z</time>
</trkpt>
<trkpt lat="-27.2863625" lon="152.9726865">
<ele>10.086</ele>
<time>2016-01-02T07:56:28.007Z</time>
</trkpt>
<trkpt lat="-27.2862653" lon="152.9721539">
<ele>8.329</ele>
<time>2016-01-02T07:56:30.986Z</time>
</trkpt>
<trkpt lat="-27.2861983" lon="152.9715944">
<ele>7.152</ele>
<time>2016-01-02T07:56:33.921Z</time>
</trkpt>
<trkpt lat="-27.2861277" lon="152.9710090">
<ele>6.973</ele>
<time>2016-01-02T07:56:36.891Z</time>
</trkpt>
<trkpt lat="-27.2860697" lon="152.9706187">
<ele>7.597</ele>
<time>2016-01-02T07:56:38.896Z</time>
</trkpt>
<trkpt lat="-27.2859866" lon="152.9700720">
<ele>8.410</ele>
<time>2016-01-02T07:56:41.749Z</time>
</trkpt>
<trkpt lat="-27.2859294" lon="152.9696959">
<ele>8.942</ele>
<time>2016-01-02T07:56:43.795Z</time>
</trkpt>
<trkpt lat="-27.2858523" lon="152.9691890">
<ele>9.133</ele>
<time>2016-01-02T07:56:46.594Z</time>
</trkpt>
<trkpt lat="-27.2857968" lon="152.9688245">
<ele>9.122</ele>
<time>2016-01-02T07:56:48.602Z</time>
</trkpt>
<trkpt lat="-27.2857433" lon="152.9684596">
<ele>9.168</ele>
<time>2016-01-02T07:56:50.560Z</time>
</trkpt>
<trkpt lat="-27.2856892" lon="152.9680860">
<ele>9.376</ele>
<time>2016-01-02T07:56:52.466Z</time>
</trkpt>
<trkpt lat="-27.2855917" lon="152.9675012">
<ele>9.528</ele>
<time>2016-01-02T07:56:55.415Z</time>
</trkpt>
<trkpt lat="-27.2854988" lon="152.9669872">
<ele>9.450</ele>
<time>2016-01-02T07:56:58.042Z</time>
</trkpt>
<trkpt lat="-27.2853999" lon="152.9664809">
<ele>9.229</ele>
<time>2016-01-02T07:57:00.686Z</time>
</trkpt>
<trkpt lat="-27.2853693" lon="152.9660475">
<ele>9.052</ele>
<time>2016-01-02T07:57:02.894Z</time>
</trkpt>
<trkpt lat="-27.2853474" lon="152.9656575">
<ele>8.925</ele>
<time>2016-01-02T07:57:04.908Z</time>
</trkpt>
<trkpt lat="-27.2853039" lon="152.9651446">
<ele>8.600</ele>
<time>2016-01-02T07:57:07.636Z</time>
</trkpt>
<trkpt lat="-27.2852470" lon="152.9647661">
<ele>4.313</ele>
<time>2016-01-02T07:57:09.688Z</time>
</trkpt>
<trkpt lat="-27.2851634" lon="152.9642141">
<ele>0.000</ele>
<time>2016-01-02T07:57:12.622Z</time>
</trkpt>
<trkpt lat="-27.2851063" lon="152.9638370">
<ele>0.000</ele>
<time>2016-01-02T07:57:14.592Z</time>
</trkpt>
<trkpt lat="-27.2849808" lon="152.9632389">
<ele>0.000</ele>
<time>2016-01-02T07:57:17.718Z</time>
</trkpt>
<trkpt lat="-27.2848487" lon="152.9626628">
<ele>0.000</ele>
<time>2016-01-02T07:57:20.740Z</time>
</trkpt>
<trkpt lat="-27.2847874" lon="152.9621188">
<ele>0.000</ele>
<time>2016-01-02T07:57:23.611Z</time>
</trkpt>
<trkpt lat="-27.2847458" lon="152.9617474">
<ele>0.000</ele>
<time>2016-01-02T07:57:25.633Z</time>
</trkpt>
<trkpt lat="-27.2846924" lon="152.9611786">
<ele>0.000</ele>
<time>2016-01-02T07:57:28.662Z</time>
</trkpt>
<trkpt lat="-27.2845338" lon="152.9606025">
<ele>0.000</ele>
<time>2016-01-02T07:57:31.725Z</time>
</trkpt>
<trkpt lat="-27.2844239" lon="152.9602209">
<ele>1.895</ele>
<time>2016-01-02T07:57:33.719Z</time>
</trkpt>
<trkpt lat="-27.2843831" lon="152.9596043">
<ele>3.132</ele>
<time>2016-01-02T07:57:36.836Z</time>
</trkpt>
<trkpt lat="-27.2842921" lon="152.9586992">
<ele>3.118</ele>
<time>2016-01-02T07:57:41.708Z</time>
</trkpt>
<trkpt lat="-27.2842418" lon="152.9583672">
<ele>2.615</ele>
<time>2016-01-02T07:57:43.654Z</time>
</trkpt>
<trkpt lat="-27.2841598" lon="152.9578694">
<ele>1.863</ele>
<time>2016-01-02T07:57:46.606Z</time>
</trkpt>
<trkpt lat="-27.2840797" lon="152.9573694">
<ele>1.137</ele>
<time>2016-01-02T07:57:49.556Z</time>
</trkpt>
<trkpt lat="-27.2840024" lon="152.9568457">
<ele>0.890</ele>
<time>2016-01-02T07:57:52.610Z</time>
</trkpt>
<trkpt lat="-27.2839259" lon="152.9563399">
<ele>1.216</ele>
<time>2016-01-02T07:57:55.520Z</time>
</trkpt>
<trkpt lat="-27.2838504" lon="152.9558032">
<ele>1.705</ele>
<time>2016-01-02T07:57:58.535Z</time>
</trkpt>
<trkpt lat="-27.2837692" lon="152.9552742">
<ele>2.018</ele>
<time>2016-01-02T07:58:01.496Z</time>
</trkpt>
<trkpt lat="-27.2837445" lon="152.9549538">
<ele>2.171</ele>
<time>2016-01-02T07:58:03.326Z</time>
</trkpt>
<trkpt lat="-27.2836521" lon="152.9543840">
<ele>2.271</ele>
<time>2016-01-02T07:58:06.604Z</time>
</trkpt>
<trkpt lat="-27.2836094" lon="152.9540491">
<ele>2.346</ele>
<time>2016-01-02T07:58:08.463Z</time>
</trkpt>
<trkpt lat="-27.2835072" lon="152.9534972">
<ele>2.494</ele>
<time>2016-01-02T07:58:11.527Z</time>
</trkpt>
<trkpt lat="-27.2834176" lon="152.9529454">
<ele>2.671</ele>
<time>2016-01-02T07:58:14.599Z</time>
</trkpt>
<trkpt lat="-27.2833625" lon="152.9525993">
<ele>2.779</ele>
<time>2016-01-02T07:58:16.607Z</time>
</trkpt>
<trkpt lat="-27.2833177" lon="152.9521238">
<ele>2.740</ele>
<time>2016-01-02T07:58:19.487Z</time>
</trkpt>
<trkpt lat="-27.2832804" lon="152.9518247">
<ele>2.382</ele>
<time>2016-01-02T07:58:21.427Z</time>
</trkpt>
<trkpt lat="-27.2832306" lon="152.9515390">
<ele>1.651</ele>
<time>2016-01-02T07:58:23.381Z</time>
</trkpt>
<trkpt lat="-27.2831755" lon="152.9511365">
<ele>0.831</ele>
<time>2016-01-02T07:58:26.337Z</time>
</trkpt>
<trkpt lat="-27.2831572" lon="152.9509326">
<ele>0.008</ele>
<time>2016-01-02T07:58:28.120Z</time>
</trkpt>
<trkpt lat="-27.2831684" lon="152.9507899">
<ele>0.000</ele>
<time>2016-01-02T07:58:29.780Z</time>
</trkpt>
<trkpt lat="-27.2832927" lon="152.9507402">
<ele>0.000</ele>
<time>2016-01-02T07:58:31.837Z</time>
</trkpt>
<trkpt lat="-27.2836243" lon="152.9508228">
<ele>0.000</ele>
<time>2016-01-02T07:58:35.378Z</time>
</trkpt>
<trkpt lat="-27.2840812" lon="152.9509764">
<ele>0.000</ele>
<time>2016-01-02T07:58:38.705Z</time>
</trkpt>
<trkpt lat="-27.2843753" lon="152.9510794">
<ele>0.292</ele>
<time>2016-01-02T07:58:40.705Z</time>
</trkpt>
<trkpt lat="-27.2846532" lon="152.9511785">
<ele>2.821</ele>
<time>2016-01-02T07:58:42.626Z</time>
</trkpt>
<trkpt lat="-27.2850923" lon="152.9513373">
<ele>3.846</ele>
<time>2016-01-02T07:58:45.636Z</time>
</trkpt>
<trkpt lat="-27.2853940" lon="152.9514504">
<ele>3.707</ele>
<time>2016-01-02T07:58:47.672Z</time>
</trkpt>
<trkpt lat="-27.2858354" lon="152.9516229">
<ele>3.288</ele>
<time>2016-01-02T07:58:50.652Z</time>
</trkpt>
<trkpt lat="-27.2862756" lon="152.9517904">
<ele>3.213</ele>
<time>2016-01-02T07:58:53.588Z</time>
</trkpt>
<trkpt lat="-27.2865756" lon="152.9519136">
<ele>3.655</ele>
<time>2016-01-02T07:58:55.551Z</time>
</trkpt>
<trkpt lat="-27.2868877" lon="152.9520372">
<ele>4.383</ele>
<time>2016-01-02T07:58:57.558Z</time>
</trkpt>
<trkpt lat="-27.2873478" lon="152.9522509">
<ele>5.045</ele>
<time>2016-01-02T07:59:00.530Z</time>
</trkpt>
<trkpt lat="-27.2876585" lon="152.9523833">
<ele>5.491</ele>
<time>2016-01-02T07:59:02.465Z</time>
</trkpt>
<trkpt lat="-27.2881198" lon="152.9525770">
<ele>5.986</ele>
<time>2016-01-02T07:59:05.357Z</time>
</trkpt>
<trkpt lat="-27.2886111" lon="152.9527690">
<ele>6.764</ele>
<time>2016-01-02T07:59:08.423Z</time>
</trkpt>
<trkpt lat="-27.2889403" lon="152.9528853">
<ele>7.545</ele>
<time>2016-01-02T07:59:10.433Z</time>
</trkpt>
<trkpt lat="-27.2894200" lon="152.9530303">
<ele>7.991</ele>
<time>2016-01-02T07:59:13.392Z</time>
</trkpt>
<trkpt lat="-27.2898853" lon="152.9531746">
<ele>10.009</ele>
<time>2016-01-02T07:59:16.352Z</time>
</trkpt>
<trkpt lat="-27.2902026" lon="152.9532972">
<ele>14.831</ele>
<time>2016-01-02T07:59:18.409Z</time>
</trkpt>
<trkpt lat="-27.2906620" lon="152.9534851">
<ele>19.017</ele>
<time>2016-01-02T07:59:21.427Z</time>
</trkpt>
<trkpt lat="-27.2909373" lon="152.9536184">
<ele>19.102</ele>
<time>2016-01-02T07:59:23.445Z</time>
</trkpt>
<trkpt lat="-27.2911724" lon="152.9538544">
<ele>15.946</ele>
<time>2016-01-02T07:59:25.999Z</time>
</trkpt>
<trkpt lat="-27.2911724" lon="152.9538544">
<ele>12.056</ele>
<time>2016-01-02T07:59:30.999Z</time>
</trkpt>
<trkpt lat="-27.2911724" lon="152.9538544">
<ele>9.830</ele>
<time>2016-01-02T07:59:33.035Z</time>
</trkpt>
<trkpt lat="-27.2913656" lon="152.9538287">
<ele>9.986</ele>
<time>2016-01-02T07:59:37.097Z</time>
</trkpt>
<trkpt lat="-27.2915777" lon="152.9539050">
<ele>10.486</ele>
<time>2016-01-02T07:59:39.173Z</time>
</trkpt>
<trkpt lat="-27.2918448" lon="152.9540028">
<ele>9.632</ele>
<time>2016-01-02T07:59:41.230Z</time>
</trkpt>
<trkpt lat="-27.2921348" lon="152.9541135">
<ele>8.426</ele>
<time>2016-01-02T07:59:43.238Z</time>
</trkpt>
<trkpt lat="-27.2924345" lon="152.9542410">
<ele>8.271</ele>
<time>2016-01-02T07:59:45.277Z</time>
</trkpt>
<trkpt lat="-27.2926986" lon="152.9544036">
<ele>8.908</ele>
<time>2016-01-02T07:59:47.184Z</time>
</trkpt>
<trkpt lat="-27.2930662" lon="152.9547427">
<ele>9.535</ele>
<time>2016-01-02T07:59:50.155Z</time>
</trkpt>
<trkpt lat="-27.2933916" lon="152.9551485">
<ele>10.012</ele>
<time>2016-01-02T07:59:53.096Z</time>
</trkpt>
<trkpt lat="-27.2937324" lon="152.9555678">
<ele>10.809</ele>
<time>2016-01-02T07:59:56.054Z</time>
</trkpt>
<trkpt lat="-27.2939856" lon="152.9558469">
<ele>12.354</ele>
<time>2016-01-02T07:59:58.083Z</time>
</trkpt>
<trkpt lat="-27.2943347" lon="152.9562773">
<ele>14.285</ele>
<time>2016-01-02T08:00:01.035Z</time>
</trkpt>
<trkpt lat="-27.2946922" lon="152.9566999">
<ele>15.688</ele>
<time>2016-01-02T08:00:04.004Z</time>
</trkpt>
<trkpt lat="-27.2950553" lon="152.9571179">
<ele>16.242</ele>
<time>2016-01-02T08:00:07.007Z</time>
</trkpt>
<trkpt lat="-27.2952997" lon="152.9573974">
<ele>16.387</ele>
<time>2016-01-02T08:00:09.055Z</time>
</trkpt>
<trkpt lat="-27.2955350" lon="152.9576591">
<ele>16.677</ele>
<time>2016-01-02T08:00:11.023Z</time>
</trkpt>
<trkpt lat="-27.2959320" lon="152.9579451">
<ele>17.464</ele>
<time>2016-01-02T08:00:13.920Z</time>
</trkpt>
<trkpt lat="-27.2963673" lon="152.9581303">
<ele>18.681</ele>
<time>2016-01-02T08:00:16.910Z</time>
</trkpt>
<trkpt lat="-27.2966171" lon="152.9582304">
<ele>19.875</ele>
<time>2016-01-02T08:00:18.795Z</time>
</trkpt>
<trkpt lat="-27.2969711" lon="152.9583732">
<ele>20.602</ele>
<time>2016-01-02T08:00:21.649Z</time>
</trkpt>
<trkpt lat="-27.2972161" lon="152.9584814">
<ele>20.799</ele>
<time>2016-01-02T08:00:23.567Z</time>
</trkpt>
<trkpt lat="-27.2975188" lon="152.9586297">
<ele>21.159</ele>
<time>2016-01-02T08:00:25.650Z</time>
</trkpt>
<trkpt lat="-27.2980047" lon="152.9589648">
<ele>22.560</ele>
<time>2016-01-02T08:00:28.883Z</time>
</trkpt>
<trkpt lat="-27.2984332" lon="152.9593123">
<ele>25.173</ele>
<time>2016-01-02T08:00:31.791Z</time>
</trkpt>
<trkpt lat="-27.2988386" lon="152.9596663">
<ele>28.054</ele>
<time>2016-01-02T08:00:34.682Z</time>
</trkpt>
<trkpt lat="-27.2991014" lon="152.9599063">
<ele>29.915</ele>
<time>2016-01-02T08:00:36.619Z</time>
</trkpt>
<trkpt lat="-27.2993702" lon="152.9601682">
<ele>30.391</ele>
<time>2016-01-02T08:00:38.690Z</time>
</trkpt>
<trkpt lat="-27.2997449" lon="152.9605057">
<ele>30.127</ele>
<time>2016-01-02T08:00:41.790Z</time>
</trkpt>
<trkpt lat="-27.2999283" lon="152.9606207">
<ele>29.318</ele>
<time>2016-01-02T08:00:43.666Z</time>
</trkpt>
<trkpt lat="-27.3000985" lon="152.9607143">
<ele>27.450</ele>
<time>2016-01-02T08:00:45.999Z</time>
</trkpt>
<trkpt lat="-27.3000985" lon="152.9607143">
<ele>24.858</ele>
<time>2016-01-02T08:00:49.999Z</time>
</trkpt>
<trkpt lat="-27.3000985" lon="152.9607143">
<ele>23.208</ele>
<time>2016-01-02T08:01:19.747Z</time>
</trkpt>
<trkpt lat="-27.3002429" lon="152.9608036">
<ele>23.288</ele>
<time>2016-01-02T08:01:27.372Z</time>
</trkpt>
<trkpt lat="-27.3005350" lon="152.9609430">
<ele>24.132</ele>
<time>2016-01-02T08:01:30.935Z</time>
</trkpt>
<trkpt lat="-27.3009240" lon="152.9610802">
<ele>24.843</ele>
<time>2016-01-02T08:01:34.057Z</time>
</trkpt>
<trkpt lat="-27.3010820" lon="152.9611341">
<ele>25.696</ele>
<time>2016-01-02T08:01:35.200Z</time>
</trkpt>
<trkpt lat="-27.3017699" lon="152.9613530">
<ele>27.127</ele>
<time>2016-01-02T08:01:39.833Z</time>
</trkpt>
<trkpt lat="-27.3021310" lon="152.9614538">
<ele>28.698</ele>
<time>2016-01-02T08:01:42.023Z</time>
</trkpt>
<trkpt lat="-27.3025585" lon="152.9616405">
<ele>29.529</ele>
<time>2016-01-02T08:01:44.666Z</time>
</trkpt>
<trkpt lat="-27.3028726" lon="152.9617775">
<ele>28.903</ele>
<time>2016-01-02T08:01:46.617Z</time>
</trkpt>
<trkpt lat="-27.3033130" lon="152.9620648">
<ele>26.818</ele>
<time>2016-01-02T08:01:49.565Z</time>
</trkpt>
<trkpt lat="-27.3037208" lon="152.9624224">
<ele>24.095</ele>
<time>2016-01-02T08:01:52.566Z</time>
</trkpt>
<trkpt lat="-27.3039764" lon="152.9626801">
<ele>21.728</ele>
<time>2016-01-02T08:01:54.565Z</time>
</trkpt>
<trkpt lat="-27.3043916" lon="152.9630365">
<ele>20.333</ele>
<time>2016-01-02T08:01:57.696Z</time>
</trkpt>
<trkpt lat="-27.3046650" lon="152.9632369">
<ele>19.904</ele>
<time>2016-01-02T08:01:59.780Z</time>
</trkpt>
<trkpt lat="-27.3050553" lon="152.9634583">
<ele>19.731</ele>
<time>2016-01-02T08:02:03.142Z</time>
</trkpt>
<trkpt lat="-27.3052737" lon="152.9636032">
<ele>19.129</ele>
<time>2016-01-02T08:02:05.470Z</time>
</trkpt>
<trkpt lat="-27.3054205" lon="152.9637510">
<ele>17.829</ele>
<time>2016-01-02T08:02:07.266Z</time>
</trkpt>
<trkpt lat="-27.3057381" lon="152.9637565">
<ele>16.264</ele>
<time>2016-01-02T08:02:09.615Z</time>
</trkpt>
<trkpt lat="-27.3060208" lon="152.9637588">
<ele>15.197</ele>
<time>2016-01-02T08:02:11.430Z</time>
</trkpt>
<trkpt lat="-27.3065180" lon="152.9638103">
<ele>15.364</ele>
<time>2016-01-02T08:02:14.416Z</time>
</trkpt>
<trkpt lat="-27.3068638" lon="152.9638057">
<ele>17.320</ele>
<time>2016-01-02T08:02:16.454Z</time>
</trkpt>
<trkpt lat="-27.3071986" lon="152.9637876">
<ele>20.603</ele>
<time>2016-01-02T08:02:18.445Z</time>
</trkpt>
<trkpt lat="-27.3076988" lon="152.9637668">
<ele>23.628</ele>
<time>2016-01-02T08:02:21.446Z</time>
</trkpt>
<trkpt lat="-27.3080144" lon="152.9637360">
<ele>25.386</ele>
<time>2016-01-02T08:02:23.344Z</time>
</trkpt>
<trkpt lat="-27.3085154" lon="152.9636501">
<ele>26.107</ele>
<time>2016-01-02T08:02:26.335Z</time>
</trkpt>
<trkpt lat="-27.3090237" lon="152.9635574">
<ele>26.823</ele>
<time>2016-01-02T08:02:29.315Z</time>
</trkpt>
<trkpt lat="-27.3095453" lon="152.9634800">
<ele>28.192</ele>
<time>2016-01-02T08:02:32.334Z</time>
</trkpt>
<trkpt lat="-27.3098673" lon="152.9634034">
<ele>29.897</ele>
<time>2016-01-02T08:02:34.256Z</time>
</trkpt>
<trkpt lat="-27.3103601" lon="152.9633225">
<ele>31.319</ele>
<time>2016-01-02T08:02:37.151Z</time>
</trkpt>
<trkpt lat="-27.3107041" lon="152.9632681">
<ele>32.134</ele>
<time>2016-01-02T08:02:39.131Z</time>
</trkpt>
<trkpt lat="-27.3110416" lon="152.9632127">
<ele>32.320</ele>
<time>2016-01-02T08:02:41.052Z</time>
</trkpt>
<trkpt lat="-27.3115818" lon="152.9631311">
<ele>32.200</ele>
<time>2016-01-02T08:02:44.113Z</time>
</trkpt>
<trkpt lat="-27.3119360" lon="152.9630996">
<ele>31.999</ele>
<time>2016-01-02T08:02:46.154Z</time>
</trkpt>
<trkpt lat="-27.3122723" lon="152.9630929">
<ele>31.377</ele>
<time>2016-01-02T08:02:48.147Z</time>
</trkpt>
<trkpt lat="-27.3126009" lon="152.9631222">
<ele>29.996</ele>
<time>2016-01-02T08:02:50.156Z</time>
</trkpt>
<trkpt lat="-27.3129216" lon="152.9631732">
<ele>28.221</ele>
<time>2016-01-02T08:02:52.185Z</time>
</trkpt>
<trkpt lat="-27.3132387" lon="152.9632455">
<ele>26.669</ele>
<time>2016-01-02T08:02:54.316Z</time>
</trkpt>
<trkpt lat="-27.3136650" lon="152.9633078">
<ele>25.672</ele>
<time>2016-01-02T08:02:57.385Z</time>
</trkpt>
<trkpt lat="-27.3140512" lon="152.9633694">
<ele>25.151</ele>
<time>2016-01-02T08:03:00.338Z</time>
</trkpt>
<trkpt lat="-27.3144210" lon="152.9634823">
<ele>24.768</ele>
<time>2016-01-02T08:03:03.093Z</time>
</trkpt>
<trkpt lat="-27.3147121" lon="152.9635268">
<ele>24.683</ele>
<time>2016-01-02T08:03:05.028Z</time>
</trkpt>
<trkpt lat="-27.3150117" lon="152.9635982">
<ele>25.257</ele>
<time>2016-01-02T08:03:07.036Z</time>
</trkpt>
<trkpt lat="-27.3154481" lon="152.9637142">
<ele>26.373</ele>
<time>2016-01-02T08:03:10.059Z</time>
</trkpt>
<trkpt lat="-27.3157269" lon="152.9637704">
<ele>27.517</ele>
<time>2016-01-02T08:03:11.979Z</time>
</trkpt>
<trkpt lat="-27.3161596" lon="152.9637547">
<ele>28.226</ele>
<time>2016-01-02T08:03:14.845Z</time>
</trkpt>
<trkpt lat="-27.3164705" lon="152.9637279">
<ele>28.721</ele>
<time>2016-01-02T08:03:16.893Z</time>
</trkpt>
<trkpt lat="-27.3167790" lon="152.9637174">
<ele>29.424</ele>
<time>2016-01-02T08:03:18.920Z</time>
</trkpt>
<trkpt lat="-27.3172306" lon="152.9637165">
<ele>30.099</ele>
<time>2016-01-02T08:03:21.858Z</time>
</trkpt>
<trkpt lat="-27.3175303" lon="152.9637135">
<ele>30.343</ele>
<time>2016-01-02T08:03:23.802Z</time>
</trkpt>
<trkpt lat="-27.3179920" lon="152.9636957">
<ele>30.204</ele>
<time>2016-01-02T08:03:26.786Z</time>
</trkpt>
<trkpt lat="-27.3184693" lon="152.9636834">
<ele>29.778</ele>
<time>2016-01-02T08:03:29.824Z</time>
</trkpt>
<trkpt lat="-27.3187878" lon="152.9636654">
<ele>28.903</ele>
<time>2016-01-02T08:03:31.805Z</time>
</trkpt>
<trkpt lat="-27.3192570" lon="152.9636638">
<ele>27.512</ele>
<time>2016-01-02T08:03:34.701Z</time>
</trkpt>
<trkpt lat="-27.3195868" lon="152.9636506">
<ele>25.605</ele>
<time>2016-01-02T08:03:36.675Z</time>
</trkpt>
<trkpt lat="-27.3200914" lon="152.9636403">
<ele>23.203</ele>
<time>2016-01-02T08:03:39.616Z</time>
</trkpt>
<trkpt lat="-27.3204558" lon="152.9636346">
<ele>20.608</ele>
<time>2016-01-02T08:03:41.688Z</time>
</trkpt>
<trkpt lat="-27.3209833" lon="152.9636208">
<ele>18.187</ele>
<time>2016-01-02T08:03:44.684Z</time>
</trkpt>
<trkpt lat="-27.3213152" lon="152.9636059">
<ele>16.054</ele>
<time>2016-01-02T08:03:46.584Z</time>
</trkpt>
<trkpt lat="-27.3216539" lon="152.9635949">
<ele>14.433</ele>
<time>2016-01-02T08:03:48.546Z</time>
</trkpt>
<trkpt lat="-27.3219944" lon="152.9635776">
<ele>13.706</ele>
<time>2016-01-02T08:03:50.599Z</time>
</trkpt>
<trkpt lat="-27.3223190" lon="152.9635680">
<ele>14.048</ele>
<time>2016-01-02T08:03:52.599Z</time>
</trkpt>
<trkpt lat="-27.3227892" lon="152.9636089">
<ele>15.039</ele>
<time>2016-01-02T08:03:55.602Z</time>
</trkpt>
<trkpt lat="-27.3232511" lon="152.9636682">
<ele>16.103</ele>
<time>2016-01-02T08:03:58.587Z</time>
</trkpt>
<trkpt lat="-27.3237245" lon="152.9636942">
<ele>17.281</ele>
<time>2016-01-02T08:04:01.717Z</time>
</trkpt>
<trkpt lat="-27.3239985" lon="152.9637336">
<ele>19.251</ele>
<time>2016-01-02T08:04:03.822Z</time>
</trkpt>
<trkpt lat="-27.3243357" lon="152.9638459">
<ele>21.854</ele>
<time>2016-01-02T08:04:07.069Z</time>
</trkpt>
<trkpt lat="-27.3245669" lon="152.9639075">
<ele>23.860</ele>
<time>2016-01-02T08:04:10.022Z</time>
</trkpt>
<trkpt lat="-27.3247807" lon="152.9637318">
<ele>24.397</ele>
<time>2016-01-02T08:04:13.086Z</time>
</trkpt>
<trkpt lat="-27.3248744" lon="152.9635558">
<ele>23.764</ele>
<time>2016-01-02T08:04:14.598Z</time>
</trkpt>
<trkpt lat="-27.3250752" lon="152.9632909">
<ele>23.538</ele>
<time>2016-01-02T08:04:16.706Z</time>
</trkpt>
<trkpt lat="-27.3253630" lon="152.9630195">
<ele>25.379</ele>
<time>2016-01-02T08:04:18.898Z</time>
</trkpt>
<trkpt lat="-27.3256862" lon="152.9628228">
<ele>28.937</ele>
<time>2016-01-02T08:04:20.890Z</time>
</trkpt>
<trkpt lat="-27.3262658" lon="152.9626846">
<ele>32.320</ele>
<time>2016-01-02T08:04:23.883Z</time>
</trkpt>
<trkpt lat="-27.3266574" lon="152.9626069">
<ele>34.244</ele>
<time>2016-01-02T08:04:25.824Z</time>
</trkpt>
<trkpt lat="-27.3270478" lon="152.9625337">
<ele>34.436</ele>
<time>2016-01-02T08:04:27.775Z</time>
</trkpt>
<trkpt lat="-27.3275864" lon="152.9624554">
<ele>32.752</ele>
<time>2016-01-02T08:04:30.442Z</time>
</trkpt>
<trkpt lat="-27.3280346" lon="152.9623194">
<ele>29.639</ele>
<time>2016-01-02T08:04:32.668Z</time>
</trkpt>
<trkpt lat="-27.3286654" lon="152.9621916">
<ele>26.091</ele>
<time>2016-01-02T08:04:35.724Z</time>
</trkpt>
<trkpt lat="-27.3292700" lon="152.9620657">
<ele>22.994</ele>
<time>2016-01-02T08:04:38.693Z</time>
</trkpt>
<trkpt lat="-27.3296651" lon="152.9619852">
<ele>21.299</ele>
<time>2016-01-02T08:04:40.664Z</time>
</trkpt>
<trkpt lat="-27.3300674" lon="152.9619099">
<ele>21.363</ele>
<time>2016-01-02T08:04:42.658Z</time>
</trkpt>
<trkpt lat="-27.3304702" lon="152.9618336">
<ele>22.416</ele>
<time>2016-01-02T08:04:44.664Z</time>
</trkpt>
<trkpt lat="-27.3308697" lon="152.9617676">
<ele>23.570</ele>
<time>2016-01-02T08:04:46.692Z</time>
</trkpt>
<trkpt lat="-27.3314216" lon="152.9616421">
<ele>24.082</ele>
<time>2016-01-02T08:04:49.528Z</time>
</trkpt>
<trkpt lat="-27.3318248" lon="152.9615692">
<ele>23.268</ele>
<time>2016-01-02T08:04:51.524Z</time>
</trkpt>
<trkpt lat="-27.3324415" lon="152.9614865">
<ele>21.192</ele>
<time>2016-01-02T08:04:54.506Z</time>
</trkpt>
<trkpt lat="-27.3330655" lon="152.9614251">
<ele>18.971</ele>
<time>2016-01-02T08:04:57.510Z</time>
</trkpt>
<trkpt lat="-27.3332628" lon="152.9614029">
<ele>17.798</ele>
<time>2016-01-02T08:04:58.473Z</time>
</trkpt>
<trkpt lat="-27.3340584" lon="152.9613068">
<ele>18.002</ele>
<time>2016-01-02T08:05:02.432Z</time>
</trkpt>
<trkpt lat="-27.3344283" lon="152.9612462">
<ele>19.633</ele>
<time>2016-01-02T08:05:04.425Z</time>
</trkpt>
<trkpt lat="-27.3349602" lon="152.9611792">
<ele>22.212</ele>
<time>2016-01-02T08:05:07.367Z</time>
</trkpt>
<trkpt lat="-27.3355144" lon="152.9610745">
<ele>24.345</ele>
<time>2016-01-02T08:05:10.503Z</time>
</trkpt>
<trkpt lat="-27.3358553" lon="152.9610014">
<ele>25.168</ele>
<time>2016-01-02T08:05:12.499Z</time>
</trkpt>
<trkpt lat="-27.3363429" lon="152.9608967">
<ele>24.924</ele>
<time>2016-01-02T08:05:15.440Z</time>
</trkpt>
<trkpt lat="-27.3366541" lon="152.9608489">
<ele>23.961</ele>
<time>2016-01-02T08:05:17.494Z</time>
</trkpt>
<trkpt lat="-27.3370800" lon="152.9607944">
<ele>22.624</ele>
<time>2016-01-02T08:05:20.664Z</time>
</trkpt>
<trkpt lat="-27.3371714" lon="152.9608003">
<ele>21.089</ele>
<time>2016-01-02T08:05:21.499Z</time>
</trkpt>
<trkpt lat="-27.3373514" lon="152.9607621">
<ele>19.266</ele>
<time>2016-01-02T08:05:23.478Z</time>
</trkpt>
<trkpt lat="-27.3375131" lon="152.9607104">
<ele>17.411</ele>
<time>2016-01-02T08:05:25.999Z</time>
</trkpt>
<trkpt lat="-27.3375131" lon="152.9607104">
<ele>16.117</ele>
<time>2016-01-02T08:05:30.999Z</time>
</trkpt>
<trkpt lat="-27.3375131" lon="152.9607104">
<ele>15.635</ele>
<time>2016-01-02T08:05:52.445Z</time>
</trkpt>
<trkpt lat="-27.3376977" lon="152.9606624">
<ele>15.888</ele>
<time>2016-01-02T08:05:57.295Z</time>
</trkpt>
<trkpt lat="-27.3378507" lon="152.9606422">
<ele>16.942</ele>
<time>2016-01-02T08:05:59.059Z</time>
</trkpt>
<trkpt lat="-27.3380803" lon="152.9606203">
<ele>18.848</ele>
<time>2016-01-02T08:06:01.181Z</time>
</trkpt>
<trkpt lat="-27.3384515" lon="152.9606188">
<ele>21.108</ele>
<time>2016-01-02T08:06:04.194Z</time>
</trkpt>
<trkpt lat="-27.3388457" lon="152.9606885">
<ele>22.922</ele>
<time>2016-01-02T08:06:07.107Z</time>
</trkpt>
<trkpt lat="-27.3391254" lon="152.9608069">
<ele>23.925</ele>
<time>2016-01-02T08:06:09.155Z</time>
</trkpt>
<trkpt lat="-27.3395228" lon="152.9609408">
<ele>24.278</ele>
<time>2016-01-02T08:06:11.938Z</time>
</trkpt>
<trkpt lat="-27.3398181" lon="152.9610265">
<ele>24.188</ele>
<time>2016-01-02T08:06:13.963Z</time>
</trkpt>
<trkpt lat="-27.3402230" lon="152.9611033">
<ele>23.615</ele>
<time>2016-01-02T08:06:16.696Z</time>
</trkpt>
<trkpt lat="-27.3410742" lon="152.9611833">
<ele>21.801</ele>
<time>2016-01-02T08:06:22.119Z</time>
</trkpt>
<trkpt lat="-27.3421095" lon="152.9612371">
<ele>20.490</ele>
<time>2016-01-02T08:06:27.829Z</time>
</trkpt>
<trkpt lat="-27.3424290" lon="152.9612761">
<ele>18.254</ele>
<time>2016-01-02T08:06:29.492Z</time>
</trkpt>
<trkpt lat="-27.3427902" lon="152.9613301">
<ele>15.802</ele>
<time>2016-01-02T08:06:31.427Z</time>
</trkpt>
<trkpt lat="-27.3433004" lon="152.9614062">
<ele>14.199</ele>
<time>2016-01-02T08:06:34.263Z</time>
</trkpt>
<trkpt lat="-27.3437637" lon="152.9615777">
<ele>13.628</ele>
<time>2016-01-02T08:06:37.103Z</time>
</trkpt>
<trkpt lat="-27.3441976" lon="152.9618148">
<ele>13.678</ele>
<time>2016-01-02T08:06:40.045Z</time>
</trkpt>
<trkpt lat="-27.3445803" lon="152.9620996">
<ele>14.337</ele>
<time>2016-01-02T08:06:42.938Z</time>
</trkpt>
<trkpt lat="-27.3448233" lon="152.9623049">
<ele>15.646</ele>
<time>2016-01-02T08:06:44.976Z</time>
</trkpt>
<trkpt lat="-27.3451135" lon="152.9626186">
<ele>16.905</ele>
<time>2016-01-02T08:06:47.968Z</time>
</trkpt>
<trkpt lat="-27.3452493" lon="152.9628010">
<ele>17.481</ele>
<time>2016-01-02T08:06:50.048Z</time>
</trkpt>
<trkpt lat="-27.3453271" lon="152.9629417">
<ele>17.341</ele>
<time>2016-01-02T08:06:51.776Z</time>
</trkpt>
<trkpt lat="-27.3454626" lon="152.9631081">
<ele>16.484</ele>
<time>2016-01-02T08:06:55.999Z</time>
</trkpt>
<trkpt lat="-27.3454626" lon="152.9631081">
<ele>15.268</ele>
<time>2016-01-02T08:06:58.999Z</time>
</trkpt>
<trkpt lat="-27.3454626" lon="152.9631081">
<ele>14.510</ele>
<time>2016-01-02T08:08:02.857Z</time>
</trkpt>
<trkpt lat="-27.3455647" lon="152.9632683">
<ele>14.644</ele>
<time>2016-01-02T08:08:08.631Z</time>
</trkpt>
<trkpt lat="-27.3457648" lon="152.9633361">
<ele>15.282</ele>
<time>2016-01-02T08:08:12.033Z</time>
</trkpt>
<trkpt lat="-27.3458935" lon="152.9632518">
<ele>15.855</ele>
<time>2016-01-02T08:08:13.711Z</time>
</trkpt>
<trkpt lat="-27.3461937" lon="152.9629526">
<ele>16.390</ele>
<time>2016-01-02T08:08:17.397Z</time>
</trkpt>
<trkpt lat="-27.3463942" lon="152.9627112">
<ele>17.615</ele>
<time>2016-01-02T08:08:19.619Z</time>
</trkpt>
<trkpt lat="-27.3467155" lon="152.9624068">
<ele>19.780</ele>
<time>2016-01-02T08:08:22.422Z</time>
</trkpt>
<trkpt lat="-27.3469581" lon="152.9621701">
<ele>21.988</ele>
<time>2016-01-02T08:08:24.360Z</time>
</trkpt>
<trkpt lat="-27.3473437" lon="152.9618103">
<ele>23.332</ele>
<time>2016-01-02T08:08:27.523Z</time>
</trkpt>
<trkpt lat="-27.3473437" lon="152.9618103">
<ele>23.332</ele>
<time>2016-01-02T08:08:27.523Z</time>
</trkpt>
<trkpt lat="-27.3479497" lon="152.9596343">
<ele>10.588</ele>
<time>2016-01-02T08:08:40.522Z</time>
</trkpt>
<trkpt lat="-27.3478962" lon="152.9593241">
<ele>10.583</ele>
<time>2016-01-02T08:08:42.587Z</time>
</trkpt>
<trkpt lat="-27.3478457" lon="152.9589350">
<ele>10.297</ele>
<time>2016-01-02T08:08:45.326Z</time>
</trkpt>
<trkpt lat="-27.3477839" lon="152.9584954">
<ele>9.559</ele>
<time>2016-01-02T08:08:48.475Z</time>
</trkpt>
<trkpt lat="-27.3477352" lon="152.9580840">
<ele>9.206</ele>
<time>2016-01-02T08:08:51.341Z</time>
</trkpt>
<trkpt lat="-27.3477399" lon="152.9577794">
<ele>10.126</ele>
<time>2016-01-02T08:08:53.394Z</time>
</trkpt>
<trkpt lat="-27.3477880" lon="152.9574771">
<ele>12.060</ele>
<time>2016-01-02T08:08:55.390Z</time>
</trkpt>
<trkpt lat="-27.3479457" lon="152.9570525">
<ele>14.420</ele>
<time>2016-01-02T08:08:58.319Z</time>
</trkpt>
<trkpt lat="-27.3481080" lon="152.9567897">
<ele>16.975</ele>
<time>2016-01-02T08:09:00.299Z</time>
</trkpt>
<trkpt lat="-27.3484146" lon="152.9564464">
<ele>19.646</ele>
<time>2016-01-02T08:09:03.284Z</time>
</trkpt>
<trkpt lat="-27.3486163" lon="152.9562281">
<ele>22.037</ele>
<time>2016-01-02T08:09:05.254Z</time>
</trkpt>
<trkpt lat="-27.3488075" lon="152.9560169">
<ele>23.446</ele>
<time>2016-01-02T08:09:07.222Z</time>
</trkpt>
<trkpt lat="-27.3489936" lon="152.9558173">
<ele>23.615</ele>
<time>2016-01-02T08:09:09.161Z</time>
</trkpt>
<trkpt lat="-27.3493854" lon="152.9555896">
<ele>22.948</ele>
<time>2016-01-02T08:09:12.316Z</time>
</trkpt>
<trkpt lat="-27.3496897" lon="152.9554670">
<ele>21.939</ele>
<time>2016-01-02T08:09:14.457Z</time>
</trkpt>
<trkpt lat="-27.3499404" lon="152.9553666">
<ele>20.690</ele>
<time>2016-01-02T08:09:16.227Z</time>
</trkpt>
<trkpt lat="-27.3503808" lon="152.9551907">
<ele>19.297</ele>
<time>2016-01-02T08:09:19.442Z</time>
</trkpt>
<trkpt lat="-27.3508154" lon="152.9550171">
<ele>18.524</ele>
<time>2016-01-02T08:09:22.520Z</time>
</trkpt>
<trkpt lat="-27.3511173" lon="152.9548966">
<ele>19.243</ele>
<time>2016-01-02T08:09:24.578Z</time>
</trkpt>
<trkpt lat="-27.3514966" lon="152.9547451">
<ele>21.446</ele>
<time>2016-01-02T08:09:27.313Z</time>
</trkpt>
<trkpt lat="-27.3518779" lon="152.9545937">
<ele>24.011</ele>
<time>2016-01-02T08:09:30.266Z</time>
</trkpt>
<trkpt lat="-27.3521593" lon="152.9544869">
<ele>25.199</ele>
<time>2016-01-02T08:09:32.389Z</time>
</trkpt>
<trkpt lat="-27.3525566" lon="152.9543418">
<ele>24.451</ele>
<time>2016-01-02T08:09:35.407Z</time>
</trkpt>
<trkpt lat="-27.3527863" lon="152.9542650">
<ele>22.752</ele>
<time>2016-01-02T08:09:37.325Z</time>
</trkpt>
<trkpt lat="-27.3531245" lon="152.9542439">
<ele>21.187</ele>
<time>2016-01-02T08:09:40.301Z</time>
</trkpt>
<trkpt lat="-27.3534620" lon="152.9543014">
<ele>20.627</ele>
<time>2016-01-02T08:09:43.360Z</time>
</trkpt>
<trkpt lat="-27.3536970" lon="152.9543842">
<ele>21.663</ele>
<time>2016-01-02T08:09:45.415Z</time>
</trkpt>
<trkpt lat="-27.3540475" lon="152.9545969">
<ele>23.928</ele>
<time>2016-01-02T08:09:48.606Z</time>
</trkpt>
<trkpt lat="-27.3543230" lon="152.9548420">
<ele>26.343</ele>
<time>2016-01-02T08:09:51.643Z</time>
</trkpt>
<trkpt lat="-27.3544482" lon="152.9549796">
<ele>27.461</ele>
<time>2016-01-02T08:09:53.441Z</time>
</trkpt>
<trkpt lat="-27.3545617" lon="152.9551059">
<ele>26.641</ele>
<time>2016-01-02T08:09:55.225Z</time>
</trkpt>
<trkpt lat="-27.3547160" lon="152.9554431">
<ele>24.945</ele>
<time>2016-01-02T08:09:58.469Z</time>
</trkpt>
<trkpt lat="-27.3548331" lon="152.9558607">
<ele>23.722</ele>
<time>2016-01-02T08:10:01.624Z</time>
</trkpt>
<trkpt lat="-27.3548526" lon="152.9561902">
<ele>23.209</ele>
<time>2016-01-02T08:10:03.833Z</time>
</trkpt>
<trkpt lat="-27.3548836" lon="152.9566353">
<ele>22.561</ele>
<time>2016-01-02T08:10:06.829Z</time>
</trkpt>
<trkpt lat="-27.3548986" lon="152.9570467">
<ele>20.871</ele>
<time>2016-01-02T08:10:09.904Z</time>
</trkpt>
<trkpt lat="-27.3548364" lon="152.9573076">
<ele>18.095</ele>
<time>2016-01-02T08:10:12.399Z</time>
</trkpt>
<trkpt lat="-27.3548905" lon="152.9574364">
<ele>14.978</ele>
<time>2016-01-02T08:10:14.373Z</time>
</trkpt>
<trkpt lat="-27.3549884" lon="152.9573720">
<ele>12.179</ele>
<time>2016-01-02T08:10:16.351Z</time>
</trkpt>
<trkpt lat="-27.3553490" lon="152.9573084">
<ele>10.093</ele>
<time>2016-01-02T08:10:20.545Z</time>
</trkpt>
<trkpt lat="-27.3555911" lon="152.9572500">
<ele>9.375</ele>
<time>2016-01-02T08:10:22.673Z</time>
</trkpt>
<trkpt lat="-27.3558014" lon="152.9571815">
<ele>10.276</ele>
<time>2016-01-02T08:10:24.588Z</time>
</trkpt>
<trkpt lat="-27.3559741" lon="152.9570941">
<ele>11.766</ele>
<time>2016-01-02T08:10:26.345Z</time>
</trkpt>
<trkpt lat="-27.3562487" lon="152.9568978">
<ele>12.700</ele>
<time>2016-01-02T08:10:29.413Z</time>
</trkpt>
<trkpt lat="-27.3564147" lon="152.9567685">
<ele>12.899</ele>
<time>2016-01-02T08:10:31.333Z</time>
</trkpt>
<trkpt lat="-27.3565760" lon="152.9566428">
<ele>12.700</ele>
<time>2016-01-02T08:10:33.441Z</time>
</trkpt>
<trkpt lat="-27.3566732" lon="152.9565670">
<ele>12.406</ele>
<time>2016-01-02T08:10:35.000Z</time>
</trkpt>
<trkpt lat="-27.3566732" lon="152.9565670">
<ele>12.177</ele>
<time>2016-01-02T08:10:39.999Z</time>
</trkpt>
<trkpt lat="-27.3566732" lon="152.9565670">
<ele>12.083</ele>
<time>2016-01-02T08:10:40.099Z</time>
</trkpt>
<trkpt lat="-27.3568666" lon="152.9564207">
<ele>12.123</ele>
<time>2016-01-02T08:13:04.000Z</time>
</trkpt>
<trkpt lat="-27.3568666" lon="152.9564207">
<ele>12.215</ele>
<time>2016-01-02T08:13:08.000Z</time>
</trkpt>
<trkpt lat="-27.3568666" lon="152.9564207">
<ele>12.250</ele>
<time>2016-01-02T08:13:08.100Z</time>
</trkpt>
<trkpt lat="-27.3564943" lon="152.9567438">
<ele>12.213</ele>
<time>2016-01-02T08:13:58.000Z</time>
</trkpt>
</trkseg>
</trk>
<extensions>
<fpdata xmlns="http://www.motionx.com/GPX-Extensions/1/1" sfv="10" origin="MotionXGPSFull 24.1 Build 5049R64">
<bin enc="base64">
RgIAAAACAAAAU5awgtWh1UEBAAAA7gU7uuGh1UEAACw+i2nCQA4OAABRxesAnn8FdbwQ
R0Ak15lkz2woQAAAAAATAAAATWFybm8ncyBSdW4gMi0xLTE2ABQAAAAyIEphbiAyMDE2
ICAyOjQ2IHBtAAAAAAAUBju64aHVQcGOX8zhodVBQjqUAKaMdbUznJlALAAAAAEAAACU
E9Dpmx5jQAMcEAVWWzvAnn8FdbwQR0AAAAAAAAAkQAAAAAAAADBAAAAAAAAMp0AAAAAA
AAAAAAAAAAAAAAAAAAAAACTXmWTPbChAAQAAAGibi0dJkpq/AQAAAAEAAACS4WiBBQi9
P2Sw/+KNMb+/AQAAAAEAAAACAAAAQdxkt18PV0AAAAAAAAAAAAEAAAAXAAAATWFybm8n
c19SdW5fMi0xLTE2LmdweAABAAAAg8Km0eGh1UEKAAAAAQAAABMAAABNYXJubydzIFJ1
biAyLTEtMTYAAAAAAAwAAAAAAAAAAAAAABwAAACfAYCx4aHVQQAAAAAAAAAAAAAAAAAA
AAD/JUS8AgAAAAAAAAAAAAAAAQAAACcAAAAyNC4xIEJ1aWxkIDUwNDlSNjQsIE1YQUUg
OC4xIGIuIDYyNlI2NAAAAAAAl2sAAAEAAAABJQAAAApWh1bmhodWBNzweITVodVB3PB4
hNWh1UEAAABIrIUcQAAAAAACeJawgtWh1UFv9cjo1aHVQQAAwL0XhnlAAAAAAAPCbGUM
1qHVQcJsZQzWodVBAAB4/I3OgEAAAAAABG4TRw7WodVBbhNHDtah1UEAAJDSwgqBQAAA
AAAC8lsJ7NWh1UEJiokb1qHVQQAAwKERs4JAAAAAAALGqUkp1qHVQeTWxjTWodVBAACA
RbcihEAAAAAAAr0dSDfWodVBDDwKWdah1UEAAGAP+1qIQAAAAAACaQEHYNah1UFClkiP
1qHVQQAAgKotQ45AAAAAAAJwXUqU1qHVQQZ/R5zWodVBAABA3dFCj0AAAAAAAkILi5/W
odVBoKkNpNah1UEAAACpJdOPQAAAAAACcv8Jp9ah1UEQrYiv1qHVQQAAYK59cZBAAAAA
AAPBquTU1qHVQcGq5NTWodVBAAA8NjpjkUAAAAAABBstDNfWodVBGy0M19ah1UEAADBY
soWRQAAAAAACoOLIxdah1UHu7sfa1qHVQQAAQHNuwZFAAAAAAAJLsIs416HVQeLlBj3X
odVBAACwzCEJkkAAAAAAAq4PDD/XodVBFamJi9eh1UEAACBj+9CWQAAAAAADCTXftteh
1UEJNd+216HVQQAAqNlg1phAAAAAAATysAm516HVQfKwCbnXodVBAABAmAj5mEAAAAAA
AsLdiJbXodVB0czI19eh1UEAABBU+uSaQAAAAAAC1v+H4deh1UHG30Wn2qHVQQAAxBQ2
0LFAAAAAAAKIn4iv2qHVQQ76B7faodVBAADcfjPusUAAAAAAAmsOSnjcodVBgPMHxNyh
1UEAADATKx2zQAAAAAACIQYJzdyh1UERGsbH3aHVQQAA8GIfCLdAAAAAAAIaM4jX3aHV
QQCSSOTfodVBAACI3iA7v0AAAAAAAgAcCebfodVBumzLPOCh1UEAALgQFUvAQAAAAAAC
rrhKT+Ch1UEmVYl14KHVQQAAqEmSl8BAAAAAAAIkf0t34KHVQUrTh4jgodVBAAD08Qq6
wEAAAAAAAu5gCIrgodVBrmLIkeCh1UEAAHT1isnAQAAAAAACPl9ImOCh1UHde8vY4KHV
QQAAsi6RSsFAAAAAAAKVCwra4KHVQeUoiezgodVBAABSaY9vwUAAAAAAAg4vjPXgodVB
Rx7IMuGh1UEAAMRHB+rBQAAAAAACzjIMOeGh1UHYSMxI4aHVQQAA2HOHCcJAAAAAAAPd
tdxf4aHVQd213F/hodVBAIDyMKQVwkAAAAAABBMMCWLhodVBEwwJYuGh1UEAAEbd/BnC
QAAAAAACdVfOWeGh1UF3uweA4aHVQQAA3Dv6VcJAAAAAAAL4HAqk4aHVQQg9B6XhodVB
AAD8e/RXwkAAAAAAAUrQybDhodVBYjGVueGh1UEAACw+i2nCQAAAAAAAAAAA
</bin>
</fpdata>
</extensions>
</gpx>